﻿<?xml version="1.0" encoding="utf-8"?><gpx creator="Garmin Desktop App" version="1.1" xsi:schemaLocation="http://www.topografix.com/GPX/1/1 http://www.topografix.com/GPX/1/1/gpx.xsd http://www.garmin.com/xmlschemas/WaypointExtension/v1 http://www8.garmin.com/xmlschemas/WaypointExtensionv1.xsd http://www.garmin.com/xmlschemas/TrackPointExtension/v1 http://www.garmin.com/xmlschemas/TrackPointExtensionv1.xsd http://www.garmin.com/xmlschemas/GpxExtensions/v3 http://www8.garmin.com/xmlschemas/GpxExtensionsv3.xsd http://www.garmin.com/xmlschemas/ActivityExtension/v1 http://www8.garmin.com/xmlschemas/ActivityExtensionv1.xsd http://www.garmin.com/xmlschemas/AdventuresExtensions/v1 http://www8.garmin.com/xmlschemas/AdventuresExtensionv1.xsd http://www.garmin.com/xmlschemas/PressureExtension/v1 http://www.garmin.com/xmlschemas/PressureExtensionv1.xsd http://www.garmin.com/xmlschemas/TripExtensions/v1 http://www.garmin.com/xmlschemas/TripExtensionsv1.xsd http://www.garmin.com/xmlschemas/TripMetaDataExtensions/v1 http://www.garmin.com/xmlschemas/TripMetaDataExtensionsv1.xsd http://www.garmin.com/xmlschemas/ViaPointTransportationModeExtensions/v1 http://www.garmin.com/xmlschemas/ViaPointTransportationModeExtensionsv1.xsd http://www.garmin.com/xmlschemas/CreationTimeExtension/v1 http://www.garmin.com/xmlschemas/CreationTimeExtensionsv1.xsd http://www.garmin.com/xmlschemas/AccelerationExtension/v1 http://www.garmin.com/xmlschemas/AccelerationExtensionv1.xsd http://www.garmin.com/xmlschemas/PowerExtension/v1 http://www.garmin.com/xmlschemas/PowerExtensionv1.xsd http://www.garmin.com/xmlschemas/VideoExtension/v1 http://www.garmin.com/xmlschemas/VideoExtensionv1.xsd" xmlns="http://www.topografix.com/GPX/1/1" xmlns:xsi="http://www.w3.org/2001/XMLSchema-instance" xmlns:wptx1="http://www.garmin.com/xmlschemas/WaypointExtension/v1" xmlns:gpxtrx="http://www.garmin.com/xmlschemas/GpxExtensions/v3" xmlns:gpxtpx="http://www.garmin.com/xmlschemas/TrackPointExtension/v1" xmlns:gpxx="http://www.garmin.com/xmlschemas/GpxExtensions/v3" xmlns:trp="http://www.garmin.com/xmlschemas/TripExtensions/v1" xmlns:adv="http://www.garmin.com/xmlschemas/AdventuresExtensions/v1" xmlns:prs="http://www.garmin.com/xmlschemas/PressureExtension/v1" xmlns:tmd="http://www.garmin.com/xmlschemas/TripMetaDataExtensions/v1" xmlns:vptm="http://www.garmin.com/xmlschemas/ViaPointTransportationModeExtensions/v1" xmlns:ctx="http://www.garmin.com/xmlschemas/CreationTimeExtension/v1" xmlns:gpxacc="http://www.garmin.com/xmlschemas/AccelerationExtension/v1" xmlns:gpxpx="http://www.garmin.com/xmlschemas/PowerExtension/v1" xmlns:vidx1="http://www.garmin.com/xmlschemas/VideoExtension/v1">

  <metadata>
    <link href="http://www.garmin.com">
      <text>Garmin International</text>
    </link>
    <time>2021-01-23T07:23:21Z</time>
    <bounds maxlat="45.94320148229599" maxlon="9.381863046437502" minlat="45.926929106935859" minlon="9.328061789274216" />
  </metadata>

  <trk>
    <name>rifugio elisa2017-05-14</name>
    <extensions>
      <gpxx:TrackExtension>
        <gpxx:DisplayColor>Yellow</gpxx:DisplayColor>
      </gpxx:TrackExtension>
    </extensions>
    <trkseg>
      <trkpt lat="45.927305873483419" lon="9.328814316540957">
        <ele>395.72000000000003</ele>
        <time>2017-05-14T07:14:36Z</time>
      </trkpt>
      <trkpt lat="45.927306627854705" lon="9.32881155051291">
        <ele>395.72000000000003</ele>
        <time>2017-05-14T07:14:53Z</time>
      </trkpt>
      <trkpt lat="45.927303107455373" lon="9.328817250207067">
        <ele>395.72000000000003</ele>
        <time>2017-05-14T07:15:09Z</time>
      </trkpt>
      <trkpt lat="45.927314171567559" lon="9.328815490007401">
        <ele>395.72000000000003</ele>
        <time>2017-05-14T07:15:12Z</time>
      </trkpt>
      <trkpt lat="45.927384914830327" lon="9.328812472522259">
        <ele>396.68000000000001</ele>
        <time>2017-05-14T07:15:21Z</time>
      </trkpt>
      <trkpt lat="45.927417855709791" lon="9.328801659867168">
        <ele>396.68000000000001</ele>
        <time>2017-05-14T07:15:31Z</time>
      </trkpt>
      <trkpt lat="45.927400840446353" lon="9.328822614625096">
        <ele>396.68000000000001</ele>
        <time>2017-05-14T07:15:46Z</time>
      </trkpt>
      <trkpt lat="45.927412575110793" lon="9.328855387866497">
        <ele>396.68000000000001</ele>
        <time>2017-05-14T07:16:04Z</time>
      </trkpt>
      <trkpt lat="45.927406959235668" lon="9.328839965164661">
        <ele>396.19999999999999</ele>
        <time>2017-05-14T07:16:25Z</time>
      </trkpt>
      <trkpt lat="45.927421376109123" lon="9.32880568318069">
        <ele>396.19999999999999</ele>
        <time>2017-05-14T07:16:37Z</time>
      </trkpt>
      <trkpt lat="45.927403522655368" lon="9.32878372259438">
        <ele>396.19999999999999</ele>
        <time>2017-05-14T07:16:54Z</time>
      </trkpt>
      <trkpt lat="45.92740804888308" lon="9.328761175274849">
        <ele>396.19999999999999</ele>
        <time>2017-05-14T07:17:00Z</time>
      </trkpt>
      <trkpt lat="45.927471164613962" lon="9.328767880797386">
        <ele>395.72000000000003</ele>
        <time>2017-05-14T07:17:09Z</time>
      </trkpt>
      <trkpt lat="45.927474433556199" lon="9.328762013465166">
        <ele>395.72000000000003</ele>
        <time>2017-05-14T07:17:23Z</time>
      </trkpt>
      <trkpt lat="45.927478456869721" lon="9.328773412853479">
        <ele>395.24000000000001</ele>
        <time>2017-05-14T07:17:32Z</time>
      </trkpt>
      <trkpt lat="45.927488263696432" lon="9.328773245215416">
        <ele>395.72000000000003</ele>
        <time>2017-05-14T07:17:44Z</time>
      </trkpt>
      <trkpt lat="45.92753117904067" lon="9.328808784484863">
        <ele>395.72000000000003</ele>
        <time>2017-05-14T07:17:58Z</time>
      </trkpt>
      <trkpt lat="45.927544590085745" lon="9.328859662637115">
        <ele>396.19999999999999</ele>
        <time>2017-05-14T07:18:06Z</time>
      </trkpt>
      <trkpt lat="45.927541572600603" lon="9.328864021226764">
        <ele>393.80000000000001</ele>
        <time>2017-05-14T07:18:08Z</time>
      </trkpt>
      <trkpt lat="45.927533358335495" lon="9.328873576596379">
        <ele>396.19999999999999</ele>
        <time>2017-05-14T07:18:21Z</time>
      </trkpt>
      <trkpt lat="45.927557414397597" lon="9.328888161107898">
        <ele>397.16000000000003</ele>
        <time>2017-05-14T07:18:34Z</time>
      </trkpt>
      <trkpt lat="45.927528161555529" lon="9.329044315963984">
        <ele>398.12</ele>
        <time>2017-05-14T07:18:46Z</time>
      </trkpt>
      <trkpt lat="45.927519695833325" lon="9.329173732548952">
        <ele>399.07999999999998</ele>
        <time>2017-05-14T07:18:55Z</time>
      </trkpt>
      <trkpt lat="45.927517600357533" lon="9.32934413664043">
        <ele>400.52999999999997</ele>
        <time>2017-05-14T07:19:07Z</time>
      </trkpt>
      <trkpt lat="45.927538136020303" lon="9.329486545175314">
        <ele>401.97000000000003</ele>
        <time>2017-05-14T07:19:18Z</time>
      </trkpt>
      <trkpt lat="45.927553391084075" lon="9.329612776637077">
        <ele>402.44999999999999</ele>
        <time>2017-05-14T07:19:28Z</time>
      </trkpt>
      <trkpt lat="45.927570154890418" lon="9.329725429415703">
        <ele>403.41000000000003</ele>
        <time>2017-05-14T07:19:36Z</time>
      </trkpt>
      <trkpt lat="45.927572418004274" lon="9.329734733328223">
        <ele>403.41000000000003</ele>
        <time>2017-05-14T07:19:37Z</time>
      </trkpt>
      <trkpt lat="45.927580883726478" lon="9.329785192385316">
        <ele>403.41000000000003</ele>
        <time>2017-05-14T07:19:41Z</time>
      </trkpt>
      <trkpt lat="45.927580464631319" lon="9.329830538481474">
        <ele>403.88999999999999</ele>
        <time>2017-05-14T07:19:44Z</time>
      </trkpt>
      <trkpt lat="45.927565796300769" lon="9.32991829700768">
        <ele>403.88999999999999</ele>
        <time>2017-05-14T07:19:52Z</time>
      </trkpt>
      <trkpt lat="45.927510811015964" lon="9.330006558448076">
        <ele>404.37</ele>
        <time>2017-05-14T07:20:01Z</time>
      </trkpt>
      <trkpt lat="45.927527826279402" lon="9.330042768269777">
        <ele>404.85000000000002</ele>
        <time>2017-05-14T07:20:04Z</time>
      </trkpt>
      <trkpt lat="45.927521539852023" lon="9.330211244523525">
        <ele>404.85000000000002</ele>
        <time>2017-05-14T07:20:15Z</time>
      </trkpt>
      <trkpt lat="45.927519528195262" lon="9.330337643623352">
        <ele>405.81</ele>
        <time>2017-05-14T07:20:25Z</time>
      </trkpt>
      <trkpt lat="45.927527993917465" lon="9.330284669995308">
        <ele>405.81</ele>
        <time>2017-05-14T07:20:34Z</time>
      </trkpt>
      <trkpt lat="45.927534783259034" lon="9.330277880653739">
        <ele>404.85000000000002</ele>
        <time>2017-05-14T07:20:38Z</time>
      </trkpt>
      <trkpt lat="45.927561605349183" lon="9.330377206206322">
        <ele>404.37</ele>
        <time>2017-05-14T07:20:44Z</time>
      </trkpt>
      <trkpt lat="45.927652381360531" lon="9.330449625849724">
        <ele>404.37</ele>
        <time>2017-05-14T07:20:56Z</time>
      </trkpt>
      <trkpt lat="45.927661349996924" lon="9.330449961125851">
        <ele>404.85000000000002</ele>
        <time>2017-05-14T07:20:57Z</time>
      </trkpt>
      <trkpt lat="45.927775679156184" lon="9.33048801496625">
        <ele>405.32999999999998</ele>
        <time>2017-05-14T07:21:09Z</time>
      </trkpt>
      <trkpt lat="45.927844913676381" lon="9.33059555478394">
        <ele>405.81</ele>
        <time>2017-05-14T07:21:21Z</time>
      </trkpt>
      <trkpt lat="45.927854217588902" lon="9.330661268904805">
        <ele>406.29000000000002</ele>
        <time>2017-05-14T07:21:26Z</time>
      </trkpt>
      <trkpt lat="45.927854049950838" lon="9.330719187855721">
        <ele>407.25999999999999</ele>
        <time>2017-05-14T07:21:31Z</time>
      </trkpt>
      <trkpt lat="45.927797388285398" lon="9.33087551034987">
        <ele>407.74000000000001</ele>
        <time>2017-05-14T07:21:43Z</time>
      </trkpt>
      <trkpt lat="45.927701750770211" lon="9.331028815358877">
        <ele>408.22000000000003</ele>
        <time>2017-05-14T07:21:56Z</time>
      </trkpt>
      <trkpt lat="45.927645927295089" lon="9.331169631332159">
        <ele>409.18000000000001</ele>
        <time>2017-05-14T07:22:06Z</time>
      </trkpt>
      <trkpt lat="45.927640898153186" lon="9.331183629110456">
        <ele>409.18000000000001</ele>
        <time>2017-05-14T07:22:07Z</time>
      </trkpt>
      <trkpt lat="45.927638802677393" lon="9.331373060122132">
        <ele>410.13999999999999</ele>
        <time>2017-05-14T07:22:20Z</time>
      </trkpt>
      <trkpt lat="45.927638132125139" lon="9.331405414268374">
        <ele>410.13999999999999</ele>
        <time>2017-05-14T07:22:22Z</time>
      </trkpt>
      <trkpt lat="45.927669648081064" lon="9.331557545810938">
        <ele>411.10000000000002</ele>
        <time>2017-05-14T07:22:33Z</time>
      </trkpt>
      <trkpt lat="45.927688088268042" lon="9.331576908007264">
        <ele>411.10000000000002</ele>
        <time>2017-05-14T07:22:35Z</time>
      </trkpt>
      <trkpt lat="45.927751958370209" lon="9.331675730645657">
        <ele>412.54000000000002</ele>
        <time>2017-05-14T07:22:45Z</time>
      </trkpt>
      <trkpt lat="45.927751790732145" lon="9.331730799749494">
        <ele>412.54000000000002</ele>
        <time>2017-05-14T07:22:49Z</time>
      </trkpt>
      <trkpt lat="45.927737625315785" lon="9.331883685663343">
        <ele>413.5</ele>
        <time>2017-05-14T07:23:00Z</time>
      </trkpt>
      <trkpt lat="45.927675096318126" lon="9.332058280706406">
        <ele>413.98000000000002</ele>
        <time>2017-05-14T07:23:13Z</time>
      </trkpt>
      <trkpt lat="45.927739217877388" lon="9.332127431407571">
        <ele>414.47000000000003</ele>
        <time>2017-05-14T07:23:23Z</time>
      </trkpt>
      <trkpt lat="45.92777056619525" lon="9.332129023969173">
        <ele>414.94999999999999</ele>
        <time>2017-05-14T07:23:26Z</time>
      </trkpt>
      <trkpt lat="45.92788053676486" lon="9.332103710621595">
        <ele>415.91000000000003</ele>
        <time>2017-05-14T07:23:38Z</time>
      </trkpt>
      <trkpt lat="45.927954213693738" lon="9.332117373123765">
        <ele>416.38999999999999</ele>
        <time>2017-05-14T07:23:47Z</time>
      </trkpt>
      <trkpt lat="45.928065609186888" lon="9.332219213247299">
        <ele>417.35000000000002</ele>
        <time>2017-05-14T07:23:59Z</time>
      </trkpt>
      <trkpt lat="45.928145740181208" lon="9.33235315605998">
        <ele>418.31</ele>
        <time>2017-05-14T07:24:11Z</time>
      </trkpt>
      <trkpt lat="45.928246658295393" lon="9.332460863515735">
        <ele>419.26999999999998</ele>
        <time>2017-05-14T07:24:22Z</time>
      </trkpt>
      <trkpt lat="45.928315222263336" lon="9.332553148269653">
        <ele>420.70999999999998</ele>
        <time>2017-05-14T07:24:31Z</time>
      </trkpt>
      <trkpt lat="45.928356628865004" lon="9.33259011246264">
        <ele>421.68000000000001</ele>
        <time>2017-05-14T07:24:39Z</time>
      </trkpt>
      <trkpt lat="45.928415386006236" lon="9.332705363631249">
        <ele>423.12</ele>
        <time>2017-05-14T07:24:50Z</time>
      </trkpt>
      <trkpt lat="45.928487973287702" lon="9.332838132977486">
        <ele>424.56</ele>
        <time>2017-05-14T07:25:01Z</time>
      </trkpt>
      <trkpt lat="45.928544970229268" lon="9.332945169880986">
        <ele>425.04000000000002</ele>
        <time>2017-05-14T07:25:11Z</time>
      </trkpt>
      <trkpt lat="45.928635327145457" lon="9.333038544282317">
        <ele>426.48000000000002</ele>
        <time>2017-05-14T07:25:23Z</time>
      </trkpt>
      <trkpt lat="45.928689558058977" lon="9.333098223432899">
        <ele>427.44</ele>
        <time>2017-05-14T07:25:32Z</time>
      </trkpt>
      <trkpt lat="45.928721912205219" lon="9.333130409941077">
        <ele>428.39999999999998</ele>
        <time>2017-05-14T07:25:37Z</time>
      </trkpt>
      <trkpt lat="45.928808664903045" lon="9.333211630582809">
        <ele>429.85000000000002</ele>
        <time>2017-05-14T07:25:48Z</time>
      </trkpt>
      <trkpt lat="45.928905392065644" lon="9.333303244784474">
        <ele>431.29000000000002</ele>
        <time>2017-05-14T07:26:00Z</time>
      </trkpt>
      <trkpt lat="45.928924502804875" lon="9.333319840952754">
        <ele>431.29000000000002</ele>
        <time>2017-05-14T07:26:02Z</time>
      </trkpt>
      <trkpt lat="45.929013686254621" lon="9.333435678854585">
        <ele>433.69</ele>
        <time>2017-05-14T07:26:14Z</time>
      </trkpt>
      <trkpt lat="45.92909088358283" lon="9.33353416621685">
        <ele>434.64999999999998</ele>
        <time>2017-05-14T07:26:24Z</time>
      </trkpt>
      <trkpt lat="45.929151233285666" lon="9.33360306546092">
        <ele>436.10000000000002</ele>
        <time>2017-05-14T07:26:33Z</time>
      </trkpt>
      <trkpt lat="45.929235639050603" lon="9.333666516467929">
        <ele>436.57999999999998</ele>
        <time>2017-05-14T07:26:44Z</time>
      </trkpt>
      <trkpt lat="45.929267155006528" lon="9.333729213103652">
        <ele>437.06</ele>
        <time>2017-05-14T07:26:49Z</time>
      </trkpt>
      <trkpt lat="45.929265562444925" lon="9.333815714344382">
        <ele>438.01999999999998</ele>
        <time>2017-05-14T07:26:55Z</time>
      </trkpt>
      <trkpt lat="45.929263886064291" lon="9.333887463435531">
        <ele>438.01999999999998</ele>
        <time>2017-05-14T07:27:05Z</time>
      </trkpt>
      <trkpt lat="45.92926288023591" lon="9.333912441506982">
        <ele>437.54000000000002</ele>
        <time>2017-05-14T07:27:20Z</time>
      </trkpt>
      <trkpt lat="45.929257348179817" lon="9.333955105394125">
        <ele>438.01999999999998</ele>
        <time>2017-05-14T07:27:30Z</time>
      </trkpt>
      <trkpt lat="45.92926137149334" lon="9.333962230011821">
        <ele>438.01999999999998</ele>
        <time>2017-05-14T07:27:31Z</time>
      </trkpt>
      <trkpt lat="45.929274698719382" lon="9.333984777331352">
        <ele>438.5</ele>
        <time>2017-05-14T07:27:35Z</time>
      </trkpt>
      <trkpt lat="45.929270340129733" lon="9.334038337692618">
        <ele>438.5</ele>
        <time>2017-05-14T07:27:39Z</time>
      </trkpt>
      <trkpt lat="45.929261706769466" lon="9.334121821448207">
        <ele>438.01999999999998</ele>
        <time>2017-05-14T07:27:45Z</time>
      </trkpt>
      <trkpt lat="45.929277129471302" lon="9.334207568317652">
        <ele>438.5</ele>
        <time>2017-05-14T07:27:54Z</time>
      </trkpt>
      <trkpt lat="45.929288864135742" lon="9.334236234426498">
        <ele>438.5</ele>
        <time>2017-05-14T07:27:57Z</time>
      </trkpt>
      <trkpt lat="45.9293083101511" lon="9.334273198619485">
        <ele>438.98000000000002</ele>
        <time>2017-05-14T07:28:08Z</time>
      </trkpt>
      <trkpt lat="45.929338652640581" lon="9.33433354832232">
        <ele>438.98000000000002</ele>
        <time>2017-05-14T07:28:19Z</time>
      </trkpt>
      <trkpt lat="45.929340412840247" lon="9.334378642961383">
        <ele>438.98000000000002</ele>
        <time>2017-05-14T07:28:22Z</time>
      </trkpt>
      <trkpt lat="45.929322810843587" lon="9.334476878866553">
        <ele>438.5</ele>
        <time>2017-05-14T07:28:30Z</time>
      </trkpt>
      <trkpt lat="45.929323732852936" lon="9.334532199427486">
        <ele>438.5</ele>
        <time>2017-05-14T07:28:34Z</time>
      </trkpt>
      <trkpt lat="45.929245194420218" lon="9.334706207737327">
        <ele>437.06</ele>
        <time>2017-05-14T07:28:47Z</time>
      </trkpt>
      <trkpt lat="45.929223736748099" lon="9.334822883829474">
        <ele>437.06</ele>
        <time>2017-05-14T07:28:55Z</time>
      </trkpt>
      <trkpt lat="45.9292047098279" lon="9.334927573800087">
        <ele>436.10000000000002</ele>
        <time>2017-05-14T07:29:03Z</time>
      </trkpt>
      <trkpt lat="45.929187443107367" lon="9.33503033593297">
        <ele>436.10000000000002</ele>
        <time>2017-05-14T07:29:10Z</time>
      </trkpt>
      <trkpt lat="45.929164309054613" lon="9.335163692012429">
        <ele>435.61000000000001</ele>
        <time>2017-05-14T07:29:19Z</time>
      </trkpt>
      <trkpt lat="45.929163387045264" lon="9.335179533809423">
        <ele>435.61000000000001</ele>
        <time>2017-05-14T07:29:20Z</time>
      </trkpt>
      <trkpt lat="45.929146204143763" lon="9.335288498550654">
        <ele>435.61000000000001</ele>
        <time>2017-05-14T07:29:28Z</time>
      </trkpt>
      <trkpt lat="45.929142683744431" lon="9.335329234600067">
        <ele>435.61000000000001</ele>
        <time>2017-05-14T07:29:30Z</time>
      </trkpt>
      <trkpt lat="45.929140839725733" lon="9.335347507148981">
        <ele>435.13</ele>
        <time>2017-05-14T07:29:31Z</time>
      </trkpt>
      <trkpt lat="45.929151149466634" lon="9.335391260683537">
        <ele>434.64999999999998</ele>
        <time>2017-05-14T07:29:34Z</time>
      </trkpt>
      <trkpt lat="45.929198507219553" lon="9.335524532943964">
        <ele>434.17000000000002</ele>
        <time>2017-05-14T07:29:43Z</time>
      </trkpt>
      <trkpt lat="45.929216360673308" lon="9.335607849061489">
        <ele>434.17000000000002</ele>
        <time>2017-05-14T07:29:49Z</time>
      </trkpt>
      <trkpt lat="45.929215271025896" lon="9.33572905138135">
        <ele>433.69</ele>
        <time>2017-05-14T07:29:57Z</time>
      </trkpt>
      <trkpt lat="45.929212421178818" lon="9.335746737197042">
        <ele>434.17000000000002</ele>
        <time>2017-05-14T07:30:05Z</time>
      </trkpt>
      <trkpt lat="45.9292012732476" lon="9.335814630612731">
        <ele>433.69</ele>
        <time>2017-05-14T07:30:14Z</time>
      </trkpt>
      <trkpt lat="45.929207308217883" lon="9.335864251479507">
        <ele>433.20999999999998</ele>
        <time>2017-05-14T07:30:18Z</time>
      </trkpt>
      <trkpt lat="45.929200854152441" lon="9.335892330855131">
        <ele>433.20999999999998</ele>
        <time>2017-05-14T07:30:20Z</time>
      </trkpt>
      <trkpt lat="45.929204458370805" lon="9.335931977257133">
        <ele>433.20999999999998</ele>
        <time>2017-05-14T07:30:22Z</time>
      </trkpt>
      <trkpt lat="45.929258270189166" lon="9.336055107414722">
        <ele>432.73000000000002</ele>
        <time>2017-05-14T07:30:32Z</time>
      </trkpt>
      <trkpt lat="45.929261455312371" lon="9.336068853735924">
        <ele>432.73000000000002</ele>
        <time>2017-05-14T07:30:33Z</time>
      </trkpt>
      <trkpt lat="45.929236812517047" lon="9.336205394938588">
        <ele>432.25</ele>
        <time>2017-05-14T07:30:42Z</time>
      </trkpt>
      <trkpt lat="45.929204290732741" lon="9.336212268099189">
        <ele>432.73000000000002</ele>
        <time>2017-05-14T07:30:50Z</time>
      </trkpt>
      <trkpt lat="45.929209906607866" lon="9.336241269484162">
        <ele>432.25</ele>
        <time>2017-05-14T07:30:59Z</time>
      </trkpt>
      <trkpt lat="45.929225580766797" lon="9.336287537589669">
        <ele>432.25</ele>
        <time>2017-05-14T07:31:03Z</time>
      </trkpt>
      <trkpt lat="45.929252067580819" lon="9.336331710219383">
        <ele>432.25</ele>
        <time>2017-05-14T07:31:07Z</time>
      </trkpt>
      <trkpt lat="45.929248295724392" lon="9.336366076022387">
        <ele>432.25</ele>
        <time>2017-05-14T07:31:12Z</time>
      </trkpt>
      <trkpt lat="45.929326666519046" lon="9.336447715759277">
        <ele>432.25</ele>
        <time>2017-05-14T07:31:22Z</time>
      </trkpt>
      <trkpt lat="45.929345106706023" lon="9.33652893640101">
        <ele>432.25</ele>
        <time>2017-05-14T07:31:30Z</time>
      </trkpt>
      <trkpt lat="45.929366732016206" lon="9.336633291095495">
        <ele>432.25</ele>
        <time>2017-05-14T07:31:38Z</time>
      </trkpt>
      <trkpt lat="45.929355751723051" lon="9.336660197004676">
        <ele>431.29000000000002</ele>
        <time>2017-05-14T07:31:40Z</time>
      </trkpt>
      <trkpt lat="45.929318703711033" lon="9.336835546419025">
        <ele>430.81</ele>
        <time>2017-05-14T07:31:52Z</time>
      </trkpt>
      <trkpt lat="45.929302526637912" lon="9.336986420676112">
        <ele>429.37</ele>
        <time>2017-05-14T07:32:02Z</time>
      </trkpt>
      <trkpt lat="45.929300514981151" lon="9.337025145068765">
        <ele>429.37</ele>
        <time>2017-05-14T07:32:05Z</time>
      </trkpt>
      <trkpt lat="45.929223233833909" lon="9.337204517796636">
        <ele>428.39999999999998</ele>
        <time>2017-05-14T07:32:16Z</time>
      </trkpt>
      <trkpt lat="45.929209990426898" lon="9.337255731225014">
        <ele>428.39999999999998</ele>
        <time>2017-05-14T07:32:19Z</time>
      </trkpt>
      <trkpt lat="45.929176211357117" lon="9.337321277707815">
        <ele>427.92000000000002</ele>
        <time>2017-05-14T07:32:23Z</time>
      </trkpt>
      <trkpt lat="45.929172858595848" lon="9.337353883311153">
        <ele>427.92000000000002</ele>
        <time>2017-05-14T07:32:25Z</time>
      </trkpt>
      <trkpt lat="45.929178725928068" lon="9.337386069819331">
        <ele>427.92000000000002</ele>
        <time>2017-05-14T07:32:27Z</time>
      </trkpt>
      <trkpt lat="45.929135978221893" lon="9.337526885792613">
        <ele>428.88999999999999</ele>
        <time>2017-05-14T07:32:35Z</time>
      </trkpt>
      <trkpt lat="45.929127428680658" lon="9.337560161948204">
        <ele>427.44</ele>
        <time>2017-05-14T07:32:37Z</time>
      </trkpt>
      <trkpt lat="45.929113933816552" lon="9.337705168873072">
        <ele>427.44</ele>
        <time>2017-05-14T07:32:45Z</time>
      </trkpt>
      <trkpt lat="45.929121477529407" lon="9.337769625708461">
        <ele>428.39999999999998</ele>
        <time>2017-05-14T07:32:49Z</time>
      </trkpt>
      <trkpt lat="45.929102953523397" lon="9.337903652340174">
        <ele>429.85000000000002</ele>
        <time>2017-05-14T07:32:58Z</time>
      </trkpt>
      <trkpt lat="45.929109575226903" lon="9.337935671210289">
        <ele>429.85000000000002</ele>
        <time>2017-05-14T07:33:00Z</time>
      </trkpt>
      <trkpt lat="45.929150059819221" lon="9.338050084188581">
        <ele>429.85000000000002</ele>
        <time>2017-05-14T07:33:07Z</time>
      </trkpt>
      <trkpt lat="45.929170846939087" lon="9.338177489116788">
        <ele>429.37</ele>
        <time>2017-05-14T07:33:15Z</time>
      </trkpt>
      <trkpt lat="45.929183922708035" lon="9.338224092498422">
        <ele>429.37</ele>
        <time>2017-05-14T07:33:18Z</time>
      </trkpt>
      <trkpt lat="45.929213343188167" lon="9.338286956772208">
        <ele>429.37</ele>
        <time>2017-05-14T07:33:22Z</time>
      </trkpt>
      <trkpt lat="45.929219042882323" lon="9.338340349495411">
        <ele>429.37</ele>
        <time>2017-05-14T07:33:25Z</time>
      </trkpt>
      <trkpt lat="45.929251480847597" lon="9.338415199890733">
        <ele>429.85000000000002</ele>
        <time>2017-05-14T07:33:30Z</time>
      </trkpt>
      <trkpt lat="45.929265478625894" lon="9.338440177962184">
        <ele>429.85000000000002</ele>
        <time>2017-05-14T07:33:32Z</time>
      </trkpt>
      <trkpt lat="45.929268496111035" lon="9.338580658659339">
        <ele>429.37</ele>
        <time>2017-05-14T07:33:42Z</time>
      </trkpt>
      <trkpt lat="45.929269921034575" lon="9.33859633281827">
        <ele>429.37</ele>
        <time>2017-05-14T07:33:43Z</time>
      </trkpt>
      <trkpt lat="45.929273692891002" lon="9.338678391650319">
        <ele>431.76999999999998</ele>
        <time>2017-05-14T07:33:51Z</time>
      </trkpt>
      <trkpt lat="45.929273944348097" lon="9.338693730533123">
        <ele>431.76999999999998</ele>
        <time>2017-05-14T07:33:52Z</time>
      </trkpt>
      <trkpt lat="45.929272435605526" lon="9.338724492117763">
        <ele>431.76999999999998</ele>
        <time>2017-05-14T07:33:54Z</time>
      </trkpt>
      <trkpt lat="45.929273860529065" lon="9.338788781315088">
        <ele>432.25</ele>
        <time>2017-05-14T07:33:58Z</time>
      </trkpt>
      <trkpt lat="45.929292133077979" lon="9.338935716077685">
        <ele>434.17000000000002</ele>
        <time>2017-05-14T07:34:08Z</time>
      </trkpt>
      <trkpt lat="45.929300598800182" lon="9.339001681655645">
        <ele>434.64999999999998</ele>
        <time>2017-05-14T07:34:12Z</time>
      </trkpt>
      <trkpt lat="45.929304035380483" lon="9.339048620313406">
        <ele>435.13</ele>
        <time>2017-05-14T07:34:15Z</time>
      </trkpt>
      <trkpt lat="45.929336976259947" lon="9.339194297790527">
        <ele>436.10000000000002</ele>
        <time>2017-05-14T07:34:25Z</time>
      </trkpt>
      <trkpt lat="45.929344436153769" lon="9.339235704392195">
        <ele>436.57999999999998</ele>
        <time>2017-05-14T07:34:28Z</time>
      </trkpt>
      <trkpt lat="45.929353907704353" lon="9.339265795424581">
        <ele>436.57999999999998</ele>
        <time>2017-05-14T07:34:30Z</time>
      </trkpt>
      <trkpt lat="45.929358098655939" lon="9.339333269745112">
        <ele>437.06</ele>
        <time>2017-05-14T07:34:34Z</time>
      </trkpt>
      <trkpt lat="45.929398080334067" lon="9.339422285556793">
        <ele>436.57999999999998</ele>
        <time>2017-05-14T07:34:40Z</time>
      </trkpt>
      <trkpt lat="45.929420124739408" lon="9.339498644694686">
        <ele>435.61000000000001</ele>
        <time>2017-05-14T07:34:44Z</time>
      </trkpt>
      <trkpt lat="45.929432613775134" lon="9.339646585285664">
        <ele>436.57999999999998</ele>
        <time>2017-05-14T07:34:54Z</time>
      </trkpt>
      <trkpt lat="45.92943973839283" lon="9.339694865047932">
        <ele>436.57999999999998</ele>
        <time>2017-05-14T07:34:57Z</time>
      </trkpt>
      <trkpt lat="45.929455580189824" lon="9.339751610532403">
        <ele>437.06</ele>
        <time>2017-05-14T07:35:01Z</time>
      </trkpt>
      <trkpt lat="45.929478798061609" lon="9.339819503948093">
        <ele>437.06</ele>
        <time>2017-05-14T07:35:06Z</time>
      </trkpt>
      <trkpt lat="45.929497154429555" lon="9.33996208012104">
        <ele>438.01999999999998</ele>
        <time>2017-05-14T07:35:16Z</time>
      </trkpt>
      <trkpt lat="45.929484162479639" lon="9.34003584086895">
        <ele>438.98000000000002</ele>
        <time>2017-05-14T07:35:21Z</time>
      </trkpt>
      <trkpt lat="45.929441330954432" lon="9.340169616043568">
        <ele>439.94</ele>
        <time>2017-05-14T07:35:30Z</time>
      </trkpt>
      <trkpt lat="45.929416185244918" lon="9.340326441451907">
        <ele>440.42000000000002</ele>
        <time>2017-05-14T07:35:41Z</time>
      </trkpt>
      <trkpt lat="45.929415347054601" lon="9.340490726754069">
        <ele>441.86000000000001</ele>
        <time>2017-05-14T07:35:52Z</time>
      </trkpt>
      <trkpt lat="45.929419789463282" lon="9.34061243198812">
        <ele>443.79000000000002</ele>
        <time>2017-05-14T07:36:02Z</time>
      </trkpt>
      <trkpt lat="45.929406965151429" lon="9.340745955705643">
        <ele>446.67000000000002</ele>
        <time>2017-05-14T07:36:13Z</time>
      </trkpt>
      <trkpt lat="45.929396403953433" lon="9.340824158862233">
        <ele>447.63</ele>
        <time>2017-05-14T07:36:19Z</time>
      </trkpt>
      <trkpt lat="45.929422555491328" lon="9.340896578505635">
        <ele>447.14999999999998</ele>
        <time>2017-05-14T07:36:23Z</time>
      </trkpt>
      <trkpt lat="45.92944510281086" lon="9.340919377282262">
        <ele>447.63</ele>
        <time>2017-05-14T07:36:25Z</time>
      </trkpt>
      <trkpt lat="45.929482653737068" lon="9.340987354516983">
        <ele>448.11000000000001</ele>
        <time>2017-05-14T07:36:31Z</time>
      </trkpt>
      <trkpt lat="45.929548451676965" lon="9.341123141348362">
        <ele>449.06999999999999</ele>
        <time>2017-05-14T07:36:42Z</time>
      </trkpt>
      <trkpt lat="45.92956286855042" lon="9.341186843812466">
        <ele>449.06999999999999</ele>
        <time>2017-05-14T07:36:46Z</time>
      </trkpt>
      <trkpt lat="45.929595390334725" lon="9.341274602338672">
        <ele>449.06999999999999</ele>
        <time>2017-05-14T07:36:52Z</time>
      </trkpt>
      <trkpt lat="45.929677365347743" lon="9.341462692245841">
        <ele>448.58999999999997</ele>
        <time>2017-05-14T07:37:04Z</time>
      </trkpt>
      <trkpt lat="45.929797394201159" lon="9.341611135751009">
        <ele>448.58999999999997</ele>
        <time>2017-05-14T07:37:16Z</time>
      </trkpt>
      <trkpt lat="45.929888254031539" lon="9.341775672510266">
        <ele>449.06999999999999</ele>
        <time>2017-05-14T07:37:30Z</time>
      </trkpt>
      <trkpt lat="45.929901916533709" lon="9.341810625046492">
        <ele>448.58999999999997</ele>
        <time>2017-05-14T07:37:33Z</time>
      </trkpt>
      <trkpt lat="45.929960841313004" lon="9.341944400221109">
        <ele>448.11000000000001</ele>
        <time>2017-05-14T07:37:44Z</time>
      </trkpt>
      <trkpt lat="45.929997218772769" lon="9.342112205922604">
        <ele>447.63</ele>
        <time>2017-05-14T07:37:55Z</time>
      </trkpt>
      <trkpt lat="45.929996632039547" lon="9.342132322490215">
        <ele>447.63</ele>
        <time>2017-05-14T07:37:56Z</time>
      </trkpt>
      <trkpt lat="45.930008450523019" lon="9.342158054932952">
        <ele>447.14999999999998</ele>
        <time>2017-05-14T07:37:57Z</time>
      </trkpt>
      <trkpt lat="45.93002412468195" lon="9.342315550893545">
        <ele>446.67000000000002</ele>
        <time>2017-05-14T07:38:07Z</time>
      </trkpt>
      <trkpt lat="45.930061340332031" lon="9.342344971373677">
        <ele>446.19</ele>
        <time>2017-05-14T07:38:10Z</time>
      </trkpt>
      <trkpt lat="45.930091179907322" lon="9.342383611947298">
        <ele>446.19</ele>
        <time>2017-05-14T07:38:20Z</time>
      </trkpt>
      <trkpt lat="45.930207772180438" lon="9.342454858124256">
        <ele>445.70999999999998</ele>
        <time>2017-05-14T07:38:30Z</time>
      </trkpt>
      <trkpt lat="45.930222105234861" lon="9.342463323846459">
        <ele>445.70999999999998</ele>
        <time>2017-05-14T07:38:31Z</time>
      </trkpt>
      <trkpt lat="45.930317658931017" lon="9.342573545873165">
        <ele>445.23000000000002</ele>
        <time>2017-05-14T07:38:41Z</time>
      </trkpt>
      <trkpt lat="45.930402651429176" lon="9.342708829790354">
        <ele>444.75</ele>
        <time>2017-05-14T07:38:51Z</time>
      </trkpt>
      <trkpt lat="45.930432407185435" lon="9.342759372666478">
        <ele>444.26999999999998</ele>
        <time>2017-05-14T07:38:54Z</time>
      </trkpt>
      <trkpt lat="45.930539947003126" lon="9.342919634655118">
        <ele>443.79000000000002</ele>
        <time>2017-05-14T07:39:06Z</time>
      </trkpt>
      <trkpt lat="45.930683612823486" lon="9.343006890267134">
        <ele>444.26999999999998</ele>
        <time>2017-05-14T07:39:18Z</time>
      </trkpt>
      <trkpt lat="45.930786710232496" lon="9.343063049018383">
        <ele>444.75</ele>
        <time>2017-05-14T07:39:29Z</time>
      </trkpt>
      <trkpt lat="45.930906319990754" lon="9.343173438683152">
        <ele>445.23000000000002</ele>
        <time>2017-05-14T07:39:41Z</time>
      </trkpt>
      <trkpt lat="45.93091637827456" lon="9.343180395662785">
        <ele>445.23000000000002</ele>
        <time>2017-05-14T07:39:42Z</time>
      </trkpt>
      <trkpt lat="45.930998101830482" lon="9.343231441453099">
        <ele>445.23000000000002</ele>
        <time>2017-05-14T07:39:50Z</time>
      </trkpt>
      <trkpt lat="45.931070605292916" lon="9.343400420621038">
        <ele>445.70999999999998</ele>
        <time>2017-05-14T07:40:02Z</time>
      </trkpt>
      <trkpt lat="45.931125590577722" lon="9.343562107533217">
        <ele>445.23000000000002</ele>
        <time>2017-05-14T07:40:13Z</time>
      </trkpt>
      <trkpt lat="45.931175295263529" lon="9.343721698969603">
        <ele>445.70999999999998</ele>
        <time>2017-05-14T07:40:24Z</time>
      </trkpt>
      <trkpt lat="45.931205470114946" lon="9.343851199373603">
        <ele>444.75</ele>
        <time>2017-05-14T07:40:32Z</time>
      </trkpt>
      <trkpt lat="45.931241009384394" lon="9.343999139964581">
        <ele>446.19</ele>
        <time>2017-05-14T07:40:43Z</time>
      </trkpt>
      <trkpt lat="45.931253666058183" lon="9.344043647870421">
        <ele>445.70999999999998</ele>
        <time>2017-05-14T07:40:46Z</time>
      </trkpt>
      <trkpt lat="45.931267999112606" lon="9.34414766728878">
        <ele>445.70999999999998</ele>
        <time>2017-05-14T07:40:57Z</time>
      </trkpt>
      <trkpt lat="45.931297838687897" lon="9.344255793839693">
        <ele>445.70999999999998</ele>
        <time>2017-05-14T07:41:14Z</time>
      </trkpt>
      <trkpt lat="45.931321810930967" lon="9.34428546577692">
        <ele>445.70999999999998</ele>
        <time>2017-05-14T07:41:24Z</time>
      </trkpt>
      <trkpt lat="45.931260203942657" lon="9.344418738037348">
        <ele>445.23000000000002</ele>
        <time>2017-05-14T07:41:35Z</time>
      </trkpt>
      <trkpt lat="45.931186946108937" lon="9.344565002247691">
        <ele>445.70999999999998</ele>
        <time>2017-05-14T07:41:45Z</time>
      </trkpt>
      <trkpt lat="45.931145874783397" lon="9.344690479338169">
        <ele>445.70999999999998</ele>
        <time>2017-05-14T07:41:55Z</time>
      </trkpt>
      <trkpt lat="45.931110251694918" lon="9.34478435665369">
        <ele>446.67000000000002</ele>
        <time>2017-05-14T07:42:04Z</time>
      </trkpt>
      <trkpt lat="45.931046465411782" lon="9.344928190112114">
        <ele>447.63</ele>
        <time>2017-05-14T07:42:15Z</time>
      </trkpt>
      <trkpt lat="45.93097060918808" lon="9.345024833455682">
        <ele>448.11000000000001</ele>
        <time>2017-05-14T07:42:25Z</time>
      </trkpt>
      <trkpt lat="45.93095594085753" lon="9.345133127644658">
        <ele>448.11000000000001</ele>
        <time>2017-05-14T07:42:35Z</time>
      </trkpt>
      <trkpt lat="45.931012183427811" lon="9.345108484849334">
        <ele>448.58999999999997</ele>
        <time>2017-05-14T07:42:57Z</time>
      </trkpt>
      <trkpt lat="45.931001454591751" lon="9.34510831721127">
        <ele>448.58999999999997</ele>
        <time>2017-05-14T07:43:11Z</time>
      </trkpt>
      <trkpt lat="45.930986953899264" lon="9.345191214233637">
        <ele>449.06999999999999</ele>
        <time>2017-05-14T07:43:20Z</time>
      </trkpt>
      <trkpt lat="45.930963065475225" lon="9.345163637772203">
        <ele>450.02999999999997</ele>
        <time>2017-05-14T07:43:33Z</time>
      </trkpt>
      <trkpt lat="45.93098527751863" lon="9.345137486234307">
        <ele>451</ele>
        <time>2017-05-14T07:43:43Z</time>
      </trkpt>
      <trkpt lat="45.93107077293098" lon="9.345123907551169">
        <ele>452.92000000000002</ele>
        <time>2017-05-14T07:43:53Z</time>
      </trkpt>
      <trkpt lat="45.931095918640494" lon="9.345133127644658">
        <ele>453.88</ele>
        <time>2017-05-14T07:43:58Z</time>
      </trkpt>
      <trkpt lat="45.931192813441157" lon="9.345129439607263">
        <ele>455.80000000000001</ele>
        <time>2017-05-14T07:44:09Z</time>
      </trkpt>
      <trkpt lat="45.931304041296244" lon="9.345128014683723">
        <ele>457.24000000000001</ele>
        <time>2017-05-14T07:44:21Z</time>
      </trkpt>
      <trkpt lat="45.931397499516606" lon="9.34512147679925">
        <ele>459.64999999999998</ele>
        <time>2017-05-14T07:44:32Z</time>
      </trkpt>
      <trkpt lat="45.931489113718271" lon="9.345237985253334">
        <ele>460.61000000000001</ele>
        <time>2017-05-14T07:44:43Z</time>
      </trkpt>
      <trkpt lat="45.931492550298572" lon="9.345253659412265">
        <ele>460.61000000000001</ele>
        <time>2017-05-14T07:44:44Z</time>
      </trkpt>
      <trkpt lat="45.931501183658838" lon="9.345320630818605">
        <ele>460.61000000000001</ele>
        <time>2017-05-14T07:44:48Z</time>
      </trkpt>
      <trkpt lat="45.931495148688555" lon="9.345453567802906">
        <ele>461.56999999999999</ele>
        <time>2017-05-14T07:44:57Z</time>
      </trkpt>
      <trkpt lat="45.931539321318269" lon="9.345593126490712">
        <ele>461.56999999999999</ele>
        <time>2017-05-14T07:45:07Z</time>
      </trkpt>
      <trkpt lat="45.931578213348985" lon="9.345672586932778">
        <ele>462.05000000000001</ele>
        <time>2017-05-14T07:45:14Z</time>
      </trkpt>
      <trkpt lat="45.931630684062839" lon="9.345806781202555">
        <ele>463.00999999999999</ele>
        <time>2017-05-14T07:45:26Z</time>
      </trkpt>
      <trkpt lat="45.931677538901567" lon="9.345951536670327">
        <ele>463.49000000000001</ele>
        <time>2017-05-14T07:45:37Z</time>
      </trkpt>
      <trkpt lat="45.931716514751315" lon="9.346165107563138">
        <ele>464.44999999999999</ele>
        <time>2017-05-14T07:45:51Z</time>
      </trkpt>
      <trkpt lat="45.931714670732617" lon="9.346195617690682">
        <ele>464.93000000000001</ele>
        <time>2017-05-14T07:45:53Z</time>
      </trkpt>
      <trkpt lat="45.931736966595054" lon="9.346343977376819">
        <ele>465.89999999999998</ele>
        <time>2017-05-14T07:46:04Z</time>
      </trkpt>
      <trkpt lat="45.931820198893547" lon="9.346454702317715">
        <ele>467.33999999999997</ele>
        <time>2017-05-14T07:46:14Z</time>
      </trkpt>
      <trkpt lat="45.931827910244465" lon="9.346461826935411">
        <ele>467.33999999999997</ele>
        <time>2017-05-14T07:46:15Z</time>
      </trkpt>
      <trkpt lat="45.931961350142956" lon="9.346502646803856">
        <ele>469.74000000000001</ele>
        <time>2017-05-14T07:46:27Z</time>
      </trkpt>
      <trkpt lat="45.932031087577343" lon="9.34666114859283">
        <ele>471.18000000000001</ele>
        <time>2017-05-14T07:46:39Z</time>
      </trkpt>
      <trkpt lat="45.932035949081182" lon="9.346690569072962">
        <ele>471.18000000000001</ele>
        <time>2017-05-14T07:46:41Z</time>
      </trkpt>
      <trkpt lat="45.932072242721915" lon="9.346809843555093">
        <ele>472.63</ele>
        <time>2017-05-14T07:46:51Z</time>
      </trkpt>
      <trkpt lat="45.932177435606718" lon="9.346855273470283">
        <ele>474.06999999999999</ele>
        <time>2017-05-14T07:47:03Z</time>
      </trkpt>
      <trkpt lat="45.932193864136934" lon="9.346881760284305">
        <ele>474.06999999999999</ele>
        <time>2017-05-14T07:47:06Z</time>
      </trkpt>
      <trkpt lat="45.932247340679169" lon="9.347018552944064">
        <ele>474.55000000000001</ele>
        <time>2017-05-14T07:47:15Z</time>
      </trkpt>
      <trkpt lat="45.932243820279837" lon="9.347238745540381">
        <ele>474.55000000000001</ele>
        <time>2017-05-14T07:47:28Z</time>
      </trkpt>
      <trkpt lat="45.932286232709885" lon="9.347297670319676">
        <ele>475.02999999999997</ele>
        <time>2017-05-14T07:47:35Z</time>
      </trkpt>
      <trkpt lat="45.932408776134253" lon="9.347341172397137">
        <ele>475.99000000000001</ele>
        <time>2017-05-14T07:47:48Z</time>
      </trkpt>
      <trkpt lat="45.932549173012376" lon="9.347358355298638">
        <ele>477.43000000000001</ele>
        <time>2017-05-14T07:47:59Z</time>
      </trkpt>
      <trkpt lat="45.93266467563808" lon="9.347392302006483">
        <ele>478.87</ele>
        <time>2017-05-14T07:48:11Z</time>
      </trkpt>
      <trkpt lat="45.932745477184653" lon="9.347462877631187">
        <ele>480.31999999999999</ele>
        <time>2017-05-14T07:48:20Z</time>
      </trkpt>
      <trkpt lat="45.93284354545176" lon="9.347568908706307">
        <ele>481.75999999999999</ele>
        <time>2017-05-14T07:48:31Z</time>
      </trkpt>
      <trkpt lat="45.932975644245744" lon="9.347607214003801">
        <ele>483.68000000000001</ele>
        <time>2017-05-14T07:48:43Z</time>
      </trkpt>
      <trkpt lat="45.933046219870448" lon="9.34756463393569">
        <ele>484.16000000000003</ele>
        <time>2017-05-14T07:48:52Z</time>
      </trkpt>
      <trkpt lat="45.933090979233384" lon="9.347567819058895">
        <ele>485.12</ele>
        <time>2017-05-14T07:49:02Z</time>
      </trkpt>
      <trkpt lat="45.933110173791647" lon="9.347566897049546">
        <ele>485.12</ele>
        <time>2017-05-14T07:49:09Z</time>
      </trkpt>
      <trkpt lat="45.933099528774619" lon="9.347591204568744">
        <ele>485.12</ele>
        <time>2017-05-14T07:49:30Z</time>
      </trkpt>
      <trkpt lat="45.933105396106839" lon="9.347587348893285">
        <ele>484.63999999999999</ele>
        <time>2017-05-14T07:49:43Z</time>
      </trkpt>
      <trkpt lat="45.93315283767879" lon="9.347663037478924">
        <ele>485.60000000000002</ele>
        <time>2017-05-14T07:49:53Z</time>
      </trkpt>
      <trkpt lat="45.933237494900823" lon="9.347717771306634">
        <ele>485.12</ele>
        <time>2017-05-14T07:50:02Z</time>
      </trkpt>
      <trkpt lat="45.933290803804994" lon="9.347736546769738">
        <ele>485.12</ele>
        <time>2017-05-14T07:50:06Z</time>
      </trkpt>
      <trkpt lat="45.933349812403321" lon="9.347810810431838">
        <ele>485.60000000000002</ele>
        <time>2017-05-14T07:50:13Z</time>
      </trkpt>
      <trkpt lat="45.933385770767927" lon="9.347879206761718">
        <ele>485.60000000000002</ele>
        <time>2017-05-14T07:50:17Z</time>
      </trkpt>
      <trkpt lat="45.933410078287125" lon="9.347930923104286">
        <ele>485.12</ele>
        <time>2017-05-14T07:50:20Z</time>
      </trkpt>
      <trkpt lat="45.933474199846387" lon="9.348029075190425">
        <ele>485.60000000000002</ele>
        <time>2017-05-14T07:50:26Z</time>
      </trkpt>
      <trkpt lat="45.93354469165206" lon="9.348092693835497">
        <ele>485.60000000000002</ele>
        <time>2017-05-14T07:50:32Z</time>
      </trkpt>
      <trkpt lat="45.933638149872422" lon="9.348186403512955">
        <ele>485.60000000000002</ele>
        <time>2017-05-14T07:50:40Z</time>
      </trkpt>
      <trkpt lat="45.933691039681435" lon="9.348353035748005">
        <ele>485.12</ele>
        <time>2017-05-14T07:50:49Z</time>
      </trkpt>
      <trkpt lat="45.933707468211651" lon="9.34841682203114">
        <ele>484.63999999999999</ele>
        <time>2017-05-14T07:50:53Z</time>
      </trkpt>
      <trkpt lat="45.933712832629681" lon="9.348666770383716">
        <ele>483.68000000000001</ele>
        <time>2017-05-14T07:51:06Z</time>
      </trkpt>
      <trkpt lat="45.933717945590615" lon="9.348685797303915">
        <ele>483.68000000000001</ele>
        <time>2017-05-14T07:51:07Z</time>
      </trkpt>
      <trkpt lat="45.933758430182934" lon="9.348743800073862">
        <ele>483.68000000000001</ele>
        <time>2017-05-14T07:51:11Z</time>
      </trkpt>
      <trkpt lat="45.933779301121831" lon="9.348930632695556">
        <ele>483.68000000000001</ele>
        <time>2017-05-14T07:51:21Z</time>
      </trkpt>
      <trkpt lat="45.933798160403967" lon="9.349069856107235">
        <ele>484.63999999999999</ele>
        <time>2017-05-14T07:51:29Z</time>
      </trkpt>
      <trkpt lat="45.933869071304798" lon="9.349190639331937">
        <ele>485.12</ele>
        <time>2017-05-14T07:51:38Z</time>
      </trkpt>
      <trkpt lat="45.933878375217319" lon="9.349259873852134">
        <ele>486.07999999999998</ele>
        <time>2017-05-14T07:51:42Z</time>
      </trkpt>
      <trkpt lat="45.93388726003468" lon="9.349293820559979">
        <ele>486.56</ele>
        <time>2017-05-14T07:51:44Z</time>
      </trkpt>
      <trkpt lat="45.933894049376249" lon="9.349337909370661">
        <ele>487.05000000000001</ele>
        <time>2017-05-14T07:51:47Z</time>
      </trkpt>
      <trkpt lat="45.933910897001624" lon="9.349381662905216">
        <ele>487.05000000000001</ele>
        <time>2017-05-14T07:51:50Z</time>
      </trkpt>
      <trkpt lat="45.933951046317816" lon="9.349530357867479">
        <ele>488.49000000000001</ele>
        <time>2017-05-14T07:52:00Z</time>
      </trkpt>
      <trkpt lat="45.933974012732506" lon="9.349660947918892">
        <ele>489.93000000000001</ele>
        <time>2017-05-14T07:52:09Z</time>
      </trkpt>
      <trkpt lat="45.933962613344193" lon="9.349740240722895">
        <ele>490.41000000000003</ele>
        <time>2017-05-14T07:52:15Z</time>
      </trkpt>
      <trkpt lat="45.933967810124159" lon="9.349780976772308">
        <ele>490.41000000000003</ele>
        <time>2017-05-14T07:52:19Z</time>
      </trkpt>
      <trkpt lat="45.933971246704459" lon="9.349905028939247">
        <ele>490.88999999999999</ele>
        <time>2017-05-14T07:52:26Z</time>
      </trkpt>
      <trkpt lat="45.933963283896446" lon="9.35009672306478">
        <ele>490.41000000000003</ele>
        <time>2017-05-14T07:52:36Z</time>
      </trkpt>
      <trkpt lat="45.933971330523491" lon="9.350264696404338">
        <ele>489.93000000000001</ele>
        <time>2017-05-14T07:52:47Z</time>
      </trkpt>
      <trkpt lat="45.934004355221987" lon="9.350299397483468">
        <ele>489.93000000000001</ele>
        <time>2017-05-14T07:52:52Z</time>
      </trkpt>
      <trkpt lat="45.934003852307796" lon="9.350483883172274">
        <ele>489.93000000000001</ele>
        <time>2017-05-14T07:53:02Z</time>
      </trkpt>
      <trkpt lat="45.934014832600951" lon="9.350615059956908">
        <ele>490.41000000000003</ele>
        <time>2017-05-14T07:53:11Z</time>
      </trkpt>
      <trkpt lat="45.934093538671732" lon="9.350737854838371">
        <ele>489.93000000000001</ele>
        <time>2017-05-14T07:53:19Z</time>
      </trkpt>
      <trkpt lat="45.934149529784918" lon="9.350853860378265">
        <ele>490.88999999999999</ele>
        <time>2017-05-14T07:53:30Z</time>
      </trkpt>
      <trkpt lat="45.934163443744183" lon="9.350869534537196">
        <ele>490.41000000000003</ele>
        <time>2017-05-14T07:53:34Z</time>
      </trkpt>
      <trkpt lat="45.934223877266049" lon="9.350929465144873">
        <ele>491.37</ele>
        <time>2017-05-14T07:53:45Z</time>
      </trkpt>
      <trkpt lat="45.934246843680739" lon="9.350981852039695">
        <ele>490.88999999999999</ele>
        <time>2017-05-14T07:53:59Z</time>
      </trkpt>
      <trkpt lat="45.934214657172561" lon="9.350995179265738">
        <ele>491.37</ele>
        <time>2017-05-14T07:54:11Z</time>
      </trkpt>
      <trkpt lat="45.934181632474065" lon="9.351011188700795">
        <ele>490.88999999999999</ele>
        <time>2017-05-14T07:54:20Z</time>
      </trkpt>
      <trkpt lat="45.934158330783248" lon="9.351114453747869">
        <ele>490.41000000000003</ele>
        <time>2017-05-14T07:54:31Z</time>
      </trkpt>
      <trkpt lat="45.934124132618308" lon="9.351229118183255">
        <ele>489.93000000000001</ele>
        <time>2017-05-14T07:54:42Z</time>
      </trkpt>
      <trkpt lat="45.934129497036338" lon="9.351289300248027">
        <ele>489.93000000000001</ele>
        <time>2017-05-14T07:54:47Z</time>
      </trkpt>
      <trkpt lat="45.934156570583582" lon="9.351349147036672">
        <ele>489.44999999999999</ele>
        <time>2017-05-14T07:54:51Z</time>
      </trkpt>
      <trkpt lat="45.934179536998272" lon="9.351515360176563">
        <ele>489.93000000000001</ele>
        <time>2017-05-14T07:55:05Z</time>
      </trkpt>
      <trkpt lat="45.934344409033656" lon="9.351709736511111">
        <ele>489.44999999999999</ele>
        <time>2017-05-14T07:55:22Z</time>
      </trkpt>
      <trkpt lat="45.934405429288745" lon="9.351865136995912">
        <ele>489.93000000000001</ele>
        <time>2017-05-14T07:55:41Z</time>
      </trkpt>
      <trkpt lat="45.934358071535826" lon="9.35178249143064">
        <ele>489.93000000000001</ele>
        <time>2017-05-14T07:55:50Z</time>
      </trkpt>
      <trkpt lat="45.934236450120807" lon="9.351733541116118">
        <ele>490.88999999999999</ele>
        <time>2017-05-14T07:56:00Z</time>
      </trkpt>
      <trkpt lat="45.934205101802945" lon="9.351725997403264">
        <ele>492.81</ele>
        <time>2017-05-14T07:56:10Z</time>
      </trkpt>
      <trkpt lat="45.934063196182251" lon="9.351696576923132">
        <ele>495.69999999999999</ele>
        <time>2017-05-14T07:56:24Z</time>
      </trkpt>
      <trkpt lat="45.933926487341523" lon="9.35169255360961">
        <ele>497.62</ele>
        <time>2017-05-14T07:56:36Z</time>
      </trkpt>
      <trkpt lat="45.933903018012643" lon="9.351741671562195">
        <ele>499.54000000000002</ele>
        <time>2017-05-14T07:56:48Z</time>
      </trkpt>
      <trkpt lat="45.933822803199291" lon="9.351758016273379">
        <ele>500.5</ele>
        <time>2017-05-14T07:56:57Z</time>
      </trkpt>
      <trkpt lat="45.933723645284772" lon="9.351721135899425">
        <ele>502.43000000000001</ele>
        <time>2017-05-14T07:57:06Z</time>
      </trkpt>
      <trkpt lat="45.933664469048381" lon="9.351740581914783">
        <ele>504.35000000000002</ele>
        <time>2017-05-14T07:57:16Z</time>
      </trkpt>
      <trkpt lat="45.93364586122334" lon="9.351782323792577">
        <ele>504.82999999999998</ele>
        <time>2017-05-14T07:57:27Z</time>
      </trkpt>
      <trkpt lat="45.933539075776935" lon="9.351664809510112">
        <ele>504.82999999999998</ele>
        <time>2017-05-14T07:57:44Z</time>
      </trkpt>
      <trkpt lat="45.933542344719172" lon="9.351639244705439">
        <ele>505.31</ele>
        <time>2017-05-14T07:58:04Z</time>
      </trkpt>
      <trkpt lat="45.933604119345546" lon="9.351621642708778">
        <ele>507.23000000000002</ele>
        <time>2017-05-14T07:58:16Z</time>
      </trkpt>
      <trkpt lat="45.933617614209652" lon="9.351641591638327">
        <ele>509.63999999999999</ele>
        <time>2017-05-14T07:58:27Z</time>
      </trkpt>
      <trkpt lat="45.933555085211992" lon="9.351672101765871">
        <ele>511.56</ele>
        <time>2017-05-14T07:58:39Z</time>
      </trkpt>
      <trkpt lat="45.933575117960572" lon="9.351688530296087">
        <ele>514.91999999999996</ele>
        <time>2017-05-14T07:58:48Z</time>
      </trkpt>
      <trkpt lat="45.933573357760906" lon="9.351693894714117">
        <ele>514.44000000000005</ele>
        <time>2017-05-14T07:58:49Z</time>
      </trkpt>
      <trkpt lat="45.933529268950224" lon="9.351736726239324">
        <ele>515.88</ele>
        <time>2017-05-14T07:58:59Z</time>
      </trkpt>
      <trkpt lat="45.933503117412329" lon="9.35178441926837">
        <ele>517.80999999999995</ele>
        <time>2017-05-14T07:59:09Z</time>
      </trkpt>
      <trkpt lat="45.933451568707824" lon="9.351817946881056">
        <ele>519.73000000000002</ele>
        <time>2017-05-14T07:59:19Z</time>
      </trkpt>
      <trkpt lat="45.933421980589628" lon="9.351844349876046">
        <ele>522.13</ele>
        <time>2017-05-14T07:59:30Z</time>
      </trkpt>
      <trkpt lat="45.933339335024357" lon="9.351841332390904">
        <ele>524.53999999999996</ele>
        <time>2017-05-14T07:59:42Z</time>
      </trkpt>
      <trkpt lat="45.933265741914511" lon="9.351844014599919">
        <ele>526.46000000000004</ele>
        <time>2017-05-14T07:59:51Z</time>
      </trkpt>
      <trkpt lat="45.933236656710505" lon="9.351980304345489">
        <ele>528.38</ele>
        <time>2017-05-14T08:00:01Z</time>
      </trkpt>
      <trkpt lat="45.933248642832041" lon="9.352099159732461">
        <ele>530.78999999999996</ele>
        <time>2017-05-14T08:00:12Z</time>
      </trkpt>
      <trkpt lat="45.933237662538886" lon="9.352165879681706">
        <ele>532.71000000000004</ele>
        <time>2017-05-14T08:00:22Z</time>
      </trkpt>
      <trkpt lat="45.933206649497151" lon="9.352238215506077">
        <ele>535.11000000000001</ele>
        <time>2017-05-14T08:00:33Z</time>
      </trkpt>
      <trkpt lat="45.933251576498151" lon="9.352267552167177">
        <ele>536.54999999999995</ele>
        <time>2017-05-14T08:00:43Z</time>
      </trkpt>
      <trkpt lat="45.93325643800199" lon="9.352313904091716">
        <ele>538.48000000000002</ele>
        <time>2017-05-14T08:00:53Z</time>
      </trkpt>
      <trkpt lat="45.933197932317853" lon="9.35237031430006">
        <ele>540.39999999999998</ele>
        <time>2017-05-14T08:01:04Z</time>
      </trkpt>
      <trkpt lat="45.933089554309845" lon="9.352409290149808">
        <ele>541.36000000000001</ele>
        <time>2017-05-14T08:01:17Z</time>
      </trkpt>
      <trkpt lat="45.933186365291476" lon="9.352370481938124">
        <ele>542.32000000000005</ele>
        <time>2017-05-14T08:01:28Z</time>
      </trkpt>
      <trkpt lat="45.933244619518518" lon="9.352359501644969">
        <ele>544.72000000000003</ele>
        <time>2017-05-14T08:01:39Z</time>
      </trkpt>
      <trkpt lat="45.933276386931539" lon="9.35239470563829">
        <ele>546.16999999999996</ele>
        <time>2017-05-14T08:01:50Z</time>
      </trkpt>
      <trkpt lat="45.93322467058897" lon="9.352426389232278">
        <ele>548.57000000000005</ele>
        <time>2017-05-14T08:02:01Z</time>
      </trkpt>
      <trkpt lat="45.933181084692478" lon="9.352506184950471">
        <ele>550.49000000000001</ele>
        <time>2017-05-14T08:02:13Z</time>
      </trkpt>
      <trkpt lat="45.933256773278117" lon="9.352510962635279">
        <ele>552.40999999999997</ele>
        <time>2017-05-14T08:02:24Z</time>
      </trkpt>
      <trkpt lat="45.933222156018019" lon="9.352552872151136">
        <ele>554.34000000000003</ele>
        <time>2017-05-14T08:02:32Z</time>
      </trkpt>
      <trkpt lat="45.933146132156253" lon="9.352593859657645">
        <ele>556.25999999999999</ele>
        <time>2017-05-14T08:02:43Z</time>
      </trkpt>
      <trkpt lat="45.933154933154583" lon="9.352656891569495">
        <ele>558.17999999999995</ele>
        <time>2017-05-14T08:02:53Z</time>
      </trkpt>
      <trkpt lat="45.933205643668771" lon="9.352657394483686">
        <ele>560.11000000000001</ele>
        <time>2017-05-14T08:03:03Z</time>
      </trkpt>
      <trkpt lat="45.933198351413012" lon="9.352701818570495">
        <ele>562.02999999999997</ele>
        <time>2017-05-14T08:03:14Z</time>
      </trkpt>
      <trkpt lat="45.933172116056085" lon="9.352818997576833">
        <ele>563.95000000000005</ele>
        <time>2017-05-14T08:03:25Z</time>
      </trkpt>
      <trkpt lat="45.933142444118857" lon="9.352912791073322">
        <ele>565.87</ele>
        <time>2017-05-14T08:03:37Z</time>
      </trkpt>
      <trkpt lat="45.933135990053415" lon="9.35300063341856">
        <ele>568.27999999999997</ele>
        <time>2017-05-14T08:03:48Z</time>
      </trkpt>
      <trkpt lat="45.933147892355919" lon="9.353085039183497">
        <ele>570.20000000000005</ele>
        <time>2017-05-14T08:03:57Z</time>
      </trkpt>
      <trkpt lat="45.933120651170611" lon="9.353221664205194">
        <ele>572.12</ele>
        <time>2017-05-14T08:04:09Z</time>
      </trkpt>
      <trkpt lat="45.933116795495152" lon="9.35325033031404">
        <ele>573.08000000000004</ele>
        <time>2017-05-14T08:04:12Z</time>
      </trkpt>
      <trkpt lat="45.933072622865438" lon="9.353374466300011">
        <ele>575.00999999999999</ele>
        <time>2017-05-14T08:04:25Z</time>
      </trkpt>
      <trkpt lat="45.933103216812015" lon="9.353482844308019">
        <ele>577.40999999999997</ele>
        <time>2017-05-14T08:04:37Z</time>
      </trkpt>
      <trkpt lat="45.93313867226243" lon="9.353569597005844">
        <ele>579.33000000000004</ele>
        <time>2017-05-14T08:04:49Z</time>
      </trkpt>
      <trkpt lat="45.933168763294816" lon="9.353663055226207">
        <ele>581.25</ele>
        <time>2017-05-14T08:04:59Z</time>
      </trkpt>
      <trkpt lat="45.933155855163932" lon="9.353771517053247">
        <ele>583.17999999999995</ele>
        <time>2017-05-14T08:05:12Z</time>
      </trkpt>
      <trkpt lat="45.933143952861428" lon="9.353872435167432">
        <ele>585.10000000000002</ele>
        <time>2017-05-14T08:05:23Z</time>
      </trkpt>
      <trkpt lat="45.933100953698158" lon="9.353964552283287">
        <ele>587.98000000000002</ele>
        <time>2017-05-14T08:05:36Z</time>
      </trkpt>
      <trkpt lat="45.933099696412683" lon="9.354152474552393">
        <ele>589.42999999999995</ele>
        <time>2017-05-14T08:05:48Z</time>
      </trkpt>
      <trkpt lat="45.933110006153584" lon="9.354193713515997">
        <ele>589.90999999999997</ele>
        <time>2017-05-14T08:05:58Z</time>
      </trkpt>
      <trkpt lat="45.933154514059424" lon="9.35424811206758">
        <ele>590.87</ele>
        <time>2017-05-14T08:06:07Z</time>
      </trkpt>
      <trkpt lat="45.933170355856419" lon="9.354278119280934">
        <ele>590.38999999999999</ele>
        <time>2017-05-14T08:06:25Z</time>
      </trkpt>
      <trkpt lat="45.93310690484941" lon="9.354253057390451">
        <ele>590.38999999999999</ele>
        <time>2017-05-14T08:06:41Z</time>
      </trkpt>
      <trkpt lat="45.933114113286138" lon="9.354251464828849">
        <ele>590.38999999999999</ele>
        <time>2017-05-14T08:06:53Z</time>
      </trkpt>
      <trkpt lat="45.933072036132216" lon="9.354217350482941">
        <ele>590.38999999999999</ele>
        <time>2017-05-14T08:07:10Z</time>
      </trkpt>
      <trkpt lat="45.933059714734554" lon="9.35423830524087">
        <ele>590.38999999999999</ele>
        <time>2017-05-14T08:07:26Z</time>
      </trkpt>
      <trkpt lat="45.933053847402334" lon="9.354226570576429">
        <ele>590.38999999999999</ele>
        <time>2017-05-14T08:07:38Z</time>
      </trkpt>
      <trkpt lat="45.933061055839062" lon="9.354246268048883">
        <ele>590.87</ele>
        <time>2017-05-14T08:07:49Z</time>
      </trkpt>
      <trkpt lat="45.933030042797327" lon="9.354293374344707">
        <ele>592.30999999999995</ele>
        <time>2017-05-14T08:07:59Z</time>
      </trkpt>
      <trkpt lat="45.932972878217697" lon="9.354311730712652">
        <ele>594.23000000000002</ele>
        <time>2017-05-14T08:08:09Z</time>
      </trkpt>
      <trkpt lat="45.93294077552855" lon="9.35436487197876">
        <ele>596.14999999999998</ele>
        <time>2017-05-14T08:08:21Z</time>
      </trkpt>
      <trkpt lat="45.932981846854091" lon="9.354356741532683">
        <ele>598.08000000000004</ele>
        <time>2017-05-14T08:08:32Z</time>
      </trkpt>
      <trkpt lat="45.932995090261102" lon="9.354380127042532">
        <ele>600</ele>
        <time>2017-05-14T08:08:43Z</time>
      </trkpt>
      <trkpt lat="45.932968771085143" lon="9.354428574442864">
        <ele>602.39999999999998</ele>
        <time>2017-05-14T08:08:52Z</time>
      </trkpt>
      <trkpt lat="45.93292661011219" lon="9.354472914710641">
        <ele>602.39999999999998</ele>
        <time>2017-05-14T08:08:58Z</time>
      </trkpt>
      <trkpt lat="45.932895261794329" lon="9.354549609124661">
        <ele>603.85000000000002</ele>
        <time>2017-05-14T08:09:08Z</time>
      </trkpt>
      <trkpt lat="45.932852094992995" lon="9.35464340262115">
        <ele>605.76999999999998</ele>
        <time>2017-05-14T08:09:21Z</time>
      </trkpt>
      <trkpt lat="45.932831475511193" lon="9.354709787294269">
        <ele>607.21000000000004</ele>
        <time>2017-05-14T08:09:30Z</time>
      </trkpt>
      <trkpt lat="45.932853939011693" lon="9.354818249121308">
        <ele>609.61000000000001</ele>
        <time>2017-05-14T08:09:43Z</time>
      </trkpt>
      <trkpt lat="45.932876486331224" lon="9.354885052889586">
        <ele>611.05999999999995</ele>
        <time>2017-05-14T08:09:55Z</time>
      </trkpt>
      <trkpt lat="45.932890987023711" lon="9.35494925826788">
        <ele>613.46000000000004</ele>
        <time>2017-05-14T08:10:07Z</time>
      </trkpt>
      <trkpt lat="45.932932225987315" lon="9.355074819177389">
        <ele>615.38</ele>
        <time>2017-05-14T08:10:22Z</time>
      </trkpt>
      <trkpt lat="45.932910181581974" lon="9.355221251025796">
        <ele>616.82000000000005</ele>
        <time>2017-05-14T08:10:33Z</time>
      </trkpt>
      <trkpt lat="45.932881515473127" lon="9.355359300971031">
        <ele>618.25999999999999</ele>
        <time>2017-05-14T08:10:45Z</time>
      </trkpt>
      <trkpt lat="45.932820159941912" lon="9.355447813868523">
        <ele>618.25999999999999</ele>
        <time>2017-05-14T08:10:56Z</time>
      </trkpt>
      <trkpt lat="45.932804234325886" lon="9.355597095564008">
        <ele>617.77999999999997</ele>
        <time>2017-05-14T08:11:09Z</time>
      </trkpt>
      <trkpt lat="45.932761402800679" lon="9.355785688385367">
        <ele>618.75</ele>
        <time>2017-05-14T08:11:22Z</time>
      </trkpt>
      <trkpt lat="45.932750590145588" lon="9.355838745832443">
        <ele>618.75</ele>
        <time>2017-05-14T08:11:25Z</time>
      </trkpt>
      <trkpt lat="45.932776322588325" lon="9.355940837413073">
        <ele>618.75</ele>
        <time>2017-05-14T08:11:31Z</time>
      </trkpt>
      <trkpt lat="45.932786967605352" lon="9.355959026142955">
        <ele>618.75</ele>
        <time>2017-05-14T08:11:33Z</time>
      </trkpt>
      <trkpt lat="45.932848993688822" lon="9.356024153530598">
        <ele>619.23000000000002</ele>
        <time>2017-05-14T08:11:44Z</time>
      </trkpt>
      <trkpt lat="45.932854861021042" lon="9.356107972562313">
        <ele>619.71000000000004</ele>
        <time>2017-05-14T08:11:54Z</time>
      </trkpt>
      <trkpt lat="45.932887047529221" lon="9.356216182932258">
        <ele>620.66999999999996</ele>
        <time>2017-05-14T08:12:02Z</time>
      </trkpt>
      <trkpt lat="45.932863829657435" lon="9.356259265914559">
        <ele>621.63</ele>
        <time>2017-05-14T08:12:09Z</time>
      </trkpt>
      <trkpt lat="45.932807251811028" lon="9.356377702206373">
        <ele>623.54999999999995</ele>
        <time>2017-05-14T08:12:19Z</time>
      </trkpt>
      <trkpt lat="45.932798786088824" lon="9.356460683047772">
        <ele>624.02999999999997</ele>
        <time>2017-05-14T08:12:29Z</time>
      </trkpt>
      <trkpt lat="45.932772802188993" lon="9.356512567028403">
        <ele>625.96000000000004</ele>
        <time>2017-05-14T08:12:38Z</time>
      </trkpt>
      <trkpt lat="45.932749668136239" lon="9.356576018035412">
        <ele>626.44000000000005</ele>
        <time>2017-05-14T08:12:46Z</time>
      </trkpt>
      <trkpt lat="45.932725863531232" lon="9.356696549803019">
        <ele>627.88</ele>
        <time>2017-05-14T08:12:57Z</time>
      </trkpt>
      <trkpt lat="45.932747824117541" lon="9.356847675517201">
        <ele>628.84000000000003</ele>
        <time>2017-05-14T08:13:08Z</time>
      </trkpt>
      <trkpt lat="45.932752937078476" lon="9.356871899217367">
        <ele>629.32000000000005</ele>
        <time>2017-05-14T08:13:11Z</time>
      </trkpt>
      <trkpt lat="45.932777747511864" lon="9.356976337730885">
        <ele>630.75999999999999</ele>
        <time>2017-05-14T08:13:22Z</time>
      </trkpt>
      <trkpt lat="45.932811442762613" lon="9.357090499252081">
        <ele>632.67999999999995</ele>
        <time>2017-05-14T08:13:33Z</time>
      </trkpt>
      <trkpt lat="45.932832146063447" lon="9.357179682701826">
        <ele>633.64999999999998</ele>
        <time>2017-05-14T08:13:43Z</time>
      </trkpt>
      <trkpt lat="45.932855112478137" lon="9.357302729040384">
        <ele>635.09000000000003</ele>
        <time>2017-05-14T08:13:55Z</time>
      </trkpt>
      <trkpt lat="45.932882353663445" lon="9.357428541406989">
        <ele>636.04999999999995</ele>
        <time>2017-05-14T08:14:08Z</time>
      </trkpt>
      <trkpt lat="45.932881431654096" lon="9.357592994347215">
        <ele>637.00999999999999</ele>
        <time>2017-05-14T08:14:21Z</time>
      </trkpt>
      <trkpt lat="45.932887885719538" lon="9.357695002108812">
        <ele>637.97000000000003</ele>
        <time>2017-05-14T08:14:33Z</time>
      </trkpt>
      <trkpt lat="45.932899285107851" lon="9.357790052890778">
        <ele>638.92999999999995</ele>
        <time>2017-05-14T08:14:44Z</time>
      </trkpt>
      <trkpt lat="45.932938428595662" lon="9.3578717764467">
        <ele>641.34000000000003</ele>
        <time>2017-05-14T08:14:56Z</time>
      </trkpt>
      <trkpt lat="45.93297497369349" lon="9.357981579378247">
        <ele>642.77999999999997</ele>
        <time>2017-05-14T08:15:11Z</time>
      </trkpt>
      <trkpt lat="45.933006824925542" lon="9.357998007908464">
        <ele>644.70000000000005</ele>
        <time>2017-05-14T08:15:22Z</time>
      </trkpt>
      <trkpt lat="45.933028031140566" lon="9.357906980440021">
        <ele>646.62</ele>
        <time>2017-05-14T08:15:34Z</time>
      </trkpt>
      <trkpt lat="45.933029539883137" lon="9.357821065932512">
        <ele>648.54999999999995</ele>
        <time>2017-05-14T08:15:48Z</time>
      </trkpt>
      <trkpt lat="45.933034652844071" lon="9.357907818630338">
        <ele>649.99000000000001</ele>
        <time>2017-05-14T08:16:00Z</time>
      </trkpt>
      <trkpt lat="45.933069437742233" lon="9.357982752844691">
        <ele>651.90999999999997</ele>
        <time>2017-05-14T08:16:12Z</time>
      </trkpt>
      <trkpt lat="45.933105144649744" lon="9.358094651252031">
        <ele>653.83000000000004</ele>
        <time>2017-05-14T08:16:25Z</time>
      </trkpt>
      <trkpt lat="45.933142360299826" lon="9.358201436698437">
        <ele>655.27999999999997</ele>
        <time>2017-05-14T08:16:37Z</time>
      </trkpt>
      <trkpt lat="45.933190556243062" lon="9.358257176354528">
        <ele>656.72000000000003</ele>
        <time>2017-05-14T08:16:49Z</time>
      </trkpt>
      <trkpt lat="45.933176474645734" lon="9.358201520517469">
        <ele>658.15999999999997</ele>
        <time>2017-05-14T08:16:59Z</time>
      </trkpt>
      <trkpt lat="45.933186365291476" lon="9.358122646808624">
        <ele>657.67999999999995</ele>
        <time>2017-05-14T08:17:11Z</time>
      </trkpt>
      <trkpt lat="45.933196255937219" lon="9.358179895207286">
        <ele>657.67999999999995</ele>
        <time>2017-05-14T08:17:22Z</time>
      </trkpt>
      <trkpt lat="45.933203464373946" lon="9.358188277110457">
        <ele>661.51999999999998</ele>
        <time>2017-05-14T08:17:24Z</time>
      </trkpt>
      <trkpt lat="45.933208325877786" lon="9.358188612386584">
        <ele>661.51999999999998</ele>
        <time>2017-05-14T08:17:25Z</time>
      </trkpt>
      <trkpt lat="45.933246463537216" lon="9.358207890763879">
        <ele>662.97000000000003</ele>
        <time>2017-05-14T08:17:37Z</time>
      </trkpt>
      <trkpt lat="45.933292731642723" lon="9.358139410614967">
        <ele>665.37</ele>
        <time>2017-05-14T08:17:49Z</time>
      </trkpt>
      <trkpt lat="45.9332818351686" lon="9.358063722029328">
        <ele>667.28999999999996</ele>
        <time>2017-05-14T08:18:01Z</time>
      </trkpt>
      <trkpt lat="45.933262640610337" lon="9.357987027615309">
        <ele>669.70000000000005</ele>
        <time>2017-05-14T08:18:14Z</time>
      </trkpt>
      <trkpt lat="45.933263646438718" lon="9.357924917712808">
        <ele>671.62</ele>
        <time>2017-05-14T08:18:25Z</time>
      </trkpt>
      <trkpt lat="45.933337826281786" lon="9.357983423396945">
        <ele>673.05999999999995</ele>
        <time>2017-05-14T08:18:37Z</time>
      </trkpt>
      <trkpt lat="45.933383423835039" lon="9.358031786978245">
        <ele>674.98000000000002</ele>
        <time>2017-05-14T08:18:48Z</time>
      </trkpt>
      <trkpt lat="45.933422315865755" lon="9.358099596574903">
        <ele>676.90999999999997</ele>
        <time>2017-05-14T08:19:01Z</time>
      </trkpt>
      <trkpt lat="45.933412089943886" lon="9.358192216604948">
        <ele>678.83000000000004</ele>
        <time>2017-05-14T08:19:13Z</time>
      </trkpt>
      <trkpt lat="45.933420220389962" lon="9.358263211324811">
        <ele>680.26999999999998</ele>
        <time>2017-05-14T08:19:24Z</time>
      </trkpt>
      <trkpt lat="45.933469170704484" lon="9.358323058113456">
        <ele>682.66999999999996</ele>
        <time>2017-05-14T08:19:37Z</time>
      </trkpt>
      <trkpt lat="45.933524323627353" lon="9.358368488028646">
        <ele>684.60000000000002</ele>
        <time>2017-05-14T08:19:50Z</time>
      </trkpt>
      <trkpt lat="45.933571765199304" lon="9.3584019318223">
        <ele>687</ele>
        <time>2017-05-14T08:20:01Z</time>
      </trkpt>
      <trkpt lat="45.93360579572618" lon="9.358363961800933">
        <ele>687.96000000000004</ele>
        <time>2017-05-14T08:20:11Z</time>
      </trkpt>
      <trkpt lat="45.933595905080438" lon="9.358272012323141">
        <ele>690.36000000000001</ele>
        <time>2017-05-14T08:20:24Z</time>
      </trkpt>
      <trkpt lat="45.93359649181366" lon="9.358191210776568">
        <ele>693.25</ele>
        <time>2017-05-14T08:20:40Z</time>
      </trkpt>
      <trkpt lat="45.933623649179935" lon="9.358140751719475">
        <ele>694.69000000000005</ele>
        <time>2017-05-14T08:20:50Z</time>
      </trkpt>
      <trkpt lat="45.933640748262405" lon="9.358070511370897">
        <ele>697.09000000000003</ele>
        <time>2017-05-14T08:21:02Z</time>
      </trkpt>
      <trkpt lat="45.933685004711151" lon="9.358055088669062">
        <ele>698.04999999999995</ele>
        <time>2017-05-14T08:21:12Z</time>
      </trkpt>
      <trkpt lat="45.933686681091785" lon="9.358122060075402">
        <ele>699.98000000000002</ele>
        <time>2017-05-14T08:21:24Z</time>
      </trkpt>
      <trkpt lat="45.933711575344205" lon="9.358179308474064">
        <ele>701.89999999999998</ele>
        <time>2017-05-14T08:21:35Z</time>
      </trkpt>
      <trkpt lat="45.933741498738527" lon="9.358245190232992">
        <ele>703.82000000000005</ele>
        <time>2017-05-14T08:21:47Z</time>
      </trkpt>
      <trkpt lat="45.933761950582266" lon="9.35829346999526">
        <ele>705.25999999999999</ele>
        <time>2017-05-14T08:21:58Z</time>
      </trkpt>
      <trkpt lat="45.933772092685103" lon="9.358396315947175">
        <ele>707.66999999999996</ele>
        <time>2017-05-14T08:22:11Z</time>
      </trkpt>
      <trkpt lat="45.933807464316487" lon="9.358434872701764">
        <ele>709.59000000000003</ele>
        <time>2017-05-14T08:22:24Z</time>
      </trkpt>
      <trkpt lat="45.933867478743196" lon="9.358358345925808">
        <ele>711.50999999999999</ele>
        <time>2017-05-14T08:22:36Z</time>
      </trkpt>
      <trkpt lat="45.93391316011548" lon="9.358300259336829">
        <ele>713.91999999999996</ele>
        <time>2017-05-14T08:22:49Z</time>
      </trkpt>
      <trkpt lat="45.933906370773911" lon="9.358240244910121">
        <ele>715.84000000000003</ele>
        <time>2017-05-14T08:23:02Z</time>
      </trkpt>
      <trkpt lat="45.933930678293109" lon="9.358338648453355">
        <ele>717.27999999999997</ele>
        <time>2017-05-14T08:23:15Z</time>
      </trkpt>
      <trkpt lat="45.933949872851372" lon="9.358390113338828">
        <ele>718.72000000000003</ele>
        <time>2017-05-14T08:23:27Z</time>
      </trkpt>
      <trkpt lat="45.933955069631338" lon="9.358466891571879">
        <ele>720.15999999999997</ele>
        <time>2017-05-14T08:23:40Z</time>
      </trkpt>
      <trkpt lat="45.933937216177583" lon="9.358544424176216">
        <ele>722.09000000000003</ele>
        <time>2017-05-14T08:23:52Z</time>
      </trkpt>
      <trkpt lat="45.933937132358551" lon="9.358638050034642">
        <ele>724.00999999999999</ele>
        <time>2017-05-14T08:24:05Z</time>
      </trkpt>
      <trkpt lat="45.933967893943191" lon="9.358730921521783">
        <ele>726.40999999999997</ele>
        <time>2017-05-14T08:24:19Z</time>
      </trkpt>
      <trkpt lat="45.933985915035009" lon="9.358809040859342">
        <ele>728.34000000000003</ele>
        <time>2017-05-14T08:24:31Z</time>
      </trkpt>
      <trkpt lat="45.93397761695087" lon="9.358888249844313">
        <ele>729.77999999999997</ele>
        <time>2017-05-14T08:24:44Z</time>
      </trkpt>
      <trkpt lat="45.933989267796278" lon="9.358959412202239">
        <ele>731.70000000000005</ele>
        <time>2017-05-14T08:24:55Z</time>
      </trkpt>
      <trkpt lat="45.933977784588933" lon="9.35903032310307">
        <ele>733.62</ele>
        <time>2017-05-14T08:25:08Z</time>
      </trkpt>
      <trkpt lat="45.93395465053618" lon="9.359077848494053">
        <ele>735.07000000000005</ele>
        <time>2017-05-14T08:25:19Z</time>
      </trkpt>
      <trkpt lat="45.93394928611815" lon="9.359152615070343">
        <ele>736.99000000000001</ele>
        <time>2017-05-14T08:25:30Z</time>
      </trkpt>
      <trkpt lat="45.933987339958549" lon="9.359202571213245">
        <ele>738.90999999999997</ele>
        <time>2017-05-14T08:25:41Z</time>
      </trkpt>
      <trkpt lat="45.934001673012972" lon="9.359162421897054">
        <ele>739.38999999999999</ele>
        <time>2017-05-14T08:25:50Z</time>
      </trkpt>
      <trkpt lat="45.93405338935554" lon="9.359082626178861">
        <ele>741.78999999999996</ele>
        <time>2017-05-14T08:26:02Z</time>
      </trkpt>
      <trkpt lat="45.934089850634336" lon="9.359078602865338">
        <ele>743.24000000000001</ele>
        <time>2017-05-14T08:26:13Z</time>
      </trkpt>
      <trkpt lat="45.934060933068395" lon="9.359169378876686">
        <ele>744.67999999999995</ele>
        <time>2017-05-14T08:26:24Z</time>
      </trkpt>
      <trkpt lat="45.934043414890766" lon="9.359243391081691">
        <ele>745.63999999999999</ele>
        <time>2017-05-14T08:26:35Z</time>
      </trkpt>
      <trkpt lat="45.933993710204959" lon="9.359307680279017">
        <ele>747.55999999999995</ele>
        <time>2017-05-14T08:26:46Z</time>
      </trkpt>
      <trkpt lat="45.933973928913474" lon="9.359409101307392">
        <ele>749.49000000000001</ele>
        <time>2017-05-14T08:26:59Z</time>
      </trkpt>
      <trkpt lat="45.934005444869399" lon="9.35940901748836">
        <ele>750.92999999999995</ele>
        <time>2017-05-14T08:27:11Z</time>
      </trkpt>
      <trkpt lat="45.934048276394606" lon="9.359389068558812">
        <ele>751.88999999999999</ele>
        <time>2017-05-14T08:27:19Z</time>
      </trkpt>
      <trkpt lat="45.934053808450699" lon="9.35941438190639">
        <ele>753.80999999999995</ele>
        <time>2017-05-14T08:27:30Z</time>
      </trkpt>
      <trkpt lat="45.934004858136177" lon="9.359507923945785">
        <ele>755.73000000000002</ele>
        <time>2017-05-14T08:27:42Z</time>
      </trkpt>
      <trkpt lat="45.934020364657044" lon="9.359531225636601">
        <ele>757.17999999999995</ele>
        <time>2017-05-14T08:27:51Z</time>
      </trkpt>
      <trkpt lat="45.934061435982585" lon="9.359521921724081">
        <ele>758.13999999999999</ele>
        <time>2017-05-14T08:28:02Z</time>
      </trkpt>
      <trkpt lat="45.934077613055706" lon="9.359546732157469">
        <ele>759.58000000000004</ele>
        <time>2017-05-14T08:28:11Z</time>
      </trkpt>
      <trkpt lat="45.934047102928162" lon="9.359616637229919">
        <ele>761.5</ele>
        <time>2017-05-14T08:28:21Z</time>
      </trkpt>
      <trkpt lat="45.934028327465057" lon="9.359668269753456">
        <ele>762.46000000000004</ele>
        <time>2017-05-14T08:28:31Z</time>
      </trkpt>
      <trkpt lat="45.934078954160213" lon="9.359721578657627">
        <ele>763.89999999999998</ele>
        <time>2017-05-14T08:28:39Z</time>
      </trkpt>
      <trkpt lat="45.934074176475406" lon="9.359761057421565">
        <ele>765.35000000000002</ele>
        <time>2017-05-14T08:28:51Z</time>
      </trkpt>
      <trkpt lat="45.934099741280079" lon="9.359810510650277">
        <ele>767.26999999999998</ele>
        <time>2017-05-14T08:29:02Z</time>
      </trkpt>
      <trkpt lat="45.934100328013301" lon="9.359838590025902">
        <ele>767.75</ele>
        <time>2017-05-14T08:29:18Z</time>
      </trkpt>
      <trkpt lat="45.934136621654034" lon="9.359917296096683">
        <ele>769.66999999999996</ele>
        <time>2017-05-14T08:29:31Z</time>
      </trkpt>
      <trkpt lat="45.934186661615968" lon="9.359997594729066">
        <ele>771.11000000000001</ele>
        <time>2017-05-14T08:29:42Z</time>
      </trkpt>
      <trkpt lat="45.934219099581242" lon="9.360087867826223">
        <ele>773.03999999999996</ele>
        <time>2017-05-14T08:29:55Z</time>
      </trkpt>
      <trkpt lat="45.934244999662042" lon="9.360148385167122">
        <ele>774</ele>
        <time>2017-05-14T08:30:07Z</time>
      </trkpt>
      <trkpt lat="45.934267714619637" lon="9.360190127044916">
        <ele>774.96000000000004</ele>
        <time>2017-05-14T08:30:17Z</time>
      </trkpt>
      <trkpt lat="45.934305768460035" lon="9.360240586102009">
        <ele>777.36000000000001</ele>
        <time>2017-05-14T08:30:28Z</time>
      </trkpt>
      <trkpt lat="45.934325801208615" lon="9.360266486182809">
        <ele>779.28999999999996</ele>
        <time>2017-05-14T08:30:41Z</time>
      </trkpt>
      <trkpt lat="45.934336865320802" lon="9.360331781208515">
        <ele>781.21000000000004</ele>
        <time>2017-05-14T08:30:52Z</time>
      </trkpt>
      <trkpt lat="45.934349438175559" lon="9.360344773158431">
        <ele>782.16999999999996</ele>
        <time>2017-05-14T08:31:04Z</time>
      </trkpt>
      <trkpt lat="45.934354132041335" lon="9.360346114262939">
        <ele>782.16999999999996</ele>
        <time>2017-05-14T08:31:23Z</time>
      </trkpt>
      <trkpt lat="45.934389252215624" lon="9.360339995473623">
        <ele>783.13</ele>
        <time>2017-05-14T08:31:34Z</time>
      </trkpt>
      <trkpt lat="45.934383301064372" lon="9.360315268859267">
        <ele>784.09000000000003</ele>
        <time>2017-05-14T08:31:46Z</time>
      </trkpt>
      <trkpt lat="45.934413643553853" lon="9.360335050150752">
        <ele>786.5</ele>
        <time>2017-05-14T08:31:56Z</time>
      </trkpt>
      <trkpt lat="45.934463012963533" lon="9.360401937738061">
        <ele>788.89999999999998</ele>
        <time>2017-05-14T08:32:07Z</time>
      </trkpt>
      <trkpt lat="45.934511292725801" lon="9.360478213056922">
        <ele>791.77999999999997</ele>
        <time>2017-05-14T08:32:22Z</time>
      </trkpt>
      <trkpt lat="45.934542138129473" lon="9.360511489212513">
        <ele>793.71000000000004</ele>
        <time>2017-05-14T08:32:33Z</time>
      </trkpt>
      <trkpt lat="45.934572648257017" lon="9.360557505860925">
        <ele>795.63</ele>
        <time>2017-05-14T08:32:43Z</time>
      </trkpt>
      <trkpt lat="45.934620341286063" lon="9.360601594671607">
        <ele>797.54999999999995</ele>
        <time>2017-05-14T08:32:55Z</time>
      </trkpt>
      <trkpt lat="45.934621933847666" lon="9.360542502254248">
        <ele>798.99000000000001</ele>
        <time>2017-05-14T08:33:07Z</time>
      </trkpt>
      <trkpt lat="45.934615479782224" lon="9.360466226935387">
        <ele>800.44000000000005</ele>
        <time>2017-05-14T08:33:17Z</time>
      </trkpt>
      <trkpt lat="45.934624616056681" lon="9.360395316034555">
        <ele>802.84000000000003</ele>
        <time>2017-05-14T08:33:30Z</time>
      </trkpt>
      <trkpt lat="45.934609025716782" lon="9.360349467024207">
        <ele>804.27999999999997</ele>
        <time>2017-05-14T08:33:42Z</time>
      </trkpt>
      <trkpt lat="45.934602068737149" lon="9.360348377376795">
        <ele>804.75999999999999</ele>
        <time>2017-05-14T08:33:53Z</time>
      </trkpt>
      <trkpt lat="45.934582622721791" lon="9.360272604972124">
        <ele>807.15999999999997</ele>
        <time>2017-05-14T08:34:04Z</time>
      </trkpt>
      <trkpt lat="45.93462310731411" lon="9.36027922667563">
        <ele>809.57000000000005</ele>
        <time>2017-05-14T08:34:16Z</time>
      </trkpt>
      <trkpt lat="45.934668201953173" lon="9.360301690176129">
        <ele>811.49000000000001</ele>
        <time>2017-05-14T08:34:28Z</time>
      </trkpt>
      <trkpt lat="45.934657556936145" lon="9.360233880579472">
        <ele>812.92999999999995</ele>
        <time>2017-05-14T08:34:38Z</time>
      </trkpt>
      <trkpt lat="45.934614557772875" lon="9.360155509784818">
        <ele>815.34000000000003</ele>
        <time>2017-05-14T08:34:51Z</time>
      </trkpt>
      <trkpt lat="45.934569798409939" lon="9.360091220587492">
        <ele>818.70000000000005</ele>
        <time>2017-05-14T08:35:04Z</time>
      </trkpt>
      <trkpt lat="45.934602404013276" lon="9.360075294971466">
        <ele>819.17999999999995</ele>
        <time>2017-05-14T08:35:15Z</time>
      </trkpt>
      <trkpt lat="45.934668788686395" lon="9.36010236851871">
        <ele>821.10000000000002</ele>
        <time>2017-05-14T08:35:28Z</time>
      </trkpt>
      <trkpt lat="45.934721007943153" lon="9.360119132325053">
        <ele>823.02999999999997</ele>
        <time>2017-05-14T08:35:42Z</time>
      </trkpt>
      <trkpt lat="45.934767192229629" lon="9.36014587059617">
        <ele>824.95000000000005</ele>
        <time>2017-05-14T08:35:55Z</time>
      </trkpt>
      <trkpt lat="45.934831984341145" lon="9.360180655494332">
        <ele>826.87</ele>
        <time>2017-05-14T08:36:08Z</time>
      </trkpt>
      <trkpt lat="45.934882024303079" lon="9.360177973285317">
        <ele>827.83000000000004</ele>
        <time>2017-05-14T08:36:18Z</time>
      </trkpt>
      <trkpt lat="45.93493390828371" lon="9.360206639394164">
        <ele>828.78999999999996</ele>
        <time>2017-05-14T08:36:29Z</time>
      </trkpt>
      <trkpt lat="45.934966262429953" lon="9.360268246382475">
        <ele>829.75999999999999</ele>
        <time>2017-05-14T08:36:40Z</time>
      </trkpt>
      <trkpt lat="45.93499694019556" lon="9.360336223617196">
        <ele>831.20000000000005</ele>
        <time>2017-05-14T08:36:53Z</time>
      </trkpt>
      <trkpt lat="45.935050332918763" lon="9.360402608290315">
        <ele>832.63999999999999</ele>
        <time>2017-05-14T08:37:04Z</time>
      </trkpt>
      <trkpt lat="45.935101127251983" lon="9.360489444807172">
        <ele>834.55999999999995</ele>
        <time>2017-05-14T08:37:16Z</time>
      </trkpt>
      <trkpt lat="45.935165751725435" lon="9.360572006553412">
        <ele>836</ele>
        <time>2017-05-14T08:37:30Z</time>
      </trkpt>
      <trkpt lat="45.93521143309772" lon="9.360639983788133">
        <ele>836.96000000000004</ele>
        <time>2017-05-14T08:37:43Z</time>
      </trkpt>
      <trkpt lat="45.935279745608568" lon="9.360728412866592">
        <ele>837.92999999999995</ele>
        <time>2017-05-14T08:37:55Z</time>
      </trkpt>
      <trkpt lat="45.935287205502391" lon="9.360735286027193">
        <ele>837.92999999999995</ele>
        <time>2017-05-14T08:37:56Z</time>
      </trkpt>
      <trkpt lat="45.935359541326761" lon="9.360790103673935">
        <ele>838.40999999999997</ele>
        <time>2017-05-14T08:38:09Z</time>
      </trkpt>
      <trkpt lat="45.935418801382184" lon="9.360822206363082">
        <ele>840.33000000000004</ele>
        <time>2017-05-14T08:38:22Z</time>
      </trkpt>
      <trkpt lat="45.935416873544455" lon="9.36082405038178">
        <ele>840.33000000000004</ele>
        <time>2017-05-14T08:38:23Z</time>
      </trkpt>
      <trkpt lat="45.935426261276007" lon="9.360856153070927">
        <ele>840.33000000000004</ele>
        <time>2017-05-14T08:38:37Z</time>
      </trkpt>
      <trkpt lat="45.935428189113736" lon="9.360864534974098">
        <ele>840.33000000000004</ele>
        <time>2017-05-14T08:38:50Z</time>
      </trkpt>
      <trkpt lat="45.935464901849627" lon="9.360840059816837">
        <ele>840.80999999999995</ele>
        <time>2017-05-14T08:39:01Z</time>
      </trkpt>
      <trkpt lat="45.935452161356807" lon="9.360847938805819">
        <ele>841.28999999999996</ele>
        <time>2017-05-14T08:39:14Z</time>
      </trkpt>
      <trkpt lat="45.935444952920079" lon="9.360855650156736">
        <ele>841.28999999999996</ele>
        <time>2017-05-14T08:39:32Z</time>
      </trkpt>
      <trkpt lat="45.935462722554803" lon="9.360844334587455">
        <ele>841.76999999999998</ele>
        <time>2017-05-14T08:39:47Z</time>
      </trkpt>
      <trkpt lat="45.935551738366485" lon="9.360917005687952">
        <ele>843.21000000000004</ele>
        <time>2017-05-14T08:39:59Z</time>
      </trkpt>
      <trkpt lat="45.93562189489603" lon="9.361003590747714">
        <ele>845.13999999999999</ele>
        <time>2017-05-14T08:40:10Z</time>
      </trkpt>
      <trkpt lat="45.935740666463971" lon="9.361044159159064">
        <ele>846.10000000000002</ele>
        <time>2017-05-14T08:40:23Z</time>
      </trkpt>
      <trkpt lat="45.935821887105703" lon="9.361023455858231">
        <ele>847.05999999999995</ele>
        <time>2017-05-14T08:40:36Z</time>
      </trkpt>
      <trkpt lat="45.935892546549439" lon="9.361020438373089">
        <ele>847.53999999999996</ele>
        <time>2017-05-14T08:40:45Z</time>
      </trkpt>
      <trkpt lat="45.93591308221221" lon="9.361069472506642">
        <ele>847.53999999999996</ele>
        <time>2017-05-14T08:40:49Z</time>
      </trkpt>
      <trkpt lat="45.935934204608202" lon="9.361189668998122">
        <ele>848.01999999999998</ele>
        <time>2017-05-14T08:40:55Z</time>
      </trkpt>
      <trkpt lat="45.935941580682993" lon="9.36134347692132">
        <ele>849.94000000000005</ele>
        <time>2017-05-14T08:41:06Z</time>
      </trkpt>
      <trkpt lat="45.935951387509704" lon="9.361456464976072">
        <ele>849.46000000000004</ele>
        <time>2017-05-14T08:41:18Z</time>
      </trkpt>
      <trkpt lat="45.935938144102693" lon="9.361587893217802">
        <ele>850.41999999999996</ele>
        <time>2017-05-14T08:41:29Z</time>
      </trkpt>
      <trkpt lat="45.935943089425564" lon="9.36165519990027">
        <ele>851.38</ele>
        <time>2017-05-14T08:41:40Z</time>
      </trkpt>
      <trkpt lat="45.935982400551438" lon="9.361718399450183">
        <ele>853.30999999999995</ele>
        <time>2017-05-14T08:41:51Z</time>
      </trkpt>
      <trkpt lat="45.936040738597512" lon="9.36179400421679">
        <ele>855.71000000000004</ele>
        <time>2017-05-14T08:42:04Z</time>
      </trkpt>
      <trkpt lat="45.936095556244254" lon="9.361872458830476">
        <ele>857.63</ele>
        <time>2017-05-14T08:42:17Z</time>
      </trkpt>
      <trkpt lat="45.936140734702349" lon="9.361926941201091">
        <ele>859.55999999999995</ele>
        <time>2017-05-14T08:42:29Z</time>
      </trkpt>
      <trkpt lat="45.936202090233564" lon="9.361974382773042">
        <ele>861</ele>
        <time>2017-05-14T08:42:41Z</time>
      </trkpt>
      <trkpt lat="45.936250789090991" lon="9.362020147964358">
        <ele>862.91999999999996</ele>
        <time>2017-05-14T08:42:55Z</time>
      </trkpt>
      <trkpt lat="45.936281634494662" lon="9.362084856256843">
        <ele>865.32000000000005</ele>
        <time>2017-05-14T08:43:07Z</time>
      </trkpt>
      <trkpt lat="45.936324801295996" lon="9.362166412174702">
        <ele>865.79999999999995</ele>
        <time>2017-05-14T08:43:19Z</time>
      </trkpt>
      <trkpt lat="45.936367129907012" lon="9.362238999456167">
        <ele>867.73000000000002</ele>
        <time>2017-05-14T08:43:32Z</time>
      </trkpt>
      <trkpt lat="45.936419349163771" lon="9.362328182905912">
        <ele>869.64999999999998</ele>
        <time>2017-05-14T08:43:45Z</time>
      </trkpt>
      <trkpt lat="45.936429491266608" lon="9.362381240352988">
        <ele>871.09000000000003</ele>
        <time>2017-05-14T08:43:58Z</time>
      </trkpt>
      <trkpt lat="45.936399651691318" lon="9.362361542880535">
        <ele>870.61000000000001</ele>
        <time>2017-05-14T08:44:07Z</time>
      </trkpt>
      <trkpt lat="45.936391269788146" lon="9.362347461283207">
        <ele>870.13</ele>
        <time>2017-05-14T08:44:09Z</time>
      </trkpt>
      <trkpt lat="45.936355646699667" lon="9.362271772697568">
        <ele>868.69000000000005</ele>
        <time>2017-05-14T08:44:21Z</time>
      </trkpt>
      <trkpt lat="45.936379283666611" lon="9.36226892285049">
        <ele>868.69000000000005</ele>
        <time>2017-05-14T08:44:47Z</time>
      </trkpt>
      <trkpt lat="45.936409123241901" lon="9.362328350543976">
        <ele>869.64999999999998</ele>
        <time>2017-05-14T08:44:55Z</time>
      </trkpt>
      <trkpt lat="45.936436364427209" lon="9.362409235909581">
        <ele>871.57000000000005</ele>
        <time>2017-05-14T08:45:06Z</time>
      </trkpt>
      <trkpt lat="45.936464862897992" lon="9.362489450722933">
        <ele>873.5</ele>
        <time>2017-05-14T08:45:16Z</time>
      </trkpt>
      <trkpt lat="45.936461174860597" lon="9.362592631950975">
        <ele>875.89999999999998</ele>
        <time>2017-05-14T08:45:27Z</time>
      </trkpt>
      <trkpt lat="45.936389090493321" lon="9.362679971382022">
        <ele>877.82000000000005</ele>
        <time>2017-05-14T08:45:40Z</time>
      </trkpt>
      <trkpt lat="45.936320526525378" lon="9.362698663026094">
        <ele>879.74000000000001</ele>
        <time>2017-05-14T08:45:50Z</time>
      </trkpt>
      <trkpt lat="45.936277778819203" lon="9.362756330519915">
        <ele>881.66999999999996</ele>
        <time>2017-05-14T08:46:01Z</time>
      </trkpt>
      <trkpt lat="45.936260260641575" lon="9.362809471786022">
        <ele>882.14999999999998</ele>
        <time>2017-05-14T08:46:06Z</time>
      </trkpt>
      <trkpt lat="45.936270235106349" lon="9.36289245262742">
        <ele>884.07000000000005</ele>
        <time>2017-05-14T08:46:16Z</time>
      </trkpt>
      <trkpt lat="45.936280293390155" lon="9.362976271659136">
        <ele>885.99000000000001</ele>
        <time>2017-05-14T08:46:27Z</time>
      </trkpt>
      <trkpt lat="45.936327399685979" lon="9.363000327721238">
        <ele>887.90999999999997</ele>
        <time>2017-05-14T08:46:37Z</time>
      </trkpt>
      <trkpt lat="45.936362855136395" lon="9.362953389063478">
        <ele>889.36000000000001</ele>
        <time>2017-05-14T08:46:47Z</time>
      </trkpt>
      <trkpt lat="45.936356568709016" lon="9.362937128171325">
        <ele>889.36000000000001</ele>
        <time>2017-05-14T08:47:03Z</time>
      </trkpt>
      <trkpt lat="45.9363729134202" lon="9.362902007997036">
        <ele>890.79999999999995</ele>
        <time>2017-05-14T08:47:10Z</time>
      </trkpt>
      <trkpt lat="45.936396382749081" lon="9.362980462610722">
        <ele>892.24000000000001</ele>
        <time>2017-05-14T08:47:19Z</time>
      </trkpt>
      <trkpt lat="45.936428653076291" lon="9.36307517811656">
        <ele>894.15999999999997</ele>
        <time>2017-05-14T08:47:29Z</time>
      </trkpt>
      <trkpt lat="45.93643493950367" lon="9.363209288567305">
        <ele>896.57000000000005</ele>
        <time>2017-05-14T08:47:43Z</time>
      </trkpt>
      <trkpt lat="45.936441896483302" lon="9.363315152004361">
        <ele>898.00999999999999</ele>
        <time>2017-05-14T08:47:53Z</time>
      </trkpt>
      <trkpt lat="45.936450948938727" lon="9.363396959379315">
        <ele>899.45000000000005</ele>
        <time>2017-05-14T08:48:01Z</time>
      </trkpt>
      <trkpt lat="45.936429994180799" lon="9.363524531945586">
        <ele>901.85000000000002</ele>
        <time>2017-05-14T08:48:14Z</time>
      </trkpt>
      <trkpt lat="45.936412140727043" lon="9.363650176674128">
        <ele>904.25999999999999</ele>
        <time>2017-05-14T08:48:27Z</time>
      </trkpt>
      <trkpt lat="45.93640711158514" lon="9.363766266033053">
        <ele>906.17999999999995</ele>
        <time>2017-05-14T08:48:40Z</time>
      </trkpt>
      <trkpt lat="45.936394706368446" lon="9.363871710374951">
        <ele>907.62</ele>
        <time>2017-05-14T08:48:52Z</time>
      </trkpt>
      <trkpt lat="45.936370901763439" lon="9.3640177231282">
        <ele>909.05999999999995</ele>
        <time>2017-05-14T08:49:06Z</time>
      </trkpt>
      <trkpt lat="45.936370063573122" lon="9.364144457504153">
        <ele>910.50999999999999</ele>
        <time>2017-05-14T08:49:18Z</time>
      </trkpt>
      <trkpt lat="45.936374422162771" lon="9.364263480529189">
        <ele>912.42999999999995</ele>
        <time>2017-05-14T08:49:31Z</time>
      </trkpt>
      <trkpt lat="45.936378529295325" lon="9.364345036447048">
        <ele>914.35000000000002</ele>
        <time>2017-05-14T08:49:43Z</time>
      </trkpt>
      <trkpt lat="45.936388168483973" lon="9.364430364221335">
        <ele>915.78999999999996</ele>
        <time>2017-05-14T08:49:54Z</time>
      </trkpt>
      <trkpt lat="45.936377355828881" lon="9.364503789693117">
        <ele>916.26999999999998</ele>
        <time>2017-05-14T08:50:06Z</time>
      </trkpt>
      <trkpt lat="45.93636997975409" lon="9.36458601616323">
        <ele>916.26999999999998</ele>
        <time>2017-05-14T08:50:19Z</time>
      </trkpt>
      <trkpt lat="45.936379535123706" lon="9.364665728062391">
        <ele>916.26999999999998</ele>
        <time>2017-05-14T08:50:31Z</time>
      </trkpt>
      <trkpt lat="45.936378864571452" lon="9.364676624536514">
        <ele>921.55999999999995</ele>
        <time>2017-05-14T08:50:33Z</time>
      </trkpt>
      <trkpt lat="45.936381379142404" lon="9.364685090258718">
        <ele>922.03999999999996</ele>
        <time>2017-05-14T08:50:34Z</time>
      </trkpt>
      <trkpt lat="45.936425719410181" lon="9.364734627306461">
        <ele>923.96000000000004</ele>
        <time>2017-05-14T08:50:48Z</time>
      </trkpt>
      <trkpt lat="45.936454050242901" lon="9.364633793011308">
        <ele>926.37</ele>
        <time>2017-05-14T08:51:01Z</time>
      </trkpt>
      <trkpt lat="45.936484392732382" lon="9.364581741392613">
        <ele>929.25</ele>
        <time>2017-05-14T08:51:11Z</time>
      </trkpt>
      <trkpt lat="45.936524039134383" lon="9.364648126065731">
        <ele>930.21000000000004</ele>
        <time>2017-05-14T08:51:23Z</time>
      </trkpt>
      <trkpt lat="45.936540132388473" lon="9.364715097472072">
        <ele>932.13999999999999</ele>
        <time>2017-05-14T08:51:35Z</time>
      </trkpt>
      <trkpt lat="45.936560751870275" lon="9.364802269265056">
        <ele>934.05999999999995</ele>
        <time>2017-05-14T08:51:50Z</time>
      </trkpt>
      <trkpt lat="45.936583634465933" lon="9.364872677251697">
        <ele>935.98000000000002</ele>
        <time>2017-05-14T08:52:03Z</time>
      </trkpt>
      <trkpt lat="45.936615318059921" lon="9.364949958398938">
        <ele>937.89999999999998</ele>
        <time>2017-05-14T08:52:16Z</time>
      </trkpt>
      <trkpt lat="45.936620514839888" lon="9.365012235939503">
        <ele>939.83000000000004</ele>
        <time>2017-05-14T08:52:27Z</time>
      </trkpt>
      <trkpt lat="45.936609283089638" lon="9.36509370803833">
        <ele>941.75</ele>
        <time>2017-05-14T08:52:40Z</time>
      </trkpt>
      <trkpt lat="45.936605762690306" lon="9.365158751606941">
        <ele>943.66999999999996</ele>
        <time>2017-05-14T08:52:52Z</time>
      </trkpt>
      <trkpt lat="45.936610456556082" lon="9.36523737385869">
        <ele>945.59000000000003</ele>
        <time>2017-05-14T08:53:05Z</time>
      </trkpt>
      <trkpt lat="45.936611881479621" lon="9.365275427699089">
        <ele>946.55999999999995</ele>
        <time>2017-05-14T08:53:14Z</time>
      </trkpt>
      <trkpt lat="45.936605678871274" lon="9.365323539823294">
        <ele>948.48000000000002</ele>
        <time>2017-05-14T08:53:26Z</time>
      </trkpt>
      <trkpt lat="45.936608696356416" lon="9.365396127104759">
        <ele>950.39999999999998</ele>
        <time>2017-05-14T08:53:39Z</time>
      </trkpt>
      <trkpt lat="45.936635099351406" lon="9.365455051884055">
        <ele>952.32000000000005</ele>
        <time>2017-05-14T08:53:51Z</time>
      </trkpt>
      <trkpt lat="45.936664016917348" lon="9.365526884794235">
        <ele>954.25</ele>
        <time>2017-05-14T08:54:02Z</time>
      </trkpt>
      <trkpt lat="45.936681618914008" lon="9.365603495389223">
        <ele>954.25</ele>
        <time>2017-05-14T08:54:15Z</time>
      </trkpt>
      <trkpt lat="45.936715314164758" lon="9.365685218945146">
        <ele>954.25</ele>
        <time>2017-05-14T08:54:28Z</time>
      </trkpt>
      <trkpt lat="45.936726545915008" lon="9.365739617496729">
        <ele>959.04999999999995</ele>
        <time>2017-05-14T08:54:36Z</time>
      </trkpt>
      <trkpt lat="45.936727467924356" lon="9.36574699357152">
        <ele>959.04999999999995</ele>
        <time>2017-05-14T08:54:37Z</time>
      </trkpt>
      <trkpt lat="45.936766695231199" lon="9.365680692717433">
        <ele>960.98000000000002</ele>
        <time>2017-05-14T08:54:49Z</time>
      </trkpt>
      <trkpt lat="45.93680189922452" lon="9.365683123469353">
        <ele>962.89999999999998</ele>
        <time>2017-05-14T08:55:01Z</time>
      </trkpt>
      <trkpt lat="45.936840958893299" lon="9.365727044641972">
        <ele>964.34000000000003</ele>
        <time>2017-05-14T08:55:12Z</time>
      </trkpt>
      <trkpt lat="45.936872055754066" lon="9.365753196179867">
        <ele>966.25999999999999</ele>
        <time>2017-05-14T08:55:22Z</time>
      </trkpt>
      <trkpt lat="45.936898626387119" lon="9.365747412666678">
        <ele>967.70000000000005</ele>
        <time>2017-05-14T08:55:35Z</time>
      </trkpt>
      <trkpt lat="45.93694020062685" lon="9.365833159536123">
        <ele>969.14999999999998</ele>
        <time>2017-05-14T08:55:46Z</time>
      </trkpt>
      <trkpt lat="45.937013374641538" lon="9.365903064608574">
        <ele>970.59000000000003</ele>
        <time>2017-05-14T08:55:59Z</time>
      </trkpt>
      <trkpt lat="45.937040280550718" lon="9.365967186167836">
        <ele>972.50999999999999</ele>
        <time>2017-05-14T08:56:10Z</time>
      </trkpt>
      <trkpt lat="45.937058469280601" lon="9.366084868088365">
        <ele>974.42999999999995</ele>
        <time>2017-05-14T08:56:24Z</time>
      </trkpt>
      <trkpt lat="45.937097445130348" lon="9.36613348312676">
        <ele>975.88</ele>
        <time>2017-05-14T08:56:38Z</time>
      </trkpt>
      <trkpt lat="45.937118148431182" lon="9.366089142858982">
        <ele>978.27999999999997</ele>
        <time>2017-05-14T08:56:50Z</time>
      </trkpt>
      <trkpt lat="45.937110939994454" lon="9.365988057106733">
        <ele>980.20000000000005</ele>
        <time>2017-05-14T08:57:01Z</time>
      </trkpt>
      <trkpt lat="45.937140611931682" lon="9.365913039073348">
        <ele>982.12</ele>
        <time>2017-05-14T08:57:12Z</time>
      </trkpt>
      <trkpt lat="45.93719232827425" lon="9.365938603878021">
        <ele>984.04999999999995</ele>
        <time>2017-05-14T08:57:25Z</time>
      </trkpt>
      <trkpt lat="45.937208589166403" lon="9.366015633568168">
        <ele>986.45000000000005</ele>
        <time>2017-05-14T08:57:37Z</time>
      </trkpt>
      <trkpt lat="45.937254186719656" lon="9.366087717935443">
        <ele>988.85000000000002</ele>
        <time>2017-05-14T08:57:51Z</time>
      </trkpt>
      <trkpt lat="45.937270363792777" lon="9.366148989647627">
        <ele>991.25999999999999</ele>
        <time>2017-05-14T08:58:03Z</time>
      </trkpt>
      <trkpt lat="45.937307327985764" lon="9.366149408742786">
        <ele>993.17999999999995</ele>
        <time>2017-05-14T08:58:15Z</time>
      </trkpt>
      <trkpt lat="45.937296515330672" lon="9.366056704893708">
        <ele>994.62</ele>
        <time>2017-05-14T08:58:26Z</time>
      </trkpt>
      <trkpt lat="45.937308920547366" lon="9.366032481193543">
        <ele>995.10000000000002</ele>
        <time>2017-05-14T08:58:36Z</time>
      </trkpt>
      <trkpt lat="45.937284613028169" lon="9.366010185331106">
        <ele>995.58000000000004</ele>
        <time>2017-05-14T08:58:51Z</time>
      </trkpt>
      <trkpt lat="45.93734915368259" lon="9.36610272154212">
        <ele>997.50999999999999</ele>
        <time>2017-05-14T08:59:02Z</time>
      </trkpt>
      <trkpt lat="45.937381675466895" lon="9.36616231687367">
        <ele>999.90999999999997</ele>
        <time>2017-05-14T08:59:13Z</time>
      </trkpt>
      <trkpt lat="45.937399109825492" lon="9.366222247481346">
        <ele>1000.39</ele>
        <time>2017-05-14T08:59:22Z</time>
      </trkpt>
      <trkpt lat="45.937433559447527" lon="9.36627421528101">
        <ele>1003.27</ele>
        <time>2017-05-14T08:59:32Z</time>
      </trkpt>
      <trkpt lat="45.937450742349029" lon="9.366333307698369">
        <ele>1004.23</ele>
        <time>2017-05-14T08:59:44Z</time>
      </trkpt>
      <trkpt lat="45.937488544732332" lon="9.36638125218451">
        <ele>1007.6</ele>
        <time>2017-05-14T08:59:56Z</time>
      </trkpt>
      <trkpt lat="45.937501452863216" lon="9.366287291049957">
        <ele>1009.52</ele>
        <time>2017-05-14T09:00:08Z</time>
      </trkpt>
      <trkpt lat="45.937512684613466" lon="9.366213027387857">
        <ele>1011.9299999999999</ele>
        <time>2017-05-14T09:00:22Z</time>
      </trkpt>
      <trkpt lat="45.937555935233831" lon="9.366314616054297">
        <ele>1014.33</ele>
        <time>2017-05-14T09:00:34Z</time>
      </trkpt>
      <trkpt lat="45.937604382634163" lon="9.366384018212557">
        <ele>1016.25</ele>
        <time>2017-05-14T09:00:48Z</time>
      </trkpt>
      <trkpt lat="45.937644951045513" lon="9.366415198892355">
        <ele>1018.65</ele>
        <time>2017-05-14T09:00:59Z</time>
      </trkpt>
      <trkpt lat="45.937704043462873" lon="9.366475213319063">
        <ele>1020.1</ele>
        <time>2017-05-14T09:01:11Z</time>
      </trkpt>
      <trkpt lat="45.93775425106287" lon="9.366516200825572">
        <ele>1022.02</ele>
        <time>2017-05-14T09:01:21Z</time>
      </trkpt>
      <trkpt lat="45.937798088416457" lon="9.366596499457955">
        <ele>1023.9400000000001</ele>
        <time>2017-05-14T09:01:34Z</time>
      </trkpt>
      <trkpt lat="45.937788197770715" lon="9.366708481684327">
        <ele>1026.3399999999999</ele>
        <time>2017-05-14T09:01:47Z</time>
      </trkpt>
      <trkpt lat="45.93779381364584" lon="9.366743601858616">
        <ele>1027.3099999999999</ele>
        <time>2017-05-14T09:01:51Z</time>
      </trkpt>
      <trkpt lat="45.937790125608444" lon="9.366791546344757">
        <ele>1027.79</ele>
        <time>2017-05-14T09:02:02Z</time>
      </trkpt>
      <trkpt lat="45.937800519168377" lon="9.366843514144421">
        <ele>1029.23</ele>
        <time>2017-05-14T09:02:11Z</time>
      </trkpt>
      <trkpt lat="45.937777468934655" lon="9.366829097270966">
        <ele>1028.75</ele>
        <time>2017-05-14T09:02:23Z</time>
      </trkpt>
      <trkpt lat="45.937783000990748" lon="9.366835383698344">
        <ele>1028.27</ele>
        <time>2017-05-14T09:02:33Z</time>
      </trkpt>
      <trkpt lat="45.937798591330647" lon="9.36684736981988">
        <ele>1028.27</ele>
        <time>2017-05-14T09:02:50Z</time>
      </trkpt>
      <trkpt lat="45.937812086194754" lon="9.366846531629562">
        <ele>1028.27</ele>
        <time>2017-05-14T09:03:13Z</time>
      </trkpt>
      <trkpt lat="45.937797417864203" lon="9.366834964603186">
        <ele>1028.75</ele>
        <time>2017-05-14T09:03:30Z</time>
      </trkpt>
      <trkpt lat="45.937800854444504" lon="9.366847453638911">
        <ele>1030.1900000000001</ele>
        <time>2017-05-14T09:03:49Z</time>
      </trkpt>
      <trkpt lat="45.937804793938994" lon="9.366844603791833">
        <ele>1028.75</ele>
        <time>2017-05-14T09:04:00Z</time>
      </trkpt>
      <trkpt lat="45.9377664886415" lon="9.366861786693335">
        <ele>1029.23</ele>
        <time>2017-05-14T09:04:23Z</time>
      </trkpt>
      <trkpt lat="45.93778844922781" lon="9.366833372041583">
        <ele>1029.23</ele>
        <time>2017-05-14T09:04:45Z</time>
      </trkpt>
      <trkpt lat="45.93777135014534" lon="9.366852734237909">
        <ele>1029.23</ele>
        <time>2017-05-14T09:05:05Z</time>
      </trkpt>
      <trkpt lat="45.937754921615124" lon="9.36683714389801">
        <ele>1029.23</ele>
        <time>2017-05-14T09:05:28Z</time>
      </trkpt>
      <trkpt lat="45.937768500298262" lon="9.366804538294673">
        <ele>1029.23</ele>
        <time>2017-05-14T09:05:47Z</time>
      </trkpt>
      <trkpt lat="45.937791299074888" lon="9.366814931854606">
        <ele>1029.23</ele>
        <time>2017-05-14T09:06:04Z</time>
      </trkpt>
      <trkpt lat="45.937783168628812" lon="9.366812082007527">
        <ele>1029.23</ele>
        <time>2017-05-14T09:06:31Z</time>
      </trkpt>
      <trkpt lat="45.937761710956693" lon="9.366825828328729">
        <ele>1029.71</ele>
        <time>2017-05-14T09:06:55Z</time>
      </trkpt>
      <trkpt lat="45.937775457277894" lon="9.366822140291333">
        <ele>1029.71</ele>
        <time>2017-05-14T09:07:18Z</time>
      </trkpt>
      <trkpt lat="45.93777772039175" lon="9.366807220503688">
        <ele>1029.71</ele>
        <time>2017-05-14T09:07:49Z</time>
      </trkpt>
      <trkpt lat="45.937749221920967" lon="9.366822894662619">
        <ele>1029.71</ele>
        <time>2017-05-14T09:08:15Z</time>
      </trkpt>
      <trkpt lat="45.93774494715035" lon="9.366822643205524">
        <ele>1029.71</ele>
        <time>2017-05-14T09:08:41Z</time>
      </trkpt>
      <trkpt lat="45.937757939100266" lon="9.366802107542753">
        <ele>1030.1900000000001</ele>
        <time>2017-05-14T09:09:09Z</time>
      </trkpt>
      <trkpt lat="45.937757771462202" lon="9.366810573264957">
        <ele>1029.71</ele>
        <time>2017-05-14T09:09:36Z</time>
      </trkpt>
      <trkpt lat="45.937772523611784" lon="9.366791043430567">
        <ele>1030.1900000000001</ele>
        <time>2017-05-14T09:10:03Z</time>
      </trkpt>
      <trkpt lat="45.93777671456337" lon="9.366762544959784">
        <ele>1030.1900000000001</ele>
        <time>2017-05-14T09:10:26Z</time>
      </trkpt>
      <trkpt lat="45.937778139486909" lon="9.366792552173138">
        <ele>1030.1900000000001</ele>
        <time>2017-05-14T09:10:44Z</time>
      </trkpt>
      <trkpt lat="45.937809068709612" lon="9.366821805015206">
        <ele>1030.1900000000001</ele>
        <time>2017-05-14T09:11:10Z</time>
      </trkpt>
      <trkpt lat="45.937815858051181" lon="9.366811830550432">
        <ele>1030.1900000000001</ele>
        <time>2017-05-14T09:11:36Z</time>
      </trkpt>
      <trkpt lat="45.93781191855669" lon="9.366772351786494">
        <ele>1030.1900000000001</ele>
        <time>2017-05-14T09:12:08Z</time>
      </trkpt>
      <trkpt lat="45.937819462269545" lon="9.366777800023556">
        <ele>1030.6700000000001</ele>
        <time>2017-05-14T09:12:30Z</time>
      </trkpt>
      <trkpt lat="45.937815019860864" lon="9.366826163604856">
        <ele>1030.6700000000001</ele>
        <time>2017-05-14T09:12:54Z</time>
      </trkpt>
      <trkpt lat="45.937785767018795" lon="9.366841418668628">
        <ele>1031.1500000000001</ele>
        <time>2017-05-14T09:13:06Z</time>
      </trkpt>
      <trkpt lat="45.937789957970381" lon="9.366866145282984">
        <ele>1031.6300000000001</ele>
        <time>2017-05-14T09:13:21Z</time>
      </trkpt>
      <trkpt lat="45.937827760353684" lon="9.366869749501348">
        <ele>1033.55</ele>
        <time>2017-05-14T09:13:32Z</time>
      </trkpt>
      <trkpt lat="45.937852906063199" lon="9.366818787530065">
        <ele>1035</ele>
        <time>2017-05-14T09:13:42Z</time>
      </trkpt>
      <trkpt lat="45.937857516109943" lon="9.366792635992169">
        <ele>1035.96</ele>
        <time>2017-05-14T09:13:52Z</time>
      </trkpt>
      <trkpt lat="45.93784268014133" lon="9.366811830550432">
        <ele>1035.96</ele>
        <time>2017-05-14T09:14:10Z</time>
      </trkpt>
      <trkpt lat="45.937844943255186" lon="9.366802107542753">
        <ele>1036.4400000000001</ele>
        <time>2017-05-14T09:14:24Z</time>
      </trkpt>
      <trkpt lat="45.937822898849845" lon="9.366815350949764">
        <ele>1036.9200000000001</ele>
        <time>2017-05-14T09:14:44Z</time>
      </trkpt>
      <trkpt lat="45.9378407523036" lon="9.366771765053272">
        <ele>1036.9200000000001</ele>
        <time>2017-05-14T09:14:58Z</time>
      </trkpt>
      <trkpt lat="45.937885595485568" lon="9.366684425622225">
        <ele>1038.8399999999999</ele>
        <time>2017-05-14T09:15:09Z</time>
      </trkpt>
      <trkpt lat="45.937922224402428" lon="9.366622064262629">
        <ele>1040.76</ele>
        <time>2017-05-14T09:15:19Z</time>
      </trkpt>
      <trkpt lat="45.937981987372041" lon="9.366690209135413">
        <ele>1042.6900000000001</ele>
        <time>2017-05-14T09:15:31Z</time>
      </trkpt>
      <trkpt lat="45.93802347779274" lon="9.366762461140752">
        <ele>1045.5699999999999</ele>
        <time>2017-05-14T09:15:45Z</time>
      </trkpt>
      <trkpt lat="45.938027752563357" lon="9.366702195256949">
        <ele>1046.53</ele>
        <time>2017-05-14T09:15:55Z</time>
      </trkpt>
      <trkpt lat="45.938040493056178" lon="9.366629691794515">
        <ele>1047.97</ele>
        <time>2017-05-14T09:16:04Z</time>
      </trkpt>
      <trkpt lat="45.93803571537137" lon="9.366576885804534">
        <ele>1049.9000000000001</ele>
        <time>2017-05-14T09:16:15Z</time>
      </trkpt>
      <trkpt lat="45.938079468905926" lon="9.366630027070642">
        <ele>1051.8199999999999</ele>
        <time>2017-05-14T09:16:25Z</time>
      </trkpt>
      <trkpt lat="45.938119702041149" lon="9.366605384275317">
        <ele>1053.26</ele>
        <time>2017-05-14T09:16:34Z</time>
      </trkpt>
      <trkpt lat="45.938109140843153" lon="9.366582669317722">
        <ele>1054.22</ele>
        <time>2017-05-14T09:16:44Z</time>
      </trkpt>
      <trkpt lat="45.938092628493905" lon="9.366516033187509">
        <ele>1055.1800000000001</ele>
        <time>2017-05-14T09:16:54Z</time>
      </trkpt>
      <trkpt lat="45.938113834708929" lon="9.366486109793186">
        <ele>1056.6300000000001</ele>
        <time>2017-05-14T09:17:02Z</time>
      </trkpt>
      <trkpt lat="45.93818474560976" lon="9.366518212482333">
        <ele>1059.03</ele>
        <time>2017-05-14T09:17:15Z</time>
      </trkpt>
      <trkpt lat="45.938228163868189" lon="9.366505052894354">
        <ele>1060.47</ele>
        <time>2017-05-14T09:17:25Z</time>
      </trkpt>
      <trkpt lat="45.938298488035798" lon="9.366505388170481">
        <ele>1062.3900000000001</ele>
        <time>2017-05-14T09:17:36Z</time>
      </trkpt>
      <trkpt lat="45.938342660665512" lon="9.366476638242602">
        <ele>1064.8</ele>
        <time>2017-05-14T09:17:48Z</time>
      </trkpt>
      <trkpt lat="45.938284322619438" lon="9.366462640464306">
        <ele>1065.76</ele>
        <time>2017-05-14T09:17:59Z</time>
      </trkpt>
      <trkpt lat="45.9382379706949" lon="9.366450067609549">
        <ele>1067.6800000000001</ele>
        <time>2017-05-14T09:18:10Z</time>
      </trkpt>
      <trkpt lat="45.938197737559676" lon="9.36639441177249">
        <ele>1069.5999999999999</ele>
        <time>2017-05-14T09:18:20Z</time>
      </trkpt>
      <trkpt lat="45.938218859955668" lon="9.366337163373828">
        <ele>1071.05</ele>
        <time>2017-05-14T09:18:30Z</time>
      </trkpt>
      <trkpt lat="45.938259596005082" lon="9.366316711530089">
        <ele>1072.49</ele>
        <time>2017-05-14T09:18:39Z</time>
      </trkpt>
      <trkpt lat="45.938279628753662" lon="9.366308664903045">
        <ele>1073.45</ele>
        <time>2017-05-14T09:18:48Z</time>
      </trkpt>
      <trkpt lat="45.938351042568684" lon="9.366293493658304">
        <ele>1074.8900000000001</ele>
        <time>2017-05-14T09:18:59Z</time>
      </trkpt>
      <trkpt lat="45.93840460292995" lon="9.366299025714397">
        <ele>1076.8099999999999</ele>
        <time>2017-05-14T09:19:11Z</time>
      </trkpt>
      <trkpt lat="45.938472412526608" lon="9.366309586912394">
        <ele>1078.74</ele>
        <time>2017-05-14T09:19:21Z</time>
      </trkpt>
      <trkpt lat="45.938442824408412" lon="9.36626248061657">
        <ele>1080.1800000000001</ele>
        <time>2017-05-14T09:19:31Z</time>
      </trkpt>
      <trkpt lat="45.938394460827112" lon="9.366222582757473">
        <ele>1082.0999999999999</ele>
        <time>2017-05-14T09:19:41Z</time>
      </trkpt>
      <trkpt lat="45.93834450468421" lon="9.366178829222918">
        <ele>1083.54</ele>
        <time>2017-05-14T09:19:49Z</time>
      </trkpt>
      <trkpt lat="45.938307456672192" lon="9.366115462034941">
        <ele>1084.99</ele>
        <time>2017-05-14T09:19:58Z</time>
      </trkpt>
      <trkpt lat="45.938287675380707" lon="9.366035833954811">
        <ele>1087.3900000000001</ele>
        <time>2017-05-14T09:20:08Z</time>
      </trkpt>
      <trkpt lat="45.93826537951827" lon="9.365940364077687">
        <ele>1089.3099999999999</ele>
        <time>2017-05-14T09:20:20Z</time>
      </trkpt>
      <trkpt lat="45.93827853910625" lon="9.365864507853985">
        <ele>1091.71</ele>
        <time>2017-05-14T09:20:33Z</time>
      </trkpt>
      <trkpt lat="45.938338302075863" lon="9.36585545539856">
        <ele>1093.1600000000001</ele>
        <time>2017-05-14T09:20:43Z</time>
      </trkpt>
      <trkpt lat="45.938398903235793" lon="9.365883283317089">
        <ele>1095.0799999999999</ele>
        <time>2017-05-14T09:20:53Z</time>
      </trkpt>
      <trkpt lat="45.938457073643804" lon="9.36590239405632">
        <ele>1097.48</ele>
        <time>2017-05-14T09:21:04Z</time>
      </trkpt>
      <trkpt lat="45.938430838286877" lon="9.365882193669677">
        <ele>1098.4400000000001</ele>
        <time>2017-05-14T09:21:12Z</time>
      </trkpt>
      <trkpt lat="45.938381468877196" lon="9.365794183686376">
        <ele>1100.8499999999999</ele>
        <time>2017-05-14T09:21:25Z</time>
      </trkpt>
      <trkpt lat="45.938366381451488" lon="9.365723775699735">
        <ele>1102.29</ele>
        <time>2017-05-14T09:21:35Z</time>
      </trkpt>
      <trkpt lat="45.938420528545976" lon="9.36570935882628">
        <ele>1103.73</ele>
        <time>2017-05-14T09:21:46Z</time>
      </trkpt>
      <trkpt lat="45.938486829400063" lon="9.36576409265399">
        <ele>1106.1300000000001</ele>
        <time>2017-05-14T09:21:58Z</time>
      </trkpt>
      <trkpt lat="45.938541227951646" lon="9.365745820105076">
        <ele>1108.0599999999999</ele>
        <time>2017-05-14T09:22:10Z</time>
      </trkpt>
      <trkpt lat="45.93849646858871" lon="9.365716483443975">
        <ele>1109.5</ele>
        <time>2017-05-14T09:22:20Z</time>
      </trkpt>
      <trkpt lat="45.938472161069512" lon="9.365628976374865">
        <ele>1110.9400000000001</ele>
        <time>2017-05-14T09:22:31Z</time>
      </trkpt>
      <trkpt lat="45.938446931540966" lon="9.365551779046655">
        <ele>1112.8599999999999</ele>
        <time>2017-05-14T09:22:42Z</time>
      </trkpt>
      <trkpt lat="45.93850476667285" lon="9.36553442850709">
        <ele>1114.79</ele>
        <time>2017-05-14T09:22:53Z</time>
      </trkpt>
      <trkpt lat="45.938553465530276" lon="9.365577176213265">
        <ele>1116.71</ele>
        <time>2017-05-14T09:23:04Z</time>
      </trkpt>
      <trkpt lat="45.938616329804063" lon="9.365619756281376">
        <ele>1118.1500000000001</ele>
        <time>2017-05-14T09:23:15Z</time>
      </trkpt>
      <trkpt lat="45.938683720305562" lon="9.365637358278036">
        <ele>1120.0699999999999</ele>
        <time>2017-05-14T09:23:27Z</time>
      </trkpt>
      <trkpt lat="45.938734179362655" lon="9.365643979981542">
        <ele>1122</ele>
        <time>2017-05-14T09:23:37Z</time>
      </trkpt>
      <trkpt lat="45.938796624541283" lon="9.365661665797234">
        <ele>1123.9200000000001</ele>
        <time>2017-05-14T09:23:48Z</time>
      </trkpt>
      <trkpt lat="45.938826045021415" lon="9.365683207288384">
        <ele>1125.3599999999999</ele>
        <time>2017-05-14T09:23:57Z</time>
      </trkpt>
      <trkpt lat="45.938828140497208" lon="9.365661330521107">
        <ele>1125.3599999999999</ele>
        <time>2017-05-14T09:24:08Z</time>
      </trkpt>
      <trkpt lat="45.938830655068159" lon="9.365672310814261">
        <ele>1124.8800000000001</ele>
        <time>2017-05-14T09:24:20Z</time>
      </trkpt>
      <trkpt lat="45.938883125782013" lon="9.365707011893392">
        <ele>1126.3199999999999</ele>
        <time>2017-05-14T09:24:30Z</time>
      </trkpt>
      <trkpt lat="45.938941966742277" lon="9.365695361047983">
        <ele>1128.24</ele>
        <time>2017-05-14T09:24:41Z</time>
      </trkpt>
      <trkpt lat="45.939024612307549" lon="9.365717740729451">
        <ele>1130.6500000000001</ele>
        <time>2017-05-14T09:24:54Z</time>
      </trkpt>
      <trkpt lat="45.939083369448781" lon="9.365782029926777">
        <ele>1132.0899999999999</ele>
        <time>2017-05-14T09:25:05Z</time>
      </trkpt>
      <trkpt lat="45.939074819907546" lon="9.365708939731121">
        <ele>1134.01</ele>
        <time>2017-05-14T09:25:14Z</time>
      </trkpt>
      <trkpt lat="45.939051266759634" lon="9.365648087114096">
        <ele>1135.45</ele>
        <time>2017-05-14T09:25:23Z</time>
      </trkpt>
      <trkpt lat="45.938986223191023" lon="9.365613888949156">
        <ele>1137.3800000000001</ele>
        <time>2017-05-14T09:25:34Z</time>
      </trkpt>
      <trkpt lat="45.938946744427085" lon="9.365593353286386">
        <ele>1138.8199999999999</ele>
        <time>2017-05-14T09:25:44Z</time>
      </trkpt>
      <trkpt lat="45.938956970348954" lon="9.365539290010929">
        <ele>1140.74</ele>
        <time>2017-05-14T09:25:54Z</time>
      </trkpt>
      <trkpt lat="45.939018074423075" lon="9.365544067695737">
        <ele>1142.1800000000001</ele>
        <time>2017-05-14T09:26:03Z</time>
      </trkpt>
      <trkpt lat="45.9391013905406" lon="9.365549851208925">
        <ele>1142.6600000000001</ele>
        <time>2017-05-14T09:26:16Z</time>
      </trkpt>
      <trkpt lat="45.939128044992685" lon="9.365550857037306">
        <ele>1144.5899999999999</ele>
        <time>2017-05-14T09:26:21Z</time>
      </trkpt>
      <trkpt lat="45.939201219007373" lon="9.365574410185218">
        <ele>1146.99</ele>
        <time>2017-05-14T09:26:33Z</time>
      </trkpt>
      <trkpt lat="45.939246146008372" lon="9.365607518702745">
        <ele>1148.9100000000001</ele>
        <time>2017-05-14T09:26:43Z</time>
      </trkpt>
      <trkpt lat="45.939254276454449" lon="9.365612715482712">
        <ele>1148.9100000000001</ele>
        <time>2017-05-14T09:26:44Z</time>
      </trkpt>
      <trkpt lat="45.939302640035748" lon="9.365694606676698">
        <ele>1150.8399999999999</ele>
        <time>2017-05-14T09:26:55Z</time>
      </trkpt>
      <trkpt lat="45.939298197627068" lon="9.365794016048312">
        <ele>1152.28</ele>
        <time>2017-05-14T09:27:05Z</time>
      </trkpt>
      <trkpt lat="45.939310435205698" lon="9.365856293588877">
        <ele>1153.72</ele>
        <time>2017-05-14T09:27:15Z</time>
      </trkpt>
      <trkpt lat="45.939324768260121" lon="9.365861574187875">
        <ele>1154.2</ele>
        <time>2017-05-14T09:27:23Z</time>
      </trkpt>
      <trkpt lat="45.939393164590001" lon="9.36585109680891">
        <ele>1155.1600000000001</ele>
        <time>2017-05-14T09:27:32Z</time>
      </trkpt>
      <trkpt lat="45.939435660839081" lon="9.36586819589138">
        <ele>1156.5999999999999</ele>
        <time>2017-05-14T09:27:42Z</time>
      </trkpt>
      <trkpt lat="45.939448401331902" lon="9.365865010768175">
        <ele>1156.5999999999999</ele>
        <time>2017-05-14T09:27:51Z</time>
      </trkpt>
      <trkpt lat="45.939552001655102" lon="9.365806756541133">
        <ele>1158.05</ele>
        <time>2017-05-14T09:28:03Z</time>
      </trkpt>
      <trkpt lat="45.939590893685818" lon="9.36580809764564">
        <ele>1159.01</ele>
        <time>2017-05-14T09:28:07Z</time>
      </trkpt>
      <trkpt lat="45.939682675525546" lon="9.365909183397889">
        <ele>1160.45</ele>
        <time>2017-05-14T09:28:19Z</time>
      </trkpt>
      <trkpt lat="45.939688961952925" lon="9.366025105118752">
        <ele>1161.4100000000001</ele>
        <time>2017-05-14T09:28:29Z</time>
      </trkpt>
      <trkpt lat="45.939683932811022" lon="9.366123592481017">
        <ele>1162.8499999999999</ele>
        <time>2017-05-14T09:28:38Z</time>
      </trkpt>
      <trkpt lat="45.939672030508518" lon="9.366185450926423">
        <ele>1163.3299999999999</ele>
        <time>2017-05-14T09:28:46Z</time>
      </trkpt>
      <trkpt lat="45.939666582271457" lon="9.366214033216238">
        <ele>1163.3299999999999</ele>
        <time>2017-05-14T09:28:48Z</time>
      </trkpt>
      <trkpt lat="45.939692901447415" lon="9.366348059847951">
        <ele>1164.29</ele>
        <time>2017-05-14T09:28:58Z</time>
      </trkpt>
      <trkpt lat="45.939744114875793" lon="9.366367170587182">
        <ele>1164.29</ele>
        <time>2017-05-14T09:29:04Z</time>
      </trkpt>
      <trkpt lat="45.939835896715522" lon="9.366455180570483">
        <ele>1165.26</ele>
        <time>2017-05-14T09:29:16Z</time>
      </trkpt>
      <trkpt lat="45.939852660521865" lon="9.366554589942098">
        <ele>1166.7</ele>
        <time>2017-05-14T09:29:25Z</time>
      </trkpt>
      <trkpt lat="45.939844362437725" lon="9.366675121709704">
        <ele>1168.1400000000001</ele>
        <time>2017-05-14T09:29:35Z</time>
      </trkpt>
      <trkpt lat="45.939816869795322" lon="9.366723736748099">
        <ele>1169.0999999999999</ele>
        <time>2017-05-14T09:29:40Z</time>
      </trkpt>
      <trkpt lat="45.939797926694155" lon="9.36675357632339">
        <ele>1169.5799999999999</ele>
        <time>2017-05-14T09:29:43Z</time>
      </trkpt>
      <trkpt lat="45.939769512042403" lon="9.366856925189495">
        <ele>1171.02</ele>
        <time>2017-05-14T09:29:53Z</time>
      </trkpt>
      <trkpt lat="45.939824916422367" lon="9.366909144446254">
        <ele>1172.47</ele>
        <time>2017-05-14T09:30:02Z</time>
      </trkpt>
      <trkpt lat="45.939911333844066" lon="9.367002518847585">
        <ele>1173.4300000000001</ele>
        <time>2017-05-14T09:30:13Z</time>
      </trkpt>
      <trkpt lat="45.939965732395649" lon="9.367104107514024">
        <ele>1174.8699999999999</ele>
        <time>2017-05-14T09:30:23Z</time>
      </trkpt>
      <trkpt lat="45.94000143930316" lon="9.367147106677294">
        <ele>1175.3499999999999</ele>
        <time>2017-05-14T09:30:29Z</time>
      </trkpt>
      <trkpt lat="45.940087605267763" lon="9.367188261821866">
        <ele>1176.79</ele>
        <time>2017-05-14T09:30:40Z</time>
      </trkpt>
      <trkpt lat="45.940131191164255" lon="9.367204187437892">
        <ele>1177.27</ele>
        <time>2017-05-14T09:30:51Z</time>
      </trkpt>
      <trkpt lat="45.940173184499145" lon="9.367218688130379">
        <ele>1177.75</ele>
        <time>2017-05-14T09:31:00Z</time>
      </trkpt>
      <trkpt lat="45.940263038501143" lon="9.367254814133048">
        <ele>1179.1900000000001</ele>
        <time>2017-05-14T09:31:11Z</time>
      </trkpt>
      <trkpt lat="45.940339732915163" lon="9.367314074188471">
        <ele>1180.1600000000001</ele>
        <time>2017-05-14T09:31:20Z</time>
      </trkpt>
      <trkpt lat="45.94041139818728" lon="9.367378782480955">
        <ele>1182.0799999999999</ele>
        <time>2017-05-14T09:31:30Z</time>
      </trkpt>
      <trkpt lat="45.940470574423671" lon="9.367414573207498">
        <ele>1184.48</ele>
        <time>2017-05-14T09:31:42Z</time>
      </trkpt>
      <trkpt lat="45.940511478111148" lon="9.367455476894975">
        <ele>1185.9200000000001</ele>
        <time>2017-05-14T09:31:54Z</time>
      </trkpt>
      <trkpt lat="45.940559841692448" lon="9.367512138560414">
        <ele>1187.3699999999999</ele>
        <time>2017-05-14T09:32:04Z</time>
      </trkpt>
      <trkpt lat="45.940586496144533" lon="9.36760425567627">
        <ele>1189.29</ele>
        <time>2017-05-14T09:32:15Z</time>
      </trkpt>
      <trkpt lat="45.940615748986602" lon="9.367562178522348">
        <ele>1190.73</ele>
        <time>2017-05-14T09:32:25Z</time>
      </trkpt>
      <trkpt lat="45.94064743258059" lon="9.367490010336042">
        <ele>1193.1300000000001</ele>
        <time>2017-05-14T09:32:36Z</time>
      </trkpt>
      <trkpt lat="45.940650114789605" lon="9.367408789694309">
        <ele>1195.0599999999999</ele>
        <time>2017-05-14T09:32:48Z</time>
      </trkpt>
      <trkpt lat="45.940676014870405" lon="9.367372747510672">
        <ele>1196.5</ele>
        <time>2017-05-14T09:32:59Z</time>
      </trkpt>
      <trkpt lat="45.940734269097447" lon="9.36742932535708">
        <ele>1198.4200000000001</ele>
        <time>2017-05-14T09:33:09Z</time>
      </trkpt>
      <trkpt lat="45.94073535874486" lon="9.36753979884088">
        <ele>1199.8599999999999</ele>
        <time>2017-05-14T09:33:20Z</time>
      </trkpt>
      <trkpt lat="45.940733095631003" lon="9.367638034746051">
        <ele>1201.79</ele>
        <time>2017-05-14T09:33:32Z</time>
      </trkpt>
      <trkpt lat="45.940725803375244" lon="9.3677132204175">
        <ele>1203.23</ele>
        <time>2017-05-14T09:33:43Z</time>
      </trkpt>
      <trkpt lat="45.940705519169569" lon="9.367816401645541">
        <ele>1205.6300000000001</ele>
        <time>2017-05-14T09:33:55Z</time>
      </trkpt>
      <trkpt lat="45.940694287419319" lon="9.367907848209143">
        <ele>1207.55</ele>
        <time>2017-05-14T09:34:06Z</time>
      </trkpt>
      <trkpt lat="45.940684648230672" lon="9.368008933961391">
        <ele>1209.48</ele>
        <time>2017-05-14T09:34:17Z</time>
      </trkpt>
      <trkpt lat="45.940682720392942" lon="9.368046401068568">
        <ele>1210.9200000000001</ele>
        <time>2017-05-14T09:34:25Z</time>
      </trkpt>
      <trkpt lat="45.940676601603627" lon="9.368058890104294">
        <ele>1210.4400000000001</ele>
        <time>2017-05-14T09:34:40Z</time>
      </trkpt>
      <trkpt lat="45.940687833353877" lon="9.368058890104294">
        <ele>1210.9200000000001</ele>
        <time>2017-05-14T09:34:57Z</time>
      </trkpt>
      <trkpt lat="45.940696885809302" lon="9.36804941855371">
        <ele>1210.9200000000001</ele>
        <time>2017-05-14T09:35:13Z</time>
      </trkpt>
      <trkpt lat="45.940732844173908" lon="9.367990912869573">
        <ele>1212.3599999999999</ele>
        <time>2017-05-14T09:35:21Z</time>
      </trkpt>
      <trkpt lat="45.940775843337178" lon="9.367928886786103">
        <ele>1214.28</ele>
        <time>2017-05-14T09:35:31Z</time>
      </trkpt>
      <trkpt lat="45.94081305898726" lon="9.367886139079928">
        <ele>1215.72</ele>
        <time>2017-05-14T09:35:39Z</time>
      </trkpt>
      <trkpt lat="45.940825799480081" lon="9.367855377495289">
        <ele>1216.6900000000001</ele>
        <time>2017-05-14T09:35:43Z</time>
      </trkpt>
      <trkpt lat="45.940866786986589" lon="9.367801314219832">
        <ele>1218.6099999999999</ele>
        <time>2017-05-14T09:35:53Z</time>
      </trkpt>
      <trkpt lat="45.940907606855035" lon="9.367823274806142">
        <ele>1220.53</ele>
        <time>2017-05-14T09:36:03Z</time>
      </trkpt>
      <trkpt lat="45.940912468358874" lon="9.36794045381248">
        <ele>1222.45</ele>
        <time>2017-05-14T09:36:15Z</time>
      </trkpt>
      <trkpt lat="45.940936021506786" lon="9.367869207635522">
        <ele>1224.3800000000001</ele>
        <time>2017-05-14T09:36:26Z</time>
      </trkpt>
      <trkpt lat="45.941002489998937" lon="9.367797961458564">
        <ele>1226.3</ele>
        <time>2017-05-14T09:36:38Z</time>
      </trkpt>
      <trkpt lat="45.941054625436664" lon="9.367753872647882">
        <ele>1228.22</ele>
        <time>2017-05-14T09:36:48Z</time>
      </trkpt>
      <trkpt lat="45.94107499346137" lon="9.367700228467584">
        <ele>1230.1400000000001</ele>
        <time>2017-05-14T09:36:59Z</time>
      </trkpt>
      <trkpt lat="45.941095110028982" lon="9.36777139082551">
        <ele>1232.0699999999999</ele>
        <time>2017-05-14T09:37:12Z</time>
      </trkpt>
      <trkpt lat="45.94110525213182" lon="9.367871386930347">
        <ele>1233.99</ele>
        <time>2017-05-14T09:37:24Z</time>
      </trkpt>
      <trkpt lat="45.941152945160866" lon="9.367930563166738">
        <ele>1235.9100000000001</ele>
        <time>2017-05-14T09:37:35Z</time>
      </trkpt>
      <trkpt lat="45.94120348803699" lon="9.367989655584097">
        <ele>1236.8699999999999</ele>
        <time>2017-05-14T09:37:46Z</time>
      </trkpt>
      <trkpt lat="45.941248247399926" lon="9.368099877610803">
        <ele>1238.3199999999999</ele>
        <time>2017-05-14T09:37:58Z</time>
      </trkpt>
      <trkpt lat="45.941279428079724" lon="9.368209429085255">
        <ele>1239.28</ele>
        <time>2017-05-14T09:38:10Z</time>
      </trkpt>
      <trkpt lat="45.941279008984566" lon="9.368227617815137">
        <ele>1240.72</ele>
        <time>2017-05-14T09:38:12Z</time>
      </trkpt>
      <trkpt lat="45.941295018419623" lon="9.368318310007453">
        <ele>1240.72</ele>
        <time>2017-05-14T09:38:21Z</time>
      </trkpt>
      <trkpt lat="45.941333239898086" lon="9.368347562849522">
        <ele>1240.24</ele>
        <time>2017-05-14T09:38:28Z</time>
      </trkpt>
      <trkpt lat="45.941409012302756" lon="9.368355525657535">
        <ele>1240.24</ele>
        <time>2017-05-14T09:38:38Z</time>
      </trkpt>
      <trkpt lat="45.941460225731134" lon="9.368340773507953">
        <ele>1240.24</ele>
        <time>2017-05-14T09:38:43Z</time>
      </trkpt>
      <trkpt lat="45.941558796912432" lon="9.368349825963378">
        <ele>1239.76</ele>
        <time>2017-05-14T09:38:53Z</time>
      </trkpt>
      <trkpt lat="45.941651752218604" lon="9.368325769901276">
        <ele>1239.76</ele>
        <time>2017-05-14T09:39:02Z</time>
      </trkpt>
      <trkpt lat="45.941770691424608" lon="9.368475135415793">
        <ele>1240.24</ele>
        <time>2017-05-14T09:39:14Z</time>
      </trkpt>
      <trkpt lat="45.941820228472352" lon="9.368589548394084">
        <ele>1240.72</ele>
        <time>2017-05-14T09:39:24Z</time>
      </trkpt>
      <trkpt lat="45.941841015592217" lon="9.368711924180389">
        <ele>1242.1600000000001</ele>
        <time>2017-05-14T09:39:34Z</time>
      </trkpt>
      <trkpt lat="45.941885355859995" lon="9.368833461776376">
        <ele>1243.1199999999999</ele>
        <time>2017-05-14T09:39:45Z</time>
      </trkpt>
      <trkpt lat="45.941913016140461" lon="9.368898840621114">
        <ele>1244.5599999999999</ele>
        <time>2017-05-14T09:39:54Z</time>
      </trkpt>
      <trkpt lat="45.941933719441295" lon="9.369016438722611">
        <ele>1246.97</ele>
        <time>2017-05-14T09:40:05Z</time>
      </trkpt>
      <trkpt lat="45.941939083859324" lon="9.369079973548651">
        <ele>1249.8499999999999</ele>
        <time>2017-05-14T09:40:13Z</time>
      </trkpt>
      <trkpt lat="45.941955680027604" lon="9.369134120643139">
        <ele>1250.3299999999999</ele>
        <time>2017-05-14T09:40:22Z</time>
      </trkpt>
      <trkpt lat="45.941975293681026" lon="9.369169408455491">
        <ele>1252.25</ele>
        <time>2017-05-14T09:40:32Z</time>
      </trkpt>
      <trkpt lat="45.941954338923097" lon="9.369249623268843">
        <ele>1254.1800000000001</ele>
        <time>2017-05-14T09:40:44Z</time>
      </trkpt>
      <trkpt lat="45.941958529874682" lon="9.369319276884198">
        <ele>1255.6199999999999</ele>
        <time>2017-05-14T09:40:55Z</time>
      </trkpt>
      <trkpt lat="45.941988537088037" lon="9.369380045682192">
        <ele>1257.54</ele>
        <time>2017-05-14T09:41:07Z</time>
      </trkpt>
      <trkpt lat="45.942004043608904" lon="9.369454560801387">
        <ele>1258.98</ele>
        <time>2017-05-14T09:41:16Z</time>
      </trkpt>
      <trkpt lat="45.941993566229939" lon="9.369532847777009">
        <ele>1260.4300000000001</ele>
        <time>2017-05-14T09:41:26Z</time>
      </trkpt>
      <trkpt lat="45.942009659484029" lon="9.369600405916572">
        <ele>1261.8699999999999</ele>
        <time>2017-05-14T09:41:36Z</time>
      </trkpt>
      <trkpt lat="45.941989291459322" lon="9.369696965441108">
        <ele>1264.27</ele>
        <time>2017-05-14T09:41:49Z</time>
      </trkpt>
      <trkpt lat="45.941963475197554" lon="9.369758069515228">
        <ele>1265.71</ele>
        <time>2017-05-14T09:41:59Z</time>
      </trkpt>
      <trkpt lat="45.941953081637621" lon="9.36985488049686">
        <ele>1267.1600000000001</ele>
        <time>2017-05-14T09:42:10Z</time>
      </trkpt>
      <trkpt lat="45.941968755796552" lon="9.369867369532585">
        <ele>1269.5599999999999</ele>
        <time>2017-05-14T09:42:14Z</time>
      </trkpt>
      <trkpt lat="45.942031787708402" lon="9.369877679273486">
        <ele>1270.04</ele>
        <time>2017-05-14T09:42:27Z</time>
      </trkpt>
      <trkpt lat="45.942047461867332" lon="9.369946075603366">
        <ele>1271.48</ele>
        <time>2017-05-14T09:42:36Z</time>
      </trkpt>
      <trkpt lat="45.942022735252976" lon="9.370027547702193">
        <ele>1273.4000000000001</ele>
        <time>2017-05-14T09:42:46Z</time>
      </trkpt>
      <trkpt lat="45.941981328651309" lon="9.370066439732909">
        <ele>1274.3599999999999</ele>
        <time>2017-05-14T09:42:55Z</time>
      </trkpt>
      <trkpt lat="45.941955680027604" lon="9.370072726160288">
        <ele>1274.3599999999999</ele>
        <time>2017-05-14T09:42:59Z</time>
      </trkpt>
      <trkpt lat="45.941922571510077" lon="9.370119832456112">
        <ele>1274.3599999999999</ele>
        <time>2017-05-14T09:43:10Z</time>
      </trkpt>
      <trkpt lat="45.941910585388541" lon="9.370151096954942">
        <ele>1277.25</ele>
        <time>2017-05-14T09:43:16Z</time>
      </trkpt>
      <trkpt lat="45.941911758854985" lon="9.370146486908197">
        <ele>1277.73</ele>
        <time>2017-05-14T09:43:25Z</time>
      </trkpt>
      <trkpt lat="45.941912261769176" lon="9.370157718658447">
        <ele>1277.73</ele>
        <time>2017-05-14T09:43:35Z</time>
      </trkpt>
      <trkpt lat="45.941891223192215" lon="9.370126537978649">
        <ele>1278.21</ele>
        <time>2017-05-14T09:43:46Z</time>
      </trkpt>
      <trkpt lat="45.941877393051982" lon="9.370153611525893">
        <ele>1277.73</ele>
        <time>2017-05-14T09:43:58Z</time>
      </trkpt>
      <trkpt lat="45.941893989220262" lon="9.370143553242087">
        <ele>1277.73</ele>
        <time>2017-05-14T09:44:06Z</time>
      </trkpt>
      <trkpt lat="45.941904969513416" lon="9.370171884074807">
        <ele>1279.1700000000001</ele>
        <time>2017-05-14T09:44:15Z</time>
      </trkpt>
      <trkpt lat="45.941905472427607" lon="9.370174817740917">
        <ele>1278.21</ele>
        <time>2017-05-14T09:44:16Z</time>
      </trkpt>
      <trkpt lat="45.941902371123433" lon="9.370209015905857">
        <ele>1278.21</ele>
        <time>2017-05-14T09:44:33Z</time>
      </trkpt>
      <trkpt lat="45.941968923434615" lon="9.370225863531232">
        <ele>1278.21</ele>
        <time>2017-05-14T09:44:50Z</time>
      </trkpt>
      <trkpt lat="45.941929528489709" lon="9.370301049202681">
        <ele>1278.6900000000001</ele>
        <time>2017-05-14T09:45:04Z</time>
      </trkpt>
      <trkpt lat="45.941885020583868" lon="9.370336839929223">
        <ele>1280.1300000000001</ele>
        <time>2017-05-14T09:45:16Z</time>
      </trkpt>
      <trkpt lat="45.941838584840298" lon="9.370375983417034">
        <ele>1282.0599999999999</ele>
        <time>2017-05-14T09:45:26Z</time>
      </trkpt>
      <trkpt lat="45.941790137439966" lon="9.370384952053428">
        <ele>1283.98</ele>
        <time>2017-05-14T09:45:36Z</time>
      </trkpt>
      <trkpt lat="45.941788209602237" lon="9.370430298149586">
        <ele>1285.4200000000001</ele>
        <time>2017-05-14T09:45:47Z</time>
      </trkpt>
      <trkpt lat="45.941794998943806" lon="9.370468351989985">
        <ele>1287.3399999999999</ele>
        <time>2017-05-14T09:45:57Z</time>
      </trkpt>
      <trkpt lat="45.941786868497729" lon="9.370553428307176">
        <ele>1289.75</ele>
        <time>2017-05-14T09:46:11Z</time>
      </trkpt>
      <trkpt lat="45.941742276772857" lon="9.370597265660763">
        <ele>1292.1500000000001</ele>
        <time>2017-05-14T09:46:16Z</time>
      </trkpt>
      <trkpt lat="45.941686872392893" lon="9.370675887912512">
        <ele>1292.6300000000001</ele>
        <time>2017-05-14T09:46:28Z</time>
      </trkpt>
      <trkpt lat="45.941681256517768" lon="9.370719557628036">
        <ele>1294.0699999999999</ele>
        <time>2017-05-14T09:46:39Z</time>
      </trkpt>
      <trkpt lat="45.941651249304414" lon="9.370762389153242">
        <ele>1296.48</ele>
        <time>2017-05-14T09:46:53Z</time>
      </trkpt>
      <trkpt lat="45.94168284907937" lon="9.370776051655412">
        <ele>1298.4000000000001</ele>
        <time>2017-05-14T09:47:06Z</time>
      </trkpt>
      <trkpt lat="45.941701624542475" lon="9.370831036940217">
        <ele>1300.3199999999999</ele>
        <time>2017-05-14T09:47:17Z</time>
      </trkpt>
      <trkpt lat="45.941667845472693" lon="9.370916448533535">
        <ele>1302.24</ele>
        <time>2017-05-14T09:47:28Z</time>
      </trkpt>
      <trkpt lat="45.941670443862677" lon="9.370897756889463">
        <ele>1304.1700000000001</ele>
        <time>2017-05-14T09:47:39Z</time>
      </trkpt>
      <trkpt lat="45.941705480217934" lon="9.370902953669429">
        <ele>1305.6099999999999</ele>
        <time>2017-05-14T09:47:50Z</time>
      </trkpt>
      <trkpt lat="45.941662983968854" lon="9.370979648083448">
        <ele>1307.05</ele>
        <time>2017-05-14T09:48:00Z</time>
      </trkpt>
      <trkpt lat="45.941634066402912" lon="9.371008817106485">
        <ele>1308.49</ele>
        <time>2017-05-14T09:48:10Z</time>
      </trkpt>
      <trkpt lat="45.941602382808924" lon="9.371037650853396">
        <ele>1311.3800000000001</ele>
        <time>2017-05-14T09:48:17Z</time>
      </trkpt>
      <trkpt lat="45.941575225442648" lon="9.371096240356565">
        <ele>1311.8599999999999</ele>
        <time>2017-05-14T09:48:30Z</time>
      </trkpt>
      <trkpt lat="45.941578913480043" lon="9.371148962527514">
        <ele>1313.3</ele>
        <time>2017-05-14T09:48:41Z</time>
      </trkpt>
      <trkpt lat="45.941567597910762" lon="9.371216185390949">
        <ele>1315.22</ele>
        <time>2017-05-14T09:48:51Z</time>
      </trkpt>
      <trkpt lat="45.941526191309094" lon="9.371260609477758">
        <ele>1316.1800000000001</ele>
        <time>2017-05-14T09:49:01Z</time>
      </trkpt>
      <trkpt lat="45.941514372825623" lon="9.371326239779592">
        <ele>1317.6199999999999</ele>
        <time>2017-05-14T09:49:10Z</time>
      </trkpt>
      <trkpt lat="45.941525520756841" lon="9.37141316011548">
        <ele>1319.0699999999999</ele>
        <time>2017-05-14T09:49:21Z</time>
      </trkpt>
      <trkpt lat="45.941485036164522" lon="9.371479963883758">
        <ele>1320.99</ele>
        <time>2017-05-14T09:49:33Z</time>
      </trkpt>
      <trkpt lat="45.941451592370868" lon="9.371521957218647">
        <ele>1322.9100000000001</ele>
        <time>2017-05-14T09:49:44Z</time>
      </trkpt>
      <trkpt lat="45.941427033394575" lon="9.371567890048027">
        <ele>1324.3499999999999</ele>
        <time>2017-05-14T09:49:54Z</time>
      </trkpt>
      <trkpt lat="45.941396271809936" lon="9.371623042970896">
        <ele>1326.76</ele>
        <time>2017-05-14T09:50:06Z</time>
      </trkpt>
      <trkpt lat="45.941387722268701" lon="9.371683560311794">
        <ele>1328.6800000000001</ele>
        <time>2017-05-14T09:50:17Z</time>
      </trkpt>
      <trkpt lat="45.941360145807266" lon="9.371706862002611">
        <ele>1329.6400000000001</ele>
        <time>2017-05-14T09:50:28Z</time>
      </trkpt>
      <trkpt lat="45.941359726712108" lon="9.371750028803945">
        <ele>1330.5999999999999</ele>
        <time>2017-05-14T09:50:39Z</time>
      </trkpt>
      <trkpt lat="45.941336257383227" lon="9.371783556416631">
        <ele>1331.0799999999999</ele>
        <time>2017-05-14T09:50:48Z</time>
      </trkpt>
      <trkpt lat="45.941326282918453" lon="9.37177374958992">
        <ele>1331.0799999999999</ele>
        <time>2017-05-14T09:51:02Z</time>
      </trkpt>
      <trkpt lat="45.941314799711108" lon="9.371762936934829">
        <ele>1331.0799999999999</ele>
        <time>2017-05-14T09:51:17Z</time>
      </trkpt>
      <trkpt lat="45.941310441121459" lon="9.371766205877066">
        <ele>1331.0799999999999</ele>
        <time>2017-05-14T09:51:30Z</time>
      </trkpt>
      <trkpt lat="45.941321924328804" lon="9.371750615537167">
        <ele>1332.04</ele>
        <time>2017-05-14T09:51:46Z</time>
      </trkpt>
      <trkpt lat="45.941315889358521" lon="9.371740557253361">
        <ele>1331.0799999999999</ele>
        <time>2017-05-14T09:51:58Z</time>
      </trkpt>
      <trkpt lat="45.941356038674712" lon="9.371784394606948">
        <ele>1333.01</ele>
        <time>2017-05-14T09:52:09Z</time>
      </trkpt>
      <trkpt lat="45.941360983997583" lon="9.371829489246011">
        <ele>1333.49</ele>
        <time>2017-05-14T09:52:17Z</time>
      </trkpt>
      <trkpt lat="45.941373137757182" lon="9.371825465932488">
        <ele>1333.97</ele>
        <time>2017-05-14T09:52:27Z</time>
      </trkpt>
      <trkpt lat="45.941383363679051" lon="9.371831668540835">
        <ele>1333.49</ele>
        <time>2017-05-14T09:52:38Z</time>
      </trkpt>
      <trkpt lat="45.941371126100421" lon="9.371836865320802">
        <ele>1333.01</ele>
        <time>2017-05-14T09:52:48Z</time>
      </trkpt>
      <trkpt lat="45.941357128322124" lon="9.371814234182239">
        <ele>1333.01</ele>
        <time>2017-05-14T09:53:14Z</time>
      </trkpt>
      <trkpt lat="45.941358217969537" lon="9.371805433183909">
        <ele>1333.01</ele>
        <time>2017-05-14T09:53:40Z</time>
      </trkpt>
      <trkpt lat="45.941353272646666" lon="9.371792608872056">
        <ele>1333.49</ele>
        <time>2017-05-14T09:54:06Z</time>
      </trkpt>
      <trkpt lat="45.941372970119119" lon="9.37178011983633">
        <ele>1333.49</ele>
        <time>2017-05-14T09:54:34Z</time>
      </trkpt>
      <trkpt lat="45.941366264596581" lon="9.371774503961206">
        <ele>1333.49</ele>
        <time>2017-05-14T09:54:51Z</time>
      </trkpt>
      <trkpt lat="45.941358469426632" lon="9.371738042682409">
        <ele>1333.49</ele>
        <time>2017-05-14T09:55:14Z</time>
      </trkpt>
      <trkpt lat="45.94132712110877" lon="9.371723290532827">
        <ele>1333.97</ele>
        <time>2017-05-14T09:55:41Z</time>
      </trkpt>
      <trkpt lat="45.941315721720457" lon="9.371707448735833">
        <ele>1333.97</ele>
        <time>2017-05-14T09:56:06Z</time>
      </trkpt>
      <trkpt lat="45.941317146643996" lon="9.371718009933829">
        <ele>1333.97</ele>
        <time>2017-05-14T09:56:26Z</time>
      </trkpt>
      <trkpt lat="45.941333826631308" lon="9.371745502576232">
        <ele>1333.97</ele>
        <time>2017-05-14T09:56:50Z</time>
      </trkpt>
      <trkpt lat="45.941350506618619" lon="9.371750028803945">
        <ele>1333.97</ele>
        <time>2017-05-14T09:57:14Z</time>
      </trkpt>
      <trkpt lat="45.941358553245664" lon="9.371772408485413">
        <ele>1334.45</ele>
        <time>2017-05-14T09:57:42Z</time>
      </trkpt>
      <trkpt lat="45.941371377557516" lon="9.371814820915461">
        <ele>1334.45</ele>
        <time>2017-05-14T09:58:01Z</time>
      </trkpt>
      <trkpt lat="45.941333994269371" lon="9.371797302737832">
        <ele>1334.45</ele>
        <time>2017-05-14T09:58:28Z</time>
      </trkpt>
      <trkpt lat="45.941333742812276" lon="9.371791183948517">
        <ele>1334.45</ele>
        <time>2017-05-14T09:58:50Z</time>
      </trkpt>
      <trkpt lat="45.941345058381557" lon="9.371816664934158">
        <ele>1334.45</ele>
        <time>2017-05-14T09:59:11Z</time>
      </trkpt>
      <trkpt lat="45.941329635679722" lon="9.371869219467044">
        <ele>1334.45</ele>
        <time>2017-05-14T09:59:42Z</time>
      </trkpt>
      <trkpt lat="45.941386548802257" lon="9.371859831735492">
        <ele>1334.45</ele>
        <time>2017-05-14T10:00:09Z</time>
      </trkpt>
      <trkpt lat="45.941355871036649" lon="9.371845331043005">
        <ele>1334.45</ele>
        <time>2017-05-14T10:00:36Z</time>
      </trkpt>
      <trkpt lat="45.94133491627872" lon="9.371849438175559">
        <ele>1334.9300000000001</ele>
        <time>2017-05-14T10:01:00Z</time>
      </trkpt>
      <trkpt lat="45.941313123330474" lon="9.371831333264709">
        <ele>1334.45</ele>
        <time>2017-05-14T10:01:26Z</time>
      </trkpt>
      <trkpt lat="45.94131295569241" lon="9.371820688247681">
        <ele>1334.45</ele>
        <time>2017-05-14T10:01:54Z</time>
      </trkpt>
      <trkpt lat="45.94134028069675" lon="9.371834769845009">
        <ele>1334.9300000000001</ele>
        <time>2017-05-14T10:02:17Z</time>
      </trkpt>
      <trkpt lat="45.941370874643326" lon="9.371848180890083">
        <ele>1334.45</ele>
        <time>2017-05-14T10:02:37Z</time>
      </trkpt>
      <trkpt lat="45.94133491627872" lon="9.371901992708445">
        <ele>1334.45</ele>
        <time>2017-05-14T10:02:59Z</time>
      </trkpt>
      <trkpt lat="45.94133835285902" lon="9.371871231123805">
        <ele>1335.4100000000001</ele>
        <time>2017-05-14T10:03:20Z</time>
      </trkpt>
      <trkpt lat="45.941388979554176" lon="9.371849438175559">
        <ele>1335.4100000000001</ele>
        <time>2017-05-14T10:03:38Z</time>
      </trkpt>
      <trkpt lat="45.941372467204928" lon="9.37182211317122">
        <ele>1335.4100000000001</ele>
        <time>2017-05-14T10:04:03Z</time>
      </trkpt>
      <trkpt lat="45.941383698955178" lon="9.371844073757529">
        <ele>1336.3699999999999</ele>
        <time>2017-05-14T10:04:27Z</time>
      </trkpt>
      <trkpt lat="45.941361067816615" lon="9.371852790936828">
        <ele>1335.4100000000001</ele>
        <time>2017-05-14T10:04:58Z</time>
      </trkpt>
      <trkpt lat="45.941353272646666" lon="9.371858071535826">
        <ele>1335.8900000000001</ele>
        <time>2017-05-14T10:05:17Z</time>
      </trkpt>
      <trkpt lat="45.941346483305097" lon="9.371864693239331">
        <ele>1335.8900000000001</ele>
        <time>2017-05-14T10:05:41Z</time>
      </trkpt>
      <trkpt lat="45.941323265433311" lon="9.371836865320802">
        <ele>1335.8900000000001</ele>
        <time>2017-05-14T10:05:56Z</time>
      </trkpt>
      <trkpt lat="45.941342795267701" lon="9.371837619692087">
        <ele>1336.3699999999999</ele>
        <time>2017-05-14T10:06:03Z</time>
      </trkpt>
      <trkpt lat="45.941349249333143" lon="9.371899059042335">
        <ele>1335.8900000000001</ele>
        <time>2017-05-14T10:06:14Z</time>
      </trkpt>
      <trkpt lat="45.941340113058686" lon="9.371877098456025">
        <ele>1336.3699999999999</ele>
        <time>2017-05-14T10:06:24Z</time>
      </trkpt>
      <trkpt lat="45.941358050331473" lon="9.371929233893752">
        <ele>1336.8499999999999</ele>
        <time>2017-05-14T10:06:35Z</time>
      </trkpt>
      <trkpt lat="45.941363414749503" lon="9.371942225843668">
        <ele>1336.8499999999999</ele>
        <time>2017-05-14T10:06:46Z</time>
      </trkpt>
      <trkpt lat="45.941396607086062" lon="9.371982961893082">
        <ele>1336.8499999999999</ele>
        <time>2017-05-14T10:06:58Z</time>
      </trkpt>
      <trkpt lat="45.94139208085835" lon="9.372039791196585">
        <ele>1336.3699999999999</ele>
        <time>2017-05-14T10:07:07Z</time>
      </trkpt>
      <trkpt lat="45.941424770280719" lon="9.372125118970871">
        <ele>1335.8900000000001</ele>
        <time>2017-05-14T10:07:16Z</time>
      </trkpt>
      <trkpt lat="45.941464165225625" lon="9.37222327105701">
        <ele>1336.8499999999999</ele>
        <time>2017-05-14T10:07:25Z</time>
      </trkpt>
      <trkpt lat="45.941518060863018" lon="9.372320668771863">
        <ele>1336.8499999999999</ele>
        <time>2017-05-14T10:07:35Z</time>
      </trkpt>
      <trkpt lat="45.941562233492732" lon="9.372456707060337">
        <ele>1338.29</ele>
        <time>2017-05-14T10:07:47Z</time>
      </trkpt>
      <trkpt lat="45.941564664244652" lon="9.372487301006913">
        <ele>1338.77</ele>
        <time>2017-05-14T10:07:50Z</time>
      </trkpt>
      <trkpt lat="45.941589390859008" lon="9.372575059533119">
        <ele>1338.29</ele>
        <time>2017-05-14T10:07:56Z</time>
      </trkpt>
      <trkpt lat="45.941591067239642" lon="9.372765412554145">
        <ele>1339.25</ele>
        <time>2017-05-14T10:08:08Z</time>
      </trkpt>
      <trkpt lat="45.941599616780877" lon="9.372808998450637">
        <ele>1339.73</ele>
        <time>2017-05-14T10:08:19Z</time>
      </trkpt>
      <trkpt lat="45.941585870459676" lon="9.372875969856978">
        <ele>1339.73</ele>
        <time>2017-05-14T10:08:33Z</time>
      </trkpt>
      <trkpt lat="45.941554019227624" lon="9.37303245998919">
        <ele>1341.1800000000001</ele>
        <time>2017-05-14T10:08:45Z</time>
      </trkpt>
      <trkpt lat="45.941533735021949" lon="9.37312038615346">
        <ele>1343.0999999999999</ele>
        <time>2017-05-14T10:08:56Z</time>
      </trkpt>
      <trkpt lat="45.941531555727124" lon="9.373281067237258">
        <ele>1344.54</ele>
        <time>2017-05-14T10:09:08Z</time>
      </trkpt>
      <trkpt lat="45.941547816619277" lon="9.37337544746697">
        <ele>1345.02</ele>
        <time>2017-05-14T10:09:15Z</time>
      </trkpt>
      <trkpt lat="45.941586373373866" lon="9.373503271490336">
        <ele>1345.98</ele>
        <time>2017-05-14T10:09:27Z</time>
      </trkpt>
      <trkpt lat="45.941616212949157" lon="9.373596729710698">
        <ele>1347.4300000000001</ele>
        <time>2017-05-14T10:09:38Z</time>
      </trkpt>
      <trkpt lat="45.941619984805584" lon="9.37369991093874">
        <ele>1349.3499999999999</ele>
        <time>2017-05-14T10:09:50Z</time>
      </trkpt>
      <trkpt lat="45.941618056967854" lon="9.373708125203848">
        <ele>1349.8299999999999</ele>
        <time>2017-05-14T10:09:51Z</time>
      </trkpt>
      <trkpt lat="45.941540608182549" lon="9.373772582039237">
        <ele>1350.3099999999999</ele>
        <time>2017-05-14T10:10:02Z</time>
      </trkpt>
      <trkpt lat="45.941461818292737" lon="9.373825220391154">
        <ele>1351.27</ele>
        <time>2017-05-14T10:10:12Z</time>
      </trkpt>
      <trkpt lat="45.941387470811605" lon="9.373870566487312">
        <ele>1352.23</ele>
        <time>2017-05-14T10:10:24Z</time>
      </trkpt>
      <trkpt lat="45.941282026469707" lon="9.373864699155092">
        <ele>1350.79</ele>
        <time>2017-05-14T10:10:35Z</time>
      </trkpt>
      <trkpt lat="45.941230561584234" lon="9.373874505981803">
        <ele>1352.23</ele>
        <time>2017-05-14T10:10:44Z</time>
      </trkpt>
      <trkpt lat="45.941140791401267" lon="9.37379714101553">
        <ele>1351.75</ele>
        <time>2017-05-14T10:10:54Z</time>
      </trkpt>
      <trkpt lat="45.941098881885409" lon="9.373824549838901">
        <ele>1351.27</ele>
        <time>2017-05-14T10:11:05Z</time>
      </trkpt>
      <trkpt lat="45.941067533567548" lon="9.373873332515359">
        <ele>1351.75</ele>
        <time>2017-05-14T10:11:15Z</time>
      </trkpt>
      <trkpt lat="45.941057223826647" lon="9.373995624482632">
        <ele>1353.1900000000001</ele>
        <time>2017-05-14T10:11:28Z</time>
      </trkpt>
      <trkpt lat="45.941030904650688" lon="9.374104756861925">
        <ele>1354.1500000000001</ele>
        <time>2017-05-14T10:11:38Z</time>
      </trkpt>
      <trkpt lat="45.940995113924146" lon="9.374245656654239">
        <ele>1355.5999999999999</ele>
        <time>2017-05-14T10:11:50Z</time>
      </trkpt>
      <trkpt lat="45.940990671515465" lon="9.374321596696973">
        <ele>1356.0799999999999</ele>
        <time>2017-05-14T10:11:59Z</time>
      </trkpt>
      <trkpt lat="45.940994275733829" lon="9.37440549954772">
        <ele>1357.52</ele>
        <time>2017-05-14T10:12:10Z</time>
      </trkpt>
      <trkpt lat="45.941004501655698" lon="9.374512368813157">
        <ele>1358.96</ele>
        <time>2017-05-14T10:12:21Z</time>
      </trkpt>
      <trkpt lat="45.941024366766214" lon="9.374606749042869">
        <ele>1361.8399999999999</ele>
        <time>2017-05-14T10:12:32Z</time>
      </trkpt>
      <trkpt lat="45.941050183027983" lon="9.374691154807806">
        <ele>1362.3299999999999</ele>
        <time>2017-05-14T10:12:43Z</time>
      </trkpt>
      <trkpt lat="45.941074574366212" lon="9.374799029901624">
        <ele>1362.8099999999999</ele>
        <time>2017-05-14T10:12:52Z</time>
      </trkpt>
      <trkpt lat="45.941139534115791" lon="9.374919980764389">
        <ele>1364.25</ele>
        <time>2017-05-14T10:13:03Z</time>
      </trkpt>
      <trkpt lat="45.941155459731817" lon="9.374960632994771">
        <ele>1364.25</ele>
        <time>2017-05-14T10:13:06Z</time>
      </trkpt>
      <trkpt lat="45.941174402832985" lon="9.375072196125984">
        <ele>1366.1700000000001</ele>
        <time>2017-05-14T10:13:16Z</time>
      </trkpt>
      <trkpt lat="45.941179012879729" lon="9.375150566920638">
        <ele>1367.6099999999999</ele>
        <time>2017-05-14T10:13:27Z</time>
      </trkpt>
      <trkpt lat="45.941115310415626" lon="9.375254837796092">
        <ele>1369.05</ele>
        <time>2017-05-14T10:13:36Z</time>
      </trkpt>
      <trkpt lat="45.941085303202271" lon="9.375324826687574">
        <ele>1370.02</ele>
        <time>2017-05-14T10:13:46Z</time>
      </trkpt>
      <trkpt lat="45.941020008176565" lon="9.375387104228139">
        <ele>1371.9400000000001</ele>
        <time>2017-05-14T10:13:55Z</time>
      </trkpt>
      <trkpt lat="45.940972901880741" lon="9.375411914661527">
        <ele>1372.9000000000001</ele>
        <time>2017-05-14T10:14:03Z</time>
      </trkpt>
      <trkpt lat="45.940911881625652" lon="9.375416608527303">
        <ele>1373.3800000000001</ele>
        <time>2017-05-14T10:14:15Z</time>
      </trkpt>
      <trkpt lat="45.940851112827659" lon="9.375468911603093">
        <ele>1374.8199999999999</ele>
        <time>2017-05-14T10:14:26Z</time>
      </trkpt>
      <trkpt lat="45.940804090350866" lon="9.375527752563357">
        <ele>1375.78</ele>
        <time>2017-05-14T10:14:38Z</time>
      </trkpt>
      <trkpt lat="45.94079595990479" lon="9.375624731183052">
        <ele>1373.3800000000001</ele>
        <time>2017-05-14T10:14:50Z</time>
      </trkpt>
      <trkpt lat="45.940782129764557" lon="9.375741071999073">
        <ele>1372.9000000000001</ele>
        <time>2017-05-14T10:14:59Z</time>
      </trkpt>
      <trkpt lat="45.940772909671068" lon="9.375843415036798">
        <ele>1372.9000000000001</ele>
        <time>2017-05-14T10:15:08Z</time>
      </trkpt>
      <trkpt lat="45.940750613808632" lon="9.375980962067843">
        <ele>1372.9000000000001</ele>
        <time>2017-05-14T10:15:21Z</time>
      </trkpt>
      <trkpt lat="45.940739549696445" lon="9.376098057255149">
        <ele>1373.8599999999999</ele>
        <time>2017-05-14T10:15:32Z</time>
      </trkpt>
      <trkpt lat="45.940709877759218" lon="9.376238286495209">
        <ele>1375.78</ele>
        <time>2017-05-14T10:15:45Z</time>
      </trkpt>
      <trkpt lat="45.940721528604627" lon="9.376290170475841">
        <ele>1376.75</ele>
        <time>2017-05-14T10:15:50Z</time>
      </trkpt>
      <trkpt lat="45.940670315176249" lon="9.376372396945953">
        <ele>1377.71</ele>
        <time>2017-05-14T10:16:00Z</time>
      </trkpt>
      <trkpt lat="45.940598985180259" lon="9.376435512676835">
        <ele>1378.6700000000001</ele>
        <time>2017-05-14T10:16:09Z</time>
      </trkpt>
      <trkpt lat="45.940551208332181" lon="9.376535089686513">
        <ele>1379.6300000000001</ele>
        <time>2017-05-14T10:16:19Z</time>
      </trkpt>
      <trkpt lat="45.940551795065403" lon="9.376636259257793">
        <ele>1381.55</ele>
        <time>2017-05-14T10:16:31Z</time>
      </trkpt>
      <trkpt lat="45.940555399283767" lon="9.37671915628016">
        <ele>1382.99</ele>
        <time>2017-05-14T10:16:42Z</time>
      </trkpt>
      <trkpt lat="45.940560344606638" lon="9.376784367486835">
        <ele>1383.47</ele>
        <time>2017-05-14T10:16:51Z</time>
      </trkpt>
      <trkpt lat="45.940581047907472" lon="9.37689165584743">
        <ele>1384.9200000000001</ele>
        <time>2017-05-14T10:17:03Z</time>
      </trkpt>
      <trkpt lat="45.940550873056054" lon="9.376978995278478">
        <ele>1387.3199999999999</ele>
        <time>2017-05-14T10:17:15Z</time>
      </trkpt>
      <trkpt lat="45.94051843509078" lon="9.37707195058465">
        <ele>1388.76</ele>
        <time>2017-05-14T10:17:26Z</time>
      </trkpt>
      <trkpt lat="45.940494881942868" lon="9.377136155962944">
        <ele>1390.2</ele>
        <time>2017-05-14T10:17:38Z</time>
      </trkpt>
      <trkpt lat="45.940481806173921" lon="9.377201367169619">
        <ele>1390.6800000000001</ele>
        <time>2017-05-14T10:17:45Z</time>
      </trkpt>
      <trkpt lat="45.940458420664072" lon="9.377312175929546">
        <ele>1392.1300000000001</ele>
        <time>2017-05-14T10:17:57Z</time>
      </trkpt>
      <trkpt lat="45.940454816445708" lon="9.377384008839726">
        <ele>1394.05</ele>
        <time>2017-05-14T10:18:09Z</time>
      </trkpt>
      <trkpt lat="45.940424054861069" lon="9.37743254005909">
        <ele>1395.49</ele>
        <time>2017-05-14T10:18:20Z</time>
      </trkpt>
      <trkpt lat="45.940421791747212" lon="9.377519460394979">
        <ele>1396.9300000000001</ele>
        <time>2017-05-14T10:18:31Z</time>
      </trkpt>
      <trkpt lat="45.940445428714156" lon="9.377567488700151">
        <ele>1397.8900000000001</ele>
        <time>2017-05-14T10:18:44Z</time>
      </trkpt>
      <trkpt lat="45.940439309924841" lon="9.377600681036711">
        <ele>1398.3699999999999</ele>
        <time>2017-05-14T10:18:47Z</time>
      </trkpt>
      <trkpt lat="45.940440148115158" lon="9.377707131206989">
        <ele>1398.8599999999999</ele>
        <time>2017-05-14T10:18:58Z</time>
      </trkpt>
      <trkpt lat="45.940465796738863" lon="9.377727331593633">
        <ele>1400.3</ele>
        <time>2017-05-14T10:19:09Z</time>
      </trkpt>
      <trkpt lat="45.940463617444038" lon="9.377766475081444">
        <ele>1401.26</ele>
        <time>2017-05-14T10:19:18Z</time>
      </trkpt>
      <trkpt lat="45.940432101488113" lon="9.377810563892126">
        <ele>1402.22</ele>
        <time>2017-05-14T10:19:29Z</time>
      </trkpt>
      <trkpt lat="45.940437968820333" lon="9.377854401245713">
        <ele>1404.1400000000001</ele>
        <time>2017-05-14T10:19:39Z</time>
      </trkpt>
      <trkpt lat="45.940424725413322" lon="9.377935286611319">
        <ele>1404.6199999999999</ele>
        <time>2017-05-14T10:19:48Z</time>
      </trkpt>
      <trkpt lat="45.94042313285172" lon="9.378025308251381">
        <ele>1404.6199999999999</ele>
        <time>2017-05-14T10:19:55Z</time>
      </trkpt>
      <trkpt lat="45.940421121194959" lon="9.378098314628005">
        <ele>1405.5799999999999</ele>
        <time>2017-05-14T10:20:03Z</time>
      </trkpt>
      <trkpt lat="45.940397903323174" lon="9.378140056505799">
        <ele>1405.5799999999999</ele>
        <time>2017-05-14T10:20:09Z</time>
      </trkpt>
      <trkpt lat="45.940345851704478" lon="9.378262935206294">
        <ele>1406.0699999999999</ele>
        <time>2017-05-14T10:20:20Z</time>
      </trkpt>
      <trkpt lat="45.940281394869089" lon="9.378403834998608">
        <ele>1406.0699999999999</ele>
        <time>2017-05-14T10:20:31Z</time>
      </trkpt>
      <trkpt lat="45.94026580452919" lon="9.378482205793262">
        <ele>1407.51</ele>
        <time>2017-05-14T10:20:41Z</time>
      </trkpt>
      <trkpt lat="45.940276617184281" lon="9.378533586859703">
        <ele>1407.99</ele>
        <time>2017-05-14T10:20:51Z</time>
      </trkpt>
      <trkpt lat="45.940261110663414" lon="9.378592344000936">
        <ele>1408.95</ele>
        <time>2017-05-14T10:20:59Z</time>
      </trkpt>
      <trkpt lat="45.940234707668424" lon="9.378726202994585">
        <ele>1408.95</ele>
        <time>2017-05-14T10:21:11Z</time>
      </trkpt>
      <trkpt lat="45.940216770395637" lon="9.378779595717788">
        <ele>1409.4300000000001</ele>
        <time>2017-05-14T10:21:21Z</time>
      </trkpt>
      <trkpt lat="45.940187852829695" lon="9.378870455548167">
        <ele>1410.3900000000001</ele>
        <time>2017-05-14T10:21:32Z</time>
      </trkpt>
      <trkpt lat="45.9401685744524" lon="9.378895685076714">
        <ele>1410.3900000000001</ele>
        <time>2017-05-14T10:21:37Z</time>
      </trkpt>
      <trkpt lat="45.940100513398647" lon="9.378854781389237">
        <ele>1410.3900000000001</ele>
        <time>2017-05-14T10:21:47Z</time>
      </trkpt>
      <trkpt lat="45.940079810097814" lon="9.378839107230306">
        <ele>1410.8699999999999</ele>
        <time>2017-05-14T10:21:56Z</time>
      </trkpt>
      <trkpt lat="45.940065728500485" lon="9.378830557689071">
        <ele>1411.8299999999999</ele>
        <time>2017-05-14T10:22:04Z</time>
      </trkpt>
      <trkpt lat="45.940063381567597" lon="9.378888141363859">
        <ele>1413.28</ele>
        <time>2017-05-14T10:22:16Z</time>
      </trkpt>
      <trkpt lat="45.940043264999986" lon="9.378893002867699">
        <ele>1415.2</ele>
        <time>2017-05-14T10:22:27Z</time>
      </trkpt>
      <trkpt lat="45.940011329948902" lon="9.378911526873708">
        <ele>1416.6400000000001</ele>
        <time>2017-05-14T10:22:39Z</time>
      </trkpt>
      <trkpt lat="45.939950225874782" lon="9.378928458318114">
        <ele>1418.0799999999999</ele>
        <time>2017-05-14T10:22:50Z</time>
      </trkpt>
      <trkpt lat="45.939916949719191" lon="9.378924183547497">
        <ele>1418.5599999999999</ele>
        <time>2017-05-14T10:23:04Z</time>
      </trkpt>
      <trkpt lat="45.939939748495817" lon="9.378937846049666">
        <ele>1419.52</ele>
        <time>2017-05-14T10:23:14Z</time>
      </trkpt>
      <trkpt lat="45.939905382692814" lon="9.378928458318114">
        <ele>1420.49</ele>
        <time>2017-05-14T10:23:28Z</time>
      </trkpt>
      <trkpt lat="45.939894905313849" lon="9.378920579329133">
        <ele>1421.9300000000001</ele>
        <time>2017-05-14T10:23:30Z</time>
      </trkpt>
      <trkpt lat="45.93987294472754" lon="9.378929380327463">
        <ele>1421.9300000000001</ele>
        <time>2017-05-14T10:23:40Z</time>
      </trkpt>
      <trkpt lat="45.939823156222701" lon="9.37893851660192">
        <ele>1423.8499999999999</ele>
        <time>2017-05-14T10:23:52Z</time>
      </trkpt>
      <trkpt lat="45.939820809289813" lon="9.378936588764191">
        <ele>1423.8499999999999</ele>
        <time>2017-05-14T10:23:53Z</time>
      </trkpt>
      <trkpt lat="45.939810583367944" lon="9.378963327035308">
        <ele>1425.29</ele>
        <time>2017-05-14T10:24:03Z</time>
      </trkpt>
      <trkpt lat="45.939781665802002" lon="9.378992831334472">
        <ele>1426.73</ele>
        <time>2017-05-14T10:24:13Z</time>
      </trkpt>
      <trkpt lat="45.939774541184306" lon="9.378966595977545">
        <ele>1428.1800000000001</ele>
        <time>2017-05-14T10:24:23Z</time>
      </trkpt>
      <trkpt lat="45.939762806519866" lon="9.37900054268539">
        <ele>1429.1400000000001</ele>
        <time>2017-05-14T10:24:32Z</time>
      </trkpt>
      <trkpt lat="45.939760208129883" lon="9.379035159945488">
        <ele>1430.5799999999999</ele>
        <time>2017-05-14T10:24:44Z</time>
      </trkpt>
      <trkpt lat="45.939722824841738" lon="9.378956453874707">
        <ele>1432.02</ele>
        <time>2017-05-14T10:24:55Z</time>
      </trkpt>
      <trkpt lat="45.939698601141572" lon="9.378980342298746">
        <ele>1432.5</ele>
        <time>2017-05-14T10:25:04Z</time>
      </trkpt>
      <trkpt lat="45.939713353291154" lon="9.379034824669361">
        <ele>1433.9400000000001</ele>
        <time>2017-05-14T10:25:16Z</time>
      </trkpt>
      <trkpt lat="45.939692398533225" lon="9.379047313705087">
        <ele>1435.3900000000001</ele>
        <time>2017-05-14T10:25:26Z</time>
      </trkpt>
      <trkpt lat="45.939646633341908" lon="9.379007751122117">
        <ele>1436.8299999999999</ele>
        <time>2017-05-14T10:25:37Z</time>
      </trkpt>
      <trkpt lat="45.939637329429388" lon="9.379001464694738">
        <ele>1437.79</ele>
        <time>2017-05-14T10:25:46Z</time>
      </trkpt>
      <trkpt lat="45.939609501510859" lon="9.37899325042963">
        <ele>1439.23</ele>
        <time>2017-05-14T10:25:57Z</time>
      </trkpt>
      <trkpt lat="45.939589217305183" lon="9.378952598199248">
        <ele>1440.6700000000001</ele>
        <time>2017-05-14T10:26:06Z</time>
      </trkpt>
      <trkpt lat="45.939593994989991" lon="9.378940192982554">
        <ele>1442.1099999999999</ele>
        <time>2017-05-14T10:26:18Z</time>
      </trkpt>
      <trkpt lat="45.939593408256769" lon="9.378973050042987">
        <ele>1442.1099999999999</ele>
        <time>2017-05-14T10:26:38Z</time>
      </trkpt>
      <trkpt lat="45.939582763239741" lon="9.378972044214606">
        <ele>1441.1500000000001</ele>
        <time>2017-05-14T10:26:51Z</time>
      </trkpt>
      <trkpt lat="45.939558958634734" lon="9.378945641219616">
        <ele>1442.1099999999999</ele>
        <time>2017-05-14T10:27:00Z</time>
      </trkpt>
      <trkpt lat="45.939552169293165" lon="9.378898115828633">
        <ele>1443.0799999999999</ele>
        <time>2017-05-14T10:27:14Z</time>
      </trkpt>
      <trkpt lat="45.939551079645753" lon="9.378885459154844">
        <ele>1443.5599999999999</ele>
        <time>2017-05-14T10:27:25Z</time>
      </trkpt>
      <trkpt lat="45.939612518996" lon="9.378811530768871">
        <ele>1444.04</ele>
        <time>2017-05-14T10:27:40Z</time>
      </trkpt>
      <trkpt lat="45.939642190933228" lon="9.378675324842334">
        <ele>1445.48</ele>
        <time>2017-05-14T10:27:58Z</time>
      </trkpt>
      <trkpt lat="45.939600700512528" lon="9.378730142489076">
        <ele>1446.4400000000001</ele>
        <time>2017-05-14T10:28:09Z</time>
      </trkpt>
      <trkpt lat="45.939536830410361" lon="9.378772303462029">
        <ele>1448.3599999999999</ele>
        <time>2017-05-14T10:28:20Z</time>
      </trkpt>
      <trkpt lat="45.939521156251431" lon="9.378766687586904">
        <ele>1448.3599999999999</ele>
        <time>2017-05-14T10:28:29Z</time>
      </trkpt>
      <trkpt lat="45.939503721892834" lon="9.378804070875049">
        <ele>1447.8800000000001</ele>
        <time>2017-05-14T10:28:38Z</time>
      </trkpt>
      <trkpt lat="45.939462315291166" lon="9.37882712110877">
        <ele>1447.4000000000001</ele>
        <time>2017-05-14T10:28:47Z</time>
      </trkpt>
      <trkpt lat="45.939429039135575" lon="9.378871377557516">
        <ele>1448.8399999999999</ele>
        <time>2017-05-14T10:28:58Z</time>
      </trkpt>
      <trkpt lat="45.939421243965626" lon="9.378874730318785">
        <ele>1448.8399999999999</ele>
        <time>2017-05-14T10:28:59Z</time>
      </trkpt>
      <trkpt lat="45.939370365813375" lon="9.378881603479385">
        <ele>1448.8399999999999</ele>
        <time>2017-05-14T10:29:10Z</time>
      </trkpt>
      <trkpt lat="45.939357290044427" lon="9.378889985382557">
        <ele>1449.3199999999999</ele>
        <time>2017-05-14T10:29:18Z</time>
      </trkpt>
      <trkpt lat="45.93928168527782" lon="9.378934828564525">
        <ele>1450.29</ele>
        <time>2017-05-14T10:29:28Z</time>
      </trkpt>
      <trkpt lat="45.939267603680491" lon="9.379055444151163">
        <ele>1452.6900000000001</ele>
        <time>2017-05-14T10:29:38Z</time>
      </trkpt>
      <trkpt lat="45.939287804067135" lon="9.379158793017268">
        <ele>1455.0899999999999</ele>
        <time>2017-05-14T10:29:50Z</time>
      </trkpt>
      <trkpt lat="45.939295180141926" lon="9.379204139113426">
        <ele>1456.05</ele>
        <time>2017-05-14T10:29:59Z</time>
      </trkpt>
      <trkpt lat="45.939246397465467" lon="9.379250993952155">
        <ele>1457.5</ele>
        <time>2017-05-14T10:30:09Z</time>
      </trkpt>
      <trkpt lat="45.939278919249773" lon="9.379251496866345">
        <ele>1458.46</ele>
        <time>2017-05-14T10:30:17Z</time>
      </trkpt>
      <trkpt lat="45.9392792545259" lon="9.379300363361836">
        <ele>1459.9000000000001</ele>
        <time>2017-05-14T10:30:27Z</time>
      </trkpt>
      <trkpt lat="45.939291408285499" lon="9.379373788833618">
        <ele>1461.3399999999999</ele>
        <time>2017-05-14T10:30:39Z</time>
      </trkpt>
      <trkpt lat="45.939273722469807" lon="9.37941150739789">
        <ele>1461.8199999999999</ele>
        <time>2017-05-14T10:30:51Z</time>
      </trkpt>
      <trkpt lat="45.939264167100191" lon="9.379437658935785">
        <ele>1463.74</ele>
        <time>2017-05-14T10:31:01Z</time>
      </trkpt>
      <trkpt lat="45.939220665022731" lon="9.379439251497388">
        <ele>1465.1900000000001</ele>
        <time>2017-05-14T10:31:10Z</time>
      </trkpt>
      <trkpt lat="45.939171463251114" lon="9.379404550418258">
        <ele>1467.1099999999999</ele>
        <time>2017-05-14T10:31:20Z</time>
      </trkpt>
      <trkpt lat="45.93911555595696" lon="9.37937144190073">
        <ele>1468.55</ele>
        <time>2017-05-14T10:31:32Z</time>
      </trkpt>
      <trkpt lat="45.939096948131919" lon="9.379415195435286">
        <ele>1469.99</ele>
        <time>2017-05-14T10:31:45Z</time>
      </trkpt>
      <trkpt lat="45.939056714996696" lon="9.379518376663327">
        <ele>1472.4000000000001</ele>
        <time>2017-05-14T10:31:57Z</time>
      </trkpt>
      <trkpt lat="45.939048584550619" lon="9.379607224836946">
        <ele>1473.3599999999999</ele>
        <time>2017-05-14T10:32:07Z</time>
      </trkpt>
      <trkpt lat="45.939029473811388" lon="9.379680817946792">
        <ele>1474.3199999999999</ele>
        <time>2017-05-14T10:32:14Z</time>
      </trkpt>
      <trkpt lat="45.939035005867481" lon="9.379766480997205">
        <ele>1475.76</ele>
        <time>2017-05-14T10:32:24Z</time>
      </trkpt>
      <trkpt lat="45.939043220132589" lon="9.379866141825914">
        <ele>1476.24</ele>
        <time>2017-05-14T10:32:35Z</time>
      </trkpt>
      <trkpt lat="45.939037939533591" lon="9.379908386617899">
        <ele>1476.72</ele>
        <time>2017-05-14T10:32:47Z</time>
      </trkpt>
      <trkpt lat="45.938991084694862" lon="9.380040317773819">
        <ele>1476.72</ele>
        <time>2017-05-14T10:33:00Z</time>
      </trkpt>
      <trkpt lat="45.93898119404912" lon="9.3801708240062">
        <ele>1478.1600000000001</ele>
        <time>2017-05-14T10:33:09Z</time>
      </trkpt>
      <trkpt lat="45.938986223191023" lon="9.380235113203526">
        <ele>1480.5699999999999</ele>
        <time>2017-05-14T10:33:18Z</time>
      </trkpt>
      <trkpt lat="45.938947750255466" lon="9.380298815667629">
        <ele>1482.97</ele>
        <time>2017-05-14T10:33:29Z</time>
      </trkpt>
      <trkpt lat="45.938963256776333" lon="9.38036235049367">
        <ele>1484.8900000000001</ele>
        <time>2017-05-14T10:33:39Z</time>
      </trkpt>
      <trkpt lat="45.938958814367652" lon="9.380464693531394">
        <ele>1486.3399999999999</ele>
        <time>2017-05-14T10:33:51Z</time>
      </trkpt>
      <trkpt lat="45.938979350030422" lon="9.38057734631002">
        <ele>1486.8199999999999</ele>
        <time>2017-05-14T10:34:01Z</time>
      </trkpt>
      <trkpt lat="45.939000975340605" lon="9.380611879751086">
        <ele>1486.8199999999999</ele>
        <time>2017-05-14T10:34:08Z</time>
      </trkpt>
      <trkpt lat="45.93902469612658" lon="9.380727550014854">
        <ele>1486.8199999999999</ele>
        <time>2017-05-14T10:34:17Z</time>
      </trkpt>
      <trkpt lat="45.938981110230088" lon="9.380809189751744">
        <ele>1487.78</ele>
        <time>2017-05-14T10:34:23Z</time>
      </trkpt>
      <trkpt lat="45.93895822763443" lon="9.380858642980456">
        <ele>1488.74</ele>
        <time>2017-05-14T10:34:28Z</time>
      </trkpt>
      <trkpt lat="45.93892989680171" lon="9.380978671833873">
        <ele>1489.7</ele>
        <time>2017-05-14T10:34:39Z</time>
      </trkpt>
      <trkpt lat="45.938920341432095" lon="9.381050588563085">
        <ele>1490.6600000000001</ele>
        <time>2017-05-14T10:34:48Z</time>
      </trkpt>
      <trkpt lat="45.938887065276504" lon="9.38113147392869">
        <ele>1493.0599999999999</ele>
        <time>2017-05-14T10:35:00Z</time>
      </trkpt>
      <trkpt lat="45.938833421096206" lon="9.381186123937368">
        <ele>1494.51</ele>
        <time>2017-05-14T10:35:10Z</time>
      </trkpt>
      <trkpt lat="45.938826464116573" lon="9.381232224404812">
        <ele>1494.99</ele>
        <time>2017-05-14T10:35:25Z</time>
      </trkpt>
      <trkpt lat="45.938805174082518" lon="9.381283605471253">
        <ele>1495.95</ele>
        <time>2017-05-14T10:35:34Z</time>
      </trkpt>
      <trkpt lat="45.938782291486859" lon="9.381339177489281">
        <ele>1495.95</ele>
        <time>2017-05-14T10:35:47Z</time>
      </trkpt>
      <trkpt lat="45.938755888491869" lon="9.381346218287945">
        <ele>1495.95</ele>
        <time>2017-05-14T10:36:00Z</time>
      </trkpt>
      <trkpt lat="45.938742812722921" lon="9.381434144452214">
        <ele>1496.4300000000001</ele>
        <time>2017-05-14T10:36:10Z</time>
      </trkpt>
      <trkpt lat="45.938722025603056" lon="9.381413524970412">
        <ele>1496.4300000000001</ele>
        <time>2017-05-14T10:36:13Z</time>
      </trkpt>
      <trkpt lat="45.938658993691206" lon="9.381278492510319">
        <ele>1495.95</ele>
        <time>2017-05-14T10:36:27Z</time>
      </trkpt>
      <trkpt lat="45.938635524362326" lon="9.381278827786446">
        <ele>1497.8699999999999</ele>
        <time>2017-05-14T10:36:37Z</time>
      </trkpt>
      <trkpt lat="45.938582131639123" lon="9.38122970983386">
        <ele>1500.27</ele>
        <time>2017-05-14T10:36:49Z</time>
      </trkpt>
      <trkpt lat="45.938568552955985" lon="9.381222417578101">
        <ele>1501.72</ele>
        <time>2017-05-14T10:36:59Z</time>
      </trkpt>
      <trkpt lat="45.938542066141963" lon="9.381204480305314">
        <ele>1502.2</ele>
        <time>2017-05-14T10:37:08Z</time>
      </trkpt>
      <trkpt lat="45.938534857705235" lon="9.381251921877265">
        <ele>1504.1199999999999</ele>
        <time>2017-05-14T10:37:19Z</time>
      </trkpt>
      <trkpt lat="45.938484985381365" lon="9.381278241053224">
        <ele>1504.5999999999999</ele>
        <time>2017-05-14T10:37:31Z</time>
      </trkpt>
      <trkpt lat="45.938478363677859" lon="9.381306152790785">
        <ele>1506.04</ele>
        <time>2017-05-14T10:37:41Z</time>
      </trkpt>
      <trkpt lat="45.938472161069512" lon="9.381335321813822">
        <ele>1506.52</ele>
        <time>2017-05-14T10:37:58Z</time>
      </trkpt>
      <trkpt lat="45.938499569892883" lon="9.381315372884274">
        <ele>1507.97</ele>
        <time>2017-05-14T10:38:10Z</time>
      </trkpt>
      <trkpt lat="45.938518596813083" lon="9.381337836384773">
        <ele>1509.8900000000001</ele>
        <time>2017-05-14T10:38:17Z</time>
      </trkpt>
      <trkpt lat="45.93849454075098" lon="9.381401790305972">
        <ele>1512.29</ele>
        <time>2017-05-14T10:38:26Z</time>
      </trkpt>
      <trkpt lat="45.938496720045805" lon="9.38139290548861">
        <ele>1512.29</ele>
        <time>2017-05-14T10:38:33Z</time>
      </trkpt>
      <trkpt lat="45.938490182161331" lon="9.381387289613485">
        <ele>1511.8099999999999</ele>
        <time>2017-05-14T10:38:44Z</time>
      </trkpt>
      <trkpt lat="45.938485153019428" lon="9.381413022056222">
        <ele>1512.29</ele>
        <time>2017-05-14T10:38:56Z</time>
      </trkpt>
      <trkpt lat="45.938518512994051" lon="9.381417296826839">
        <ele>1512.29</ele>
        <time>2017-05-14T10:39:11Z</time>
      </trkpt>
      <trkpt lat="45.938506610691547" lon="9.38142710365355">
        <ele>1511.3299999999999</ele>
        <time>2017-05-14T10:39:21Z</time>
      </trkpt>
      <trkpt lat="45.938507532700896" lon="9.381423499435186">
        <ele>1511.3299999999999</ele>
        <time>2017-05-14T10:39:30Z</time>
      </trkpt>
      <trkpt lat="45.938484314829111" lon="9.381390558555722">
        <ele>1511.3299999999999</ele>
        <time>2017-05-14T10:39:47Z</time>
      </trkpt>
      <trkpt lat="45.938487164676189" lon="9.381385864689946">
        <ele>1511.3299999999999</ele>
        <time>2017-05-14T10:40:08Z</time>
      </trkpt>
      <trkpt lat="45.938482889905572" lon="9.381366837769747">
        <ele>1511.3299999999999</ele>
        <time>2017-05-14T10:40:31Z</time>
      </trkpt>
      <trkpt lat="45.93847744166851" lon="9.381344374269247">
        <ele>1510.8499999999999</ele>
        <time>2017-05-14T10:40:54Z</time>
      </trkpt>
      <trkpt lat="45.938480962067842" lon="9.381345212459564">
        <ele>1510.8499999999999</ele>
        <time>2017-05-14T10:41:21Z</time>
      </trkpt>
      <trkpt lat="45.938494205474854" lon="9.381363652646542">
        <ele>1511.3299999999999</ele>
        <time>2017-05-14T10:41:48Z</time>
      </trkpt>
      <trkpt lat="45.938516417518258" lon="9.381363485008478">
        <ele>1511.3299999999999</ele>
        <time>2017-05-14T10:42:10Z</time>
      </trkpt>
      <trkpt lat="45.938525637611747" lon="9.381393073126674">
        <ele>1511.3299999999999</ele>
        <time>2017-05-14T10:42:21Z</time>
      </trkpt>
      <trkpt lat="45.938491271808743" lon="9.381400281563401">
        <ele>1511.8099999999999</ele>
        <time>2017-05-14T10:42:47Z</time>
      </trkpt>
      <trkpt lat="45.938499150797725" lon="9.381384355947375">
        <ele>1511.3299999999999</ele>
        <time>2017-05-14T10:42:56Z</time>
      </trkpt>
      <trkpt lat="45.938500156626105" lon="9.381380416452885">
        <ele>1511.3299999999999</ele>
        <time>2017-05-14T10:43:21Z</time>
      </trkpt>
      <trkpt lat="45.938505101948977" lon="9.381357282400131">
        <ele>1511.3299999999999</ele>
        <time>2017-05-14T10:43:44Z</time>
      </trkpt>
      <trkpt lat="45.938486997038126" lon="9.38134990632534">
        <ele>1511.3299999999999</ele>
        <time>2017-05-14T10:44:04Z</time>
      </trkpt>
      <trkpt lat="45.938503844663501" lon="9.38133230432868">
        <ele>1510.8499999999999</ele>
        <time>2017-05-14T10:44:30Z</time>
      </trkpt>
      <trkpt lat="45.938476268202066" lon="9.381342278793454">
        <ele>1511.8099999999999</ele>
        <time>2017-05-14T10:44:50Z</time>
      </trkpt>
      <trkpt lat="45.938489595428109" lon="9.381393576040864">
        <ele>1511.3299999999999</ele>
        <time>2017-05-14T10:45:18Z</time>
      </trkpt>
      <trkpt lat="45.938473837450147" lon="9.381363401189446">
        <ele>1511.3299999999999</ele>
        <time>2017-05-14T10:45:52Z</time>
      </trkpt>
      <trkpt lat="45.938478363677859" lon="9.381348984315991">
        <ele>1511.8099999999999</ele>
        <time>2017-05-14T10:46:18Z</time>
      </trkpt>
      <trkpt lat="45.938464449718595" lon="9.381371783092618">
        <ele>1512.77</ele>
        <time>2017-05-14T10:46:49Z</time>
      </trkpt>
      <trkpt lat="45.938479118049145" lon="9.381384691223502">
        <ele>1511.8099999999999</ele>
        <time>2017-05-14T10:47:13Z</time>
      </trkpt>
      <trkpt lat="45.938492529094219" lon="9.381362814456224">
        <ele>1512.29</ele>
        <time>2017-05-14T10:47:35Z</time>
      </trkpt>
      <trkpt lat="45.93844760209322" lon="9.381377901881933">
        <ele>1512.29</ele>
        <time>2017-05-14T10:47:45Z</time>
      </trkpt>
      <trkpt lat="45.938430838286877" lon="9.381401119753718">
        <ele>1512.29</ele>
        <time>2017-05-14T10:48:01Z</time>
      </trkpt>
      <trkpt lat="45.938447182998061" lon="9.381398940458894">
        <ele>1512.29</ele>
        <time>2017-05-14T10:48:14Z</time>
      </trkpt>
      <trkpt lat="45.938423629850149" lon="9.381387121975422">
        <ele>1511.8099999999999</ele>
        <time>2017-05-14T10:48:29Z</time>
      </trkpt>
      <trkpt lat="45.938379289582372" lon="9.381432719528675">
        <ele>1511.3299999999999</ele>
        <time>2017-05-14T10:48:40Z</time>
      </trkpt>
      <trkpt lat="45.938386162742972" lon="9.381479825824499">
        <ele>1511.8099999999999</ele>
        <time>2017-05-14T10:49:03Z</time>
      </trkpt>
      <trkpt lat="45.938367135822773" lon="9.381461134180427">
        <ele>1511.8099999999999</ele>
        <time>2017-05-14T10:49:31Z</time>
      </trkpt>
      <trkpt lat="45.938389347866178" lon="9.38137429766357">
        <ele>1511.8099999999999</ele>
        <time>2017-05-14T10:49:58Z</time>
      </trkpt>
      <trkpt lat="45.938366297632456" lon="9.381367173045874">
        <ele>1511.8099999999999</ele>
        <time>2017-05-14T10:50:24Z</time>
      </trkpt>
      <trkpt lat="45.938357664272189" lon="9.381537158042193">
        <ele>1511.8099999999999</ele>
        <time>2017-05-14T10:50:57Z</time>
      </trkpt>
      <trkpt lat="45.938341654837132" lon="9.381472449749708">
        <ele>1511.3299999999999</ele>
        <time>2017-05-14T10:51:24Z</time>
      </trkpt>
      <trkpt lat="45.938400244340301" lon="9.381485357880592">
        <ele>1511.3299999999999</ele>
        <time>2017-05-14T10:51:57Z</time>
      </trkpt>
      <trkpt lat="45.938398651778698" lon="9.381549814715982">
        <ele>1511.3299999999999</ele>
        <time>2017-05-14T10:52:26Z</time>
      </trkpt>
      <trkpt lat="45.93839043751359" lon="9.38157076947391">
        <ele>1511.3299999999999</ele>
        <time>2017-05-14T10:52:53Z</time>
      </trkpt>
      <trkpt lat="45.938345259055495" lon="9.381569009274244">
        <ele>1511.3299999999999</ele>
        <time>2017-05-14T10:53:22Z</time>
      </trkpt>
      <trkpt lat="45.938330506905913" lon="9.381528692319989">
        <ele>1511.3299999999999</ele>
        <time>2017-05-14T10:53:53Z</time>
      </trkpt>
      <trkpt lat="45.938318353146315" lon="9.381460463628173">
        <ele>1511.3299999999999</ele>
        <time>2017-05-14T10:54:23Z</time>
      </trkpt>
      <trkpt lat="45.938354311510921" lon="9.38147303648293">
        <ele>1511.3299999999999</ele>
        <time>2017-05-14T10:54:54Z</time>
      </trkpt>
      <trkpt lat="45.938331596553326" lon="9.38139826990664">
        <ele>1511.3299999999999</ele>
        <time>2017-05-14T10:55:29Z</time>
      </trkpt>
      <trkpt lat="45.938368728384376" lon="9.381422577425838">
        <ele>1511.3299999999999</ele>
        <time>2017-05-14T10:56:02Z</time>
      </trkpt>
      <trkpt lat="45.938305277377367" lon="9.381427941843867">
        <ele>1511.8099999999999</ele>
        <time>2017-05-14T10:56:32Z</time>
      </trkpt>
      <trkpt lat="45.938312066718936" lon="9.381423080340028">
        <ele>1511.8099999999999</ele>
        <time>2017-05-14T10:56:59Z</time>
      </trkpt>
      <trkpt lat="45.938334865495563" lon="9.381405562162399">
        <ele>1511.8099999999999</ele>
        <time>2017-05-14T10:57:31Z</time>
      </trkpt>
      <trkpt lat="45.938298488035798" lon="9.381419224664569">
        <ele>1511.8099999999999</ele>
        <time>2017-05-14T10:58:03Z</time>
      </trkpt>
      <trkpt lat="45.938373589888215" lon="9.381425427272916">
        <ele>1511.8099999999999</ele>
        <time>2017-05-14T10:58:29Z</time>
      </trkpt>
      <trkpt lat="45.938392365351319" lon="9.381461720913649">
        <ele>1513.25</ele>
        <time>2017-05-14T10:58:46Z</time>
      </trkpt>
      <trkpt lat="45.938370069488883" lon="9.381487369537354">
        <ele>1513.25</ele>
        <time>2017-05-14T10:58:58Z</time>
      </trkpt>
      <trkpt lat="45.938369063660502" lon="9.381484687328339">
        <ele>1511.8099999999999</ele>
        <time>2017-05-14T10:59:01Z</time>
      </trkpt>
      <trkpt lat="45.938364118337631" lon="9.381463397294283">
        <ele>1511.3299999999999</ele>
        <time>2017-05-14T10:59:24Z</time>
      </trkpt>
      <trkpt lat="45.938380546867847" lon="9.381476975977421">
        <ele>1512.29</ele>
        <time>2017-05-14T10:59:37Z</time>
      </trkpt>
      <trkpt lat="45.938380965963006" lon="9.381479239091277">
        <ele>1511.8099999999999</ele>
        <time>2017-05-14T10:59:56Z</time>
      </trkpt>
      <trkpt lat="45.938373422250152" lon="9.381470857188106">
        <ele>1512.29</ele>
        <time>2017-05-14T11:00:10Z</time>
      </trkpt>
      <trkpt lat="45.938377361744642" lon="9.381460463628173">
        <ele>1511.8099999999999</ele>
        <time>2017-05-14T11:00:27Z</time>
      </trkpt>
      <trkpt lat="45.938355065882206" lon="9.381465325132012">
        <ele>1511.8099999999999</ele>
        <time>2017-05-14T11:00:44Z</time>
      </trkpt>
      <trkpt lat="45.938378283753991" lon="9.381454261019826">
        <ele>1512.29</ele>
        <time>2017-05-14T11:00:57Z</time>
      </trkpt>
      <trkpt lat="45.938385324552655" lon="9.381447471678257">
        <ele>1512.77</ele>
        <time>2017-05-14T11:01:13Z</time>
      </trkpt>
      <trkpt lat="45.938362861052155" lon="9.381435317918658">
        <ele>1512.29</ele>
        <time>2017-05-14T11:01:23Z</time>
      </trkpt>
      <trkpt lat="45.938367303460836" lon="9.381479742005467">
        <ele>1512.29</ele>
        <time>2017-05-14T11:01:40Z</time>
      </trkpt>
      <trkpt lat="45.938325896859169" lon="9.381468510255218">
        <ele>1512.29</ele>
        <time>2017-05-14T11:02:05Z</time>
      </trkpt>
      <trkpt lat="45.938322208821774" lon="9.381456105038524">
        <ele>1512.77</ele>
        <time>2017-05-14T11:02:31Z</time>
      </trkpt>
      <trkpt lat="45.938362190499902" lon="9.381487537175417">
        <ele>1512.77</ele>
        <time>2017-05-14T11:02:58Z</time>
      </trkpt>
      <trkpt lat="45.938399070873857" lon="9.381432719528675">
        <ele>1512.77</ele>
        <time>2017-05-14T11:03:27Z</time>
      </trkpt>
      <trkpt lat="45.938403597101569" lon="9.381447220221162">
        <ele>1512.77</ele>
        <time>2017-05-14T11:03:48Z</time>
      </trkpt>
      <trkpt lat="45.938401166349649" lon="9.381430372595787">
        <ele>1512.77</ele>
        <time>2017-05-14T11:04:16Z</time>
      </trkpt>
      <trkpt lat="45.938368644565344" lon="9.381351750344038">
        <ele>1513.25</ele>
        <time>2017-05-14T11:04:41Z</time>
      </trkpt>
      <trkpt lat="45.938362777233124" lon="9.381356276571751">
        <ele>1513.25</ele>
        <time>2017-05-14T11:05:09Z</time>
      </trkpt>
      <trkpt lat="45.938359005376697" lon="9.38134697265923">
        <ele>1513.25</ele>
        <time>2017-05-14T11:05:30Z</time>
      </trkpt>
      <trkpt lat="45.938347773626447" lon="9.381352001801133">
        <ele>1513.73</ele>
        <time>2017-05-14T11:05:56Z</time>
      </trkpt>
      <trkpt lat="45.938336290419102" lon="9.3812604714185">
        <ele>1513.73</ele>
        <time>2017-05-14T11:06:22Z</time>
      </trkpt>
      <trkpt lat="45.938323047012091" lon="9.381268601864576">
        <ele>1514.21</ele>
        <time>2017-05-14T11:06:41Z</time>
      </trkpt>
      <trkpt lat="45.938320113345981" lon="9.381282767280936">
        <ele>1514.21</ele>
        <time>2017-05-14T11:07:03Z</time>
      </trkpt>
      <trkpt lat="45.938402339816093" lon="9.381422661244869">
        <ele>1514.21</ele>
        <time>2017-05-14T11:07:33Z</time>
      </trkpt>
      <trkpt lat="45.938435699790716" lon="9.381482675671578">
        <ele>1514.21</ele>
        <time>2017-05-14T11:08:00Z</time>
      </trkpt>
      <trkpt lat="45.938506610691547" lon="9.381614271551371">
        <ele>1514.21</ele>
        <time>2017-05-14T11:08:26Z</time>
      </trkpt>
      <trkpt lat="45.938422540202737" lon="9.38157663680613">
        <ele>1514.21</ele>
        <time>2017-05-14T11:08:54Z</time>
      </trkpt>
      <trkpt lat="45.938389264047146" lon="9.38148770481348">
        <ele>1514.21</ele>
        <time>2017-05-14T11:09:18Z</time>
      </trkpt>
      <trkpt lat="45.938387336209416" lon="9.381560459733009">
        <ele>1514.21</ele>
        <time>2017-05-14T11:09:41Z</time>
      </trkpt>
      <trkpt lat="45.938357580453157" lon="9.38145887106657">
        <ele>1514.21</ele>
        <time>2017-05-14T11:10:08Z</time>
      </trkpt>
      <trkpt lat="45.938382223248482" lon="9.381562555208802">
        <ele>1514.21</ele>
        <time>2017-05-14T11:10:29Z</time>
      </trkpt>
      <trkpt lat="45.938395634293556" lon="9.3815643992275">
        <ele>1514.21</ele>
        <time>2017-05-14T11:10:53Z</time>
      </trkpt>
      <trkpt lat="45.938377277925611" lon="9.381534894928336">
        <ele>1513.73</ele>
        <time>2017-05-14T11:11:15Z</time>
      </trkpt>
      <trkpt lat="45.938431760296226" lon="9.38157906755805">
        <ele>1513.73</ele>
        <time>2017-05-14T11:11:38Z</time>
      </trkpt>
      <trkpt lat="45.93838800676167" lon="9.381488962098956">
        <ele>1513.73</ele>
        <time>2017-05-14T11:11:53Z</time>
      </trkpt>
      <trkpt lat="45.938427820801735" lon="9.381451578810811">
        <ele>1513.73</ele>
        <time>2017-05-14T11:12:17Z</time>
      </trkpt>
      <trkpt lat="45.938397226855159" lon="9.381421403959394">
        <ele>1513.25</ele>
        <time>2017-05-14T11:12:37Z</time>
      </trkpt>
      <trkpt lat="45.938434526324272" lon="9.381546126678586">
        <ele>1513.73</ele>
        <time>2017-05-14T11:13:05Z</time>
      </trkpt>
      <trkpt lat="45.938473753631115" lon="9.381645871326327">
        <ele>1513.25</ele>
        <time>2017-05-14T11:13:35Z</time>
      </trkpt>
      <trkpt lat="45.938481297343969" lon="9.381651990115643">
        <ele>1513.25</ele>
        <time>2017-05-14T11:14:04Z</time>
      </trkpt>
      <trkpt lat="45.938503425568342" lon="9.381640003994107">
        <ele>1513.25</ele>
        <time>2017-05-14T11:14:19Z</time>
      </trkpt>
      <trkpt lat="45.938536701723933" lon="9.381656097248197">
        <ele>1513.25</ele>
        <time>2017-05-14T11:14:51Z</time>
      </trkpt>
      <trkpt lat="45.938516333699226" lon="9.381597843021154">
        <ele>1512.77</ele>
        <time>2017-05-14T11:15:18Z</time>
      </trkpt>
      <trkpt lat="45.938439387828112" lon="9.381565069779754">
        <ele>1513.25</ele>
        <time>2017-05-14T11:15:34Z</time>
      </trkpt>
      <trkpt lat="45.938454726710916" lon="9.381542606279254">
        <ele>1513.25</ele>
        <time>2017-05-14T11:15:55Z</time>
      </trkpt>
      <trkpt lat="45.938482219353318" lon="9.381534894928336">
        <ele>1513.25</ele>
        <time>2017-05-14T11:16:14Z</time>
      </trkpt>
      <trkpt lat="45.938582550734282" lon="9.38165970146656">
        <ele>1513.25</ele>
        <time>2017-05-14T11:16:36Z</time>
      </trkpt>
      <trkpt lat="45.938597721979022" lon="9.3816611263901">
        <ele>1514.6900000000001</ele>
        <time>2017-05-14T11:17:04Z</time>
      </trkpt>
      <trkpt lat="45.938531085848808" lon="9.381614020094276">
        <ele>1513.25</ele>
        <time>2017-05-14T11:17:22Z</time>
      </trkpt>
      <trkpt lat="45.93860493041575" lon="9.38170856796205">
        <ele>1513.25</ele>
        <time>2017-05-14T11:17:47Z</time>
      </trkpt>
      <trkpt lat="45.938550867140293" lon="9.381692809984088">
        <ele>1513.25</ele>
        <time>2017-05-14T11:18:10Z</time>
      </trkpt>
      <trkpt lat="45.938536617904902" lon="9.381691468879581">
        <ele>1513.25</ele>
        <time>2017-05-14T11:18:26Z</time>
      </trkpt>
      <trkpt lat="45.938558159396052" lon="9.381717536598444">
        <ele>1513.25</ele>
        <time>2017-05-14T11:18:52Z</time>
      </trkpt>
      <trkpt lat="45.938558578491211" lon="9.381765481084585">
        <ele>1513.25</ele>
        <time>2017-05-14T11:19:08Z</time>
      </trkpt>
      <trkpt lat="45.938544580712914" lon="9.381784508004785">
        <ele>1512.77</ele>
        <time>2017-05-14T11:19:28Z</time>
      </trkpt>
      <trkpt lat="45.938541730865836" lon="9.381772102788091">
        <ele>1512.77</ele>
        <time>2017-05-14T11:19:49Z</time>
      </trkpt>
      <trkpt lat="45.938581544905901" lon="9.38175005838275">
        <ele>1512.77</ele>
        <time>2017-05-14T11:20:06Z</time>
      </trkpt>
      <trkpt lat="45.938644157722592" lon="9.381863046437502">
        <ele>1512.77</ele>
        <time>2017-05-14T11:20:28Z</time>
      </trkpt>
      <trkpt lat="45.938634937629104" lon="9.381844522431493">
        <ele>1512.29</ele>
        <time>2017-05-14T11:20:53Z</time>
      </trkpt>
      <trkpt lat="45.938610127195716" lon="9.381809988990426">
        <ele>1512.29</ele>
        <time>2017-05-14T11:21:09Z</time>
      </trkpt>
      <trkpt lat="45.938649857416749" lon="9.381820717826486">
        <ele>1511.8099999999999</ele>
        <time>2017-05-14T11:21:30Z</time>
      </trkpt>
      <trkpt lat="45.938617419451475" lon="9.381757266819477">
        <ele>1511.8099999999999</ele>
        <time>2017-05-14T11:21:50Z</time>
      </trkpt>
      <trkpt lat="45.938528319820762" lon="9.381645116955042">
        <ele>1511.8099999999999</ele>
        <time>2017-05-14T11:22:08Z</time>
      </trkpt>
      <trkpt lat="45.938572995364666" lon="9.381635980680585">
        <ele>1511.8099999999999</ele>
        <time>2017-05-14T11:22:23Z</time>
      </trkpt>
      <trkpt lat="45.938565619289875" lon="9.381561046466231">
        <ele>1511.8099999999999</ele>
        <time>2017-05-14T11:22:49Z</time>
      </trkpt>
      <trkpt lat="45.938559416681528" lon="9.381525088101625">
        <ele>1511.8099999999999</ele>
        <time>2017-05-14T11:23:10Z</time>
      </trkpt>
      <trkpt lat="45.938572408631444" lon="9.381620390340686">
        <ele>1511.8099999999999</ele>
        <time>2017-05-14T11:23:28Z</time>
      </trkpt>
      <trkpt lat="45.938490014523268" lon="9.381586946547031">
        <ele>1512.29</ele>
        <time>2017-05-14T11:23:47Z</time>
      </trkpt>
      <trkpt lat="45.938556985929608" lon="9.381604297086597">
        <ele>1512.29</ele>
        <time>2017-05-14T11:24:08Z</time>
      </trkpt>
      <trkpt lat="45.93852873891592" lon="9.381591388955712">
        <ele>1512.29</ele>
        <time>2017-05-14T11:24:26Z</time>
      </trkpt>
      <trkpt lat="45.938518093898892" lon="9.381535900756717">
        <ele>1512.29</ele>
        <time>2017-05-14T11:24:45Z</time>
      </trkpt>
      <trkpt lat="45.938492696732283" lon="9.38148183748126">
        <ele>1512.29</ele>
        <time>2017-05-14T11:25:03Z</time>
      </trkpt>
      <trkpt lat="45.938441399484873" lon="9.38142123632133">
        <ele>1512.29</ele>
        <time>2017-05-14T11:25:25Z</time>
      </trkpt>
      <trkpt lat="45.938447182998061" lon="9.381482591852546">
        <ele>1512.29</ele>
        <time>2017-05-14T11:25:44Z</time>
      </trkpt>
      <trkpt lat="45.938466629013419" lon="9.381521651521325">
        <ele>1512.77</ele>
        <time>2017-05-14T11:26:07Z</time>
      </trkpt>
      <trkpt lat="45.938421366736293" lon="9.381516119465232">
        <ele>1512.77</ele>
        <time>2017-05-14T11:26:28Z</time>
      </trkpt>
      <trkpt lat="45.938392532989383" lon="9.381535900756717">
        <ele>1512.77</ele>
        <time>2017-05-14T11:26:46Z</time>
      </trkpt>
      <trkpt lat="45.9384192712605" lon="9.381594154983759">
        <ele>1512.77</ele>
        <time>2017-05-14T11:26:59Z</time>
      </trkpt>
      <trkpt lat="45.938407704234123" lon="9.381551155820489">
        <ele>1512.77</ele>
        <time>2017-05-14T11:27:22Z</time>
      </trkpt>
      <trkpt lat="45.938416589051485" lon="9.381559118628502">
        <ele>1512.29</ele>
        <time>2017-05-14T11:27:41Z</time>
      </trkpt>
      <trkpt lat="45.938415918499231" lon="9.381566075608134">
        <ele>1512.77</ele>
        <time>2017-05-14T11:28:03Z</time>
      </trkpt>
      <trkpt lat="45.938420444726944" lon="9.381563812494278">
        <ele>1512.77</ele>
        <time>2017-05-14T11:28:15Z</time>
      </trkpt>
      <trkpt lat="45.938420193269849" lon="9.381609493866563">
        <ele>1512.77</ele>
        <time>2017-05-14T11:28:35Z</time>
      </trkpt>
      <trkpt lat="45.938393035903573" lon="9.38160102814436">
        <ele>1512.77</ele>
        <time>2017-05-14T11:28:53Z</time>
      </trkpt>
      <trkpt lat="45.938355401158333" lon="9.381535314023495">
        <ele>1512.77</ele>
        <time>2017-05-14T11:29:18Z</time>
      </trkpt>
      <trkpt lat="45.938460426405072" lon="9.381646541878581">
        <ele>1512.77</ele>
        <time>2017-05-14T11:29:45Z</time>
      </trkpt>
      <trkpt lat="45.93840460292995" lon="9.381649643182755">
        <ele>1512.77</ele>
        <time>2017-05-14T11:30:02Z</time>
      </trkpt>
      <trkpt lat="45.938400328159332" lon="9.381608739495277">
        <ele>1512.77</ele>
        <time>2017-05-14T11:30:23Z</time>
      </trkpt>
      <trkpt lat="45.938356406986713" lon="9.381547970697284">
        <ele>1512.77</ele>
        <time>2017-05-14T11:30:38Z</time>
      </trkpt>
      <trkpt lat="45.93838163651526" lon="9.381641177460551">
        <ele>1512.77</ele>
        <time>2017-05-14T11:31:03Z</time>
      </trkpt>
      <trkpt lat="45.938365207985044" lon="9.381561549380422">
        <ele>1512.77</ele>
        <time>2017-05-14T11:31:30Z</time>
      </trkpt>
      <trkpt lat="45.93835867010057" lon="9.381515616551042">
        <ele>1512.29</ele>
        <time>2017-05-14T11:31:56Z</time>
      </trkpt>
      <trkpt lat="45.938304020091891" lon="9.381517879664898">
        <ele>1512.29</ele>
        <time>2017-05-14T11:32:23Z</time>
      </trkpt>
      <trkpt lat="45.938325645402074" lon="9.38152089715004">
        <ele>1512.29</ele>
        <time>2017-05-14T11:32:53Z</time>
      </trkpt>
      <trkpt lat="45.938338972628117" lon="9.381486363708973">
        <ele>1512.29</ele>
        <time>2017-05-14T11:33:14Z</time>
      </trkpt>
      <trkpt lat="45.93833914026618" lon="9.381420901045203">
        <ele>1512.29</ele>
        <time>2017-05-14T11:33:41Z</time>
      </trkpt>
      <trkpt lat="45.938341822475195" lon="9.38145593740046">
        <ele>1512.29</ele>
        <time>2017-05-14T11:34:08Z</time>
      </trkpt>
      <trkpt lat="45.938325310125947" lon="9.381456943228841">
        <ele>1513.73</ele>
        <time>2017-05-14T11:34:38Z</time>
      </trkpt>
      <trkpt lat="45.938331931829453" lon="9.381460547447205">
        <ele>1513.73</ele>
        <time>2017-05-14T11:34:39Z</time>
      </trkpt>
      <trkpt lat="45.93831961043179" lon="9.381478065624833">
        <ele>1512.29</ele>
        <time>2017-05-14T11:34:50Z</time>
      </trkpt>
      <trkpt lat="45.93832841143012" lon="9.381513688713312">
        <ele>1512.29</ele>
        <time>2017-05-14T11:35:10Z</time>
      </trkpt>
      <trkpt lat="45.938346600160003" lon="9.381533302366734">
        <ele>1512.29</ele>
        <time>2017-05-14T11:35:28Z</time>
      </trkpt>
      <trkpt lat="45.938343666493893" lon="9.38146666623652">
        <ele>1512.29</ele>
        <time>2017-05-14T11:35:46Z</time>
      </trkpt>
      <trkpt lat="45.938359927386045" lon="9.38149256631732">
        <ele>1512.77</ele>
        <time>2017-05-14T11:36:17Z</time>
      </trkpt>
      <trkpt lat="45.938327573239803" lon="9.381434144452214">
        <ele>1512.77</ele>
        <time>2017-05-14T11:36:44Z</time>
      </trkpt>
      <trkpt lat="45.93835573643446" lon="9.381487788632512">
        <ele>1512.77</ele>
        <time>2017-05-14T11:37:08Z</time>
      </trkpt>
      <trkpt lat="45.938375098630786" lon="9.38154486939311">
        <ele>1512.77</ele>
        <time>2017-05-14T11:37:33Z</time>
      </trkpt>
      <trkpt lat="45.938338721171021" lon="9.38140070065856">
        <ele>1512.77</ele>
        <time>2017-05-14T11:38:00Z</time>
      </trkpt>
      <trkpt lat="45.93837677501142" lon="9.381471024826169">
        <ele>1512.77</ele>
        <time>2017-05-14T11:38:33Z</time>
      </trkpt>
      <trkpt lat="45.93840460292995" lon="9.381522238254547">
        <ele>1513.25</ele>
        <time>2017-05-14T11:38:57Z</time>
      </trkpt>
      <trkpt lat="45.938350707292557" lon="9.381474209949374">
        <ele>1513.73</ele>
        <time>2017-05-14T11:39:19Z</time>
      </trkpt>
      <trkpt lat="45.938359256833792" lon="9.381459373980761">
        <ele>1513.73</ele>
        <time>2017-05-14T11:39:35Z</time>
      </trkpt>
      <trkpt lat="45.938364621251822" lon="9.381457362323999">
        <ele>1513.25</ele>
        <time>2017-05-14T11:39:51Z</time>
      </trkpt>
      <trkpt lat="45.938353640958667" lon="9.381443532183766">
        <ele>1513.25</ele>
        <time>2017-05-14T11:40:13Z</time>
      </trkpt>
      <trkpt lat="45.938327992334962" lon="9.381417045369744">
        <ele>1513.25</ele>
        <time>2017-05-14T11:40:25Z</time>
      </trkpt>
      <trkpt lat="45.938343834131956" lon="9.381448226049542">
        <ele>1513.25</ele>
        <time>2017-05-14T11:40:49Z</time>
      </trkpt>
      <trkpt lat="45.938333524391055" lon="9.38144713640213">
        <ele>1513.25</ele>
        <time>2017-05-14T11:41:10Z</time>
      </trkpt>
      <trkpt lat="45.938346851617098" lon="9.381415117532015">
        <ele>1513.73</ele>
        <time>2017-05-14T11:41:32Z</time>
      </trkpt>
      <trkpt lat="45.938323130831122" lon="9.381445292383432">
        <ele>1513.73</ele>
        <time>2017-05-14T11:41:53Z</time>
      </trkpt>
      <trkpt lat="45.938378954306245" lon="9.381516203284264">
        <ele>1513.73</ele>
        <time>2017-05-14T11:42:10Z</time>
      </trkpt>
      <trkpt lat="45.938328914344311" lon="9.381453590467572">
        <ele>1513.73</ele>
        <time>2017-05-14T11:42:34Z</time>
      </trkpt>
      <trkpt lat="45.938327740877867" lon="9.381457613781095">
        <ele>1513.73</ele>
        <time>2017-05-14T11:42:57Z</time>
      </trkpt>
      <trkpt lat="45.938343666493893" lon="9.381432551890612">
        <ele>1513.73</ele>
        <time>2017-05-14T11:43:18Z</time>
      </trkpt>
      <trkpt lat="45.938360430300236" lon="9.381431462243199">
        <ele>1513.73</ele>
        <time>2017-05-14T11:43:35Z</time>
      </trkpt>
      <trkpt lat="45.938390102237463" lon="9.381536906585097">
        <ele>1513.73</ele>
        <time>2017-05-14T11:43:55Z</time>
      </trkpt>
      <trkpt lat="45.938382558524609" lon="9.381511090323329">
        <ele>1513.73</ele>
        <time>2017-05-14T11:44:11Z</time>
      </trkpt>
      <trkpt lat="45.938374428078532" lon="9.381494410336018">
        <ele>1514.21</ele>
        <time>2017-05-14T11:44:17Z</time>
      </trkpt>
      <trkpt lat="45.938375685364008" lon="9.381490219384432">
        <ele>1514.21</ele>
        <time>2017-05-14T11:44:29Z</time>
      </trkpt>
      <trkpt lat="45.938377361744642" lon="9.381489297375083">
        <ele>1514.6900000000001</ele>
        <time>2017-05-14T11:44:32Z</time>
      </trkpt>
      <trkpt lat="45.938380546867847" lon="9.381513269618154">
        <ele>1513.73</ele>
        <time>2017-05-14T11:44:41Z</time>
      </trkpt>
      <trkpt lat="45.938369147479534" lon="9.381505977362394">
        <ele>1513.73</ele>
        <time>2017-05-14T11:45:01Z</time>
      </trkpt>
      <trkpt lat="45.938340565189719" lon="9.381443029269576">
        <ele>1513.73</ele>
        <time>2017-05-14T11:45:22Z</time>
      </trkpt>
      <trkpt lat="45.938361352309585" lon="9.381429199129343">
        <ele>1513.73</ele>
        <time>2017-05-14T11:45:44Z</time>
      </trkpt>
      <trkpt lat="45.93840267509222" lon="9.381433976814151">
        <ele>1513.25</ele>
        <time>2017-05-14T11:46:06Z</time>
      </trkpt>
      <trkpt lat="45.938363950699568" lon="9.381427690386772">
        <ele>1513.25</ele>
        <time>2017-05-14T11:46:29Z</time>
      </trkpt>
      <trkpt lat="45.938338553532958" lon="9.38148477114737">
        <ele>1513.73</ele>
        <time>2017-05-14T11:46:54Z</time>
      </trkpt>
      <trkpt lat="45.938290860503912" lon="9.381427690386772">
        <ele>1514.21</ele>
        <time>2017-05-14T11:47:19Z</time>
      </trkpt>
      <trkpt lat="45.938328662887216" lon="9.381413776427507">
        <ele>1513.73</ele>
        <time>2017-05-14T11:47:33Z</time>
      </trkpt>
      <trkpt lat="45.938314832746983" lon="9.381405897438526">
        <ele>1514.6900000000001</ele>
        <time>2017-05-14T11:47:40Z</time>
      </trkpt>
      <trkpt lat="45.938340229913592" lon="9.381402879953384">
        <ele>1515.1800000000001</ele>
        <time>2017-05-14T11:47:50Z</time>
      </trkpt>
      <trkpt lat="45.938294716179371" lon="9.381414530798793">
        <ele>1515.1800000000001</ele>
        <time>2017-05-14T11:48:07Z</time>
      </trkpt>
      <trkpt lat="45.938348276540637" lon="9.38143246807158">
        <ele>1515.1800000000001</ele>
        <time>2017-05-14T11:48:20Z</time>
      </trkpt>
      <trkpt lat="45.93835967592895" lon="9.381420565769076">
        <ele>1515.1800000000001</ele>
        <time>2017-05-14T11:48:36Z</time>
      </trkpt>
      <trkpt lat="45.938365124166012" lon="9.381454763934016">
        <ele>1515.1800000000001</ele>
        <time>2017-05-14T11:48:51Z</time>
      </trkpt>
      <trkpt lat="45.93836847692728" lon="9.381461469456554">
        <ele>1515.1800000000001</ele>
        <time>2017-05-14T11:49:08Z</time>
      </trkpt>
      <trkpt lat="45.938369398936629" lon="9.381431881338358">
        <ele>1515.1800000000001</ele>
        <time>2017-05-14T11:49:22Z</time>
      </trkpt>
      <trkpt lat="45.93838264234364" lon="9.38142173923552">
        <ele>1515.1800000000001</ele>
        <time>2017-05-14T11:49:35Z</time>
      </trkpt>
      <trkpt lat="45.93839144334197" lon="9.381443783640862">
        <ele>1515.1800000000001</ele>
        <time>2017-05-14T11:49:49Z</time>
      </trkpt>
      <trkpt lat="45.938379960134625" lon="9.381424756720662">
        <ele>1515.1800000000001</ele>
        <time>2017-05-14T11:50:03Z</time>
      </trkpt>
      <trkpt lat="45.938397562131286" lon="9.381410591304302">
        <ele>1515.1800000000001</ele>
        <time>2017-05-14T11:50:21Z</time>
      </trkpt>
      <trkpt lat="45.938379960134625" lon="9.381445543840528">
        <ele>1515.1800000000001</ele>
        <time>2017-05-14T11:50:38Z</time>
      </trkpt>
      <trkpt lat="45.938377529382706" lon="9.381442610174418">
        <ele>1515.1800000000001</ele>
        <time>2017-05-14T11:50:49Z</time>
      </trkpt>
      <trkpt lat="45.938363783061504" lon="9.381449483335018">
        <ele>1515.1800000000001</ele>
        <time>2017-05-14T11:51:07Z</time>
      </trkpt>
      <trkpt lat="45.938342912122607" lon="9.381429366767407">
        <ele>1515.1800000000001</ele>
        <time>2017-05-14T11:51:18Z</time>
      </trkpt>
      <trkpt lat="45.938343415036798" lon="9.381428360939026">
        <ele>1515.1800000000001</ele>
        <time>2017-05-14T11:51:39Z</time>
      </trkpt>
      <trkpt lat="45.938371326774359" lon="9.381441185250878">
        <ele>1515.1800000000001</ele>
        <time>2017-05-14T11:51:48Z</time>
      </trkpt>
      <trkpt lat="45.938390186056495" lon="9.381406484171748">
        <ele>1515.1800000000001</ele>
        <time>2017-05-14T11:51:59Z</time>
      </trkpt>
      <trkpt lat="45.938400831073523" lon="9.381404053419828">
        <ele>1515.1800000000001</ele>
        <time>2017-05-14T11:52:17Z</time>
      </trkpt>
      <trkpt lat="45.938428994268179" lon="9.38141880556941">
        <ele>1515.1800000000001</ele>
        <time>2017-05-14T11:52:33Z</time>
      </trkpt>
      <trkpt lat="45.938425809144974" lon="9.381430204957724">
        <ele>1515.1800000000001</ele>
        <time>2017-05-14T11:52:54Z</time>
      </trkpt>
      <trkpt lat="45.938409464433789" lon="9.381395420059562">
        <ele>1515.1800000000001</ele>
        <time>2017-05-14T11:53:19Z</time>
      </trkpt>
      <trkpt lat="45.93843586742878" lon="9.381430540233851">
        <ele>1515.6600000000001</ele>
        <time>2017-05-14T11:53:35Z</time>
      </trkpt>
      <trkpt lat="45.938441734761" lon="9.381430707871914">
        <ele>1515.1800000000001</ele>
        <time>2017-05-14T11:53:43Z</time>
      </trkpt>
      <trkpt lat="45.93847693875432" lon="9.381341692060232">
        <ele>1514.21</ele>
        <time>2017-05-14T11:53:54Z</time>
      </trkpt>
      <trkpt lat="45.938456486910582" lon="9.381331549957395">
        <ele>1511.3299999999999</ele>
        <time>2017-05-14T11:54:03Z</time>
      </trkpt>
      <trkpt lat="45.938480794429779" lon="9.381261058151722">
        <ele>1509.8900000000001</ele>
        <time>2017-05-14T11:54:11Z</time>
      </trkpt>
      <trkpt lat="45.93848230317235" lon="9.381231302395463">
        <ele>1508.45</ele>
        <time>2017-05-14T11:54:20Z</time>
      </trkpt>
      <trkpt lat="45.938498396426439" lon="9.381230967119336">
        <ele>1507.97</ele>
        <time>2017-05-14T11:54:30Z</time>
      </trkpt>
      <trkpt lat="45.938484901562333" lon="9.381269691511989">
        <ele>1508.45</ele>
        <time>2017-05-14T11:54:41Z</time>
      </trkpt>
      <trkpt lat="45.938467886298895" lon="9.381255023181438">
        <ele>1507.97</ele>
        <time>2017-05-14T11:54:59Z</time>
      </trkpt>
      <trkpt lat="45.938520189374685" lon="9.381252005696297">
        <ele>1507.48</ele>
        <time>2017-05-14T11:55:09Z</time>
      </trkpt>
      <trkpt lat="45.938586154952645" lon="9.381239432841539">
        <ele>1504.5999999999999</ele>
        <time>2017-05-14T11:55:20Z</time>
      </trkpt>
      <trkpt lat="45.938642900437117" lon="9.381267176941037">
        <ele>1501.24</ele>
        <time>2017-05-14T11:55:31Z</time>
      </trkpt>
      <trkpt lat="45.938696628436446" lon="9.38130933791399">
        <ele>1499.3099999999999</ele>
        <time>2017-05-14T11:55:38Z</time>
      </trkpt>
      <trkpt lat="45.938708698377013" lon="9.381348397582769">
        <ele>1498.8299999999999</ele>
        <time>2017-05-14T11:55:41Z</time>
      </trkpt>
      <trkpt lat="45.938714314252138" lon="9.381375135853887">
        <ele>1499.3099999999999</ele>
        <time>2017-05-14T11:55:44Z</time>
      </trkpt>
      <trkpt lat="45.938753122463822" lon="9.381388211622834">
        <ele>1500.27</ele>
        <time>2017-05-14T11:55:52Z</time>
      </trkpt>
      <trkpt lat="45.938770221546292" lon="9.38126826658845">
        <ele>1499.79</ele>
        <time>2017-05-14T11:56:02Z</time>
      </trkpt>
      <trkpt lat="45.938821770250797" lon="9.381128121167421">
        <ele>1498.3499999999999</ele>
        <time>2017-05-14T11:56:14Z</time>
      </trkpt>
      <trkpt lat="45.938850603997707" lon="9.381070034578443">
        <ele>1496.4300000000001</ele>
        <time>2017-05-14T11:56:23Z</time>
      </trkpt>
      <trkpt lat="45.938854794949293" lon="9.381061485037208">
        <ele>1496.4300000000001</ele>
        <time>2017-05-14T11:56:24Z</time>
      </trkpt>
      <trkpt lat="45.938905337825418" lon="9.380941120907664">
        <ele>1493.55</ele>
        <time>2017-05-14T11:56:35Z</time>
      </trkpt>
      <trkpt lat="45.938905589282513" lon="9.380930811166763">
        <ele>1493.55</ele>
        <time>2017-05-14T11:56:36Z</time>
      </trkpt>
      <trkpt lat="45.938937356695533" lon="9.38077331520617">
        <ele>1492.0999999999999</ele>
        <time>2017-05-14T11:56:48Z</time>
      </trkpt>
      <trkpt lat="45.938943475484848" lon="9.380726963281632">
        <ele>1491.1400000000001</ele>
        <time>2017-05-14T11:56:52Z</time>
      </trkpt>
      <trkpt lat="45.938898297026753" lon="9.380570137873292">
        <ele>1490.6600000000001</ele>
        <time>2017-05-14T11:57:04Z</time>
      </trkpt>
      <trkpt lat="45.93888932839036" lon="9.380422616377473">
        <ele>1490.1800000000001</ele>
        <time>2017-05-14T11:57:15Z</time>
      </trkpt>
      <trkpt lat="45.938888238742948" lon="9.380398141220212">
        <ele>1490.1800000000001</ele>
        <time>2017-05-14T11:57:20Z</time>
      </trkpt>
      <trkpt lat="45.938891172409058" lon="9.380343575030565">
        <ele>1489.7</ele>
        <time>2017-05-14T11:57:24Z</time>
      </trkpt>
      <trkpt lat="45.938889412209392" lon="9.380318261682987">
        <ele>1488.74</ele>
        <time>2017-05-14T11:57:26Z</time>
      </trkpt>
      <trkpt lat="45.938896033912897" lon="9.380291774868965">
        <ele>1487.78</ele>
        <time>2017-05-14T11:57:28Z</time>
      </trkpt>
      <trkpt lat="45.938949175179005" lon="9.380226144567132">
        <ele>1485.3699999999999</ele>
        <time>2017-05-14T11:57:38Z</time>
      </trkpt>
      <trkpt lat="45.938952695578337" lon="9.380171075463295">
        <ele>1483.45</ele>
        <time>2017-05-14T11:57:43Z</time>
      </trkpt>
      <trkpt lat="45.938957137987018" lon="9.380059596151114">
        <ele>1482.01</ele>
        <time>2017-05-14T11:57:50Z</time>
      </trkpt>
      <trkpt lat="45.938991419970989" lon="9.379922971129417">
        <ele>1481.05</ele>
        <time>2017-05-14T11:57:58Z</time>
      </trkpt>
      <trkpt lat="45.938992509618402" lon="9.379822723567486">
        <ele>1481.05</ele>
        <time>2017-05-14T11:58:05Z</time>
      </trkpt>
      <trkpt lat="45.938999634236097" lon="9.37963823787868">
        <ele>1478.6500000000001</ele>
        <time>2017-05-14T11:58:17Z</time>
      </trkpt>
      <trkpt lat="45.939005753025413" lon="9.379605213180184">
        <ele>1478.1600000000001</ele>
        <time>2017-05-14T11:58:19Z</time>
      </trkpt>
      <trkpt lat="45.939022684469819" lon="9.37949649989605">
        <ele>1476.72</ele>
        <time>2017-05-14T11:58:26Z</time>
      </trkpt>
      <trkpt lat="45.9390564635396" lon="9.379424331709743">
        <ele>1475.76</ele>
        <time>2017-05-14T11:58:33Z</time>
      </trkpt>
      <trkpt lat="45.939088063314557" lon="9.37937630340457">
        <ele>1474.3199999999999</ele>
        <time>2017-05-14T11:58:41Z</time>
      </trkpt>
      <trkpt lat="45.939148413017392" lon="9.379392396658659">
        <ele>1472.8800000000001</ele>
        <time>2017-05-14T11:58:52Z</time>
      </trkpt>
      <trkpt lat="45.939222509041429" lon="9.379424918442965">
        <ele>1469.99</ele>
        <time>2017-05-14T11:59:03Z</time>
      </trkpt>
      <trkpt lat="45.939225861802697" lon="9.379401113837957">
        <ele>1466.6300000000001</ele>
        <time>2017-05-14T11:59:15Z</time>
      </trkpt>
      <trkpt lat="45.939240111038089" lon="9.379326682537794">
        <ele>1465.1900000000001</ele>
        <time>2017-05-14T11:59:22Z</time>
      </trkpt>
      <trkpt lat="45.939249750226736" lon="9.379284773021936">
        <ele>1464.71</ele>
        <time>2017-05-14T11:59:27Z</time>
      </trkpt>
      <trkpt lat="45.939221922308207" lon="9.379267506301403">
        <ele>1462.78</ele>
        <time>2017-05-14T11:59:31Z</time>
      </trkpt>
      <trkpt lat="45.939243379980326" lon="9.379188464954495">
        <ele>1460.8599999999999</ele>
        <time>2017-05-14T11:59:39Z</time>
      </trkpt>
      <trkpt lat="45.939242709428072" lon="9.379109172150493">
        <ele>1458.9400000000001</ele>
        <time>2017-05-14T11:59:48Z</time>
      </trkpt>
      <trkpt lat="45.939238015562296" lon="9.379082517698407">
        <ele>1457.98</ele>
        <time>2017-05-14T11:59:51Z</time>
      </trkpt>
      <trkpt lat="45.939238769933581" lon="9.378987969830632">
        <ele>1456.53</ele>
        <time>2017-05-14T12:00:01Z</time>
      </trkpt>
      <trkpt lat="45.939242960885167" lon="9.378978414461017">
        <ele>1456.53</ele>
        <time>2017-05-14T12:00:02Z</time>
      </trkpt>
      <trkpt lat="45.939263748005033" lon="9.378935163840652">
        <ele>1455.0899999999999</ele>
        <time>2017-05-14T12:00:06Z</time>
      </trkpt>
      <trkpt lat="45.939307417720556" lon="9.378898870199919">
        <ele>1454.1300000000001</ele>
        <time>2017-05-14T12:00:10Z</time>
      </trkpt>
      <trkpt lat="45.939386123791337" lon="9.378866767510772">
        <ele>1453.6500000000001</ele>
        <time>2017-05-14T12:00:17Z</time>
      </trkpt>
      <trkpt lat="45.939475474879146" lon="9.378805831074715">
        <ele>1452.21</ele>
        <time>2017-05-14T12:00:27Z</time>
      </trkpt>
      <trkpt lat="45.939501291140914" lon="9.378783199936152">
        <ele>1452.21</ele>
        <time>2017-05-14T12:00:33Z</time>
      </trkpt>
      <trkpt lat="45.93958418816328" lon="9.378710696473718">
        <ele>1451.25</ele>
        <time>2017-05-14T12:00:44Z</time>
      </trkpt>
      <trkpt lat="45.939619895070791" lon="9.37871421687305">
        <ele>1450.77</ele>
        <time>2017-05-14T12:00:49Z</time>
      </trkpt>
      <trkpt lat="45.939634731039405" lon="9.378817733377218">
        <ele>1449.3199999999999</ele>
        <time>2017-05-14T12:00:58Z</time>
      </trkpt>
      <trkpt lat="45.939604556187987" lon="9.378910688683391">
        <ele>1448.3599999999999</ele>
        <time>2017-05-14T12:01:10Z</time>
      </trkpt>
      <trkpt lat="45.939588295295835" lon="9.379002554342151">
        <ele>1445.96</ele>
        <time>2017-05-14T12:01:22Z</time>
      </trkpt>
      <trkpt lat="45.939615285024047" lon="9.379011271521449">
        <ele>1444.52</ele>
        <time>2017-05-14T12:01:28Z</time>
      </trkpt>
      <trkpt lat="45.939681921154261" lon="9.379040105268359">
        <ele>1441.6300000000001</ele>
        <time>2017-05-14T12:01:39Z</time>
      </trkpt>
      <trkpt lat="45.939694494009018" lon="9.378981934860349">
        <ele>1438.75</ele>
        <time>2017-05-14T12:01:51Z</time>
      </trkpt>
      <trkpt lat="45.939743863418698" lon="9.379004817456007">
        <ele>1436.3499999999999</ele>
        <time>2017-05-14T12:02:01Z</time>
      </trkpt>
      <trkpt lat="45.939766997471452" lon="9.378961566835642">
        <ele>1433.9400000000001</ele>
        <time>2017-05-14T12:02:11Z</time>
      </trkpt>
      <trkpt lat="45.939808404073119" lon="9.378981180489063">
        <ele>1431.54</ele>
        <time>2017-05-14T12:02:21Z</time>
      </trkpt>
      <trkpt lat="45.939846122637391" lon="9.378961902111769">
        <ele>1429.6199999999999</ele>
        <time>2017-05-14T12:02:29Z</time>
      </trkpt>
      <trkpt lat="45.939890798181295" lon="9.378916891291738">
        <ele>1427.7</ele>
        <time>2017-05-14T12:02:37Z</time>
      </trkpt>
      <trkpt lat="45.939941676333547" lon="9.378902474418283">
        <ele>1425.29</ele>
        <time>2017-05-14T12:02:47Z</time>
      </trkpt>
      <trkpt lat="45.939948800951242" lon="9.378882441669703">
        <ele>1424.8099999999999</ele>
        <time>2017-05-14T12:02:51Z</time>
      </trkpt>
      <trkpt lat="45.939992973580956" lon="9.378851512447">
        <ele>1421.9300000000001</ele>
        <time>2017-05-14T12:03:02Z</time>
      </trkpt>
      <trkpt lat="45.940032033249736" lon="9.378836676478386">
        <ele>1420</ele>
        <time>2017-05-14T12:03:11Z</time>
      </trkpt>
      <trkpt lat="45.940078133717179" lon="9.378794096410275">
        <ele>1417.5999999999999</ele>
        <time>2017-05-14T12:03:20Z</time>
      </trkpt>
      <trkpt lat="45.940149966627359" lon="9.378834748640657">
        <ele>1416.1600000000001</ele>
        <time>2017-05-14T12:03:27Z</time>
      </trkpt>
      <trkpt lat="45.940211405977607" lon="9.378832653164864">
        <ele>1415.6800000000001</ele>
        <time>2017-05-14T12:03:34Z</time>
      </trkpt>
      <trkpt lat="45.940189780667424" lon="9.378768615424633">
        <ele>1415.6800000000001</ele>
        <time>2017-05-14T12:03:43Z</time>
      </trkpt>
      <trkpt lat="45.940187685191631" lon="9.378755791112781">
        <ele>1415.2</ele>
        <time>2017-05-14T12:03:44Z</time>
      </trkpt>
      <trkpt lat="45.94018860720098" lon="9.378718910738826">
        <ele>1414.72</ele>
        <time>2017-05-14T12:03:47Z</time>
      </trkpt>
      <trkpt lat="45.940178716555238" lon="9.378688065335155">
        <ele>1414.72</ele>
        <time>2017-05-14T12:03:50Z</time>
      </trkpt>
      <trkpt lat="45.940176453441381" lon="9.378661327064037">
        <ele>1414.72</ele>
        <time>2017-05-14T12:03:52Z</time>
      </trkpt>
      <trkpt lat="45.94018517062068" lon="9.378614472225308">
        <ele>1414.72</ele>
        <time>2017-05-14T12:03:55Z</time>
      </trkpt>
      <trkpt lat="45.940208220854402" lon="9.378538867458701">
        <ele>1414.24</ele>
        <time>2017-05-14T12:04:02Z</time>
      </trkpt>
      <trkpt lat="45.940198162570596" lon="9.378515649586916">
        <ele>1413.76</ele>
        <time>2017-05-14T12:04:04Z</time>
      </trkpt>
      <trkpt lat="45.940230684354901" lon="9.378408696502447">
        <ele>1412.79</ele>
        <time>2017-05-14T12:04:12Z</time>
      </trkpt>
      <trkpt lat="45.940226744860411" lon="9.378360165283084">
        <ele>1411.8299999999999</ele>
        <time>2017-05-14T12:04:15Z</time>
      </trkpt>
      <trkpt lat="45.940321041271091" lon="9.378238711506128">
        <ele>1412.3099999999999</ele>
        <time>2017-05-14T12:04:27Z</time>
      </trkpt>
      <trkpt lat="45.94031760469079" lon="9.37821582891047">
        <ele>1411.3499999999999</ele>
        <time>2017-05-14T12:04:36Z</time>
      </trkpt>
      <trkpt lat="45.940314084291458" lon="9.378197472542524">
        <ele>1411.3499999999999</ele>
        <time>2017-05-14T12:05:09Z</time>
      </trkpt>
      <trkpt lat="45.94030587002635" lon="9.378199651837349">
        <ele>1410.8699999999999</ele>
        <time>2017-05-14T12:05:39Z</time>
      </trkpt>
      <trkpt lat="45.940300757065415" lon="9.378197137266398">
        <ele>1411.8299999999999</ele>
        <time>2017-05-14T12:05:53Z</time>
      </trkpt>
      <trkpt lat="45.940318526700139" lon="9.37812052667141">
        <ele>1411.8299999999999</ele>
        <time>2017-05-14T12:06:01Z</time>
      </trkpt>
      <trkpt lat="45.940332105383277" lon="9.378073755651712">
        <ele>1411.3499999999999</ele>
        <time>2017-05-14T12:06:05Z</time>
      </trkpt>
      <trkpt lat="45.940367225557566" lon="9.378005443140864">
        <ele>1410.3900000000001</ele>
        <time>2017-05-14T12:06:15Z</time>
      </trkpt>
      <trkpt lat="45.940368566662073" lon="9.377972669899464">
        <ele>1410.3900000000001</ele>
        <time>2017-05-14T12:06:18Z</time>
      </trkpt>
      <trkpt lat="45.940379882231355" lon="9.377924473956227">
        <ele>1410.3900000000001</ele>
        <time>2017-05-14T12:06:21Z</time>
      </trkpt>
      <trkpt lat="45.940376529470086" lon="9.37783177010715">
        <ele>1408.95</ele>
        <time>2017-05-14T12:06:32Z</time>
      </trkpt>
      <trkpt lat="45.940396646037698" lon="9.37777167186141">
        <ele>1406.55</ele>
        <time>2017-05-14T12:06:41Z</time>
      </trkpt>
      <trkpt lat="45.940388767048717" lon="9.377707215026021">
        <ele>1404.6199999999999</ele>
        <time>2017-05-14T12:06:51Z</time>
      </trkpt>
      <trkpt lat="45.940404860302806" lon="9.377572266384959">
        <ele>1403.6600000000001</ele>
        <time>2017-05-14T12:07:02Z</time>
      </trkpt>
      <trkpt lat="45.940397148951888" lon="9.377551982179284">
        <ele>1403.6600000000001</ele>
        <time>2017-05-14T12:07:05Z</time>
      </trkpt>
      <trkpt lat="45.940401926636696" lon="9.377463720738888">
        <ele>1402.22</ele>
        <time>2017-05-14T12:07:14Z</time>
      </trkpt>
      <trkpt lat="45.940429167822003" lon="9.377395827323198">
        <ele>1400.3</ele>
        <time>2017-05-14T12:07:24Z</time>
      </trkpt>
      <trkpt lat="45.940422713756561" lon="9.377350565046072">
        <ele>1399.3399999999999</ele>
        <time>2017-05-14T12:07:28Z</time>
      </trkpt>
      <trkpt lat="45.940440148115158" lon="9.377296334132552">
        <ele>1398.8599999999999</ele>
        <time>2017-05-14T12:07:33Z</time>
      </trkpt>
      <trkpt lat="45.940455989912152" lon="9.377224249765277">
        <ele>1396.9300000000001</ele>
        <time>2017-05-14T12:07:41Z</time>
      </trkpt>
      <trkpt lat="45.940484069287777" lon="9.377104472368956">
        <ele>1395.49</ele>
        <time>2017-05-14T12:07:51Z</time>
      </trkpt>
      <trkpt lat="45.940494546666741" lon="9.377062479034066">
        <ele>1395.01</ele>
        <time>2017-05-14T12:07:56Z</time>
      </trkpt>
      <trkpt lat="45.940508125349879" lon="9.377006404101849">
        <ele>1394.05</ele>
        <time>2017-05-14T12:08:00Z</time>
      </trkpt>
      <trkpt lat="45.940528074279428" lon="9.37690288759768">
        <ele>1392.1300000000001</ele>
        <time>2017-05-14T12:08:09Z</time>
      </trkpt>
      <trkpt lat="45.940518602728844" lon="9.376809848472476">
        <ele>1389.72</ele>
        <time>2017-05-14T12:08:19Z</time>
      </trkpt>
      <trkpt lat="45.940530588850379" lon="9.376648999750614">
        <ele>1388.28</ele>
        <time>2017-05-14T12:08:31Z</time>
      </trkpt>
      <trkpt lat="45.94053796492517" lon="9.376561995595694">
        <ele>1385.8800000000001</ele>
        <time>2017-05-14T12:08:41Z</time>
      </trkpt>
      <trkpt lat="45.940580209717155" lon="9.3764235265553">
        <ele>1384.4400000000001</ele>
        <time>2017-05-14T12:08:49Z</time>
      </trkpt>
      <trkpt lat="45.940599907189608" lon="9.376392010599375">
        <ele>1383.96</ele>
        <time>2017-05-14T12:08:52Z</time>
      </trkpt>
      <trkpt lat="45.940689845010638" lon="9.376288745552301">
        <ele>1382.03</ele>
        <time>2017-05-14T12:09:03Z</time>
      </trkpt>
      <trkpt lat="45.940679032355547" lon="9.376264689490199">
        <ele>1382.03</ele>
        <time>2017-05-14T12:09:09Z</time>
      </trkpt>
      <trkpt lat="45.9406762663275" lon="9.376232670620084">
        <ele>1381.0699999999999</ele>
        <time>2017-05-14T12:09:11Z</time>
      </trkpt>
      <trkpt lat="45.940707447007298" lon="9.376124460250139">
        <ele>1380.5899999999999</ele>
        <time>2017-05-14T12:09:20Z</time>
      </trkpt>
      <trkpt lat="45.940727647393942" lon="9.375993954017758">
        <ele>1378.6700000000001</ele>
        <time>2017-05-14T12:09:30Z</time>
      </trkpt>
      <trkpt lat="45.940739884972572" lon="9.375901920720935">
        <ele>1378.1900000000001</ele>
        <time>2017-05-14T12:09:35Z</time>
      </trkpt>
      <trkpt lat="45.940776262432337" lon="9.375766217708588">
        <ele>1378.6700000000001</ele>
        <time>2017-05-14T12:09:45Z</time>
      </trkpt>
      <trkpt lat="45.940780537202954" lon="9.37575071118772">
        <ele>1378.6700000000001</ele>
        <time>2017-05-14T12:09:46Z</time>
      </trkpt>
      <trkpt lat="45.94078816473484" lon="9.375667227432132">
        <ele>1378.6700000000001</ele>
        <time>2017-05-14T12:09:51Z</time>
      </trkpt>
      <trkpt lat="45.940798558294773" lon="9.375554239377379">
        <ele>1380.1099999999999</ele>
        <time>2017-05-14T12:10:01Z</time>
      </trkpt>
      <trkpt lat="45.940826553851366" lon="9.375480646267533">
        <ele>1381.55</ele>
        <time>2017-05-14T12:10:09Z</time>
      </trkpt>
      <trkpt lat="45.940840635448694" lon="9.375457931309938">
        <ele>1381.0699999999999</ele>
        <time>2017-05-14T12:10:12Z</time>
      </trkpt>
      <trkpt lat="45.940898470580578" lon="9.375418033450842">
        <ele>1379.1500000000001</ele>
        <time>2017-05-14T12:10:18Z</time>
      </trkpt>
      <trkpt lat="45.9409249573946" lon="9.375404203310609">
        <ele>1378.6700000000001</ele>
        <time>2017-05-14T12:10:20Z</time>
      </trkpt>
      <trkpt lat="45.940953372046351" lon="9.375383500009775">
        <ele>1378.6700000000001</ele>
        <time>2017-05-14T12:10:23Z</time>
      </trkpt>
      <trkpt lat="45.941045824438334" lon="9.375325916334987">
        <ele>1376.75</ele>
        <time>2017-05-14T12:10:35Z</time>
      </trkpt>
      <trkpt lat="45.941073903813958" lon="9.375260202214122">
        <ele>1374.3399999999999</ele>
        <time>2017-05-14T12:10:43Z</time>
      </trkpt>
      <trkpt lat="45.941082034260035" lon="9.375237906351686">
        <ele>1374.3399999999999</ele>
        <time>2017-05-14T12:10:45Z</time>
      </trkpt>
      <trkpt lat="45.941076166927814" lon="9.375144280493259">
        <ele>1372.4200000000001</ele>
        <time>2017-05-14T12:10:55Z</time>
      </trkpt>
      <trkpt lat="45.941067785024643" lon="9.375038500875235">
        <ele>1370.5</ele>
        <time>2017-05-14T12:11:06Z</time>
      </trkpt>
      <trkpt lat="45.941043728962541" lon="9.374931715428829">
        <ele>1369.54</ele>
        <time>2017-05-14T12:11:15Z</time>
      </trkpt>
      <trkpt lat="45.940996622666717" lon="9.374746978282929">
        <ele>1367.6099999999999</ele>
        <time>2017-05-14T12:11:27Z</time>
      </trkpt>
      <trkpt lat="45.940978266298771" lon="9.374660225585103">
        <ele>1367.1300000000001</ele>
        <time>2017-05-14T12:11:33Z</time>
      </trkpt>
      <trkpt lat="45.940955886617303" lon="9.374484540894628">
        <ele>1363.77</ele>
        <time>2017-05-14T12:11:44Z</time>
      </trkpt>
      <trkpt lat="45.94096158631146" lon="9.374447492882609">
        <ele>1363.29</ele>
        <time>2017-05-14T12:11:47Z</time>
      </trkpt>
      <trkpt lat="45.940963178873062" lon="9.374370966106653">
        <ele>1362.3299999999999</ele>
        <time>2017-05-14T12:11:52Z</time>
      </trkpt>
      <trkpt lat="45.940985642373562" lon="9.374203495681286">
        <ele>1360.4000000000001</ele>
        <time>2017-05-14T12:12:02Z</time>
      </trkpt>
      <trkpt lat="45.94101196154952" lon="9.374097045511007">
        <ele>1359.4400000000001</ele>
        <time>2017-05-14T12:12:08Z</time>
      </trkpt>
      <trkpt lat="45.941040040925145" lon="9.373960001394153">
        <ele>1358</ele>
        <time>2017-05-14T12:12:19Z</time>
      </trkpt>
      <trkpt lat="45.941086644306779" lon="9.373790267854929">
        <ele>1357.04</ele>
        <time>2017-05-14T12:12:30Z</time>
      </trkpt>
      <trkpt lat="45.941134756430984" lon="9.373799571767449">
        <ele>1357.52</ele>
        <time>2017-05-14T12:12:36Z</time>
      </trkpt>
      <trkpt lat="45.941228214651346" lon="9.37387878075242">
        <ele>1357.04</ele>
        <time>2017-05-14T12:12:47Z</time>
      </trkpt>
      <trkpt lat="45.941297030076385" lon="9.373866375535727">
        <ele>1356.5599999999999</ele>
        <time>2017-05-14T12:12:55Z</time>
      </trkpt>
      <trkpt lat="45.941352350637317" lon="9.373864280059934">
        <ele>1357.52</ele>
        <time>2017-05-14T12:13:04Z</time>
      </trkpt>
      <trkpt lat="45.941379508003592" lon="9.373840978369117">
        <ele>1357.52</ele>
        <time>2017-05-14T12:13:07Z</time>
      </trkpt>
      <trkpt lat="45.94142041169107" lon="9.373821699991822">
        <ele>1356.5599999999999</ele>
        <time>2017-05-14T12:13:10Z</time>
      </trkpt>
      <trkpt lat="45.941500123590231" lon="9.373809043318033">
        <ele>1356.5599999999999</ele>
        <time>2017-05-14T12:13:20Z</time>
      </trkpt>
      <trkpt lat="45.941560640931129" lon="9.373775850981474">
        <ele>1355.5999999999999</ele>
        <time>2017-05-14T12:13:29Z</time>
      </trkpt>
      <trkpt lat="45.941570363938808" lon="9.373766295611858">
        <ele>1355.5999999999999</ele>
        <time>2017-05-14T12:13:31Z</time>
      </trkpt>
      <trkpt lat="45.941576147451997" lon="9.373648026958108">
        <ele>1353.6700000000001</ele>
        <time>2017-05-14T12:13:43Z</time>
      </trkpt>
      <trkpt lat="45.941551588475704" lon="9.373546438291669">
        <ele>1351.75</ele>
        <time>2017-05-14T12:13:54Z</time>
      </trkpt>
      <trkpt lat="45.941523676738143" lon="9.373508468270302">
        <ele>1350.79</ele>
        <time>2017-05-14T12:13:59Z</time>
      </trkpt>
      <trkpt lat="45.941490735858679" lon="9.373355833813548">
        <ele>1349.3499999999999</ele>
        <time>2017-05-14T12:14:11Z</time>
      </trkpt>
      <trkpt lat="45.941486125811934" lon="9.373263884335756">
        <ele>1349.3499999999999</ele>
        <time>2017-05-14T12:14:18Z</time>
      </trkpt>
      <trkpt lat="45.941521748900414" lon="9.373096749186516">
        <ele>1347.4300000000001</ele>
        <time>2017-05-14T12:14:30Z</time>
      </trkpt>
      <trkpt lat="45.941550666466355" lon="9.373033884912729">
        <ele>1346.46</ele>
        <time>2017-05-14T12:14:35Z</time>
      </trkpt>
      <trkpt lat="45.94158654101193" lon="9.372918717563152">
        <ele>1345.5</ele>
        <time>2017-05-14T12:14:43Z</time>
      </trkpt>
      <trkpt lat="45.941593749448657" lon="9.372705314308405">
        <ele>1344.54</ele>
        <time>2017-05-14T12:14:56Z</time>
      </trkpt>
      <trkpt lat="45.941564748063684" lon="9.372556619346142">
        <ele>1344.54</ele>
        <time>2017-05-14T12:15:05Z</time>
      </trkpt>
      <trkpt lat="45.941485455259681" lon="9.372419072315097">
        <ele>1343.0999999999999</ele>
        <time>2017-05-14T12:15:16Z</time>
      </trkpt>
      <trkpt lat="45.941389901563525" lon="9.372250428423286">
        <ele>1342.1400000000001</ele>
        <time>2017-05-14T12:15:29Z</time>
      </trkpt>
      <trkpt lat="45.941356793045998" lon="9.372115479782224">
        <ele>1341.6600000000001</ele>
        <time>2017-05-14T12:15:40Z</time>
      </trkpt>
      <trkpt lat="45.941346986219287" lon="9.372016657143831">
        <ele>1341.6600000000001</ele>
        <time>2017-05-14T12:15:50Z</time>
      </trkpt>
      <trkpt lat="45.941351260989904" lon="9.37198044732213">
        <ele>1342.1400000000001</ele>
        <time>2017-05-14T12:15:53Z</time>
      </trkpt>
      <trkpt lat="45.941341957077384" lon="9.371897634118795">
        <ele>1342.6199999999999</ele>
        <time>2017-05-14T12:16:03Z</time>
      </trkpt>
      <trkpt lat="45.941357798874378" lon="9.371888665482402">
        <ele>1342.6199999999999</ele>
        <time>2017-05-14T12:16:12Z</time>
      </trkpt>
      <trkpt lat="45.941346818581223" lon="9.371865447610617">
        <ele>1342.6199999999999</ele>
        <time>2017-05-14T12:16:24Z</time>
      </trkpt>
      <trkpt lat="45.941346064209938" lon="9.371863771229982">
        <ele>1342.6199999999999</ele>
        <time>2017-05-14T12:16:39Z</time>
      </trkpt>
      <trkpt lat="45.941341118887067" lon="9.371882630512118">
        <ele>1342.6199999999999</ele>
        <time>2017-05-14T12:16:50Z</time>
      </trkpt>
      <trkpt lat="45.941347237676382" lon="9.371855808421969">
        <ele>1342.6199999999999</ele>
        <time>2017-05-14T12:17:03Z</time>
      </trkpt>
      <trkpt lat="45.941346315667033" lon="9.371872656047344">
        <ele>1342.6199999999999</ele>
        <time>2017-05-14T12:17:14Z</time>
      </trkpt>
      <trkpt lat="45.941328210756183" lon="9.37187391333282">
        <ele>1342.6199999999999</ele>
        <time>2017-05-14T12:17:27Z</time>
      </trkpt>
      <trkpt lat="45.941333826631308" lon="9.371851785108447">
        <ele>1342.6199999999999</ele>
        <time>2017-05-14T12:17:42Z</time>
      </trkpt>
      <trkpt lat="45.94133198261261" lon="9.371882630512118">
        <ele>1342.6199999999999</ele>
        <time>2017-05-14T12:17:58Z</time>
      </trkpt>
      <trkpt lat="45.941328043118119" lon="9.371865028515458">
        <ele>1342.6199999999999</ele>
        <time>2017-05-14T12:18:08Z</time>
      </trkpt>
      <trkpt lat="45.941301807761192" lon="9.371845247223973">
        <ele>1342.1400000000001</ele>
        <time>2017-05-14T12:18:20Z</time>
      </trkpt>
      <trkpt lat="45.941282026469707" lon="9.371810127049685">
        <ele>1341.1800000000001</ele>
        <time>2017-05-14T12:18:33Z</time>
      </trkpt>
      <trkpt lat="45.941290659829974" lon="9.371809540316463">
        <ele>1341.6600000000001</ele>
        <time>2017-05-14T12:18:51Z</time>
      </trkpt>
      <trkpt lat="45.941290659829974" lon="9.371795877814293">
        <ele>1341.1800000000001</ele>
        <time>2017-05-14T12:19:08Z</time>
      </trkpt>
      <trkpt lat="45.941285965964198" lon="9.371763104572892">
        <ele>1340.7</ele>
        <time>2017-05-14T12:19:19Z</time>
      </trkpt>
      <trkpt lat="45.941308345645666" lon="9.371686745435">
        <ele>1339.73</ele>
        <time>2017-05-14T12:19:30Z</time>
      </trkpt>
      <trkpt lat="45.941349752247334" lon="9.371660593897104">
        <ele>1338.77</ele>
        <time>2017-05-14T12:19:41Z</time>
      </trkpt>
      <trkpt lat="45.941384118050337" lon="9.371610721573234">
        <ele>1336.8499999999999</ele>
        <time>2017-05-14T12:19:50Z</time>
      </trkpt>
      <trkpt lat="45.941424854099751" lon="9.371517011895776">
        <ele>1333.49</ele>
        <time>2017-05-14T12:20:02Z</time>
      </trkpt>
      <trkpt lat="45.941466763615608" lon="9.37144928611815">
        <ele>1330.5999999999999</ele>
        <time>2017-05-14T12:20:13Z</time>
      </trkpt>
      <trkpt lat="45.941472128033638" lon="9.371427744626999">
        <ele>1330.1199999999999</ele>
        <time>2017-05-14T12:20:16Z</time>
      </trkpt>
      <trkpt lat="45.9414878860116" lon="9.371375357732177">
        <ele>1328.6800000000001</ele>
        <time>2017-05-14T12:20:25Z</time>
      </trkpt>
      <trkpt lat="45.941483778879046" lon="9.371317438781261">
        <ele>1327.24</ele>
        <time>2017-05-14T12:20:34Z</time>
      </trkpt>
      <trkpt lat="45.941511606797576" lon="9.37123135663569">
        <ele>1326.28</ele>
        <time>2017-05-14T12:20:47Z</time>
      </trkpt>
      <trkpt lat="45.941525353118777" lon="9.371159188449383">
        <ele>1323.3900000000001</ele>
        <time>2017-05-14T12:20:58Z</time>
      </trkpt>
      <trkpt lat="45.941528789699078" lon="9.371148375794292">
        <ele>1323.8699999999999</ele>
        <time>2017-05-14T12:21:07Z</time>
      </trkpt>
      <trkpt lat="45.941527113318443" lon="9.371120966970921">
        <ele>1322.9100000000001</ele>
        <time>2017-05-14T12:21:17Z</time>
      </trkpt>
      <trkpt lat="45.94155628234148" lon="9.371038489043713">
        <ele>1320.99</ele>
        <time>2017-05-14T12:21:28Z</time>
      </trkpt>
      <trkpt lat="45.941606070846319" lon="9.370983000844717">
        <ele>1318.5899999999999</ele>
        <time>2017-05-14T12:21:39Z</time>
      </trkpt>
      <trkpt lat="45.941656697541475" lon="9.370939331129193">
        <ele>1316.6600000000001</ele>
        <time>2017-05-14T12:21:49Z</time>
      </trkpt>
      <trkpt lat="45.941673461347818" lon="9.370916783809662">
        <ele>1315.7</ele>
        <time>2017-05-14T12:22:01Z</time>
      </trkpt>
      <trkpt lat="45.941696846857667" lon="9.370864313095808">
        <ele>1313.3</ele>
        <time>2017-05-14T12:22:12Z</time>
      </trkpt>
      <trkpt lat="45.941744036972523" lon="9.370783092454076">
        <ele>1310.9000000000001</ele>
        <time>2017-05-14T12:22:25Z</time>
      </trkpt>
      <trkpt lat="45.941827101632953" lon="9.37069240026176">
        <ele>1308.01</ele>
        <time>2017-05-14T12:22:36Z</time>
      </trkpt>
      <trkpt lat="45.941883930936456" lon="9.37064060010016">
        <ele>1307.05</ele>
        <time>2017-05-14T12:22:44Z</time>
      </trkpt>
      <trkpt lat="45.94195987097919" lon="9.370563151314855">
        <ele>1307.05</ele>
        <time>2017-05-14T12:22:54Z</time>
      </trkpt>
      <trkpt lat="45.942023321986198" lon="9.370463658124209">
        <ele>1306.5699999999999</ele>
        <time>2017-05-14T12:23:05Z</time>
      </trkpt>
      <trkpt lat="45.942088197916746" lon="9.370390232652426">
        <ele>1307.05</ele>
        <time>2017-05-14T12:23:15Z</time>
      </trkpt>
      <trkpt lat="45.942159611731768" lon="9.370376486331224">
        <ele>1305.6099999999999</ele>
        <time>2017-05-14T12:23:24Z</time>
      </trkpt>
      <trkpt lat="45.942186433821917" lon="9.370363326743245">
        <ele>1305.1300000000001</ele>
        <time>2017-05-14T12:23:27Z</time>
      </trkpt>
      <trkpt lat="45.942255165427923" lon="9.370379084721208">
        <ele>1303.6900000000001</ele>
        <time>2017-05-14T12:23:33Z</time>
      </trkpt>
      <trkpt lat="45.942306546494365" lon="9.370387466624379">
        <ele>1304.6500000000001</ele>
        <time>2017-05-14T12:23:38Z</time>
      </trkpt>
      <trkpt lat="45.942380642518401" lon="9.370314460247755">
        <ele>1305.1300000000001</ele>
        <time>2017-05-14T12:23:48Z</time>
      </trkpt>
      <trkpt lat="45.942406542599201" lon="9.370276071131229">
        <ele>1304.6500000000001</ele>
        <time>2017-05-14T12:24:00Z</time>
      </trkpt>
      <trkpt lat="45.94242992810905" lon="9.370213877409697">
        <ele>1304.6500000000001</ele>
        <time>2017-05-14T12:24:08Z</time>
      </trkpt>
      <trkpt lat="45.942441746592522" lon="9.370168196037412">
        <ele>1304.1700000000001</ele>
        <time>2017-05-14T12:24:11Z</time>
      </trkpt>
      <trkpt lat="45.942526319995522" lon="9.370124693959951">
        <ele>1305.1300000000001</ele>
        <time>2017-05-14T12:24:21Z</time>
      </trkpt>
      <trkpt lat="45.942542664706707" lon="9.370081108063459">
        <ele>1305.1300000000001</ele>
        <time>2017-05-14T12:24:28Z</time>
      </trkpt>
      <trkpt lat="45.942511148750782" lon="9.370022602379322">
        <ele>1304.6500000000001</ele>
        <time>2017-05-14T12:24:37Z</time>
      </trkpt>
      <trkpt lat="45.942492038011551" lon="9.369988823309541">
        <ele>1303.6900000000001</ele>
        <time>2017-05-14T12:24:40Z</time>
      </trkpt>
      <trkpt lat="45.942428587004542" lon="9.369822107255459">
        <ele>1300.3199999999999</ele>
        <time>2017-05-14T12:24:52Z</time>
      </trkpt>
      <trkpt lat="45.942392712458968" lon="9.369681123644114">
        <ele>1298.8800000000001</ele>
        <time>2017-05-14T12:25:01Z</time>
      </trkpt>
      <trkpt lat="45.942378379404545" lon="9.369596131145954">
        <ele>1298.8800000000001</ele>
        <time>2017-05-14T12:25:12Z</time>
      </trkpt>
      <trkpt lat="45.942330602556467" lon="9.369532680138946">
        <ele>1296.96</ele>
        <time>2017-05-14T12:25:20Z</time>
      </trkpt>
      <trkpt lat="45.942271258682013" lon="9.369375184178352">
        <ele>1295.51</ele>
        <time>2017-05-14T12:25:31Z</time>
      </trkpt>
      <trkpt lat="45.942223481833935" lon="9.369278959929943">
        <ele>1296.48</ele>
        <time>2017-05-14T12:25:40Z</time>
      </trkpt>
      <trkpt lat="45.94220126979053" lon="9.369099922478199">
        <ele>1295.03</ele>
        <time>2017-05-14T12:25:51Z</time>
      </trkpt>
      <trkpt lat="45.942239072173834" lon="9.368914598599076">
        <ele>1293.1099999999999</ele>
        <time>2017-05-14T12:26:04Z</time>
      </trkpt>
      <trkpt lat="45.942259440198541" lon="9.368833210319281">
        <ele>1292.1500000000001</ele>
        <time>2017-05-14T12:26:10Z</time>
      </trkpt>
      <trkpt lat="45.942282155156136" lon="9.368786187842488">
        <ele>1291.1900000000001</ele>
        <time>2017-05-14T12:26:14Z</time>
      </trkpt>
      <trkpt lat="45.942294141277671" lon="9.368668422102928">
        <ele>1291.6700000000001</ele>
        <time>2017-05-14T12:26:24Z</time>
      </trkpt>
      <trkpt lat="45.942289866507053" lon="9.368543867021799">
        <ele>1292.6300000000001</ele>
        <time>2017-05-14T12:26:34Z</time>
      </trkpt>
      <trkpt lat="45.94226723536849" lon="9.368441188707948">
        <ele>1291.6700000000001</ele>
        <time>2017-05-14T12:26:44Z</time>
      </trkpt>
      <trkpt lat="45.942250303924084" lon="9.368397435173392">
        <ele>1291.6700000000001</ele>
        <time>2017-05-14T12:26:47Z</time>
      </trkpt>
      <trkpt lat="45.942217195406556" lon="9.368282519280911">
        <ele>1291.6700000000001</ele>
        <time>2017-05-14T12:26:56Z</time>
      </trkpt>
      <trkpt lat="45.942208897322416" lon="9.368220660835505">
        <ele>1292.1500000000001</ele>
        <time>2017-05-14T12:27:01Z</time>
      </trkpt>
      <trkpt lat="45.942172100767493" lon="9.368080934509635">
        <ele>1293.5899999999999</ele>
        <time>2017-05-14T12:27:12Z</time>
      </trkpt>
      <trkpt lat="45.942122815176845" lon="9.367983536794782">
        <ele>1294.0699999999999</ele>
        <time>2017-05-14T12:27:21Z</time>
      </trkpt>
      <trkpt lat="45.942037319764495" lon="9.367873063310981">
        <ele>1293.5899999999999</ele>
        <time>2017-05-14T12:27:32Z</time>
      </trkpt>
      <trkpt lat="45.941962385550141" lon="9.367771809920669">
        <ele>1294.55</ele>
        <time>2017-05-14T12:27:43Z</time>
      </trkpt>
      <trkpt lat="45.94191980548203" lon="9.367696540430188">
        <ele>1295.99</ele>
        <time>2017-05-14T12:27:52Z</time>
      </trkpt>
      <trkpt lat="45.941836154088378" lon="9.367587072774768">
        <ele>1296.48</ele>
        <time>2017-05-14T12:28:03Z</time>
      </trkpt>
      <trkpt lat="45.941820563748479" lon="9.367445250973105">
        <ele>1299.3599999999999</ele>
        <time>2017-05-14T12:28:14Z</time>
      </trkpt>
      <trkpt lat="45.941820899024606" lon="9.367321534082294">
        <ele>1300.8</ele>
        <time>2017-05-14T12:28:24Z</time>
      </trkpt>
      <trkpt lat="45.941837830469012" lon="9.367234781384468">
        <ele>1301.76</ele>
        <time>2017-05-14T12:28:31Z</time>
      </trkpt>
      <trkpt lat="45.941855264827609" lon="9.36708097346127">
        <ele>1301.76</ele>
        <time>2017-05-14T12:28:42Z</time>
      </trkpt>
      <trkpt lat="45.941856689751148" lon="9.366986257955432">
        <ele>1303.6900000000001</ele>
        <time>2017-05-14T12:28:51Z</time>
      </trkpt>
      <trkpt lat="45.941851995885372" lon="9.366893218830228">
        <ele>1304.6500000000001</ele>
        <time>2017-05-14T12:28:59Z</time>
      </trkpt>
      <trkpt lat="45.941847553476691" lon="9.366818619892001">
        <ele>1307.05</ele>
        <time>2017-05-14T12:29:08Z</time>
      </trkpt>
      <trkpt lat="45.941819977015257" lon="9.366736561059952">
        <ele>1309.45</ele>
        <time>2017-05-14T12:29:18Z</time>
      </trkpt>
      <trkpt lat="45.94181134365499" lon="9.366640755906701">
        <ele>1310.9000000000001</ele>
        <time>2017-05-14T12:29:27Z</time>
      </trkpt>
      <trkpt lat="45.941823665052652" lon="9.366555009037256">
        <ele>1312.3399999999999</ele>
        <time>2017-05-14T12:29:35Z</time>
      </trkpt>
      <trkpt lat="45.941820479929447" lon="9.366433387622237">
        <ele>1313.3</ele>
        <time>2017-05-14T12:29:45Z</time>
      </trkpt>
      <trkpt lat="45.941789969801903" lon="9.366320483386517">
        <ele>1315.22</ele>
        <time>2017-05-14T12:29:54Z</time>
      </trkpt>
      <trkpt lat="45.941776474937797" lon="9.366286285221577">
        <ele>1315.7</ele>
        <time>2017-05-14T12:29:58Z</time>
      </trkpt>
      <trkpt lat="45.94173020683229" lon="9.366177739575505">
        <ele>1317.1400000000001</ele>
        <time>2017-05-14T12:30:08Z</time>
      </trkpt>
      <trkpt lat="45.941699612885714" lon="9.366084197536111">
        <ele>1319.0699999999999</ele>
        <time>2017-05-14T12:30:17Z</time>
      </trkpt>
      <trkpt lat="45.941671784967184" lon="9.366058968007565">
        <ele>1319.55</ele>
        <time>2017-05-14T12:30:21Z</time>
      </trkpt>
      <trkpt lat="45.9416588768363" lon="9.366038180887699">
        <ele>1319.55</ele>
        <time>2017-05-14T12:30:23Z</time>
      </trkpt>
      <trkpt lat="45.941617554053664" lon="9.365948997437954">
        <ele>1321.47</ele>
        <time>2017-05-14T12:30:32Z</time>
      </trkpt>
      <trkpt lat="45.941591486334801" lon="9.365871548652649">
        <ele>1323.3900000000001</ele>
        <time>2017-05-14T12:30:42Z</time>
      </trkpt>
      <trkpt lat="45.941546559333801" lon="9.365806253626943">
        <ele>1323.8699999999999</ele>
        <time>2017-05-14T12:30:54Z</time>
      </trkpt>
      <trkpt lat="45.94156701117754" lon="9.365797787904739">
        <ele>1324.3499999999999</ele>
        <time>2017-05-14T12:31:12Z</time>
      </trkpt>
      <trkpt lat="45.941558042541146" lon="9.365804325789213">
        <ele>1324.3499999999999</ele>
        <time>2017-05-14T12:31:19Z</time>
      </trkpt>
      <trkpt lat="45.94145905226469" lon="9.36582519672811">
        <ele>1325.3099999999999</ele>
        <time>2017-05-14T12:31:32Z</time>
      </trkpt>
      <trkpt lat="45.941434660926461" lon="9.365821843966842">
        <ele>1325.8</ele>
        <time>2017-05-14T12:31:40Z</time>
      </trkpt>
      <trkpt lat="45.941426698118448" lon="9.365841541439295">
        <ele>1325.8</ele>
        <time>2017-05-14T12:31:58Z</time>
      </trkpt>
      <trkpt lat="45.94142192043364" lon="9.365836177021265">
        <ele>1325.3099999999999</ele>
        <time>2017-05-14T12:32:11Z</time>
      </trkpt>
      <trkpt lat="45.941407168284059" lon="9.365794351324439">
        <ele>1324.8299999999999</ele>
        <time>2017-05-14T12:32:36Z</time>
      </trkpt>
      <trkpt lat="45.941419322043657" lon="9.365783957764506">
        <ele>1325.3099999999999</ele>
        <time>2017-05-14T12:33:08Z</time>
      </trkpt>
      <trkpt lat="45.94145611859858" lon="9.365764847025275">
        <ele>1325.8</ele>
        <time>2017-05-14T12:33:26Z</time>
      </trkpt>
      <trkpt lat="45.941498698666692" lon="9.365766858682036">
        <ele>1325.3099999999999</ele>
        <time>2017-05-14T12:33:35Z</time>
      </trkpt>
      <trkpt lat="45.941561730578542" lon="9.365768786519766">
        <ele>1324.3499999999999</ele>
        <time>2017-05-14T12:33:45Z</time>
      </trkpt>
      <trkpt lat="45.941538847982883" lon="9.365808935835958">
        <ele>1324.3499999999999</ele>
        <time>2017-05-14T12:34:07Z</time>
      </trkpt>
      <trkpt lat="45.941540692001581" lon="9.365811785683036">
        <ele>1324.3499999999999</ele>
        <time>2017-05-14T12:34:14Z</time>
      </trkpt>
      <trkpt lat="45.941468775272369" lon="9.365804577246308">
        <ele>1324.8299999999999</ele>
        <time>2017-05-14T12:34:23Z</time>
      </trkpt>
      <trkpt lat="45.941439773887396" lon="9.36582519672811">
        <ele>1325.8</ele>
        <time>2017-05-14T12:34:32Z</time>
      </trkpt>
      <trkpt lat="45.941512612625957" lon="9.365769708529115">
        <ele>1324.8299999999999</ele>
        <time>2017-05-14T12:34:43Z</time>
      </trkpt>
      <trkpt lat="45.941549995914102" lon="9.365773228928447">
        <ele>1324.3499999999999</ele>
        <time>2017-05-14T12:34:52Z</time>
      </trkpt>
      <trkpt lat="45.941542368382215" lon="9.365774989128113">
        <ele>1324.3499999999999</ele>
        <time>2017-05-14T12:35:04Z</time>
      </trkpt>
      <trkpt lat="45.941545218229294" lon="9.365759398788214">
        <ele>1324.3499999999999</ele>
        <time>2017-05-14T12:35:14Z</time>
      </trkpt>
      <trkpt lat="45.941560305655003" lon="9.365735007449985">
        <ele>1324.3499999999999</ele>
        <time>2017-05-14T12:35:32Z</time>
      </trkpt>
      <trkpt lat="45.941582014784217" lon="9.365694187581539">
        <ele>1322.9100000000001</ele>
        <time>2017-05-14T12:35:43Z</time>
      </trkpt>
      <trkpt lat="45.941554773598909" lon="9.365749843418598">
        <ele>1323.8699999999999</ele>
        <time>2017-05-14T12:35:56Z</time>
      </trkpt>
      <trkpt lat="45.941594755277038" lon="9.365758476778865">
        <ele>1324.3499999999999</ele>
        <time>2017-05-14T12:36:08Z</time>
      </trkpt>
      <trkpt lat="45.941582601517439" lon="9.365699803456664">
        <ele>1322.4300000000001</ele>
        <time>2017-05-14T12:36:19Z</time>
      </trkpt>
      <trkpt lat="45.941581008955836" lon="9.365691924467683">
        <ele>1322.4300000000001</ele>
        <time>2017-05-14T12:36:32Z</time>
      </trkpt>
      <trkpt lat="45.941577153280377" lon="9.365654457360506">
        <ele>1322.4300000000001</ele>
        <time>2017-05-14T12:36:45Z</time>
      </trkpt>
      <trkpt lat="45.941589223220944" lon="9.365622522309423">
        <ele>1321.47</ele>
        <time>2017-05-14T12:36:54Z</time>
      </trkpt>
      <trkpt lat="45.941587630659342" lon="9.36561020091176">
        <ele>1320.51</ele>
        <time>2017-05-14T12:36:57Z</time>
      </trkpt>
      <trkpt lat="45.941564496606588" lon="9.365526800975204">
        <ele>1317.1400000000001</ele>
        <time>2017-05-14T12:37:07Z</time>
      </trkpt>
      <trkpt lat="45.94157824292779" lon="9.365462176501751">
        <ele>1314.26</ele>
        <time>2017-05-14T12:37:17Z</time>
      </trkpt>
      <trkpt lat="45.941642196848989" lon="9.365413980558515">
        <ele>1311.3800000000001</ele>
        <time>2017-05-14T12:37:28Z</time>
      </trkpt>
      <trkpt lat="45.94165594317019" lon="9.365362348034978">
        <ele>1308.97</ele>
        <time>2017-05-14T12:37:39Z</time>
      </trkpt>
      <trkpt lat="45.941657619550824" lon="9.365326641127467">
        <ele>1307.53</ele>
        <time>2017-05-14T12:37:44Z</time>
      </trkpt>
      <trkpt lat="45.941674299538136" lon="9.365263525396586">
        <ele>1305.6099999999999</ele>
        <time>2017-05-14T12:37:54Z</time>
      </trkpt>
      <trkpt lat="45.941677568480372" lon="9.365219688042998">
        <ele>1303.2</ele>
        <time>2017-05-14T12:38:04Z</time>
      </trkpt>
      <trkpt lat="45.941672371700406" lon="9.365178616717458">
        <ele>1301.28</ele>
        <time>2017-05-14T12:38:13Z</time>
      </trkpt>
      <trkpt lat="45.941675724461675" lon="9.365115417167544">
        <ele>1298.8800000000001</ele>
        <time>2017-05-14T12:38:24Z</time>
      </trkpt>
      <trkpt lat="45.941685196012259" lon="9.365067137405276">
        <ele>1297.9200000000001</ele>
        <time>2017-05-14T12:38:33Z</time>
      </trkpt>
      <trkpt lat="45.941743282601237" lon="9.365025814622641">
        <ele>1294.55</ele>
        <time>2017-05-14T12:38:44Z</time>
      </trkpt>
      <trkpt lat="45.941741103306413" lon="9.365002177655697">
        <ele>1293.5899999999999</ele>
        <time>2017-05-14T12:38:52Z</time>
      </trkpt>
      <trkpt lat="45.94176004640758" lon="9.364946186542511">
        <ele>1290.23</ele>
        <time>2017-05-14T12:39:01Z</time>
      </trkpt>
      <trkpt lat="45.941772535443306" lon="9.364943169057369">
        <ele>1290.23</ele>
        <time>2017-05-14T12:39:02Z</time>
      </trkpt>
      <trkpt lat="45.941800530999899" lon="9.364913664758205">
        <ele>1287.8199999999999</ele>
        <time>2017-05-14T12:39:10Z</time>
      </trkpt>
      <trkpt lat="45.94180790707469" lon="9.364926153793931">
        <ele>1286.8599999999999</ele>
        <time>2017-05-14T12:39:26Z</time>
      </trkpt>
      <trkpt lat="45.941864065825939" lon="9.364934200420976">
        <ele>1284.9400000000001</ele>
        <time>2017-05-14T12:39:33Z</time>
      </trkpt>
      <trkpt lat="45.94188217073679" lon="9.36486647464335">
        <ele>1283.02</ele>
        <time>2017-05-14T12:39:41Z</time>
      </trkpt>
      <trkpt lat="45.941918212920427" lon="9.36480394564569">
        <ele>1280.1300000000001</ele>
        <time>2017-05-14T12:39:52Z</time>
      </trkpt>
      <trkpt lat="45.941974874585867" lon="9.364812327548862">
        <ele>1277.73</ele>
        <time>2017-05-14T12:40:02Z</time>
      </trkpt>
      <trkpt lat="45.94202097505331" lon="9.364866390824318">
        <ele>1275.3299999999999</ele>
        <time>2017-05-14T12:40:10Z</time>
      </trkpt>
      <trkpt lat="45.942030111327767" lon="9.364863205701113">
        <ele>1275.3299999999999</ele>
        <time>2017-05-14T12:40:19Z</time>
      </trkpt>
      <trkpt lat="45.942049473524094" lon="9.364826157689095">
        <ele>1274.3599999999999</ele>
        <time>2017-05-14T12:40:34Z</time>
      </trkpt>
      <trkpt lat="45.942083923146129" lon="9.364785421639681">
        <ele>1272.4400000000001</ele>
        <time>2017-05-14T12:40:44Z</time>
      </trkpt>
      <trkpt lat="45.942113343626261" lon="9.364755833521485">
        <ele>1269.5599999999999</ele>
        <time>2017-05-14T12:40:54Z</time>
      </trkpt>
      <trkpt lat="45.942132454365492" lon="9.364691711962223">
        <ele>1268.1199999999999</ele>
        <time>2017-05-14T12:41:04Z</time>
      </trkpt>
      <trkpt lat="45.942144943401217" lon="9.364698585122824">
        <ele>1267.1600000000001</ele>
        <time>2017-05-14T12:41:14Z</time>
      </trkpt>
      <trkpt lat="45.942163467407227" lon="9.364678217098117">
        <ele>1266.6700000000001</ele>
        <time>2017-05-14T12:41:27Z</time>
      </trkpt>
      <trkpt lat="45.942183919250965" lon="9.36467545107007">
        <ele>1265.23</ele>
        <time>2017-05-14T12:41:35Z</time>
      </trkpt>
      <trkpt lat="45.942224739119411" lon="9.36465977691114">
        <ele>1262.3499999999999</ele>
        <time>2017-05-14T12:41:44Z</time>
      </trkpt>
      <trkpt lat="45.942248459905386" lon="9.364631362259388">
        <ele>1260.4300000000001</ele>
        <time>2017-05-14T12:41:53Z</time>
      </trkpt>
      <trkpt lat="45.942240413278341" lon="9.364579562097788">
        <ele>1257.54</ele>
        <time>2017-05-14T12:42:05Z</time>
      </trkpt>
      <trkpt lat="45.942277461290359" lon="9.36456941999495">
        <ele>1256.0999999999999</ele>
        <time>2017-05-14T12:42:14Z</time>
      </trkpt>
      <trkpt lat="45.942261787131429" lon="9.364584088325501">
        <ele>1254.6600000000001</ele>
        <time>2017-05-14T12:42:21Z</time>
      </trkpt>
      <trkpt lat="45.942296823486686" lon="9.364562965929508">
        <ele>1253.7</ele>
        <time>2017-05-14T12:42:29Z</time>
      </trkpt>
      <trkpt lat="45.942331021651626" lon="9.3645581882447">
        <ele>1252.25</ele>
        <time>2017-05-14T12:42:33Z</time>
      </trkpt>
      <trkpt lat="45.942355412989855" lon="9.364542681723833">
        <ele>1250.8099999999999</ele>
        <time>2017-05-14T12:42:41Z</time>
      </trkpt>
      <trkpt lat="45.942352395504713" lon="9.364539664238691">
        <ele>1250.8099999999999</ele>
        <time>2017-05-14T12:42:51Z</time>
      </trkpt>
      <trkpt lat="45.942333368584514" lon="9.364535976201296">
        <ele>1250.8099999999999</ele>
        <time>2017-05-14T12:43:03Z</time>
      </trkpt>
      <trkpt lat="45.942346695810556" lon="9.364444278180599">
        <ele>1248.4100000000001</ele>
        <time>2017-05-14T12:43:13Z</time>
      </trkpt>
      <trkpt lat="45.942362369969487" lon="9.364368841052055">
        <ele>1245.53</ele>
        <time>2017-05-14T12:43:24Z</time>
      </trkpt>
      <trkpt lat="45.94239036552608" lon="9.364306647330523">
        <ele>1243.1199999999999</ele>
        <time>2017-05-14T12:43:33Z</time>
      </trkpt>
      <trkpt lat="45.942419786006212" lon="9.364275969564915">
        <ele>1241.2</ele>
        <time>2017-05-14T12:43:38Z</time>
      </trkpt>
      <trkpt lat="45.942454906180501" lon="9.364257361739874">
        <ele>1240.72</ele>
        <time>2017-05-14T12:43:47Z</time>
      </trkpt>
      <trkpt lat="45.942463455721736" lon="9.364274544641376">
        <ele>1240.24</ele>
        <time>2017-05-14T12:43:57Z</time>
      </trkpt>
      <trkpt lat="45.942508717998862" lon="9.364286866039038">
        <ele>1239.76</ele>
        <time>2017-05-14T12:44:01Z</time>
      </trkpt>
      <trkpt lat="45.942616425454617" lon="9.364263899624348">
        <ele>1238.8</ele>
        <time>2017-05-14T12:44:12Z</time>
      </trkpt>
      <trkpt lat="45.942668309435248" lon="9.364185612648726">
        <ele>1236.3900000000001</ele>
        <time>2017-05-14T12:44:20Z</time>
      </trkpt>
      <trkpt lat="45.942763276398182" lon="9.364102380350232">
        <ele>1233.51</ele>
        <time>2017-05-14T12:44:32Z</time>
      </trkpt>
      <trkpt lat="45.942793115973473" lon="9.364072373136878">
        <ele>1233.03</ele>
        <time>2017-05-14T12:44:36Z</time>
      </trkpt>
      <trkpt lat="45.942833600565791" lon="9.364035157486796">
        <ele>1231.5899999999999</ele>
        <time>2017-05-14T12:44:41Z</time>
      </trkpt>
      <trkpt lat="45.942854806780815" lon="9.364010766148567">
        <ele>1230.1400000000001</ele>
        <time>2017-05-14T12:44:45Z</time>
      </trkpt>
      <trkpt lat="45.942896883934736" lon="9.363969694823027">
        <ele>1227.74</ele>
        <time>2017-05-14T12:44:54Z</time>
      </trkpt>
      <trkpt lat="45.942812561988831" lon="9.363970868289471">
        <ele>1225.3399999999999</ele>
        <time>2017-05-14T12:45:05Z</time>
      </trkpt>
      <trkpt lat="45.942770903930068" lon="9.363889899104834">
        <ele>1222.45</ele>
        <time>2017-05-14T12:45:15Z</time>
      </trkpt>
      <trkpt lat="45.942762941122055" lon="9.363823179155588">
        <ele>1221.01</ele>
        <time>2017-05-14T12:45:25Z</time>
      </trkpt>
      <trkpt lat="45.942826392129064" lon="9.363726116716862">
        <ele>1218.6099999999999</ele>
        <time>2017-05-14T12:45:35Z</time>
      </trkpt>
      <trkpt lat="45.942834690213203" lon="9.36369962990284">
        <ele>1217.6500000000001</ele>
        <time>2017-05-14T12:45:46Z</time>
      </trkpt>
      <trkpt lat="45.942853130400181" lon="9.363663420081139">
        <ele>1216.21</ele>
        <time>2017-05-14T12:45:57Z</time>
      </trkpt>
      <trkpt lat="45.942840473726392" lon="9.363645650446415">
        <ele>1214.76</ele>
        <time>2017-05-14T12:46:05Z</time>
      </trkpt>
      <trkpt lat="45.94280325807631" lon="9.363692505285144">
        <ele>1213.3199999999999</ele>
        <time>2017-05-14T12:46:19Z</time>
      </trkpt>
      <trkpt lat="45.942754978314042" lon="9.363638022914529">
        <ele>1210.9200000000001</ele>
        <time>2017-05-14T12:46:29Z</time>
      </trkpt>
      <trkpt lat="45.942702842876315" lon="9.36367129907012">
        <ele>1209.48</ele>
        <time>2017-05-14T12:46:44Z</time>
      </trkpt>
      <trkpt lat="45.942679373547435" lon="9.3636429682374">
        <ele>1206.5899999999999</ele>
        <time>2017-05-14T12:46:50Z</time>
      </trkpt>
      <trkpt lat="45.942730838432908" lon="9.36355596408248">
        <ele>1205.6300000000001</ele>
        <time>2017-05-14T12:47:03Z</time>
      </trkpt>
      <trkpt lat="45.942724132910371" lon="9.363482790067792">
        <ele>1203.71</ele>
        <time>2017-05-14T12:47:12Z</time>
      </trkpt>
      <trkpt lat="45.94273628666997" lon="9.363466110080481">
        <ele>1201.79</ele>
        <time>2017-05-14T12:47:21Z</time>
      </trkpt>
      <trkpt lat="45.942697562277317" lon="9.363435599952936">
        <ele>1199.3800000000001</ele>
        <time>2017-05-14T12:47:31Z</time>
      </trkpt>
      <trkpt lat="45.942767132073641" lon="9.363387739285827">
        <ele>1197.9400000000001</ele>
        <time>2017-05-14T12:47:40Z</time>
      </trkpt>
      <trkpt lat="45.942790936678648" lon="9.363351194187999">
        <ele>1196.02</ele>
        <time>2017-05-14T12:47:51Z</time>
      </trkpt>
      <trkpt lat="45.942802671343088" lon="9.363283133134246">
        <ele>1194.0899999999999</ele>
        <time>2017-05-14T12:48:02Z</time>
      </trkpt>
      <trkpt lat="45.942824967205524" lon="9.363199397921562">
        <ele>1192.1700000000001</ele>
        <time>2017-05-14T12:48:12Z</time>
      </trkpt>
      <trkpt lat="45.942838042974472" lon="9.363177856430411">
        <ele>1190.25</ele>
        <time>2017-05-14T12:48:21Z</time>
      </trkpt>
      <trkpt lat="45.942863943055272" lon="9.363165199756622">
        <ele>1187.8499999999999</ele>
        <time>2017-05-14T12:48:31Z</time>
      </trkpt>
      <trkpt lat="45.942908115684986" lon="9.363126559183002">
        <ele>1186.4000000000001</ele>
        <time>2017-05-14T12:48:41Z</time>
      </trkpt>
      <trkpt lat="45.94294105656445" lon="9.363083895295858">
        <ele>1183.52</ele>
        <time>2017-05-14T12:48:53Z</time>
      </trkpt>
      <trkpt lat="45.942941308021545" lon="9.363010972738266">
        <ele>1181.5999999999999</ele>
        <time>2017-05-14T12:49:03Z</time>
      </trkpt>
      <trkpt lat="45.942975590005517" lon="9.362944336608052">
        <ele>1178.71</ele>
        <time>2017-05-14T12:49:12Z</time>
      </trkpt>
      <trkpt lat="45.942972656339407" lon="9.362885160371661">
        <ele>1177.27</ele>
        <time>2017-05-14T12:49:24Z</time>
      </trkpt>
      <trkpt lat="45.942984893918037" lon="9.362819781526923">
        <ele>1175.3499999999999</ele>
        <time>2017-05-14T12:49:37Z</time>
      </trkpt>
      <trkpt lat="45.94298405572772" lon="9.362825145944953">
        <ele>1174.3900000000001</ele>
        <time>2017-05-14T12:49:45Z</time>
      </trkpt>
      <trkpt lat="45.943012470379472" lon="9.362778794020414">
        <ele>1173.4300000000001</ele>
        <time>2017-05-14T12:49:49Z</time>
      </trkpt>
      <trkpt lat="45.943039292469621" lon="9.362660944461823">
        <ele>1170.54</ele>
        <time>2017-05-14T12:50:00Z</time>
      </trkpt>
      <trkpt lat="45.943070808425546" lon="9.362558182328939">
        <ele>1167.6600000000001</ele>
        <time>2017-05-14T12:50:11Z</time>
      </trkpt>
      <trkpt lat="45.943097798153758" lon="9.362453743815422">
        <ele>1165.26</ele>
        <time>2017-05-14T12:50:23Z</time>
      </trkpt>
      <trkpt lat="45.943060833960772" lon="9.362377049401403">
        <ele>1163.8099999999999</ele>
        <time>2017-05-14T12:50:32Z</time>
      </trkpt>
      <trkpt lat="45.94303585588932" lon="9.362300271168351">
        <ele>1162.8499999999999</ele>
        <time>2017-05-14T12:50:41Z</time>
      </trkpt>
      <trkpt lat="45.943022025749087" lon="9.362245788797736">
        <ele>1161.8900000000001</ele>
        <time>2017-05-14T12:50:47Z</time>
      </trkpt>
      <trkpt lat="45.943013811483979" lon="9.362190132960677">
        <ele>1160.9300000000001</ele>
        <time>2017-05-14T12:50:51Z</time>
      </trkpt>
      <trkpt lat="45.943079525604844" lon="9.362032050266862">
        <ele>1159.01</ele>
        <time>2017-05-14T12:51:03Z</time>
      </trkpt>
      <trkpt lat="45.94310475513339" lon="9.361970443278551">
        <ele>1157.0799999999999</ele>
        <time>2017-05-14T12:51:13Z</time>
      </trkpt>
      <trkpt lat="45.94308908097446" lon="9.361894754692912">
        <ele>1156.1199999999999</ele>
        <time>2017-05-14T12:51:25Z</time>
      </trkpt>
      <trkpt lat="45.943054296076298" lon="9.361855275928974">
        <ele>1154.6800000000001</ele>
        <time>2017-05-14T12:51:31Z</time>
      </trkpt>
      <trkpt lat="45.943005261942744" lon="9.361681267619133">
        <ele>1152.76</ele>
        <time>2017-05-14T12:51:42Z</time>
      </trkpt>
      <trkpt lat="45.943001322448254" lon="9.361566519364715">
        <ele>1149.3900000000001</ele>
        <time>2017-05-14T12:51:53Z</time>
      </trkpt>
      <trkpt lat="45.943056894466281" lon="9.36152134090662">
        <ele>1147.47</ele>
        <time>2017-05-14T12:52:01Z</time>
      </trkpt>
      <trkpt lat="45.943123446777463" lon="9.361568782478571">
        <ele>1145.55</ele>
        <time>2017-05-14T12:52:10Z</time>
      </trkpt>
      <trkpt lat="45.943162254989147" lon="9.361670790240169">
        <ele>1143.6300000000001</ele>
        <time>2017-05-14T12:52:21Z</time>
      </trkpt>
      <trkpt lat="45.9431560523808" lon="9.361596358940005">
        <ele>1141.22</ele>
        <time>2017-05-14T12:52:31Z</time>
      </trkpt>
      <trkpt lat="45.943147419020534" lon="9.361587390303612">
        <ele>1140.74</ele>
        <time>2017-05-14T12:52:41Z</time>
      </trkpt>
      <trkpt lat="45.943139623850584" lon="9.361486723646522">
        <ele>1138.8199999999999</ele>
        <time>2017-05-14T12:52:53Z</time>
      </trkpt>
      <trkpt lat="45.943145826458931" lon="9.361456548795104">
        <ele>1138.3399999999999</ele>
        <time>2017-05-14T12:52:55Z</time>
      </trkpt>
      <trkpt lat="45.943183964118361" lon="9.361282959580421">
        <ele>1135.45</ele>
        <time>2017-05-14T12:53:07Z</time>
      </trkpt>
      <trkpt lat="45.943175498396158" lon="9.361150693148375">
        <ele>1133.05</ele>
        <time>2017-05-14T12:53:19Z</time>
      </trkpt>
      <trkpt lat="45.943159991875291" lon="9.361045751720667">
        <ele>1129.6900000000001</ele>
        <time>2017-05-14T12:53:30Z</time>
      </trkpt>
      <trkpt lat="45.943157477304339" lon="9.361016163602471">
        <ele>1129.21</ele>
        <time>2017-05-14T12:53:32Z</time>
      </trkpt>
      <trkpt lat="45.94318488612771" lon="9.360872330144048">
        <ele>1125.8399999999999</ele>
        <time>2017-05-14T12:53:43Z</time>
      </trkpt>
      <trkpt lat="45.94320148229599" lon="9.360739560797811">
        <ele>1122.96</ele>
        <time>2017-05-14T12:53:54Z</time>
      </trkpt>
      <trkpt lat="45.943142306059599" lon="9.360650880262256">
        <ele>1120.55</ele>
        <time>2017-05-14T12:54:04Z</time>
      </trkpt>
      <trkpt lat="45.943106515333056" lon="9.360509812831879">
        <ele>1117.1900000000001</ele>
        <time>2017-05-14T12:54:16Z</time>
      </trkpt>
      <trkpt lat="45.943084051832557" lon="9.36039506457746">
        <ele>1115.27</ele>
        <time>2017-05-14T12:54:28Z</time>
      </trkpt>
      <trkpt lat="45.943071814253926" lon="9.360348545014858">
        <ele>1113.8199999999999</ele>
        <time>2017-05-14T12:54:36Z</time>
      </trkpt>
      <trkpt lat="45.943021439015865" lon="9.360184594988823">
        <ele>1110.46</ele>
        <time>2017-05-14T12:54:49Z</time>
      </trkpt>
      <trkpt lat="45.94301481731236" lon="9.360162802040577">
        <ele>1109.98</ele>
        <time>2017-05-14T12:54:51Z</time>
      </trkpt>
      <trkpt lat="45.94301238656044" lon="9.36010479927063">
        <ele>1108.54</ele>
        <time>2017-05-14T12:54:55Z</time>
      </trkpt>
      <trkpt lat="45.94298061914742" lon="9.359997427091003">
        <ele>1107.0999999999999</ele>
        <time>2017-05-14T12:55:04Z</time>
      </trkpt>
      <trkpt lat="45.94297575764358" lon="9.359990637749434">
        <ele>1107.0999999999999</ele>
        <time>2017-05-14T12:55:05Z</time>
      </trkpt>
      <trkpt lat="45.94291515648365" lon="9.359821742400527">
        <ele>1105.1700000000001</ele>
        <time>2017-05-14T12:55:18Z</time>
      </trkpt>
      <trkpt lat="45.942862937226892" lon="9.35965770855546">
        <ele>1102.77</ele>
        <time>2017-05-14T12:55:30Z</time>
      </trkpt>
      <trkpt lat="45.942839300259948" lon="9.359481018036604">
        <ele>1101.3299999999999</ele>
        <time>2017-05-14T12:55:41Z</time>
      </trkpt>
      <trkpt lat="45.942837875336409" lon="9.35931421816349">
        <ele>1098.4400000000001</ele>
        <time>2017-05-14T12:55:52Z</time>
      </trkpt>
      <trkpt lat="45.942838545888662" lon="9.359170300886035">
        <ele>1095.5599999999999</ele>
        <time>2017-05-14T12:56:03Z</time>
      </trkpt>
      <trkpt lat="45.942847263067961" lon="9.359022779390216">
        <ele>1092.6800000000001</ele>
        <time>2017-05-14T12:56:14Z</time>
      </trkpt>
      <trkpt lat="45.9428452514112" lon="9.358863439410925">
        <ele>1089.79</ele>
        <time>2017-05-14T12:56:25Z</time>
      </trkpt>
      <trkpt lat="45.942831924185157" lon="9.358741734176874">
        <ele>1087.3900000000001</ele>
        <time>2017-05-14T12:56:35Z</time>
      </trkpt>
      <trkpt lat="45.94279152341187" lon="9.358679624274373">
        <ele>1084.99</ele>
        <time>2017-05-14T12:56:46Z</time>
      </trkpt>
      <trkpt lat="45.942754643037915" lon="9.358618771657348">
        <ele>1083.0599999999999</ele>
        <time>2017-05-14T12:56:58Z</time>
      </trkpt>
      <trkpt lat="45.942741567268968" lon="9.358533779159188">
        <ele>1081.1400000000001</ele>
        <time>2017-05-14T12:57:10Z</time>
      </trkpt>
      <trkpt lat="45.942765790969133" lon="9.358519865199924">
        <ele>1080.6600000000001</ele>
        <time>2017-05-14T12:57:20Z</time>
      </trkpt>
      <trkpt lat="45.942749278619885" lon="9.358538137748838">
        <ele>1080.6600000000001</ele>
        <time>2017-05-14T12:57:37Z</time>
      </trkpt>
      <trkpt lat="45.942773753777146" lon="9.358512824401259">
        <ele>1080.1800000000001</ele>
        <time>2017-05-14T12:57:49Z</time>
      </trkpt>
      <trkpt lat="45.942781213670969" lon="9.358486086130142">
        <ele>1079.22</ele>
        <time>2017-05-14T12:58:01Z</time>
      </trkpt>
      <trkpt lat="45.942812310531735" lon="9.358385084196925">
        <ele>1077.78</ele>
        <time>2017-05-14T12:58:12Z</time>
      </trkpt>
      <trkpt lat="45.942808287218213" lon="9.358340492472053">
        <ele>1076.8099999999999</ele>
        <time>2017-05-14T12:58:15Z</time>
      </trkpt>
      <trkpt lat="45.942784901708364" lon="9.358221469447017">
        <ele>1072.97</ele>
        <time>2017-05-14T12:58:26Z</time>
      </trkpt>
      <trkpt lat="45.94277735799551" lon="9.358191965147853">
        <ele>1072.01</ele>
        <time>2017-05-14T12:58:30Z</time>
      </trkpt>
      <trkpt lat="45.942806778475642" lon="9.358042599633336">
        <ele>1068.6400000000001</ele>
        <time>2017-05-14T12:58:41Z</time>
      </trkpt>
      <trkpt lat="45.94280325807631" lon="9.357950063422322">
        <ele>1066.72</ele>
        <time>2017-05-14T12:58:50Z</time>
      </trkpt>
      <trkpt lat="45.942786242812872" lon="9.357864232733846">
        <ele>1063.8399999999999</ele>
        <time>2017-05-14T12:58:59Z</time>
      </trkpt>
      <trkpt lat="45.942797977477312" lon="9.357809079810977">
        <ele>1061.4300000000001</ele>
        <time>2017-05-14T12:59:05Z</time>
      </trkpt>
      <trkpt lat="45.942796804010868" lon="9.357778653502464">
        <ele>1060.95</ele>
        <time>2017-05-14T12:59:07Z</time>
      </trkpt>
      <trkpt lat="45.942841898649931" lon="9.357667928561568">
        <ele>1059.51</ele>
        <time>2017-05-14T12:59:18Z</time>
      </trkpt>
      <trkpt lat="45.94286872074008" lon="9.357509510591626">
        <ele>1056.6300000000001</ele>
        <time>2017-05-14T12:59:28Z</time>
      </trkpt>
      <trkpt lat="45.942887077108026" lon="9.357490986585617">
        <ele>1055.6700000000001</ele>
        <time>2017-05-14T12:59:33Z</time>
      </trkpt>
      <trkpt lat="45.942973075434566" lon="9.35746667906642">
        <ele>1053.26</ele>
        <time>2017-05-14T12:59:43Z</time>
      </trkpt>
      <trkpt lat="45.942998556420207" lon="9.357411777600646">
        <ele>1050.8599999999999</ele>
        <time>2017-05-14T12:59:52Z</time>
      </trkpt>
      <trkpt lat="45.942989252507687" lon="9.357457039877772">
        <ele>1050.3800000000001</ele>
        <time>2017-05-14T13:00:00Z</time>
      </trkpt>
      <trkpt lat="45.942977517843246" lon="9.357454190030694">
        <ele>1050.3800000000001</ele>
        <time>2017-05-14T13:00:12Z</time>
      </trkpt>
      <trkpt lat="45.942995538935065" lon="9.357495931908488">
        <ele>1049.9000000000001</ele>
        <time>2017-05-14T13:00:33Z</time>
      </trkpt>
      <trkpt lat="45.9429713152349" lon="9.357506996020675">
        <ele>1049.9000000000001</ele>
        <time>2017-05-14T13:01:02Z</time>
      </trkpt>
      <trkpt lat="45.943034933879972" lon="9.357445808127523">
        <ele>1049.4200000000001</ele>
        <time>2017-05-14T13:01:32Z</time>
      </trkpt>
      <trkpt lat="45.943014062941074" lon="9.357499955222011">
        <ele>1049.4200000000001</ele>
        <time>2017-05-14T13:01:44Z</time>
      </trkpt>
      <trkpt lat="45.942993443459272" lon="9.357494004070759">
        <ele>1049.4200000000001</ele>
        <time>2017-05-14T13:01:59Z</time>
      </trkpt>
      <trkpt lat="45.942948181182146" lon="9.357519401237369">
        <ele>1049.4200000000001</ele>
        <time>2017-05-14T13:02:15Z</time>
      </trkpt>
      <trkpt lat="45.942914234474301" lon="9.357489813119173">
        <ele>1049.4200000000001</ele>
        <time>2017-05-14T13:02:25Z</time>
      </trkpt>
      <trkpt lat="45.942876180633903" lon="9.357493836432695">
        <ele>1050.8599999999999</ele>
        <time>2017-05-14T13:02:37Z</time>
      </trkpt>
      <trkpt lat="45.942774508148432" lon="9.3574642483145">
        <ele>1049.4200000000001</ele>
        <time>2017-05-14T13:02:47Z</time>
      </trkpt>
      <trkpt lat="45.942806275561452" lon="9.357519065961242">
        <ele>1049.4200000000001</ele>
        <time>2017-05-14T13:03:07Z</time>
      </trkpt>
      <trkpt lat="45.942954383790493" lon="9.357391409575939">
        <ele>1049.4200000000001</ele>
        <time>2017-05-14T13:03:30Z</time>
      </trkpt>
      <trkpt lat="45.942931501194835" lon="9.357342794537544">
        <ele>1049.4200000000001</ele>
        <time>2017-05-14T13:04:01Z</time>
      </trkpt>
      <trkpt lat="45.942851873114705" lon="9.357303231954575">
        <ele>1049.4200000000001</ele>
        <time>2017-05-14T13:04:31Z</time>
      </trkpt>
      <trkpt lat="45.94285991974175" lon="9.357307087630034">
        <ele>1049.9000000000001</ele>
        <time>2017-05-14T13:05:00Z</time>
      </trkpt>
      <trkpt lat="45.94281792640686" lon="9.357318822294474">
        <ele>1049.9000000000001</ele>
        <time>2017-05-14T13:05:19Z</time>
      </trkpt>
      <trkpt lat="45.942778112366796" lon="9.357311110943556">
        <ele>1050.8599999999999</ele>
        <time>2017-05-14T13:05:26Z</time>
      </trkpt>
      <trkpt lat="45.942772580310702" lon="9.357305997982621">
        <ele>1050.8599999999999</ele>
        <time>2017-05-14T13:05:40Z</time>
      </trkpt>
      <trkpt lat="45.942730084061623" lon="9.357362827286124">
        <ele>1051.3399999999999</ele>
        <time>2017-05-14T13:05:51Z</time>
      </trkpt>
      <trkpt lat="45.942778363823891" lon="9.3572898209095">
        <ele>1050.8599999999999</ele>
        <time>2017-05-14T13:06:03Z</time>
      </trkpt>
      <trkpt lat="45.94278615899384" lon="9.357324438169599">
        <ele>1050.8599999999999</ele>
        <time>2017-05-14T13:06:17Z</time>
      </trkpt>
      <trkpt lat="45.942761264741421" lon="9.357343297451735">
        <ele>1050.8599999999999</ele>
        <time>2017-05-14T13:06:33Z</time>
      </trkpt>
      <trkpt lat="45.942759588360786" lon="9.357353523373604">
        <ele>1050.8599999999999</ele>
        <time>2017-05-14T13:06:46Z</time>
      </trkpt>
      <trkpt lat="45.94276025891304" lon="9.357370287179947">
        <ele>1050.8599999999999</ele>
        <time>2017-05-14T13:07:06Z</time>
      </trkpt>
      <trkpt lat="45.94278272241354" lon="9.357302645221353">
        <ele>1050.8599999999999</ele>
        <time>2017-05-14T13:07:19Z</time>
      </trkpt>
      <trkpt lat="45.942790769040585" lon="9.357303231954575">
        <ele>1050.8599999999999</ele>
        <time>2017-05-14T13:07:39Z</time>
      </trkpt>
      <trkpt lat="45.942790852859616" lon="9.357306668534875">
        <ele>1051.3399999999999</ele>
        <time>2017-05-14T13:07:44Z</time>
      </trkpt>
      <trkpt lat="45.94280568882823" lon="9.357330724596977">
        <ele>1049.4200000000001</ele>
        <time>2017-05-14T13:07:49Z</time>
      </trkpt>
      <trkpt lat="45.942828319966793" lon="9.357330473139882">
        <ele>1050.3800000000001</ele>
        <time>2017-05-14T13:08:01Z</time>
      </trkpt>
      <trkpt lat="45.942785572260618" lon="9.357324857264757">
        <ele>1049.9000000000001</ele>
        <time>2017-05-14T13:08:14Z</time>
      </trkpt>
      <trkpt lat="45.942771071568131" lon="9.357321923598647">
        <ele>1050.8599999999999</ele>
        <time>2017-05-14T13:08:25Z</time>
      </trkpt>
      <trkpt lat="45.942768473178148" lon="9.357354613021016">
        <ele>1050.3800000000001</ele>
        <time>2017-05-14T13:08:40Z</time>
      </trkpt>
      <trkpt lat="45.942813735455275" lon="9.357355954125524">
        <ele>1050.3800000000001</ele>
        <time>2017-05-14T13:08:51Z</time>
      </trkpt>
      <trkpt lat="45.942780543118715" lon="9.357328377664089">
        <ele>1050.3800000000001</ele>
        <time>2017-05-14T13:09:07Z</time>
      </trkpt>
      <trkpt lat="45.942781548947096" lon="9.357306500896812">
        <ele>1049.9000000000001</ele>
        <time>2017-05-14T13:09:24Z</time>
      </trkpt>
      <trkpt lat="45.942798061296344" lon="9.35731178149581">
        <ele>1049.9000000000001</ele>
        <time>2017-05-14T13:09:43Z</time>
      </trkpt>
      <trkpt lat="45.942763108760118" lon="9.357329299673438">
        <ele>1049.9000000000001</ele>
        <time>2017-05-14T13:10:04Z</time>
      </trkpt>
      <trkpt lat="45.942781297490001" lon="9.357362240552902">
        <ele>1049.9000000000001</ele>
        <time>2017-05-14T13:10:22Z</time>
      </trkpt>
      <trkpt lat="45.94280082732439" lon="9.357333909720182">
        <ele>1049.9000000000001</ele>
        <time>2017-05-14T13:10:41Z</time>
      </trkpt>
      <trkpt lat="45.942798145115376" lon="9.357309434562922">
        <ele>1049.9000000000001</ele>
        <time>2017-05-14T13:11:03Z</time>
      </trkpt>
      <trkpt lat="45.94280275516212" lon="9.357311194762588">
        <ele>1049.4200000000001</ele>
        <time>2017-05-14T13:11:08Z</time>
      </trkpt>
      <trkpt lat="45.942826475948095" lon="9.35734061524272">
        <ele>1049.4200000000001</ele>
        <time>2017-05-14T13:11:28Z</time>
      </trkpt>
      <trkpt lat="45.94287165440619" lon="9.357302980497479">
        <ele>1049.4200000000001</ele>
        <time>2017-05-14T13:11:47Z</time>
      </trkpt>
      <trkpt lat="45.94284231774509" lon="9.35729225166142">
        <ele>1049.4200000000001</ele>
        <time>2017-05-14T13:12:06Z</time>
      </trkpt>
      <trkpt lat="45.942824883386493" lon="9.357261992990971">
        <ele>1049.4200000000001</ele>
        <time>2017-05-14T13:12:27Z</time>
      </trkpt>
      <trkpt lat="45.942824883386493" lon="9.357274146750569">
        <ele>1049.4200000000001</ele>
        <time>2017-05-14T13:12:44Z</time>
      </trkpt>
      <trkpt lat="45.942823961377144" lon="9.357275823131204">
        <ele>1049.4200000000001</ele>
        <time>2017-05-14T13:12:56Z</time>
      </trkpt>
      <trkpt lat="45.942821027711034" lon="9.357268279418349">
        <ele>1048.9400000000001</ele>
        <time>2017-05-14T13:13:09Z</time>
      </trkpt>
      <trkpt lat="45.942848436534405" lon="9.357264926657081">
        <ele>1048.9400000000001</ele>
        <time>2017-05-14T13:13:33Z</time>
      </trkpt>
      <trkpt lat="45.942881125956774" lon="9.357264339923859">
        <ele>1048.9400000000001</ele>
        <time>2017-05-14T13:13:58Z</time>
      </trkpt>
      <trkpt lat="45.942910462617874" lon="9.357312452048063">
        <ele>1048.9400000000001</ele>
        <time>2017-05-14T13:14:19Z</time>
      </trkpt>
      <trkpt lat="45.942885400727391" lon="9.357282612472773">
        <ele>1048.9400000000001</ele>
        <time>2017-05-14T13:14:35Z</time>
      </trkpt>
      <trkpt lat="45.942880371585488" lon="9.357265345752239">
        <ele>1048.9400000000001</ele>
        <time>2017-05-14T13:15:05Z</time>
      </trkpt>
      <trkpt lat="45.942846424877644" lon="9.357270793989301">
        <ele>1048.9400000000001</ele>
        <time>2017-05-14T13:15:31Z</time>
      </trkpt>
      <trkpt lat="45.942802336066961" lon="9.357280014082789">
        <ele>1048.9400000000001</ele>
        <time>2017-05-14T13:15:44Z</time>
      </trkpt>
      <trkpt lat="45.942828403785825" lon="9.357320833951235">
        <ele>1049.4200000000001</ele>
        <time>2017-05-14T13:15:59Z</time>
      </trkpt>
      <trkpt lat="45.942829493433237" lon="9.357327623292804">
        <ele>1048.9400000000001</ele>
        <time>2017-05-14T13:16:16Z</time>
      </trkpt>
      <trkpt lat="45.942795546725392" lon="9.357377411797643">
        <ele>1048.9400000000001</ele>
        <time>2017-05-14T13:16:26Z</time>
      </trkpt>
      <trkpt lat="45.942774675786495" lon="9.357297448441386">
        <ele>1047.01</ele>
        <time>2017-05-14T13:16:35Z</time>
      </trkpt>
      <trkpt lat="45.94279739074409" lon="9.357246570289135">
        <ele>1046.53</ele>
        <time>2017-05-14T13:16:45Z</time>
      </trkpt>
      <trkpt lat="45.94278272241354" lon="9.357192004099488">
        <ele>1045.5699999999999</ele>
        <time>2017-05-14T13:16:55Z</time>
      </trkpt>
      <trkpt lat="45.942767718806863" lon="9.357130732387304">
        <ele>1044.1300000000001</ele>
        <time>2017-05-14T13:17:04Z</time>
      </trkpt>
      <trkpt lat="45.942721366882324" lon="9.357027634978294">
        <ele>1041.73</ele>
        <time>2017-05-14T13:17:15Z</time>
      </trkpt>
      <trkpt lat="45.942693036049604" lon="9.357109442353249">
        <ele>1039.3199999999999</ele>
        <time>2017-05-14T13:17:25Z</time>
      </trkpt>
      <trkpt lat="45.942676775157452" lon="9.357128301635385">
        <ele>1038.8399999999999</ele>
        <time>2017-05-14T13:17:28Z</time>
      </trkpt>
      <trkpt lat="45.942570492625237" lon="9.357252856716514">
        <ele>1035.48</ele>
        <time>2017-05-14T13:17:41Z</time>
      </trkpt>
      <trkpt lat="45.942555824294686" lon="9.357319409027696">
        <ele>1033.55</ele>
        <time>2017-05-14T13:17:53Z</time>
      </trkpt>
      <trkpt lat="45.942544676363468" lon="9.357359223067761">
        <ele>1032.1099999999999</ele>
        <time>2017-05-14T13:17:59Z</time>
      </trkpt>
      <trkpt lat="45.942501425743103" lon="9.357463913038373">
        <ele>1031.6300000000001</ele>
        <time>2017-05-14T13:18:10Z</time>
      </trkpt>
      <trkpt lat="45.942474268376827" lon="9.357499955222011">
        <ele>1031.1500000000001</ele>
        <time>2017-05-14T13:18:20Z</time>
      </trkpt>
      <trkpt lat="45.942448368296027" lon="9.357533063739538">
        <ele>1031.1500000000001</ele>
        <time>2017-05-14T13:18:30Z</time>
      </trkpt>
      <trkpt lat="45.942422216758132" lon="9.35757371596992">
        <ele>1030.1900000000001</ele>
        <time>2017-05-14T13:18:46Z</time>
      </trkpt>
      <trkpt lat="45.942434286698699" lon="9.357597101479769">
        <ele>1029.71</ele>
        <time>2017-05-14T13:19:03Z</time>
      </trkpt>
      <trkpt lat="45.942402016371489" lon="9.357482856139541">
        <ele>1028.27</ele>
        <time>2017-05-14T13:19:13Z</time>
      </trkpt>
      <trkpt lat="45.942419283092022" lon="9.357410436496139">
        <ele>1027.3099999999999</ele>
        <time>2017-05-14T13:19:19Z</time>
      </trkpt>
      <trkpt lat="45.94243043102324" lon="9.357313625514507">
        <ele>1025.3800000000001</ele>
        <time>2017-05-14T13:19:29Z</time>
      </trkpt>
      <trkpt lat="45.942408470436931" lon="9.35728881508112">
        <ele>1024.4200000000001</ele>
        <time>2017-05-14T13:19:40Z</time>
      </trkpt>
      <trkpt lat="45.942417355254292" lon="9.357288982719183">
        <ele>1023.9400000000001</ele>
        <time>2017-05-14T13:19:49Z</time>
      </trkpt>
      <trkpt lat="45.942428251728415" lon="9.357317313551903">
        <ele>1023.46</ele>
        <time>2017-05-14T13:20:04Z</time>
      </trkpt>
      <trkpt lat="45.94240796752274" lon="9.357398115098476">
        <ele>1022.5</ele>
        <time>2017-05-14T13:20:12Z</time>
      </trkpt>
      <trkpt lat="45.942323729395866" lon="9.357441449537873">
        <ele>1020.58</ele>
        <time>2017-05-14T13:20:22Z</time>
      </trkpt>
      <trkpt lat="45.94230730086565" lon="9.357454860582948">
        <ele>1019.62</ele>
        <time>2017-05-14T13:20:25Z</time>
      </trkpt>
      <trkpt lat="45.942267989739776" lon="9.357580421492457">
        <ele>1017.6900000000001</ele>
        <time>2017-05-14T13:20:37Z</time>
      </trkpt>
      <trkpt lat="45.942241502925754" lon="9.357614368200302">
        <ele>1016.73</ele>
        <time>2017-05-14T13:20:41Z</time>
      </trkpt>
      <trkpt lat="45.942200096324086" lon="9.357631467282772">
        <ele>1015.29</ele>
        <time>2017-05-14T13:20:53Z</time>
      </trkpt>
      <trkpt lat="45.942202359437943" lon="9.357586456462741">
        <ele>1014.8099999999999</ele>
        <time>2017-05-14T13:21:05Z</time>
      </trkpt>
      <trkpt lat="45.942202359437943" lon="9.357586624100804">
        <ele>1015.29</ele>
        <time>2017-05-14T13:21:20Z</time>
      </trkpt>
      <trkpt lat="45.942184925079346" lon="9.357574554160237">
        <ele>1015.29</ele>
        <time>2017-05-14T13:21:22Z</time>
      </trkpt>
      <trkpt lat="45.942172603681684" lon="9.357546390965581">
        <ele>1014.33</ele>
        <time>2017-05-14T13:21:25Z</time>
      </trkpt>
      <trkpt lat="45.942118037492037" lon="9.357549073174596">
        <ele>1012.89</ele>
        <time>2017-05-14T13:21:33Z</time>
      </trkpt>
      <trkpt lat="45.941998260095716" lon="9.357533399015665">
        <ele>1010.48</ele>
        <time>2017-05-14T13:21:45Z</time>
      </trkpt>
      <trkpt lat="45.941948303952813" lon="9.357466427609325">
        <ele>1008.5599999999999</ele>
        <time>2017-05-14T13:21:55Z</time>
      </trkpt>
      <trkpt lat="45.941884182393551" lon="9.357401132583618">
        <ele>1007.12</ele>
        <time>2017-05-14T13:22:04Z</time>
      </trkpt>
      <trkpt lat="45.941855432465672" lon="9.357381770387292">
        <ele>1006.64</ele>
        <time>2017-05-14T13:22:07Z</time>
      </trkpt>
      <trkpt lat="45.941794412210584" lon="9.357340782880783">
        <ele>1005.6799999999999</ele>
        <time>2017-05-14T13:22:16Z</time>
      </trkpt>
      <trkpt lat="45.941706402227283" lon="9.357383446767926">
        <ele>1004.23</ele>
        <time>2017-05-14T13:22:28Z</time>
      </trkpt>
      <trkpt lat="45.941672287881374" lon="9.357425523921847">
        <ele>1004.23</ele>
        <time>2017-05-14T13:22:39Z</time>
      </trkpt>
      <trkpt lat="45.941612524911761" lon="9.35747304931283">
        <ele>1003.27</ele>
        <time>2017-05-14T13:22:46Z</time>
      </trkpt>
      <trkpt lat="45.941567430272698" lon="9.357502302154899">
        <ele>1002.3099999999999</ele>
        <time>2017-05-14T13:22:51Z</time>
      </trkpt>
      <trkpt lat="45.941475396975875" lon="9.357475060969591">
        <ele>999.42999999999995</ele>
        <time>2017-05-14T13:23:01Z</time>
      </trkpt>
      <trkpt lat="45.941375903785229" lon="9.357430720701814">
        <ele>999.90999999999997</ele>
        <time>2017-05-14T13:23:12Z</time>
      </trkpt>
      <trkpt lat="45.941358553245664" lon="9.357407754287124">
        <ele>996.53999999999996</ele>
        <time>2017-05-14T13:23:17Z</time>
      </trkpt>
      <trkpt lat="45.941355871036649" lon="9.357410185039043">
        <ele>996.53999999999996</ele>
        <time>2017-05-14T13:23:18Z</time>
      </trkpt>
      <trkpt lat="45.941317146643996" lon="9.357414795085788">
        <ele>995.10000000000002</ele>
        <time>2017-05-14T13:23:24Z</time>
      </trkpt>
      <trkpt lat="45.941292839124799" lon="9.357385961338878">
        <ele>993.17999999999995</ele>
        <time>2017-05-14T13:23:29Z</time>
      </trkpt>
      <trkpt lat="45.941267609596252" lon="9.357357379049063">
        <ele>990.77999999999997</ele>
        <time>2017-05-14T13:23:39Z</time>
      </trkpt>
      <trkpt lat="45.941283032298088" lon="9.357318403199315">
        <ele>988.37</ele>
        <time>2017-05-14T13:23:48Z</time>
      </trkpt>
      <trkpt lat="45.941300634294748" lon="9.35728152282536">
        <ele>987.40999999999997</ele>
        <time>2017-05-14T13:23:56Z</time>
      </trkpt>
      <trkpt lat="45.941309183835983" lon="9.357209857553244">
        <ele>985.49000000000001</ele>
        <time>2017-05-14T13:24:06Z</time>
      </trkpt>
      <trkpt lat="45.941276242956519" lon="9.357247157022357">
        <ele>983.57000000000005</ele>
        <time>2017-05-14T13:24:16Z</time>
      </trkpt>
      <trkpt lat="45.941211031749845" lon="9.357312116771936">
        <ele>981.15999999999997</ele>
        <time>2017-05-14T13:24:27Z</time>
      </trkpt>
      <trkpt lat="45.941152274608612" lon="9.357336172834039">
        <ele>978.75999999999999</ele>
        <time>2017-05-14T13:24:38Z</time>
      </trkpt>
      <trkpt lat="45.941140288487077" lon="9.357331143692136">
        <ele>977.79999999999995</ele>
        <time>2017-05-14T13:24:40Z</time>
      </trkpt>
      <trkpt lat="45.941118830814958" lon="9.357236428186297">
        <ele>976.36000000000001</ele>
        <time>2017-05-14T13:24:48Z</time>
      </trkpt>
      <trkpt lat="45.941165518015623" lon="9.357125870883465">
        <ele>973.95000000000005</ele>
        <time>2017-05-14T13:25:01Z</time>
      </trkpt>
      <trkpt lat="45.941140707582235" lon="9.357138611376286">
        <ele>972.50999999999999</ele>
        <time>2017-05-14T13:25:11Z</time>
      </trkpt>
      <trkpt lat="45.941132660955191" lon="9.357151100412011">
        <ele>972.02999999999997</ele>
        <time>2017-05-14T13:25:13Z</time>
      </trkpt>
      <trkpt lat="45.9411062579602" lon="9.357182784006">
        <ele>971.07000000000005</ele>
        <time>2017-05-14T13:25:19Z</time>
      </trkpt>
      <trkpt lat="45.941058564931154" lon="9.357255538925529">
        <ele>969.63</ele>
        <time>2017-05-14T13:25:30Z</time>
      </trkpt>
      <trkpt lat="45.941023863852024" lon="9.357150513678789">
        <ele>968.17999999999995</ele>
        <time>2017-05-14T13:25:40Z</time>
      </trkpt>
      <trkpt lat="45.941044148057699" lon="9.357080776244402">
        <ele>966.25999999999999</ele>
        <time>2017-05-14T13:25:50Z</time>
      </trkpt>
      <trkpt lat="45.941070886328816" lon="9.357035597786307">
        <ele>964.82000000000005</ele>
        <time>2017-05-14T13:26:00Z</time>
      </trkpt>
      <trkpt lat="45.941043142229319" lon="9.35705428943038">
        <ele>962.41999999999996</ele>
        <time>2017-05-14T13:26:12Z</time>
      </trkpt>
      <trkpt lat="45.941005675122142" lon="9.357059905305505">
        <ele>960.49000000000001</ele>
        <time>2017-05-14T13:26:22Z</time>
      </trkpt>
      <trkpt lat="45.940943481400609" lon="9.357130061835051">
        <ele>957.61000000000001</ele>
        <time>2017-05-14T13:26:35Z</time>
      </trkpt>
      <trkpt lat="45.940874498337507" lon="9.357089074328542">
        <ele>955.69000000000005</ele>
        <time>2017-05-14T13:26:46Z</time>
      </trkpt>
      <trkpt lat="45.940889334306121" lon="9.356978600844741">
        <ele>952.79999999999995</ele>
        <time>2017-05-14T13:26:58Z</time>
      </trkpt>
      <trkpt lat="45.940918335691094" lon="9.35689989477396">
        <ele>950.88</ele>
        <time>2017-05-14T13:27:09Z</time>
      </trkpt>
      <trkpt lat="45.9409508574754" lon="9.356825463473797">
        <ele>948.48000000000002</ele>
        <time>2017-05-14T13:27:20Z</time>
      </trkpt>
      <trkpt lat="45.940980026498437" lon="9.356706188991666">
        <ele>945.59000000000003</ele>
        <time>2017-05-14T13:27:31Z</time>
      </trkpt>
      <trkpt lat="45.941011877730489" lon="9.356611892580986">
        <ele>943.19000000000005</ele>
        <time>2017-05-14T13:27:43Z</time>
      </trkpt>
      <trkpt lat="45.941036436706781" lon="9.356529079377651">
        <ele>941.26999999999998</ele>
        <time>2017-05-14T13:27:51Z</time>
      </trkpt>
      <trkpt lat="45.9410319942981" lon="9.356499072164297">
        <ele>939.83000000000004</ele>
        <time>2017-05-14T13:28:02Z</time>
      </trkpt>
      <trkpt lat="45.941010871902108" lon="9.356530336663127">
        <ele>938.38</ele>
        <time>2017-05-14T13:28:06Z</time>
      </trkpt>
      <trkpt lat="45.940968124195933" lon="9.35656713321805">
        <ele>936.94000000000005</ele>
        <time>2017-05-14T13:28:14Z</time>
      </trkpt>
      <trkpt lat="45.940906098112464" lon="9.356641732156277">
        <ele>934.53999999999996</ele>
        <time>2017-05-14T13:28:26Z</time>
      </trkpt>
      <trkpt lat="45.940839629620314" lon="9.356631757691503">
        <ele>932.62</ele>
        <time>2017-05-14T13:28:36Z</time>
      </trkpt>
      <trkpt lat="45.940839797258377" lon="9.356609042733908">
        <ele>932.13999999999999</ele>
        <time>2017-05-14T13:28:40Z</time>
      </trkpt>
      <trkpt lat="45.940890340134501" lon="9.356488091871142">
        <ele>930.21000000000004</ele>
        <time>2017-05-14T13:28:52Z</time>
      </trkpt>
      <trkpt lat="45.940890675410628" lon="9.35643520206213">
        <ele>928.28999999999996</ele>
        <time>2017-05-14T13:29:02Z</time>
      </trkpt>
      <trkpt lat="45.940867541357875" lon="9.356493540108204">
        <ele>925.40999999999997</ele>
        <time>2017-05-14T13:29:11Z</time>
      </trkpt>
      <trkpt lat="45.940808868035674" lon="9.356537964195013">
        <ele>923.48000000000002</ele>
        <time>2017-05-14T13:29:21Z</time>
      </trkpt>
      <trkpt lat="45.940737873315811" lon="9.356562439352274">
        <ele>921.55999999999995</ele>
        <time>2017-05-14T13:29:32Z</time>
      </trkpt>
      <trkpt lat="45.940681463107467" lon="9.356599571183324">
        <ele>919.63999999999999</ele>
        <time>2017-05-14T13:29:41Z</time>
      </trkpt>
      <trkpt lat="45.940628238022327" lon="9.356573671102524">
        <ele>918.20000000000005</ele>
        <time>2017-05-14T13:29:49Z</time>
      </trkpt>
      <trkpt lat="45.9405433293432" lon="9.356578281149268">
        <ele>915.78999999999996</ele>
        <time>2017-05-14T13:30:01Z</time>
      </trkpt>
      <trkpt lat="45.940470993518829" lon="9.356625135987997">
        <ele>912.42999999999995</ele>
        <time>2017-05-14T13:30:12Z</time>
      </trkpt>
      <trkpt lat="45.940447691828012" lon="9.356701914221048">
        <ele>910.02999999999997</ele>
        <time>2017-05-14T13:30:21Z</time>
      </trkpt>
      <trkpt lat="45.940424306318164" lon="9.356780117377639">
        <ele>906.65999999999997</ele>
        <time>2017-05-14T13:30:31Z</time>
      </trkpt>
      <trkpt lat="45.940379463136196" lon="9.356810795143247">
        <ele>905.22000000000003</ele>
        <time>2017-05-14T13:30:40Z</time>
      </trkpt>
      <trkpt lat="45.940336380153894" lon="9.356794869527221">
        <ele>903.77999999999997</ele>
        <time>2017-05-14T13:30:45Z</time>
      </trkpt>
      <trkpt lat="45.940283993259072" lon="9.356792774051428">
        <ele>903.29999999999995</ele>
        <time>2017-05-14T13:30:56Z</time>
      </trkpt>
      <trkpt lat="45.940201263874769" lon="9.356738207861781">
        <ele>901.85000000000002</ele>
        <time>2017-05-14T13:31:05Z</time>
      </trkpt>
      <trkpt lat="45.940124485641718" lon="9.356659250333905">
        <ele>900.40999999999997</ele>
        <time>2017-05-14T13:31:15Z</time>
      </trkpt>
      <trkpt lat="45.940107805654407" lon="9.356612646952272">
        <ele>899.45000000000005</ele>
        <time>2017-05-14T13:31:25Z</time>
      </trkpt>
      <trkpt lat="45.940088359639049" lon="9.356590183451772">
        <ele>899.45000000000005</ele>
        <time>2017-05-14T13:31:30Z</time>
      </trkpt>
      <trkpt lat="45.940033122897148" lon="9.356513991951942">
        <ele>897.52999999999997</ele>
        <time>2017-05-14T13:31:42Z</time>
      </trkpt>
      <trkpt lat="45.940014431253076" lon="9.356471411883831">
        <ele>897.52999999999997</ele>
        <time>2017-05-14T13:31:46Z</time>
      </trkpt>
      <trkpt lat="45.939966989681125" lon="9.356372840702534">
        <ele>896.57000000000005</ele>
        <time>2017-05-14T13:31:53Z</time>
      </trkpt>
      <trkpt lat="45.939946034923196" lon="9.356353729963303">
        <ele>896.09000000000003</ele>
        <time>2017-05-14T13:31:55Z</time>
      </trkpt>
      <trkpt lat="45.93986950814724" lon="9.356157928705216">
        <ele>895.12</ele>
        <time>2017-05-14T13:32:09Z</time>
      </trkpt>
      <trkpt lat="45.939817624166608" lon="9.356077378615737">
        <ele>893.67999999999995</ele>
        <time>2017-05-14T13:32:16Z</time>
      </trkpt>
      <trkpt lat="45.939701618626714" lon="9.355957182124257">
        <ele>892.24000000000001</ele>
        <time>2017-05-14T13:32:30Z</time>
      </trkpt>
      <trkpt lat="45.939619643613696" lon="9.355836734175682">
        <ele>890.32000000000005</ele>
        <time>2017-05-14T13:32:40Z</time>
      </trkpt>
      <trkpt lat="45.939598688855767" lon="9.355779485777021">
        <ele>889.84000000000003</ele>
        <time>2017-05-14T13:32:44Z</time>
      </trkpt>
      <trkpt lat="45.939581338316202" lon="9.355752831324935">
        <ele>889.36000000000001</ele>
        <time>2017-05-14T13:32:47Z</time>
      </trkpt>
      <trkpt lat="45.939521826803684" lon="9.355589635670185">
        <ele>886.47000000000003</ele>
        <time>2017-05-14T13:33:01Z</time>
      </trkpt>
      <trkpt lat="45.939427111297846" lon="9.355450747534633">
        <ele>883.59000000000003</ele>
        <time>2017-05-14T13:33:14Z</time>
      </trkpt>
      <trkpt lat="45.939386459067464" lon="9.355376148596406">
        <ele>881.66999999999996</ele>
        <time>2017-05-14T13:33:21Z</time>
      </trkpt>
      <trkpt lat="45.939357960596681" lon="9.355274392291904">
        <ele>880.71000000000004</ele>
        <time>2017-05-14T13:33:29Z</time>
      </trkpt>
      <trkpt lat="45.939352512359619" lon="9.355244385078549">
        <ele>880.71000000000004</ele>
        <time>2017-05-14T13:33:31Z</time>
      </trkpt>
      <trkpt lat="45.939301215112209" lon="9.355043889954686">
        <ele>878.77999999999997</ele>
        <time>2017-05-14T13:33:45Z</time>
      </trkpt>
      <trkpt lat="45.939274644479156" lon="9.354881197214127">
        <ele>876.38</ele>
        <time>2017-05-14T13:33:56Z</time>
      </trkpt>
      <trkpt lat="45.939214127138257" lon="9.354736106470227">
        <ele>876.38</ele>
        <time>2017-05-14T13:34:08Z</time>
      </trkpt>
      <trkpt lat="45.939144976437092" lon="9.354665949940682">
        <ele>873.00999999999999</ele>
        <time>2017-05-14T13:34:17Z</time>
      </trkpt>
      <trkpt lat="45.939054535701871" lon="9.354556649923325">
        <ele>870.13</ele>
        <time>2017-05-14T13:34:30Z</time>
      </trkpt>
      <trkpt lat="45.938973482698202" lon="9.354477524757385">
        <ele>867.25</ele>
        <time>2017-05-14T13:34:41Z</time>
      </trkpt>
      <trkpt lat="45.938882790505886" lon="9.354393957182765">
        <ele>864.84000000000003</ele>
        <time>2017-05-14T13:34:52Z</time>
      </trkpt>
      <trkpt lat="45.938784806057811" lon="9.354317346587777">
        <ele>862.44000000000005</ele>
        <time>2017-05-14T13:35:04Z</time>
      </trkpt>
      <trkpt lat="45.938665196299553" lon="9.354217853397131">
        <ele>860.51999999999998</ele>
        <time>2017-05-14T13:35:16Z</time>
      </trkpt>
      <trkpt lat="45.938635692000389" lon="9.35418214648962">
        <ele>860.03999999999996</ele>
        <time>2017-05-14T13:35:20Z</time>
      </trkpt>
      <trkpt lat="45.938593447208405" lon="9.354118527844548">
        <ele>859.08000000000004</ele>
        <time>2017-05-14T13:35:26Z</time>
      </trkpt>
      <trkpt lat="45.938536198809743" lon="9.354032278060913">
        <ele>857.14999999999998</ele>
        <time>2017-05-14T13:35:35Z</time>
      </trkpt>
      <trkpt lat="45.938466293737292" lon="9.353903280571103">
        <ele>854.75</ele>
        <time>2017-05-14T13:35:48Z</time>
      </trkpt>
      <trkpt lat="45.938382977619767" lon="9.353846115991473">
        <ele>852.35000000000002</ele>
        <time>2017-05-14T13:36:01Z</time>
      </trkpt>
      <trkpt lat="45.938357412815094" lon="9.353835051879287">
        <ele>850.89999999999998</ele>
        <time>2017-05-14T13:36:06Z</time>
      </trkpt>
      <trkpt lat="45.938352886587381" lon="9.353829687461257">
        <ele>850.41999999999996</ele>
        <time>2017-05-14T13:36:07Z</time>
      </trkpt>
      <trkpt lat="45.938319442793727" lon="9.353791968896985">
        <ele>849.46000000000004</ele>
        <time>2017-05-14T13:36:10Z</time>
      </trkpt>
      <trkpt lat="45.938222547993064" lon="9.353635478764772">
        <ele>848.01999999999998</ele>
        <time>2017-05-14T13:36:23Z</time>
      </trkpt>
      <trkpt lat="45.938172591850162" lon="9.353550570085645">
        <ele>846.58000000000004</ele>
        <time>2017-05-14T13:36:33Z</time>
      </trkpt>
      <trkpt lat="45.938119618222117" lon="9.353478569537401">
        <ele>845.13999999999999</ele>
        <time>2017-05-14T13:36:43Z</time>
      </trkpt>
      <trkpt lat="45.938095394521952" lon="9.353431044146419">
        <ele>844.65999999999997</ele>
        <time>2017-05-14T13:36:47Z</time>
      </trkpt>
      <trkpt lat="45.938054993748665" lon="9.353363737463951">
        <ele>843.69000000000005</ele>
        <time>2017-05-14T13:36:53Z</time>
      </trkpt>
      <trkpt lat="45.937977964058518" lon="9.353218311443925">
        <ele>841.28999999999996</ele>
        <time>2017-05-14T13:37:06Z</time>
      </trkpt>
      <trkpt lat="45.937950052320957" lon="9.35315310023725">
        <ele>840.80999999999995</ele>
        <time>2017-05-14T13:37:17Z</time>
      </trkpt>
      <trkpt lat="45.937945526093245" lon="9.353152848780155">
        <ele>840.80999999999995</ele>
        <time>2017-05-14T13:37:23Z</time>
      </trkpt>
      <trkpt lat="45.937878722324967" lon="9.353065006434917">
        <ele>838.88999999999999</ele>
        <time>2017-05-14T13:37:35Z</time>
      </trkpt>
      <trkpt lat="45.937810242176056" lon="9.353019157424569">
        <ele>837.45000000000005</ele>
        <time>2017-05-14T13:37:45Z</time>
      </trkpt>
      <trkpt lat="45.937732290476561" lon="9.352938272058964">
        <ele>835.03999999999996</ele>
        <time>2017-05-14T13:37:57Z</time>
      </trkpt>
      <trkpt lat="45.937667246907949" lon="9.352830480784178">
        <ele>833.12</ele>
        <time>2017-05-14T13:38:08Z</time>
      </trkpt>
      <trkpt lat="45.937612177804112" lon="9.352766443043947">
        <ele>831.67999999999995</ele>
        <time>2017-05-14T13:38:17Z</time>
      </trkpt>
      <trkpt lat="45.937494328245521" lon="9.352732580155134">
        <ele>828.78999999999996</ele>
        <time>2017-05-14T13:38:38Z</time>
      </trkpt>
      <trkpt lat="45.937437666580081" lon="9.352728892117739">
        <ele>827.35000000000002</ele>
        <time>2017-05-14T13:38:49Z</time>
      </trkpt>
      <trkpt lat="45.937422243878245" lon="9.352719504386187">
        <ele>826.38999999999999</ele>
        <time>2017-05-14T13:38:52Z</time>
      </trkpt>
      <trkpt lat="45.937339095398784" lon="9.352678349241614">
        <ele>824.95000000000005</ele>
        <time>2017-05-14T13:38:59Z</time>
      </trkpt>
      <trkpt lat="45.937219150364399" lon="9.352601571008563">
        <ele>822.05999999999995</ele>
        <time>2017-05-14T13:39:11Z</time>
      </trkpt>
      <trkpt lat="45.937112448737025" lon="9.352494031190872">
        <ele>819.17999999999995</ele>
        <time>2017-05-14T13:39:24Z</time>
      </trkpt>
      <trkpt lat="45.9370481595397" lon="9.352434687316418">
        <ele>817.74000000000001</ele>
        <time>2017-05-14T13:39:33Z</time>
      </trkpt>
      <trkpt lat="45.936947241425514" lon="9.352403087541461">
        <ele>815.34000000000003</ele>
        <time>2017-05-14T13:39:45Z</time>
      </trkpt>
      <trkpt lat="45.936863841488957" lon="9.352392861619592">
        <ele>813.88999999999999</ele>
        <time>2017-05-14T13:39:57Z</time>
      </trkpt>
      <trkpt lat="45.93679460696876" lon="9.352492690086365">
        <ele>811.00999999999999</ele>
        <time>2017-05-14T13:40:08Z</time>
      </trkpt>
      <trkpt lat="45.936786895617843" lon="9.352503167465329">
        <ele>810.52999999999997</ele>
        <time>2017-05-14T13:40:09Z</time>
      </trkpt>
      <trkpt lat="45.936744483187795" lon="9.352526301518083">
        <ele>810.04999999999995</ele>
        <time>2017-05-14T13:40:20Z</time>
      </trkpt>
      <trkpt lat="45.936718080192804" lon="9.352544909343123">
        <ele>809.57000000000005</ele>
        <time>2017-05-14T13:40:37Z</time>
      </trkpt>
      <trkpt lat="45.936686983332038" lon="9.352563517168164">
        <ele>809.57000000000005</ele>
        <time>2017-05-14T13:41:00Z</time>
      </trkpt>
      <trkpt lat="45.936690336093307" lon="9.352567289024591">
        <ele>809.57000000000005</ele>
        <time>2017-05-14T13:41:15Z</time>
      </trkpt>
      <trkpt lat="45.936676086857915" lon="9.352604001760483">
        <ele>806.67999999999995</ele>
        <time>2017-05-14T13:41:25Z</time>
      </trkpt>
      <trkpt lat="45.936608780175447" lon="9.35258824378252">
        <ele>804.75999999999999</ele>
        <time>2017-05-14T13:41:35Z</time>
      </trkpt>
      <trkpt lat="45.936591848731041" lon="9.352523619309068">
        <ele>803.32000000000005</ele>
        <time>2017-05-14T13:41:43Z</time>
      </trkpt>
      <trkpt lat="45.936633171513677" lon="9.352422952651978">
        <ele>801.39999999999998</ele>
        <time>2017-05-14T13:41:55Z</time>
      </trkpt>
      <trkpt lat="45.93663576990366" lon="9.352413984015584">
        <ele>800.44000000000005</ele>
        <time>2017-05-14T13:41:56Z</time>
      </trkpt>
      <trkpt lat="45.936643816530704" lon="9.352251039817929">
        <ele>798.02999999999997</ele>
        <time>2017-05-14T13:42:09Z</time>
      </trkpt>
      <trkpt lat="45.936636105179787" lon="9.352228995412588">
        <ele>796.11000000000001</ele>
        <time>2017-05-14T13:42:19Z</time>
      </trkpt>
      <trkpt lat="45.936616407707334" lon="9.352156575769186">
        <ele>794.19000000000005</ele>
        <time>2017-05-14T13:42:30Z</time>
      </trkpt>
      <trkpt lat="45.936605762690306" lon="9.35214844532311">
        <ele>794.19000000000005</ele>
        <time>2017-05-14T13:42:33Z</time>
      </trkpt>
      <trkpt lat="45.936568547040224" lon="9.352078540250659">
        <ele>792.25999999999999</ele>
        <time>2017-05-14T13:42:40Z</time>
      </trkpt>
      <trkpt lat="45.936546083539724" lon="9.351976700127125">
        <ele>790.34000000000003</ele>
        <time>2017-05-14T13:42:52Z</time>
      </trkpt>
      <trkpt lat="45.936545412987471" lon="9.351922804489732">
        <ele>787.94000000000005</ele>
        <time>2017-05-14T13:43:01Z</time>
      </trkpt>
      <trkpt lat="45.936498725786805" lon="9.351995727047324">
        <ele>785.52999999999997</ele>
        <time>2017-05-14T13:43:10Z</time>
      </trkpt>
      <trkpt lat="45.936485398560762" lon="9.352039061486721">
        <ele>784.57000000000005</ele>
        <time>2017-05-14T13:43:14Z</time>
      </trkpt>
      <trkpt lat="45.936488667502999" lon="9.352178955450654">
        <ele>782.16999999999996</ele>
        <time>2017-05-14T13:43:25Z</time>
      </trkpt>
      <trkpt lat="45.93648330308497" lon="9.352214494720101">
        <ele>781.69000000000005</ele>
        <time>2017-05-14T13:43:28Z</time>
      </trkpt>
      <trkpt lat="45.936392610892653" lon="9.35233561322093">
        <ele>779.28999999999996</ele>
        <time>2017-05-14T13:43:40Z</time>
      </trkpt>
      <trkpt lat="45.936323627829552" lon="9.352370230481029">
        <ele>777.84000000000003</ele>
        <time>2017-05-14T13:43:48Z</time>
      </trkpt>
      <trkpt lat="45.936235785484314" lon="9.352439967915416">
        <ele>777.84000000000003</ele>
        <time>2017-05-14T13:43:59Z</time>
      </trkpt>
      <trkpt lat="45.936223715543747" lon="9.352457234635949">
        <ele>775.91999999999996</ele>
        <time>2017-05-14T13:44:01Z</time>
      </trkpt>
      <trkpt lat="45.936141237616539" lon="9.352497719228268">
        <ele>775.44000000000005</ele>
        <time>2017-05-14T13:44:12Z</time>
      </trkpt>
      <trkpt lat="45.936048366129398" lon="9.352521607652307">
        <ele>774.48000000000002</ele>
        <time>2017-05-14T13:44:22Z</time>
      </trkpt>
      <trkpt lat="45.935970079153776" lon="9.352551279589534">
        <ele>774</ele>
        <time>2017-05-14T13:44:29Z</time>
      </trkpt>
      <trkpt lat="45.935811661183834" lon="9.352586399763823">
        <ele>774</ele>
        <time>2017-05-14T13:44:43Z</time>
      </trkpt>
      <trkpt lat="45.935664558783174" lon="9.352588495239615">
        <ele>774</ele>
        <time>2017-05-14T13:44:55Z</time>
      </trkpt>
      <trkpt lat="45.935508739203215" lon="9.352682707831264">
        <ele>774.48000000000002</ele>
        <time>2017-05-14T13:45:05Z</time>
      </trkpt>
      <trkpt lat="45.935492729768157" lon="9.352698465809226">
        <ele>774</ele>
        <time>2017-05-14T13:45:13Z</time>
      </trkpt>
      <trkpt lat="45.935487532988191" lon="9.35270550660789">
        <ele>774</ele>
        <time>2017-05-14T13:45:14Z</time>
      </trkpt>
      <trkpt lat="45.935445874929428" lon="9.352829055860639">
        <ele>772.55999999999995</ele>
        <time>2017-05-14T13:45:24Z</time>
      </trkpt>
      <trkpt lat="45.935419052839279" lon="9.352905247360468">
        <ele>771.60000000000002</ele>
        <time>2017-05-14T13:45:29Z</time>
      </trkpt>
      <trkpt lat="45.935344956815243" lon="9.353028377518058">
        <ele>768.71000000000004</ele>
        <time>2017-05-14T13:45:43Z</time>
      </trkpt>
      <trkpt lat="45.935369767248631" lon="9.353075064718723">
        <ele>767.26999999999998</ele>
        <time>2017-05-14T13:45:49Z</time>
      </trkpt>
      <trkpt lat="45.935411592945457" lon="9.353174725547433">
        <ele>764.87</ele>
        <time>2017-05-14T13:45:58Z</time>
      </trkpt>
      <trkpt lat="45.93546406365931" lon="9.353311434388161">
        <ele>762.46000000000004</ele>
        <time>2017-05-14T13:46:11Z</time>
      </trkpt>
      <trkpt lat="45.935487449169159" lon="9.353365665301681">
        <ele>761.01999999999998</ele>
        <time>2017-05-14T13:46:16Z</time>
      </trkpt>
      <trkpt lat="45.935503374785185" lon="9.353460213169456">
        <ele>759.58000000000004</ele>
        <time>2017-05-14T13:46:22Z</time>
      </trkpt>
      <trkpt lat="45.935519216582179" lon="9.353631790727377">
        <ele>756.21000000000004</ele>
        <time>2017-05-14T13:46:34Z</time>
      </trkpt>
      <trkpt lat="45.93552416190505" lon="9.353732038289309">
        <ele>754.28999999999996</ele>
        <time>2017-05-14T13:46:43Z</time>
      </trkpt>
      <trkpt lat="45.935556599870324" lon="9.353757854551077">
        <ele>753.80999999999995</ele>
        <time>2017-05-14T13:46:46Z</time>
      </trkpt>
      <trkpt lat="45.93559255823493" lon="9.353824909776449">
        <ele>751.88999999999999</ele>
        <time>2017-05-14T13:46:52Z</time>
      </trkpt>
      <trkpt lat="45.935486359521747" lon="9.353857850655913">
        <ele>749.97000000000003</ele>
        <time>2017-05-14T13:47:02Z</time>
      </trkpt>
      <trkpt lat="45.93537949025631" lon="9.353853659704328">
        <ele>747.55999999999995</ele>
        <time>2017-05-14T13:47:13Z</time>
      </trkpt>
      <trkpt lat="45.935263652354479" lon="9.353867154568434">
        <ele>745.15999999999997</ele>
        <time>2017-05-14T13:47:23Z</time>
      </trkpt>
      <trkpt lat="45.935170529410243" lon="9.353960026055574">
        <ele>742.27999999999997</ele>
        <time>2017-05-14T13:47:35Z</time>
      </trkpt>
      <trkpt lat="45.935152089223266" lon="9.354009814560413">
        <ele>740.35000000000002</ele>
        <time>2017-05-14T13:47:40Z</time>
      </trkpt>
      <trkpt lat="45.935103474184871" lon="9.354117019101977">
        <ele>737.47000000000003</ele>
        <time>2017-05-14T13:47:50Z</time>
      </trkpt>
      <trkpt lat="45.935026444494724" lon="9.354233276098967">
        <ele>735.07000000000005</ele>
        <time>2017-05-14T13:48:01Z</time>
      </trkpt>
      <trkpt lat="45.935007920488715" lon="9.354272335767746">
        <ele>733.62</ele>
        <time>2017-05-14T13:48:06Z</time>
      </trkpt>
      <trkpt lat="45.934990905225277" lon="9.354290356859565">
        <ele>733.13999999999999</ele>
        <time>2017-05-14T13:48:08Z</time>
      </trkpt>
      <trkpt lat="45.934960143640637" lon="9.354320866987109">
        <ele>731.70000000000005</ele>
        <time>2017-05-14T13:48:13Z</time>
      </trkpt>
      <trkpt lat="45.934908511117101" lon="9.354292452335358">
        <ele>729.77999999999997</ele>
        <time>2017-05-14T13:48:21Z</time>
      </trkpt>
      <trkpt lat="45.934827709570527" lon="9.354275353252888">
        <ele>727.37</ele>
        <time>2017-05-14T13:48:31Z</time>
      </trkpt>
      <trkpt lat="45.934730814769864" lon="9.354226905852556">
        <ele>724.97000000000003</ele>
        <time>2017-05-14T13:48:42Z</time>
      </trkpt>
      <trkpt lat="45.934642134234309" lon="9.354126323014498">
        <ele>721.61000000000001</ele>
        <time>2017-05-14T13:48:53Z</time>
      </trkpt>
      <trkpt lat="45.934636769816279" lon="9.354116935282946">
        <ele>721.61000000000001</ele>
        <time>2017-05-14T13:48:54Z</time>
      </trkpt>
      <trkpt lat="45.93455177731812" lon="9.354026075452566">
        <ele>718.24000000000001</ele>
        <time>2017-05-14T13:49:07Z</time>
      </trkpt>
      <trkpt lat="45.934453625231981" lon="9.353970335796475">
        <ele>715.36000000000001</ele>
        <time>2017-05-14T13:49:19Z</time>
      </trkpt>
      <trkpt lat="45.9344232827425" lon="9.353943765163422">
        <ele>714.39999999999998</ele>
        <time>2017-05-14T13:49:22Z</time>
      </trkpt>
      <trkpt lat="45.934348767623305" lon="9.353916859254241">
        <ele>711.50999999999999</ele>
        <time>2017-05-14T13:49:34Z</time>
      </trkpt>
      <trkpt lat="45.934278024360538" lon="9.353957092389464">
        <ele>708.63</ele>
        <time>2017-05-14T13:49:45Z</time>
      </trkpt>
      <trkpt lat="45.934274084866047" lon="9.353930689394474">
        <ele>708.14999999999998</ele>
        <time>2017-05-14T13:49:47Z</time>
      </trkpt>
      <trkpt lat="45.934234019368887" lon="9.353815438225865">
        <ele>705.25999999999999</ele>
        <time>2017-05-14T13:49:59Z</time>
      </trkpt>
      <trkpt lat="45.934192361310124" lon="9.353768499568105">
        <ele>703.82000000000005</ele>
        <time>2017-05-14T13:50:11Z</time>
      </trkpt>
      <trkpt lat="45.934174424037337" lon="9.353799847885966">
        <ele>701.89999999999998</ele>
        <time>2017-05-14T13:50:14Z</time>
      </trkpt>
      <trkpt lat="45.934183057397604" lon="9.353914679959416">
        <ele>699.01999999999998</ele>
        <time>2017-05-14T13:50:25Z</time>
      </trkpt>
      <trkpt lat="45.934194037690759" lon="9.353943513706327">
        <ele>698.52999999999997</ele>
        <time>2017-05-14T13:50:28Z</time>
      </trkpt>
      <trkpt lat="45.934184566140175" lon="9.353971593081951">
        <ele>697.57000000000005</ele>
        <time>2017-05-14T13:50:32Z</time>
      </trkpt>
      <trkpt lat="45.934064788743854" lon="9.353893222287297">
        <ele>695.16999999999996</ele>
        <time>2017-05-14T13:50:46Z</time>
      </trkpt>
      <trkpt lat="45.934090353548527" lon="9.353940328583121">
        <ele>693.73000000000002</ele>
        <time>2017-05-14T13:50:52Z</time>
      </trkpt>
      <trkpt lat="45.934128491207957" lon="9.354014424607158">
        <ele>691.80999999999995</ele>
        <time>2017-05-14T13:51:01Z</time>
      </trkpt>
      <trkpt lat="45.934073589742184" lon="9.35397888533771">
        <ele>689.88</ele>
        <time>2017-05-14T13:51:10Z</time>
      </trkpt>
      <trkpt lat="45.933998823165894" lon="9.353917865082622">
        <ele>687</ele>
        <time>2017-05-14T13:51:21Z</time>
      </trkpt>
      <trkpt lat="45.933995386585593" lon="9.353944687172771">
        <ele>685.08000000000004</ele>
        <time>2017-05-14T13:51:31Z</time>
      </trkpt>
      <trkpt lat="45.934035116806626" lon="9.354025907814503">
        <ele>682.66999999999996</ele>
        <time>2017-05-14T13:51:40Z</time>
      </trkpt>
      <trkpt lat="45.933979544788599" lon="9.354086928069592">
        <ele>680.75</ele>
        <time>2017-05-14T13:51:50Z</time>
      </trkpt>
      <trkpt lat="45.933971246704459" lon="9.353991625830531">
        <ele>678.83000000000004</ele>
        <time>2017-05-14T13:52:00Z</time>
      </trkpt>
      <trkpt lat="45.933944927528501" lon="9.354026662185788">
        <ele>677.38999999999999</ele>
        <time>2017-05-14T13:52:10Z</time>
      </trkpt>
      <trkpt lat="45.933911567553878" lon="9.354107547551394">
        <ele>674.98000000000002</ele>
        <time>2017-05-14T13:52:19Z</time>
      </trkpt>
      <trkpt lat="45.933864209800959" lon="9.354054154828191">
        <ele>673.05999999999995</ele>
        <time>2017-05-14T13:52:28Z</time>
      </trkpt>
      <trkpt lat="45.933853732421994" lon="9.353961870074272">
        <ele>671.13999999999999</ele>
        <time>2017-05-14T13:52:38Z</time>
      </trkpt>
      <trkpt lat="45.933832358568907" lon="9.353914428502321">
        <ele>668.73000000000002</ele>
        <time>2017-05-14T13:52:49Z</time>
      </trkpt>
      <trkpt lat="45.933831436559558" lon="9.354023057967424">
        <ele>666.80999999999995</ele>
        <time>2017-05-14T13:52:58Z</time>
      </trkpt>
      <trkpt lat="45.93378852121532" lon="9.353999169543386">
        <ele>664.88999999999999</ele>
        <time>2017-05-14T13:53:07Z</time>
      </trkpt>
      <trkpt lat="45.933775445446372" lon="9.353907471522689">
        <ele>662.97000000000003</ele>
        <time>2017-05-14T13:53:17Z</time>
      </trkpt>
      <trkpt lat="45.933765219524503" lon="9.353923061862588">
        <ele>660.55999999999995</ele>
        <time>2017-05-14T13:53:28Z</time>
      </trkpt>
      <trkpt lat="45.933744432404637" lon="9.353989278897643">
        <ele>658.63999999999999</ele>
        <time>2017-05-14T13:53:37Z</time>
      </trkpt>
      <trkpt lat="45.933715766295791" lon="9.353888193145394">
        <ele>656.72000000000003</ele>
        <time>2017-05-14T13:53:47Z</time>
      </trkpt>
      <trkpt lat="45.933687686920166" lon="9.353852737694979">
        <ele>653.83000000000004</ele>
        <time>2017-05-14T13:54:00Z</time>
      </trkpt>
      <trkpt lat="45.93364879488945" lon="9.353908644989133">
        <ele>651.90999999999997</ele>
        <time>2017-05-14T13:54:09Z</time>
      </trkpt>
      <trkpt lat="45.933640329167247" lon="9.353842427954078">
        <ele>650.95000000000005</ele>
        <time>2017-05-14T13:54:14Z</time>
      </trkpt>
      <trkpt lat="45.933652315288782" lon="9.35368862003088">
        <ele>647.59000000000003</ele>
        <time>2017-05-14T13:54:28Z</time>
      </trkpt>
      <trkpt lat="45.933635551482439" lon="9.353691302239895">
        <ele>646.62</ele>
        <time>2017-05-14T13:54:33Z</time>
      </trkpt>
      <trkpt lat="45.933579811826348" lon="9.353831112384796">
        <ele>643.74000000000001</ele>
        <time>2017-05-14T13:54:46Z</time>
      </trkpt>
      <trkpt lat="45.933556593954563" lon="9.353786604478955">
        <ele>642.77999999999997</ele>
        <time>2017-05-14T13:54:51Z</time>
      </trkpt>
      <trkpt lat="45.933491634204984" lon="9.353680573403835">
        <ele>639.88999999999999</ele>
        <time>2017-05-14T13:55:03Z</time>
      </trkpt>
      <trkpt lat="45.933485934510827" lon="9.353719046339393">
        <ele>638.45000000000005</ele>
        <time>2017-05-14T13:55:11Z</time>
      </trkpt>
      <trkpt lat="45.933501943945885" lon="9.353791298344731">
        <ele>637.00999999999999</ele>
        <time>2017-05-14T13:55:18Z</time>
      </trkpt>
      <trkpt lat="45.933480486273766" lon="9.353799177333713">
        <ele>635.57000000000005</ele>
        <time>2017-05-14T13:55:26Z</time>
      </trkpt>
      <trkpt lat="45.933405971154571" lon="9.353715777397156">
        <ele>632.20000000000005</ele>
        <time>2017-05-14T13:55:39Z</time>
      </trkpt>
      <trkpt lat="45.933380573987961" lon="9.353715609759092">
        <ele>630.27999999999997</ele>
        <time>2017-05-14T13:55:48Z</time>
      </trkpt>
      <trkpt lat="45.933418879285455" lon="9.353798255324364">
        <ele>628.36000000000001</ele>
        <time>2017-05-14T13:55:58Z</time>
      </trkpt>
      <trkpt lat="45.933438744395971" lon="9.353884840384126">
        <ele>625.96000000000004</ele>
        <time>2017-05-14T13:56:08Z</time>
      </trkpt>
      <trkpt lat="45.933425836265087" lon="9.35394024476409">
        <ele>624.99000000000001</ele>
        <time>2017-05-14T13:56:17Z</time>
      </trkpt>
      <trkpt lat="45.933394404128194" lon="9.353991625830531">
        <ele>624.02999999999997</ele>
        <time>2017-05-14T13:56:27Z</time>
      </trkpt>
      <trkpt lat="45.933394404128194" lon="9.354005707427859">
        <ele>623.54999999999995</ele>
        <time>2017-05-14T13:56:34Z</time>
      </trkpt>
      <trkpt lat="45.933364313095808" lon="9.354026494547725">
        <ele>623.54999999999995</ele>
        <time>2017-05-14T13:56:45Z</time>
      </trkpt>
      <trkpt lat="45.933365570381284" lon="9.354040743783116">
        <ele>621.63</ele>
        <time>2017-05-14T13:56:54Z</time>
      </trkpt>
      <trkpt lat="45.933294827118516" lon="9.354069158434868">
        <ele>618.25999999999999</ele>
        <time>2017-05-14T13:57:07Z</time>
      </trkpt>
      <trkpt lat="45.933249061927199" lon="9.354059603065252">
        <ele>616.34000000000003</ele>
        <time>2017-05-14T13:57:16Z</time>
      </trkpt>
      <trkpt lat="45.933242859318852" lon="9.353961870074272">
        <ele>613.94000000000005</ele>
        <time>2017-05-14T13:57:27Z</time>
      </trkpt>
      <trkpt lat="45.933250151574612" lon="9.353957260027528">
        <ele>613.46000000000004</ele>
        <time>2017-05-14T13:57:28Z</time>
      </trkpt>
      <trkpt lat="45.933248307555914" lon="9.353940580040216">
        <ele>612.01999999999998</ele>
        <time>2017-05-14T13:57:38Z</time>
      </trkpt>
      <trkpt lat="45.933230873197317" lon="9.353969497606158">
        <ele>610.09000000000003</ele>
        <time>2017-05-14T13:57:47Z</time>
      </trkpt>
      <trkpt lat="45.933184353634715" lon="9.354006377980113">
        <ele>608.16999999999996</ele>
        <time>2017-05-14T13:57:57Z</time>
      </trkpt>
      <trkpt lat="45.933161973953247" lon="9.354064045473933">
        <ele>606.25</ele>
        <time>2017-05-14T13:58:06Z</time>
      </trkpt>
      <trkpt lat="45.933139091357589" lon="9.354124311357737">
        <ele>605.28999999999996</ele>
        <time>2017-05-14T13:58:19Z</time>
      </trkpt>
      <trkpt lat="45.933095589280128" lon="9.35415674932301">
        <ele>604.80999999999995</ele>
        <time>2017-05-14T13:58:28Z</time>
      </trkpt>
      <trkpt lat="45.93309324234724" lon="9.35416697524488">
        <ele>604.33000000000004</ele>
        <time>2017-05-14T13:58:37Z</time>
      </trkpt>
      <trkpt lat="45.933081759139895" lon="9.354162868112326">
        <ele>604.80999999999995</ele>
        <time>2017-05-14T13:58:49Z</time>
      </trkpt>
      <trkpt lat="45.933030713349581" lon="9.354116935282946">
        <ele>605.76999999999998</ele>
        <time>2017-05-14T13:58:58Z</time>
      </trkpt>
      <trkpt lat="45.933050159364939" lon="9.354090113192797">
        <ele>605.28999999999996</ele>
        <time>2017-05-14T13:59:06Z</time>
      </trkpt>
      <trkpt lat="45.933058876544237" lon="9.354040157049894">
        <ele>604.80999999999995</ele>
        <time>2017-05-14T13:59:21Z</time>
      </trkpt>
      <trkpt lat="45.933025432750583" lon="9.353971676900983">
        <ele>605.28999999999996</ele>
        <time>2017-05-14T13:59:39Z</time>
      </trkpt>
      <trkpt lat="45.933016715571284" lon="9.353960361331701">
        <ele>604.80999999999995</ele>
        <time>2017-05-14T14:00:00Z</time>
      </trkpt>
      <trkpt lat="45.933051081374288" lon="9.354031272232533">
        <ele>604.80999999999995</ele>
        <time>2017-05-14T14:00:20Z</time>
      </trkpt>
      <trkpt lat="45.933059463277459" lon="9.354033451527357">
        <ele>604.80999999999995</ele>
        <time>2017-05-14T14:00:37Z</time>
      </trkpt>
      <trkpt lat="45.933070778846741" lon="9.35402381233871">
        <ele>604.80999999999995</ele>
        <time>2017-05-14T14:00:51Z</time>
      </trkpt>
      <trkpt lat="45.933063989505172" lon="9.354022722691298">
        <ele>605.28999999999996</ele>
        <time>2017-05-14T14:01:09Z</time>
      </trkpt>
      <trkpt lat="45.933028450235724" lon="9.354038396850228">
        <ele>605.28999999999996</ele>
        <time>2017-05-14T14:01:36Z</time>
      </trkpt>
      <trkpt lat="45.933085614815354" lon="9.354066895321012">
        <ele>605.76999999999998</ele>
        <time>2017-05-14T14:01:56Z</time>
      </trkpt>
      <trkpt lat="45.933108665049076" lon="9.354075863957405">
        <ele>605.76999999999998</ele>
        <time>2017-05-14T14:02:11Z</time>
      </trkpt>
      <trkpt lat="45.933043956756592" lon="9.354062955826521">
        <ele>605.76999999999998</ele>
        <time>2017-05-14T14:02:32Z</time>
      </trkpt>
      <trkpt lat="45.933070946484804" lon="9.354053568094969">
        <ele>606.25</ele>
        <time>2017-05-14T14:02:51Z</time>
      </trkpt>
      <trkpt lat="45.933072790503502" lon="9.354085754603148">
        <ele>605.76999999999998</ele>
        <time>2017-05-14T14:03:10Z</time>
      </trkpt>
      <trkpt lat="45.933080250397325" lon="9.354064045473933">
        <ele>606.25</ele>
        <time>2017-05-14T14:03:25Z</time>
      </trkpt>
      <trkpt lat="45.933164488524199" lon="9.35406488366425">
        <ele>606.25</ele>
        <time>2017-05-14T14:03:50Z</time>
      </trkpt>
      <trkpt lat="45.933183683082461" lon="9.354074271395803">
        <ele>606.25</ele>
        <time>2017-05-14T14:04:08Z</time>
      </trkpt>
      <trkpt lat="45.933186616748571" lon="9.354133447632194">
        <ele>606.25</ele>
        <time>2017-05-14T14:04:28Z</time>
      </trkpt>
      <trkpt lat="45.933280745521188" lon="9.354109140112996">
        <ele>606.25</ele>
        <time>2017-05-14T14:04:44Z</time>
      </trkpt>
      <trkpt lat="45.9332334715873" lon="9.354079635813832">
        <ele>606.25</ele>
        <time>2017-05-14T14:05:01Z</time>
      </trkpt>
      <trkpt lat="45.933164739981294" lon="9.354060357436538">
        <ele>606.73000000000002</ele>
        <time>2017-05-14T14:05:15Z</time>
      </trkpt>
      <trkpt lat="45.932982601225376" lon="9.354040073230863">
        <ele>606.73000000000002</ele>
        <time>2017-05-14T14:05:27Z</time>
      </trkpt>
      <trkpt lat="45.932967262342572" lon="9.35402624309063">
        <ele>607.21000000000004</ele>
        <time>2017-05-14T14:05:36Z</time>
      </trkpt>
      <trkpt lat="45.932981260120869" lon="9.354025740176439">
        <ele>607.69000000000005</ele>
        <time>2017-05-14T14:05:43Z</time>
      </trkpt>
      <trkpt lat="45.93301797285676" lon="9.354074439033866">
        <ele>607.69000000000005</ele>
        <time>2017-05-14T14:05:56Z</time>
      </trkpt>
      <trkpt lat="45.933028785511851" lon="9.354127747938037">
        <ele>607.21000000000004</ele>
        <time>2017-05-14T14:06:09Z</time>
      </trkpt>
      <trkpt lat="45.933066671714187" lon="9.354177704080939">
        <ele>607.21000000000004</ele>
        <time>2017-05-14T14:06:20Z</time>
      </trkpt>
      <trkpt lat="45.933053931221366" lon="9.35413277707994">
        <ele>604.80999999999995</ele>
        <time>2017-05-14T14:06:26Z</time>
      </trkpt>
      <trkpt lat="45.933032725006342" lon="9.354083575308323">
        <ele>603.85000000000002</ele>
        <time>2017-05-14T14:06:36Z</time>
      </trkpt>
      <trkpt lat="45.93306340277195" lon="9.354068320244551">
        <ele>603.85000000000002</ele>
        <time>2017-05-14T14:06:46Z</time>
      </trkpt>
      <trkpt lat="45.933108413591981" lon="9.353982908651233">
        <ele>602.88</ele>
        <time>2017-05-14T14:06:56Z</time>
      </trkpt>
      <trkpt lat="45.933142276480794" lon="9.353864639997482">
        <ele>600.96000000000004</ele>
        <time>2017-05-14T14:07:07Z</time>
      </trkpt>
      <trkpt lat="45.933157028630376" lon="9.353828178718686">
        <ele>600</ele>
        <time>2017-05-14T14:07:12Z</time>
      </trkpt>
      <trkpt lat="45.933197177946568" lon="9.353799847885966">
        <ele>599.03999999999996</ele>
        <time>2017-05-14T14:07:16Z</time>
      </trkpt>
      <trkpt lat="45.933348136022687" lon="9.353765230625868">
        <ele>597.12</ele>
        <time>2017-05-14T14:07:27Z</time>
      </trkpt>
      <trkpt lat="45.933367665857077" lon="9.353737905621529">
        <ele>596.63999999999999</ele>
        <time>2017-05-14T14:07:35Z</time>
      </trkpt>
      <trkpt lat="45.93319533392787" lon="9.353673113510013">
        <ele>595.19000000000005</ele>
        <time>2017-05-14T14:07:44Z</time>
      </trkpt>
      <trkpt lat="45.933113610371947" lon="9.35365634970367">
        <ele>552.40999999999997</ele>
        <time>2017-05-14T14:11:01Z</time>
      </trkpt>
      <trkpt lat="45.933069605380297" lon="9.353639585897327">
        <ele>550.97000000000003</ele>
        <time>2017-05-14T14:11:07Z</time>
      </trkpt>
      <trkpt lat="45.933082178235054" lon="9.353622905910015">
        <ele>550.49000000000001</ele>
        <time>2017-05-14T14:11:10Z</time>
      </trkpt>
      <trkpt lat="45.933107323944569" lon="9.353555934503675">
        <ele>548.57000000000005</ele>
        <time>2017-05-14T14:11:19Z</time>
      </trkpt>
      <trkpt lat="45.933094751089811" lon="9.353413777425885">
        <ele>546.64999999999998</ele>
        <time>2017-05-14T14:11:28Z</time>
      </trkpt>
      <trkpt lat="45.933050746098161" lon="9.353355187922716">
        <ele>544.72000000000003</ele>
        <time>2017-05-14T14:11:37Z</time>
      </trkpt>
      <trkpt lat="45.933031802996993" lon="9.353229710832238">
        <ele>543.27999999999997</ele>
        <time>2017-05-14T14:11:47Z</time>
      </trkpt>
      <trkpt lat="45.933025516569614" lon="9.353137677535415">
        <ele>541.36000000000001</ele>
        <time>2017-05-14T14:11:55Z</time>
      </trkpt>
      <trkpt lat="45.932994084432721" lon="9.353054026141763">
        <ele>538.96000000000004</ele>
        <time>2017-05-14T14:12:04Z</time>
      </trkpt>
      <trkpt lat="45.933031802996993" lon="9.352953694760799">
        <ele>536.54999999999995</ele>
        <time>2017-05-14T14:12:14Z</time>
      </trkpt>
      <trkpt lat="45.933107323944569" lon="9.352878425270319">
        <ele>536.54999999999995</ele>
        <time>2017-05-14T14:12:22Z</time>
      </trkpt>
      <trkpt lat="45.933113610371947" lon="9.352727802470326">
        <ele>534.63</ele>
        <time>2017-05-14T14:12:24Z</time>
      </trkpt>
      <trkpt lat="45.933063318952918" lon="9.352660914883018">
        <ele>532.71000000000004</ele>
        <time>2017-05-14T14:12:34Z</time>
      </trkpt>
      <trkpt lat="45.933132469654083" lon="9.352593943476677">
        <ele>532.71000000000004</ele>
        <time>2017-05-14T14:12:36Z</time>
      </trkpt>
      <trkpt lat="45.933119896799326" lon="9.352501993998885">
        <ele>530.78999999999996</ele>
        <time>2017-05-14T14:12:45Z</time>
      </trkpt>
      <trkpt lat="45.933145042508841" lon="9.352418342605233">
        <ele>529.82000000000005</ele>
        <time>2017-05-14T14:12:51Z</time>
      </trkpt>
      <trkpt lat="45.933170188218355" lon="9.352309545502067">
        <ele>528.38</ele>
        <time>2017-05-14T14:12:58Z</time>
      </trkpt>
      <trkpt lat="45.933264484629035" lon="9.352225894108415">
        <ele>527.41999999999996</ele>
        <time>2017-05-14T14:13:03Z</time>
      </trkpt>
      <trkpt lat="45.9333336353302" lon="9.352142242714763">
        <ele>526.46000000000004</ele>
        <time>2017-05-14T14:13:09Z</time>
      </trkpt>
      <trkpt lat="45.933421729132533" lon="9.352092118933797">
        <ele>524.53999999999996</ele>
        <time>2017-05-14T14:13:16Z</time>
      </trkpt>
      <trkpt lat="45.933465734124184" lon="9.352033529430628">
        <ele>524.05999999999995</ele>
        <time>2017-05-14T14:13:23Z</time>
      </trkpt>
      <trkpt lat="45.933522311970592" lon="9.351966641843319">
        <ele>524.05999999999995</ele>
        <time>2017-05-14T14:13:24Z</time>
      </trkpt>
      <trkpt lat="45.93362289480865" lon="9.351874608546495">
        <ele>522.13</ele>
        <time>2017-05-14T14:13:32Z</time>
      </trkpt>
      <trkpt lat="45.933698415756226" lon="9.351723985746503">
        <ele>520.21000000000004</ele>
        <time>2017-05-14T14:13:39Z</time>
      </trkpt>
      <trkpt lat="45.933786425739527" lon="9.351632036268711">
        <ele>519.25</ele>
        <time>2017-05-14T14:13:47Z</time>
      </trkpt>
      <trkpt lat="45.933836717158556" lon="9.351598508656025">
        <ele>517.80999999999995</ele>
        <time>2017-05-14T14:13:55Z</time>
      </trkpt>
      <trkpt lat="45.933786425739527" lon="9.351397762075067">
        <ele>517.80999999999995</ele>
        <time>2017-05-14T14:14:05Z</time>
      </trkpt>
      <trkpt lat="45.933836717158556" lon="9.351247223094106">
        <ele>510.12</ele>
        <time>2017-05-14T14:18:51Z</time>
      </trkpt>
      <trkpt lat="45.933899581432343" lon="9.35107153840363">
        <ele>510.12</ele>
        <time>2017-05-14T14:18:53Z</time>
      </trkpt>
      <trkpt lat="45.93370059505105" lon="9.3507329095155">
        <ele>511.56</ele>
        <time>2017-05-14T14:20:03Z</time>
      </trkpt>
      <trkpt lat="45.933698248118162" lon="9.35072360560298">
        <ele>511.56</ele>
        <time>2017-05-14T14:20:04Z</time>
      </trkpt>
      <trkpt lat="45.933703696355224" lon="9.35061271302402">
        <ele>511.07999999999998</ele>
        <time>2017-05-14T14:20:13Z</time>
      </trkpt>
      <trkpt lat="45.933702355250716" lon="9.350592596456409">
        <ele>511.07999999999998</ele>
        <time>2017-05-14T14:20:15Z</time>
      </trkpt>
      <trkpt lat="45.933655751869082" lon="9.350468879565597">
        <ele>511.07999999999998</ele>
        <time>2017-05-14T14:20:23Z</time>
      </trkpt>
      <trkpt lat="45.933571178466082" lon="9.350310545414686">
        <ele>511.07999999999998</ele>
        <time>2017-05-14T14:20:32Z</time>
      </trkpt>
      <trkpt lat="45.933474535122514" lon="9.35015682131052">
        <ele>511.07999999999998</ele>
        <time>2017-05-14T14:20:40Z</time>
      </trkpt>
      <trkpt lat="45.933466991409659" lon="9.350118264555931">
        <ele>511.07999999999998</ele>
        <time>2017-05-14T14:20:42Z</time>
      </trkpt>
      <trkpt lat="45.933490293100476" lon="9.350088173523545">
        <ele>511.07999999999998</ele>
        <time>2017-05-14T14:20:44Z</time>
      </trkpt>
      <trkpt lat="45.933487862348557" lon="9.350073505192995">
        <ele>511.07999999999998</ele>
        <time>2017-05-14T14:20:45Z</time>
      </trkpt>
      <trkpt lat="45.933490628376603" lon="9.349953308701515">
        <ele>511.56</ele>
        <time>2017-05-14T14:20:53Z</time>
      </trkpt>
      <trkpt lat="45.933522060513496" lon="9.349912572652102">
        <ele>511.56</ele>
        <time>2017-05-14T14:20:56Z</time>
      </trkpt>
      <trkpt lat="45.933632282540202" lon="9.34978743083775">
        <ele>512.03999999999996</ele>
        <time>2017-05-14T14:21:06Z</time>
      </trkpt>
      <trkpt lat="45.933630857616663" lon="9.349737223237753">
        <ele>511.56</ele>
        <time>2017-05-14T14:21:08Z</time>
      </trkpt>
      <trkpt lat="45.933594396337867" lon="9.349619289860129">
        <ele>511.07999999999998</ele>
        <time>2017-05-14T14:21:16Z</time>
      </trkpt>
      <trkpt lat="45.9335857629776" lon="9.349567908793688">
        <ele>510.60000000000002</ele>
        <time>2017-05-14T14:21:20Z</time>
      </trkpt>
      <trkpt lat="45.933565059676766" lon="9.349529016762972">
        <ele>510.60000000000002</ele>
        <time>2017-05-14T14:21:22Z</time>
      </trkpt>
      <trkpt lat="45.933488700538874" lon="9.349353164434433">
        <ele>508.67000000000002</ele>
        <time>2017-05-14T14:21:34Z</time>
      </trkpt>
      <trkpt lat="45.933443438261747" lon="9.349138084799051">
        <ele>506.75</ele>
        <time>2017-05-14T14:21:48Z</time>
      </trkpt>
      <trkpt lat="45.933436481282115" lon="9.349101288244128">
        <ele>506.26999999999998</ele>
        <time>2017-05-14T14:21:52Z</time>
      </trkpt>
      <trkpt lat="45.933432457968593" lon="9.349044542759657">
        <ele>505.79000000000002</ele>
        <time>2017-05-14T14:21:56Z</time>
      </trkpt>
      <trkpt lat="45.933325421065092" lon="9.348853267729282">
        <ele>505.31</ele>
        <time>2017-05-14T14:22:06Z</time>
      </trkpt>
      <trkpt lat="45.933322068303823" lon="9.348808424547315">
        <ele>504.82999999999998</ele>
        <time>2017-05-14T14:22:09Z</time>
      </trkpt>
      <trkpt lat="45.933324918150902" lon="9.348703986033797">
        <ele>504.82999999999998</ele>
        <time>2017-05-14T14:22:15Z</time>
      </trkpt>
      <trkpt lat="45.933274207636714" lon="9.348586387932301">
        <ele>504.35000000000002</ele>
        <time>2017-05-14T14:22:23Z</time>
      </trkpt>
      <trkpt lat="45.933212097734213" lon="9.348501898348332">
        <ele>506.26999999999998</ele>
        <time>2017-05-14T14:22:29Z</time>
      </trkpt>
      <trkpt lat="45.933131296187639" lon="9.348357059061527">
        <ele>505.31</ele>
        <time>2017-05-14T14:22:37Z</time>
      </trkpt>
      <trkpt lat="45.93313624151051" lon="9.348297966644168">
        <ele>505.79000000000002</ele>
        <time>2017-05-14T14:22:41Z</time>
      </trkpt>
      <trkpt lat="45.93313179910183" lon="9.348282292485237">
        <ele>506.26999999999998</ele>
        <time>2017-05-14T14:22:42Z</time>
      </trkpt>
      <trkpt lat="45.933160213753581" lon="9.348151870071888">
        <ele>506.75</ele>
        <time>2017-05-14T14:22:52Z</time>
      </trkpt>
      <trkpt lat="45.933140432462096" lon="9.348045755177736">
        <ele>506.26999999999998</ele>
        <time>2017-05-14T14:23:01Z</time>
      </trkpt>
      <trkpt lat="45.933053931221366" lon="9.347954643890262">
        <ele>505.79000000000002</ele>
        <time>2017-05-14T14:23:11Z</time>
      </trkpt>
      <trkpt lat="45.932968771085143" lon="9.347847104072571">
        <ele>506.26999999999998</ele>
        <time>2017-05-14T14:23:20Z</time>
      </trkpt>
      <trkpt lat="45.932905822992325" lon="9.347761943936348">
        <ele>506.75</ele>
        <time>2017-05-14T14:23:29Z</time>
      </trkpt>
      <trkpt lat="45.932894088327885" lon="9.347754400223494">
        <ele>506.26999999999998</ele>
        <time>2017-05-14T14:23:30Z</time>
      </trkpt>
      <trkpt lat="45.932818399742246" lon="9.347708551213145">
        <ele>506.26999999999998</ele>
        <time>2017-05-14T14:23:39Z</time>
      </trkpt>
      <trkpt lat="45.932750003412366" lon="9.347647028043866">
        <ele>506.26999999999998</ele>
        <time>2017-05-14T14:23:47Z</time>
      </trkpt>
      <trkpt lat="45.932657634839416" lon="9.347482742741704">
        <ele>506.26999999999998</ele>
        <time>2017-05-14T14:23:57Z</time>
      </trkpt>
      <trkpt lat="45.932659395039082" lon="9.347500931471586">
        <ele>505.31</ele>
        <time>2017-05-14T14:24:05Z</time>
      </trkpt>
      <trkpt lat="45.932646319270134" lon="9.347508139908314">
        <ele>505.31</ele>
        <time>2017-05-14T14:24:06Z</time>
      </trkpt>
      <trkpt lat="45.932509275153279" lon="9.347552563995123">
        <ele>503.38999999999999</ele>
        <time>2017-05-14T14:24:14Z</time>
      </trkpt>
      <trkpt lat="45.932567194104195" lon="9.347500177100301">
        <ele>502.43000000000001</ele>
        <time>2017-05-14T14:24:25Z</time>
      </trkpt>
      <trkpt lat="45.932552274316549" lon="9.347425410524011">
        <ele>500.98000000000002</ele>
        <time>2017-05-14T14:24:34Z</time>
      </trkpt>
      <trkpt lat="45.932510616257787" lon="9.347398253157735">
        <ele>499.06</ele>
        <time>2017-05-14T14:24:43Z</time>
      </trkpt>
      <trkpt lat="45.932447416707873" lon="9.34739213436842">
        <ele>497.62</ele>
        <time>2017-05-14T14:24:53Z</time>
      </trkpt>
      <trkpt lat="45.932438112795353" lon="9.347390793263912">
        <ele>497.62</ele>
        <time>2017-05-14T14:24:54Z</time>
      </trkpt>
      <trkpt lat="45.932385222986341" lon="9.347358020022512">
        <ele>496.66000000000003</ele>
        <time>2017-05-14T14:25:00Z</time>
      </trkpt>
      <trkpt lat="45.932277599349618" lon="9.347337819635868">
        <ele>495.69999999999999</ele>
        <time>2017-05-14T14:25:09Z</time>
      </trkpt>
      <trkpt lat="45.932257482782006" lon="9.347327845171094">
        <ele>495.69999999999999</ele>
        <time>2017-05-14T14:25:12Z</time>
      </trkpt>
      <trkpt lat="45.932250944897532" lon="9.347315104678273">
        <ele>495.69999999999999</ele>
        <time>2017-05-14T14:25:13Z</time>
      </trkpt>
      <trkpt lat="45.932311126962304" lon="9.347191723063588">
        <ele>495.22000000000003</ele>
        <time>2017-05-14T14:25:21Z</time>
      </trkpt>
      <trkpt lat="45.932309618219733" lon="9.347174959257245">
        <ele>495.22000000000003</ele>
        <time>2017-05-14T14:25:22Z</time>
      </trkpt>
      <trkpt lat="45.932247256860137" lon="9.347042860463262">
        <ele>495.22000000000003</ele>
        <time>2017-05-14T14:25:31Z</time>
      </trkpt>
      <trkpt lat="45.932231834158301" lon="9.347029197961092">
        <ele>495.22000000000003</ele>
        <time>2017-05-14T14:25:32Z</time>
      </trkpt>
      <trkpt lat="45.932144494727254" lon="9.346908666193485">
        <ele>493.76999999999998</ele>
        <time>2017-05-14T14:25:43Z</time>
      </trkpt>
      <trkpt lat="45.93208322301507" lon="9.346882263198495">
        <ele>492.81</ele>
        <time>2017-05-14T14:25:51Z</time>
      </trkpt>
      <trkpt lat="45.932072326540947" lon="9.346865164116025">
        <ele>492.81</ele>
        <time>2017-05-14T14:25:52Z</time>
      </trkpt>
      <trkpt lat="45.932033769786358" lon="9.346732310950756">
        <ele>491.85000000000002</ele>
        <time>2017-05-14T14:26:00Z</time>
      </trkpt>
      <trkpt lat="45.932013401761651" lon="9.346682773903012">
        <ele>491.37</ele>
        <time>2017-05-14T14:26:02Z</time>
      </trkpt>
      <trkpt lat="45.932002170011401" lon="9.346663746982813">
        <ele>490.88999999999999</ele>
        <time>2017-05-14T14:26:03Z</time>
      </trkpt>
      <trkpt lat="45.931990938261151" lon="9.346645474433899">
        <ele>490.88999999999999</ele>
        <time>2017-05-14T14:26:04Z</time>
      </trkpt>
      <trkpt lat="45.931978281587362" lon="9.346631225198507">
        <ele>490.88999999999999</ele>
        <time>2017-05-14T14:26:05Z</time>
      </trkpt>
      <trkpt lat="45.931963948532939" lon="9.346619406715035">
        <ele>490.88999999999999</ele>
        <time>2017-05-14T14:26:06Z</time>
      </trkpt>
      <trkpt lat="45.931949783116579" lon="9.346607001498342">
        <ele>490.41000000000003</ele>
        <time>2017-05-14T14:26:07Z</time>
      </trkpt>
      <trkpt lat="45.931939976289868" lon="9.346594596281648">
        <ele>490.41000000000003</ele>
        <time>2017-05-14T14:26:08Z</time>
      </trkpt>
      <trkpt lat="45.931861940771341" lon="9.346529887989163">
        <ele>488.00999999999999</ele>
        <time>2017-05-14T14:26:19Z</time>
      </trkpt>
      <trkpt lat="45.931802177801728" lon="9.346424527466297">
        <ele>486.07999999999998</ele>
        <time>2017-05-14T14:26:28Z</time>
      </trkpt>
      <trkpt lat="45.931795639917254" lon="9.346389742568135">
        <ele>487.05000000000001</ele>
        <time>2017-05-14T14:26:31Z</time>
      </trkpt>
      <trkpt lat="45.931790610775352" lon="9.346307767555118">
        <ele>485.12</ele>
        <time>2017-05-14T14:26:36Z</time>
      </trkpt>
      <trkpt lat="45.931782564148307" lon="9.346289914101362">
        <ele>485.12</ele>
        <time>2017-05-14T14:26:37Z</time>
      </trkpt>
      <trkpt lat="45.931754484772682" lon="9.346182877197862">
        <ele>484.16000000000003</ele>
        <time>2017-05-14T14:26:45Z</time>
      </trkpt>
      <trkpt lat="45.931720957159996" lon="9.346019430086017">
        <ele>483.19999999999999</ele>
        <time>2017-05-14T14:26:55Z</time>
      </trkpt>
      <trkpt lat="45.931644178926945" lon="9.345878697931767">
        <ele>482.72000000000003</ele>
        <time>2017-05-14T14:27:04Z</time>
      </trkpt>
      <trkpt lat="45.931560611352324" lon="9.345715753734112">
        <ele>481.75999999999999</ele>
        <time>2017-05-14T14:27:15Z</time>
      </trkpt>
      <trkpt lat="45.931509733200073" lon="9.345605783164501">
        <ele>480.80000000000001</ele>
        <time>2017-05-14T14:27:23Z</time>
      </trkpt>
      <trkpt lat="45.931508643552661" lon="9.345383327454329">
        <ele>480.31999999999999</ele>
        <time>2017-05-14T14:27:34Z</time>
      </trkpt>
      <trkpt lat="45.931460112333298" lon="9.345211246982217">
        <ele>479.35000000000002</ele>
        <time>2017-05-14T14:27:45Z</time>
      </trkpt>
      <trkpt lat="45.931447874754667" lon="9.345202948898077">
        <ele>478.87</ele>
        <time>2017-05-14T14:27:47Z</time>
      </trkpt>
      <trkpt lat="45.93143479898572" lon="9.345198003575206">
        <ele>478.38999999999999</ele>
        <time>2017-05-14T14:27:48Z</time>
      </trkpt>
      <trkpt lat="45.931314183399081" lon="9.345218958333135">
        <ele>476.47000000000003</ele>
        <time>2017-05-14T14:27:59Z</time>
      </trkpt>
      <trkpt lat="45.931304711848497" lon="9.345225496217609">
        <ele>475.99000000000001</ele>
        <time>2017-05-14T14:28:00Z</time>
      </trkpt>
      <trkpt lat="45.931210750713944" lon="9.345238907262683">
        <ele>474.55000000000001</ele>
        <time>2017-05-14T14:28:10Z</time>
      </trkpt>
      <trkpt lat="45.931126596406102" lon="9.34523731470108">
        <ele>472.13999999999999</ele>
        <time>2017-05-14T14:28:22Z</time>
      </trkpt>
      <trkpt lat="45.931105222553015" lon="9.345246618613601">
        <ele>470.69999999999999</ele>
        <time>2017-05-14T14:28:29Z</time>
      </trkpt>
      <trkpt lat="45.930919898673892" lon="9.345193058252335">
        <ele>468.30000000000001</ele>
        <time>2017-05-14T14:28:43Z</time>
      </trkpt>
      <trkpt lat="45.930820405483246" lon="9.345118878409267">
        <ele>467.81999999999999</ele>
        <time>2017-05-14T14:28:50Z</time>
      </trkpt>
      <trkpt lat="45.930853681638837" lon="9.345109406858683">
        <ele>467.81999999999999</ele>
        <time>2017-05-14T14:29:03Z</time>
      </trkpt>
      <trkpt lat="45.930881761014462" lon="9.345118291676045">
        <ele>467.33999999999997</ele>
        <time>2017-05-14T14:29:20Z</time>
      </trkpt>
      <trkpt lat="45.93087580986321" lon="9.345055678859353">
        <ele>467.33999999999997</ele>
        <time>2017-05-14T14:29:30Z</time>
      </trkpt>
      <trkpt lat="45.930898608639836" lon="9.345004465430975">
        <ele>466.86000000000001</ele>
        <time>2017-05-14T14:29:41Z</time>
      </trkpt>
      <trkpt lat="45.930865248665214" lon="9.344843281432986">
        <ele>465.89999999999998</ele>
        <time>2017-05-14T14:29:52Z</time>
      </trkpt>
      <trkpt lat="45.930864410474896" lon="9.344815788790584">
        <ele>465.89999999999998</ele>
        <time>2017-05-14T14:29:54Z</time>
      </trkpt>
      <trkpt lat="45.93091294169426" lon="9.344779914245009">
        <ele>465.42000000000002</ele>
        <time>2017-05-14T14:30:05Z</time>
      </trkpt>
      <trkpt lat="45.930927358567715" lon="9.344716044142842">
        <ele>464.93000000000001</ele>
        <time>2017-05-14T14:30:17Z</time>
      </trkpt>
      <trkpt lat="45.930960383266211" lon="9.344618311151862">
        <ele>464.44999999999999</ele>
        <time>2017-05-14T14:30:24Z</time>
      </trkpt>
      <trkpt lat="45.93106348067522" lon="9.344472717493773">
        <ele>463.97000000000003</ele>
        <time>2017-05-14T14:30:35Z</time>
      </trkpt>
      <trkpt lat="45.931115867570043" lon="9.34431036002934">
        <ele>463.49000000000001</ele>
        <time>2017-05-14T14:30:46Z</time>
      </trkpt>
      <trkpt lat="45.93112357892096" lon="9.344279346987605">
        <ele>463.97000000000003</ele>
        <time>2017-05-14T14:30:48Z</time>
      </trkpt>
      <trkpt lat="45.93112257309258" lon="9.344146326184273">
        <ele>463.97000000000003</ele>
        <time>2017-05-14T14:30:56Z</time>
      </trkpt>
      <trkpt lat="45.93111771158874" lon="9.344024034217">
        <ele>463.97000000000003</ele>
        <time>2017-05-14T14:31:03Z</time>
      </trkpt>
      <trkpt lat="45.931130619719625" lon="9.343859581276774">
        <ele>463.49000000000001</ele>
        <time>2017-05-14T14:31:14Z</time>
      </trkpt>
      <trkpt lat="45.931127434596419" lon="9.343830160796642">
        <ele>463.49000000000001</ele>
        <time>2017-05-14T14:31:16Z</time>
      </trkpt>
      <trkpt lat="45.931121986359358" lon="9.343815995380282">
        <ele>463.49000000000001</ele>
        <time>2017-05-14T14:31:17Z</time>
      </trkpt>
      <trkpt lat="45.931110586971045" lon="9.3437235429883">
        <ele>463.00999999999999</ele>
        <time>2017-05-14T14:31:25Z</time>
      </trkpt>
      <trkpt lat="45.931076472625136" lon="9.343627989292145">
        <ele>463.00999999999999</ele>
        <time>2017-05-14T14:31:32Z</time>
      </trkpt>
      <trkpt lat="45.931054847314954" lon="9.343591695651412">
        <ele>463.00999999999999</ele>
        <time>2017-05-14T14:31:35Z</time>
      </trkpt>
      <trkpt lat="45.930957281962037" lon="9.343400923535228">
        <ele>462.52999999999997</ele>
        <time>2017-05-14T14:31:48Z</time>
      </trkpt>
      <trkpt lat="45.930885365232825" lon="9.343260107561946">
        <ele>462.52999999999997</ele>
        <time>2017-05-14T14:31:59Z</time>
      </trkpt>
      <trkpt lat="45.930876145139337" lon="9.343252060934901">
        <ele>462.52999999999997</ele>
        <time>2017-05-14T14:32:00Z</time>
      </trkpt>
      <trkpt lat="45.930755697190762" lon="9.343154244124889">
        <ele>461.56999999999999</ele>
        <time>2017-05-14T14:32:10Z</time>
      </trkpt>
      <trkpt lat="45.930633153766394" lon="9.343071263283491">
        <ele>461.56999999999999</ele>
        <time>2017-05-14T14:32:19Z</time>
      </trkpt>
      <trkpt lat="45.93062368221581" lon="9.343065144494176">
        <ele>461.56999999999999</ele>
        <time>2017-05-14T14:32:20Z</time>
      </trkpt>
      <trkpt lat="45.930615970864892" lon="9.343063635751605">
        <ele>461.08999999999997</ele>
        <time>2017-05-14T14:32:21Z</time>
      </trkpt>
      <trkpt lat="45.93060314655304" lon="9.343061791732907">
        <ele>461.08999999999997</ele>
        <time>2017-05-14T14:32:22Z</time>
      </trkpt>
      <trkpt lat="45.930593591183424" lon="9.34305558912456">
        <ele>461.08999999999997</ele>
        <time>2017-05-14T14:32:23Z</time>
      </trkpt>
      <trkpt lat="45.930474735796452" lon="9.34300915338099">
        <ele>461.08999999999997</ele>
        <time>2017-05-14T14:32:31Z</time>
      </trkpt>
      <trkpt lat="45.930433245375752" lon="9.342967076227069">
        <ele>460.61000000000001</ele>
        <time>2017-05-14T14:32:37Z</time>
      </trkpt>
      <trkpt lat="45.930428132414818" lon="9.34295249171555">
        <ele>461.08999999999997</ele>
        <time>2017-05-14T14:32:38Z</time>
      </trkpt>
      <trkpt lat="45.930393431335688" lon="9.342858027666807">
        <ele>461.08999999999997</ele>
        <time>2017-05-14T14:32:47Z</time>
      </trkpt>
      <trkpt lat="45.930377338081598" lon="9.342845706269145">
        <ele>461.08999999999997</ele>
        <time>2017-05-14T14:32:49Z</time>
      </trkpt>
      <trkpt lat="45.930324112996459" lon="9.342786278575659">
        <ele>461.56999999999999</ele>
        <time>2017-05-14T14:32:55Z</time>
      </trkpt>
      <trkpt lat="45.93024892732501" lon="9.34269935823977">
        <ele>462.05000000000001</ele>
        <time>2017-05-14T14:33:04Z</time>
      </trkpt>
      <trkpt lat="45.93016242608428" lon="9.342595422640443">
        <ele>462.52999999999997</ele>
        <time>2017-05-14T14:33:14Z</time>
      </trkpt>
      <trkpt lat="45.930080367252231" lon="9.342524847015739">
        <ele>462.52999999999997</ele>
        <time>2017-05-14T14:33:24Z</time>
      </trkpt>
      <trkpt lat="45.930011468008161" lon="9.342458043247461">
        <ele>463.00999999999999</ele>
        <time>2017-05-14T14:33:34Z</time>
      </trkpt>
      <trkpt lat="45.929997218772769" lon="9.342433232814074">
        <ele>463.00999999999999</ele>
        <time>2017-05-14T14:33:38Z</time>
      </trkpt>
      <trkpt lat="45.929972995072603" lon="9.342409679666162">
        <ele>463.00999999999999</ele>
        <time>2017-05-14T14:33:41Z</time>
      </trkpt>
      <trkpt lat="45.930011132732034" lon="9.342270372435451">
        <ele>463.49000000000001</ele>
        <time>2017-05-14T14:33:50Z</time>
      </trkpt>
      <trkpt lat="45.930007444694638" lon="9.342152355238795">
        <ele>463.97000000000003</ele>
        <time>2017-05-14T14:33:57Z</time>
      </trkpt>
      <trkpt lat="45.929961511865258" lon="9.342009527608752">
        <ele>464.44999999999999</ele>
        <time>2017-05-14T14:34:08Z</time>
      </trkpt>
      <trkpt lat="45.929920775815845" lon="9.341966779902577">
        <ele>464.93000000000001</ele>
        <time>2017-05-14T14:34:12Z</time>
      </trkpt>
      <trkpt lat="45.929907616227865" lon="9.34195470996201">
        <ele>464.44999999999999</ele>
        <time>2017-05-14T14:34:13Z</time>
      </trkpt>
      <trkpt lat="45.929898396134377" lon="9.341940796002746">
        <ele>464.93000000000001</ele>
        <time>2017-05-14T14:34:14Z</time>
      </trkpt>
      <trkpt lat="45.929893450811505" lon="9.341925792396069">
        <ele>464.93000000000001</ele>
        <time>2017-05-14T14:34:15Z</time>
      </trkpt>
      <trkpt lat="45.929886912927032" lon="9.341912884265184">
        <ele>464.93000000000001</ele>
        <time>2017-05-14T14:34:16Z</time>
      </trkpt>
      <trkpt lat="45.92987903393805" lon="9.341900395229459">
        <ele>464.93000000000001</ele>
        <time>2017-05-14T14:34:17Z</time>
      </trkpt>
      <trkpt lat="45.929869813844562" lon="9.341882625594735">
        <ele>464.93000000000001</ele>
        <time>2017-05-14T14:34:18Z</time>
      </trkpt>
      <trkpt lat="45.929821785539389" lon="9.341742228716612">
        <ele>464.93000000000001</ele>
        <time>2017-05-14T14:34:29Z</time>
      </trkpt>
      <trkpt lat="45.929768644273281" lon="9.341681208461523">
        <ele>464.93000000000001</ele>
        <time>2017-05-14T14:34:35Z</time>
      </trkpt>
      <trkpt lat="45.929762190207839" lon="9.341666623950005">
        <ele>464.93000000000001</ele>
        <time>2017-05-14T14:34:36Z</time>
      </trkpt>
      <trkpt lat="45.929686669260263" lon="9.341562688350678">
        <ele>464.44999999999999</ele>
        <time>2017-05-14T14:34:45Z</time>
      </trkpt>
      <trkpt lat="45.929591618478298" lon="9.341396391391754">
        <ele>464.44999999999999</ele>
        <time>2017-05-14T14:34:59Z</time>
      </trkpt>
      <trkpt lat="45.929556749761105" lon="9.341224227100611">
        <ele>465.42000000000002</ele>
        <time>2017-05-14T14:35:11Z</time>
      </trkpt>
      <trkpt lat="45.929532023146749" lon="9.341175360605121">
        <ele>465.42000000000002</ele>
        <time>2017-05-14T14:35:14Z</time>
      </trkpt>
      <trkpt lat="45.929520120844245" lon="9.341163877397776">
        <ele>465.42000000000002</ele>
        <time>2017-05-14T14:35:15Z</time>
      </trkpt>
      <trkpt lat="45.929509224370122" lon="9.341151556000114">
        <ele>465.42000000000002</ele>
        <time>2017-05-14T14:35:16Z</time>
      </trkpt>
      <trkpt lat="45.929424650967121" lon="9.341032365337014">
        <ele>464.93000000000001</ele>
        <time>2017-05-14T14:35:26Z</time>
      </trkpt>
      <trkpt lat="45.929305544123054" lon="9.340939745306969">
        <ele>463.49000000000001</ele>
        <time>2017-05-14T14:35:34Z</time>
      </trkpt>
      <trkpt lat="45.929287858307362" lon="9.340906888246536">
        <ele>463.49000000000001</ele>
        <time>2017-05-14T14:35:36Z</time>
      </trkpt>
      <trkpt lat="45.929303197190166" lon="9.340842766687274">
        <ele>463.49000000000001</ele>
        <time>2017-05-14T14:35:40Z</time>
      </trkpt>
      <trkpt lat="45.929335299879313" lon="9.340799348428845">
        <ele>463.00999999999999</ele>
        <time>2017-05-14T14:35:42Z</time>
      </trkpt>
      <trkpt lat="45.929380729794502" lon="9.340745452791452">
        <ele>463.00999999999999</ele>
        <time>2017-05-14T14:35:45Z</time>
      </trkpt>
      <trkpt lat="45.929449209943414" lon="9.340565325692296">
        <ele>459.64999999999998</ele>
        <time>2017-05-14T14:35:57Z</time>
      </trkpt>
      <trkpt lat="45.929457005113363" lon="9.340499276295304">
        <ele>458.69</ele>
        <time>2017-05-14T14:36:02Z</time>
      </trkpt>
      <trkpt lat="45.929466728121042" lon="9.340359130874276">
        <ele>456.27999999999997</ele>
        <time>2017-05-14T14:36:11Z</time>
      </trkpt>
      <trkpt lat="45.929473098367453" lon="9.340155702084303">
        <ele>455.31999999999999</ele>
        <time>2017-05-14T14:36:23Z</time>
      </trkpt>
      <trkpt lat="45.929480893537402" lon="9.340117648243904">
        <ele>455.31999999999999</ele>
        <time>2017-05-14T14:36:25Z</time>
      </trkpt>
      <trkpt lat="45.929507128894329" lon="9.339880272746086">
        <ele>453.39999999999998</ele>
        <time>2017-05-14T14:36:39Z</time>
      </trkpt>
      <trkpt lat="45.929483659565449" lon="9.339686650782824">
        <ele>452.44</ele>
        <time>2017-05-14T14:36:51Z</time>
      </trkpt>
      <trkpt lat="45.929435715079308" lon="9.339532759040594">
        <ele>451</ele>
        <time>2017-05-14T14:37:01Z</time>
      </trkpt>
      <trkpt lat="45.92941727489233" lon="9.339451706036925">
        <ele>451</ele>
        <time>2017-05-14T14:37:06Z</time>
      </trkpt>
      <trkpt lat="45.929359858855605" lon="9.339262945577502">
        <ele>451.95999999999998</ele>
        <time>2017-05-14T14:37:18Z</time>
      </trkpt>
      <trkpt lat="45.929358014836907" lon="9.339192034676671">
        <ele>451.48000000000002</ele>
        <time>2017-05-14T14:37:22Z</time>
      </trkpt>
      <trkpt lat="45.929330689832568" lon="9.338985085487366">
        <ele>449.55000000000001</ele>
        <time>2017-05-14T14:37:34Z</time>
      </trkpt>
      <trkpt lat="45.929336389526725" lon="9.338792385533452">
        <ele>447.63</ele>
        <time>2017-05-14T14:37:48Z</time>
      </trkpt>
      <trkpt lat="45.929347034543753" lon="9.338778303936124">
        <ele>447.14999999999998</ele>
        <time>2017-05-14T14:37:59Z</time>
      </trkpt>
      <trkpt lat="45.929303532466292" lon="9.338629273697734">
        <ele>445.70999999999998</ele>
        <time>2017-05-14T14:38:10Z</time>
      </trkpt>
      <trkpt lat="45.92923010699451" lon="9.338474627584219">
        <ele>444.75</ele>
        <time>2017-05-14T14:38:20Z</time>
      </trkpt>
      <trkpt lat="45.9291338827461" lon="9.338279664516449">
        <ele>443.79000000000002</ele>
        <time>2017-05-14T14:38:32Z</time>
      </trkpt>
      <trkpt lat="45.929107647389174" lon="9.33802611194551">
        <ele>443.31</ele>
        <time>2017-05-14T14:38:46Z</time>
      </trkpt>
      <trkpt lat="45.929144946858287" lon="9.337772391736507">
        <ele>442.81999999999999</ele>
        <time>2017-05-14T14:39:00Z</time>
      </trkpt>
      <trkpt lat="45.929169757291675" lon="9.337528562173247">
        <ele>441.38</ele>
        <time>2017-05-14T14:39:13Z</time>
      </trkpt>
      <trkpt lat="45.929217701777816" lon="9.337396547198296">
        <ele>441.38</ele>
        <time>2017-05-14T14:39:22Z</time>
      </trkpt>
      <trkpt lat="45.92923304066062" lon="9.337323037907481">
        <ele>441.86000000000001</ele>
        <time>2017-05-14T14:39:27Z</time>
      </trkpt>
      <trkpt lat="45.929240081459284" lon="9.337114579975605">
        <ele>441.86000000000001</ele>
        <time>2017-05-14T14:39:40Z</time>
      </trkpt>
      <trkpt lat="45.929233375936747" lon="9.336963454261422">
        <ele>442.81999999999999</ele>
        <time>2017-05-14T14:39:50Z</time>
      </trkpt>
      <trkpt lat="45.929223820567131" lon="9.336840910837054">
        <ele>444.26999999999998</ele>
        <time>2017-05-14T14:39:59Z</time>
      </trkpt>
      <trkpt lat="45.92921694740653" lon="9.336740411818028">
        <ele>444.75</ele>
        <time>2017-05-14T14:40:06Z</time>
      </trkpt>
      <trkpt lat="45.929216695949435" lon="9.3366779666394">
        <ele>444.75</ele>
        <time>2017-05-14T14:40:10Z</time>
      </trkpt>
      <trkpt lat="45.929221641272306" lon="9.336603367701173">
        <ele>444.75</ele>
        <time>2017-05-14T14:40:14Z</time>
      </trkpt>
      <trkpt lat="45.929169086739421" lon="9.336487194523215">
        <ele>445.23000000000002</ele>
        <time>2017-05-14T14:40:24Z</time>
      </trkpt>
      <trkpt lat="45.929118124768138" lon="9.33644637465477">
        <ele>444.75</ele>
        <time>2017-05-14T14:40:29Z</time>
      </trkpt>
      <trkpt lat="45.929053165018559" lon="9.336305893957615">
        <ele>445.23000000000002</ele>
        <time>2017-05-14T14:40:38Z</time>
      </trkpt>
      <trkpt lat="45.929041933268309" lon="9.336121911183">
        <ele>444.75</ele>
        <time>2017-05-14T14:40:48Z</time>
      </trkpt>
      <trkpt lat="45.929036652669311" lon="9.33608771301806">
        <ele>445.23000000000002</ele>
        <time>2017-05-14T14:40:50Z</time>
      </trkpt>
      <trkpt lat="45.92903564684093" lon="9.335889564827085">
        <ele>445.23000000000002</ele>
        <time>2017-05-14T14:41:02Z</time>
      </trkpt>
      <trkpt lat="45.929034221917391" lon="9.335874225944281">
        <ele>446.19</ele>
        <time>2017-05-14T14:41:03Z</time>
      </trkpt>
      <trkpt lat="45.929031288251281" lon="9.335831226781011">
        <ele>445.70999999999998</ele>
        <time>2017-05-14T14:41:06Z</time>
      </trkpt>
      <trkpt lat="45.929002286866307" lon="9.335677586495876">
        <ele>445.70999999999998</ele>
        <time>2017-05-14T14:41:17Z</time>
      </trkpt>
      <trkpt lat="45.92897898517549" lon="9.335530232638121">
        <ele>446.19</ele>
        <time>2017-05-14T14:41:27Z</time>
      </trkpt>
      <trkpt lat="45.928988959640265" lon="9.335390422493219">
        <ele>447.14999999999998</ele>
        <time>2017-05-14T14:41:36Z</time>
      </trkpt>
      <trkpt lat="45.929019218310714" lon="9.3353137280792">
        <ele>447.14999999999998</ele>
        <time>2017-05-14T14:41:41Z</time>
      </trkpt>
      <trkpt lat="45.929112425073981" lon="9.335152627900243">
        <ele>447.14999999999998</ele>
        <time>2017-05-14T14:41:52Z</time>
      </trkpt>
      <trkpt lat="45.929167661815882" lon="9.335006279870868">
        <ele>447.14999999999998</ele>
        <time>2017-05-14T14:42:01Z</time>
      </trkpt>
      <trkpt lat="45.929205045104027" lon="9.334881221875548">
        <ele>447.63</ele>
        <time>2017-05-14T14:42:08Z</time>
      </trkpt>
      <trkpt lat="45.929264137521386" lon="9.334678715094924">
        <ele>448.58999999999997</ele>
        <time>2017-05-14T14:42:21Z</time>
      </trkpt>
      <trkpt lat="45.929275285452604" lon="9.334540413692594">
        <ele>449.06999999999999</ele>
        <time>2017-05-14T14:42:30Z</time>
      </trkpt>
      <trkpt lat="45.929275453090668" lon="9.334479728713632">
        <ele>449.06999999999999</ele>
        <time>2017-05-14T14:42:34Z</time>
      </trkpt>
      <trkpt lat="45.929268412292004" lon="9.334308821707964">
        <ele>449.06999999999999</ele>
        <time>2017-05-14T14:42:45Z</time>
      </trkpt>
      <trkpt lat="45.92919297516346" lon="9.334185775369406">
        <ele>449.06999999999999</ele>
        <time>2017-05-14T14:42:55Z</time>
      </trkpt>
      <trkpt lat="45.929171182215214" lon="9.334121821448207">
        <ele>449.06999999999999</ele>
        <time>2017-05-14T14:42:59Z</time>
      </trkpt>
      <trkpt lat="45.929174115881324" lon="9.334031296893954">
        <ele>448.58999999999997</ele>
        <time>2017-05-14T14:43:05Z</time>
      </trkpt>
      <trkpt lat="45.929216109216213" lon="9.3338752258569">
        <ele>447.63</ele>
        <time>2017-05-14T14:43:16Z</time>
      </trkpt>
      <trkpt lat="45.929216109216213" lon="9.333815714344382">
        <ele>447.14999999999998</ele>
        <time>2017-05-14T14:43:20Z</time>
      </trkpt>
      <trkpt lat="45.929179983213544" lon="9.333683783188462">
        <ele>445.70999999999998</ele>
        <time>2017-05-14T14:43:33Z</time>
      </trkpt>
      <trkpt lat="45.929071605205536" lon="9.33357909321785">
        <ele>444.26999999999998</ele>
        <time>2017-05-14T14:43:45Z</time>
      </trkpt>
      <trkpt lat="45.929005639627576" lon="9.333483204245567">
        <ele>443.79000000000002</ele>
        <time>2017-05-14T14:43:54Z</time>
      </trkpt>
      <trkpt lat="45.928997341543436" lon="9.333471553400159">
        <ele>443.79000000000002</ele>
        <time>2017-05-14T14:43:55Z</time>
      </trkpt>
      <trkpt lat="45.928940931335092" lon="9.333360074087977">
        <ele>441.86000000000001</ele>
        <time>2017-05-14T14:44:05Z</time>
      </trkpt>
      <trkpt lat="45.92881285585463" lon="9.333254378288984">
        <ele>439.45999999999998</ele>
        <time>2017-05-14T14:44:18Z</time>
      </trkpt>
      <trkpt lat="45.928795756772161" lon="9.333232501521707">
        <ele>438.98000000000002</ele>
        <time>2017-05-14T14:44:20Z</time>
      </trkpt>
      <trkpt lat="45.928679835051298" lon="9.333151197060943">
        <ele>437.06</ele>
        <time>2017-05-14T14:44:33Z</time>
      </trkpt>
      <trkpt lat="45.928531978279352" lon="9.333074251189828">
        <ele>435.61000000000001</ele>
        <time>2017-05-14T14:44:44Z</time>
      </trkpt>
      <trkpt lat="45.928487973287702" lon="9.332989761605859">
        <ele>434.64999999999998</ele>
        <time>2017-05-14T14:44:52Z</time>
      </trkpt>
      <trkpt lat="45.928412368521094" lon="9.332849867641926">
        <ele>433.20999999999998</ele>
        <time>2017-05-14T14:45:05Z</time>
      </trkpt>
      <trkpt lat="45.928363753482699" lon="9.332728330045939">
        <ele>431.76999999999998</ele>
        <time>2017-05-14T14:45:15Z</time>
      </trkpt>
      <trkpt lat="45.928283371031284" lon="9.332608720287681">
        <ele>430.32999999999998</ele>
        <time>2017-05-14T14:45:27Z</time>
      </trkpt>
      <trkpt lat="45.928193517029285" lon="9.332464970648289">
        <ele>428.39999999999998</ele>
        <time>2017-05-14T14:45:39Z</time>
      </trkpt>
      <trkpt lat="45.928118163719773" lon="9.332353994250298">
        <ele>427.44</ele>
        <time>2017-05-14T14:45:49Z</time>
      </trkpt>
      <trkpt lat="45.928043900057673" lon="9.332195492461324">
        <ele>426.48000000000002</ele>
        <time>2017-05-14T14:46:01Z</time>
      </trkpt>
      <trkpt lat="45.927982460707426" lon="9.332143608480692">
        <ele>426</ele>
        <time>2017-05-14T14:46:08Z</time>
      </trkpt>
      <trkpt lat="45.927913561463356" lon="9.332138495519757">
        <ele>425.51999999999998</ele>
        <time>2017-05-14T14:46:15Z</time>
      </trkpt>
      <trkpt lat="45.927833262830973" lon="9.332113433629274">
        <ele>425.04000000000002</ele>
        <time>2017-05-14T14:46:24Z</time>
      </trkpt>
      <trkpt lat="45.927684148773551" lon="9.33211955241859">
        <ele>423.60000000000002</ele>
        <time>2017-05-14T14:46:36Z</time>
      </trkpt>
      <trkpt lat="45.927648022770882" lon="9.332092814147472">
        <ele>423.12</ele>
        <time>2017-05-14T14:46:40Z</time>
      </trkpt>
      <trkpt lat="45.927628995850682" lon="9.332043444737792">
        <ele>423.12</ele>
        <time>2017-05-14T14:46:43Z</time>
      </trkpt>
      <trkpt lat="45.927633186802268" lon="9.331969851627946">
        <ele>422.63999999999999</ele>
        <time>2017-05-14T14:46:47Z</time>
      </trkpt>
      <trkpt lat="45.92772270552814" lon="9.331804141402245">
        <ele>422.16000000000003</ele>
        <time>2017-05-14T14:46:59Z</time>
      </trkpt>
      <trkpt lat="45.927724717184901" lon="9.331647735089064">
        <ele>421.19</ele>
        <time>2017-05-14T14:47:10Z</time>
      </trkpt>
      <trkpt lat="45.927652968093753" lon="9.33155762962997">
        <ele>419.26999999999998</ele>
        <time>2017-05-14T14:47:21Z</time>
      </trkpt>
      <trkpt lat="45.927648860961199" lon="9.331543799489737">
        <ele>419.26999999999998</ele>
        <time>2017-05-14T14:47:22Z</time>
      </trkpt>
      <trkpt lat="45.927607538178563" lon="9.331357721239328">
        <ele>418.31</ele>
        <time>2017-05-14T14:47:34Z</time>
      </trkpt>
      <trkpt lat="45.927645172923803" lon="9.331163261085749">
        <ele>417.35000000000002</ele>
        <time>2017-05-14T14:47:48Z</time>
      </trkpt>
      <trkpt lat="45.92769144102931" lon="9.331000652164221">
        <ele>416.38999999999999</ele>
        <time>2017-05-14T14:48:00Z</time>
      </trkpt>
      <trkpt lat="45.927756819874048" lon="9.330886825919151">
        <ele>415.91000000000003</ele>
        <time>2017-05-14T14:48:09Z</time>
      </trkpt>
      <trkpt lat="45.927807530388236" lon="9.33075187727809">
        <ele>415.43000000000001</ele>
        <time>2017-05-14T14:48:18Z</time>
      </trkpt>
      <trkpt lat="45.927811972796917" lon="9.330584323033691">
        <ele>413.98000000000002</ele>
        <time>2017-05-14T14:48:31Z</time>
      </trkpt>
      <trkpt lat="45.927794286981225" lon="9.330530511215329">
        <ele>413.5</ele>
        <time>2017-05-14T14:48:37Z</time>
      </trkpt>
      <trkpt lat="45.927706276997924" lon="9.33047192171216">
        <ele>413.01999999999998</ele>
        <time>2017-05-14T14:48:49Z</time>
      </trkpt>
      <trkpt lat="45.927598653361201" lon="9.330440070480108">
        <ele>412.54000000000002</ele>
        <time>2017-05-14T14:49:02Z</time>
      </trkpt>
      <trkpt lat="45.927571831271052" lon="9.330405620858073">
        <ele>412.06</ele>
        <time>2017-05-14T14:49:06Z</time>
      </trkpt>
      <trkpt lat="45.927547439932823" lon="9.330281568691135">
        <ele>413.01999999999998</ele>
        <time>2017-05-14T14:49:17Z</time>
      </trkpt>
      <trkpt lat="45.927540482953191" lon="9.330168580636382">
        <ele>412.54000000000002</ele>
        <time>2017-05-14T14:49:26Z</time>
      </trkpt>
      <trkpt lat="45.927526736631989" lon="9.330128012225032">
        <ele>412.54000000000002</ele>
        <time>2017-05-14T14:49:40Z</time>
      </trkpt>
      <trkpt lat="45.927532520145178" lon="9.329993985593319">
        <ele>412.06</ele>
        <time>2017-05-14T14:49:54Z</time>
      </trkpt>
      <trkpt lat="45.927555486559868" lon="9.329902036115527">
        <ele>411.57999999999998</ele>
        <time>2017-05-14T14:50:00Z</time>
      </trkpt>
      <trkpt lat="45.927560431882739" lon="9.329842859879136">
        <ele>411.57999999999998</ele>
        <time>2017-05-14T14:50:04Z</time>
      </trkpt>
      <trkpt lat="45.927590942010283" lon="9.329793406650424">
        <ele>411.57999999999998</ele>
        <time>2017-05-14T14:50:08Z</time>
      </trkpt>
      <trkpt lat="45.927570573985577" lon="9.329585116356611">
        <ele>410.13999999999999</ele>
        <time>2017-05-14T14:50:22Z</time>
      </trkpt>
      <trkpt lat="45.927496897056699" lon="9.329402642324567">
        <ele>408.69999999999999</ele>
        <time>2017-05-14T14:50:35Z</time>
      </trkpt>
      <trkpt lat="45.927504440769553" lon="9.329169457778335">
        <ele>406.76999999999998</ele>
        <time>2017-05-14T14:50:48Z</time>
      </trkpt>
      <trkpt lat="45.92749941162765" lon="9.329140707850456">
        <ele>406.76999999999998</ele>
        <time>2017-05-14T14:50:50Z</time>
      </trkpt>
      <trkpt lat="45.927513744682074" lon="9.3289640173316">
        <ele>405.32999999999998</ele>
        <time>2017-05-14T14:51:02Z</time>
      </trkpt>
      <trkpt lat="45.927532017230988" lon="9.328866871073842">
        <ele>404.37</ele>
        <time>2017-05-14T14:51:14Z</time>
      </trkpt>
      <trkpt lat="45.927513241767883" lon="9.328857818618417">
        <ele>404.37</ele>
        <time>2017-05-14T14:51:25Z</time>
      </trkpt>
      <trkpt lat="45.927512403577566" lon="9.328843653202057">
        <ele>403.88999999999999</ele>
        <time>2017-05-14T14:51:33Z</time>
      </trkpt>
      <trkpt lat="45.927502680569887" lon="9.328856728971005">
        <ele>402.93000000000001</ele>
        <time>2017-05-14T14:51:42Z</time>
      </trkpt>
      <trkpt lat="45.927508044987917" lon="9.328848598524928">
        <ele>403.41000000000003</ele>
        <time>2017-05-14T14:52:01Z</time>
      </trkpt>
      <trkpt lat="45.927514750510454" lon="9.328845832496882">
        <ele>403.41000000000003</ele>
        <time>2017-05-14T14:52:25Z</time>
      </trkpt>
      <trkpt lat="45.927518773823977" lon="9.328854382038117">
        <ele>402.93000000000001</ele>
        <time>2017-05-14T14:52:50Z</time>
      </trkpt>
      <trkpt lat="45.927517348900437" lon="9.328868295997381">
        <ele>402.93000000000001</ele>
        <time>2017-05-14T14:53:17Z</time>
      </trkpt>
      <trkpt lat="45.92752237804234" lon="9.328875672072172">
        <ele>402.44999999999999</ele>
        <time>2017-05-14T14:53:38Z</time>
      </trkpt>
      <trkpt lat="45.927519192919135" lon="9.32886972092092">
        <ele>402.44999999999999</ele>
        <time>2017-05-14T14:53:39Z</time>
      </trkpt>
      <trkpt lat="45.927531765773892" lon="9.328856896609068">
        <ele>403.41000000000003</ele>
        <time>2017-05-14T14:53:46Z</time>
      </trkpt>
      <trkpt lat="45.927525563165545" lon="9.3288638535887">
        <ele>403.41000000000003</ele>
        <time>2017-05-14T14:53:53Z</time>
      </trkpt>
      <trkpt lat="45.92753360979259" lon="9.328822363168001">
        <ele>402.93000000000001</ele>
        <time>2017-05-14T14:54:03Z</time>
      </trkpt>
      <trkpt lat="45.927538806572556" lon="9.328778106719255">
        <ele>402.93000000000001</ele>
        <time>2017-05-14T14:54:14Z</time>
      </trkpt>
      <trkpt lat="45.927514415234327" lon="9.32876855134964">
        <ele>402.44999999999999</ele>
        <time>2017-05-14T14:54:29Z</time>
      </trkpt>
      <trkpt lat="45.927545176818967" lon="9.328704681247473">
        <ele>401.97000000000003</ele>
        <time>2017-05-14T14:54:41Z</time>
      </trkpt>
      <trkpt lat="45.927552552893758" lon="9.328688168898225">
        <ele>401.97000000000003</ele>
        <time>2017-05-14T14:54:43Z</time>
      </trkpt>
      <trkpt lat="45.92756730504334" lon="9.328612815588713">
        <ele>401.49000000000001</ele>
        <time>2017-05-14T14:54:49Z</time>
      </trkpt>
      <trkpt lat="45.927566802129149" lon="9.328539222478867">
        <ele>400.52999999999997</ele>
        <time>2017-05-14T14:54:56Z</time>
      </trkpt>
      <trkpt lat="45.927550792694092" lon="9.328499408438802">
        <ele>400.05000000000001</ele>
        <time>2017-05-14T14:54:59Z</time>
      </trkpt>
      <trkpt lat="45.927499160170555" lon="9.328433191403747">
        <ele>399.56999999999999</ele>
        <time>2017-05-14T14:55:06Z</time>
      </trkpt>
      <trkpt lat="45.927466973662376" lon="9.328396478667855">
        <ele>398.60000000000002</ele>
        <time>2017-05-14T14:55:13Z</time>
      </trkpt>
      <trkpt lat="45.92732054181397" lon="9.328277874737978">
        <ele>396.68000000000001</ele>
        <time>2017-05-14T14:55:27Z</time>
      </trkpt>
      <trkpt lat="45.927178217098117" lon="9.328154074028134">
        <ele>395.72000000000003</ele>
        <time>2017-05-14T14:55:41Z</time>
      </trkpt>
      <trkpt lat="45.927170589566231" lon="9.32814602740109">
        <ele>395.72000000000003</ele>
        <time>2017-05-14T14:55:42Z</time>
      </trkpt>
      <trkpt lat="45.927079226821661" lon="9.328061789274216">
        <ele>393.31999999999999</ele>
        <time>2017-05-14T14:55:52Z</time>
      </trkpt>
      <trkpt lat="45.926929106935859" lon="9.328062208369374">
        <ele>391.87</ele>
        <time>2017-05-14T14:56:06Z</time>
      </trkpt>
    </trkseg>
  </trk>

</gpx>